<?xml version="1.0" encoding="UTF-8" standalone="no" ?>
<gpx xmlns="http://www.topografix.com/GPX/1/1" xmlns:xsi="http://www.w3.org/2001/XMLSchema-instance" xsi:schemaLocation="http://www.topografix.com/GPX/1/1 http://www.topografix.com/GPX/1/1/gpx.xsd" version="1.1" creator="VisuGPX - https://www.visugpx.com">
  <metadata>
    <name>Aumessas - Lac des Pises</name>
    <desc><![CDATA[2019-06 - Aumessas - col des Portes - Lac des Pises - col de l'Homme mort

[b]album[/b] : [url]https://photos.app.goo.gl/fAvoPe9FK3xtZYoRA[/url]

[img]https://blogger.googleusercontent.com/img/b/R29vZ2xl/AVvXsEiwDuX5QS-QHY-Jz26InzW9WanAHE82EnrnTL7b-loXYVOxXCDqmcqb0EX88HjpxDjk7sKlU_XccHYWZXXuGhuJZCVI_lyqbI9gBQE3wSFnHDH1dDQj5j-gjTW9Uuc2j2ZhKoIXj36YuOKNQTrXSPrvbQbgIfwg-GAgbQY4kNh_vpJFyJcAWiz_wWQAt63b/s600/2019-06-12%20Aumessas%20-%20lac%20des%20Pises.JPG[/img]

[b]Idées de randonnées dans la même région[/b]
Parcours : [url]https://www.visugpx.com/membres/24856/montagne/aigoual/[/url]
Photos : [url]https://jcvertygo.blogspot.com/p/mont-aigoual.html[/url]]]></desc>
  </metadata>
  <trk>
    <name><![CDATA[SityTrail - aumessas - lac des pises]]></name>
    <extensions>
      <line xmlns="http://www.topografix.com/GPX/gpx_style/0/2">
        <color>0000FF</color>
        <width>4</width>
      </line>
    </extensions>
    <trkseg>
      <trkpt lat="43.99107" lon="3.50401">
        <ele>461</ele>
        <time>2021-06-27T08:52:50.502Z</time>
      </trkpt>
      <trkpt lat="43.99105" lon="3.50407">
        <ele>465</ele>
        <time>2021-06-27T08:52:50.698Z</time>
      </trkpt>
      <trkpt lat="43.99109" lon="3.50396">
        <ele>461</ele>
        <time>2021-06-27T08:52:54.705Z</time>
      </trkpt>
      <trkpt lat="43.99108" lon="3.50395">
        <ele>461</ele>
        <time>2021-06-27T08:52:58.715Z</time>
      </trkpt>
      <trkpt lat="43.99109" lon="3.50393">
        <ele>461</ele>
        <time>2021-06-27T08:53:08.712Z</time>
      </trkpt>
      <trkpt lat="43.99112" lon="3.50384">
        <ele>461</ele>
        <time>2021-06-27T08:53:13.736Z</time>
      </trkpt>
      <trkpt lat="43.99115" lon="3.50378">
        <ele>461</ele>
        <time>2021-06-27T08:53:17.720Z</time>
      </trkpt>
      <trkpt lat="43.9912" lon="3.5037">
        <ele>460</ele>
        <time>2021-06-27T08:53:22.701Z</time>
      </trkpt>
      <trkpt lat="43.99126" lon="3.50364">
        <ele>461</ele>
        <time>2021-06-27T08:53:27.710Z</time>
      </trkpt>
      <trkpt lat="43.99129" lon="3.5036">
        <ele>461</ele>
        <time>2021-06-27T08:53:32.714Z</time>
      </trkpt>
      <trkpt lat="43.99131" lon="3.5036">
        <ele>461</ele>
        <time>2021-06-27T08:53:37.709Z</time>
      </trkpt>
      <trkpt lat="43.99136" lon="3.50364">
        <ele>461</ele>
        <time>2021-06-27T08:53:42.711Z</time>
      </trkpt>
      <trkpt lat="43.99141" lon="3.50371">
        <ele>461</ele>
        <time>2021-06-27T08:53:47.750Z</time>
      </trkpt>
      <trkpt lat="43.99147" lon="3.50377">
        <ele>463</ele>
        <time>2021-06-27T08:53:52.719Z</time>
      </trkpt>
      <trkpt lat="43.99157" lon="3.50382">
        <ele>467</ele>
        <time>2021-06-27T08:53:57.728Z</time>
      </trkpt>
      <trkpt lat="43.99161" lon="3.50377">
        <ele>467</ele>
        <time>2021-06-27T08:54:02.699Z</time>
      </trkpt>
      <trkpt lat="43.99164" lon="3.50372">
        <ele>463</ele>
        <time>2021-06-27T08:54:06.720Z</time>
      </trkpt>
      <trkpt lat="43.99168" lon="3.50363">
        <ele>463</ele>
        <time>2021-06-27T08:54:11.719Z</time>
      </trkpt>
      <trkpt lat="43.99171" lon="3.5036">
        <ele>463</ele>
        <time>2021-06-27T08:54:15.722Z</time>
      </trkpt>
      <trkpt lat="43.99171" lon="3.50349">
        <ele>463</ele>
        <time>2021-06-27T08:54:20.729Z</time>
      </trkpt>
      <trkpt lat="43.99174" lon="3.50344">
        <ele>462</ele>
        <time>2021-06-27T08:54:25.701Z</time>
      </trkpt>
      <trkpt lat="43.99176" lon="3.50343">
        <ele>462</ele>
        <time>2021-06-27T08:54:29.698Z</time>
      </trkpt>
      <trkpt lat="43.99178" lon="3.50342">
        <ele>462</ele>
        <time>2021-06-27T08:54:34.698Z</time>
      </trkpt>
      <trkpt lat="43.99179" lon="3.50335">
        <ele>462</ele>
        <time>2021-06-27T08:54:38.702Z</time>
      </trkpt>
      <trkpt lat="43.99174" lon="3.50328">
        <ele>462</ele>
        <time>2021-06-27T08:54:43.710Z</time>
      </trkpt>
      <trkpt lat="43.99174" lon="3.50323">
        <ele>462</ele>
        <time>2021-06-27T08:54:47.721Z</time>
      </trkpt>
      <trkpt lat="43.99176" lon="3.50314">
        <ele>461</ele>
        <time>2021-06-27T08:54:52.720Z</time>
      </trkpt>
      <trkpt lat="43.99181" lon="3.50317">
        <ele>463</ele>
        <time>2021-06-27T08:54:57.723Z</time>
      </trkpt>
      <trkpt lat="43.9918" lon="3.50309">
        <ele>461</ele>
        <time>2021-06-27T08:55:02.700Z</time>
      </trkpt>
      <trkpt lat="43.9918" lon="3.503">
        <ele>461</ele>
        <time>2021-06-27T08:55:06.728Z</time>
      </trkpt>
      <trkpt lat="43.99189" lon="3.50299">
        <ele>463</ele>
        <time>2021-06-27T08:55:11.723Z</time>
      </trkpt>
      <trkpt lat="43.99198" lon="3.50302">
        <ele>463</ele>
        <time>2021-06-27T08:55:16.714Z</time>
      </trkpt>
      <trkpt lat="43.99203" lon="3.50295">
        <ele>463</ele>
        <time>2021-06-27T08:55:21.703Z</time>
      </trkpt>
      <trkpt lat="43.99216" lon="3.50243">
        <ele>464</ele>
        <time>2021-06-27T08:56:30.713Z</time>
      </trkpt>
      <trkpt lat="43.99218" lon="3.50241">
        <ele>464</ele>
        <time>2021-06-27T08:56:35.724Z</time>
      </trkpt>
      <trkpt lat="43.99224" lon="3.50239">
        <ele>464</ele>
        <time>2021-06-27T08:56:40.725Z</time>
      </trkpt>
      <trkpt lat="43.99229" lon="3.50238">
        <ele>464</ele>
        <time>2021-06-27T08:56:45.718Z</time>
      </trkpt>
      <trkpt lat="43.99234" lon="3.50238">
        <ele>464</ele>
        <time>2021-06-27T08:56:50.712Z</time>
      </trkpt>
      <trkpt lat="43.99236" lon="3.50239">
        <ele>467</ele>
        <time>2021-06-27T08:56:54.723Z</time>
      </trkpt>
      <trkpt lat="43.9924" lon="3.50239">
        <ele>467</ele>
        <time>2021-06-27T08:56:59.724Z</time>
      </trkpt>
      <trkpt lat="43.99243" lon="3.50242">
        <ele>467</ele>
        <time>2021-06-27T08:57:04.722Z</time>
      </trkpt>
      <trkpt lat="43.99246" lon="3.50249">
        <ele>467</ele>
        <time>2021-06-27T08:57:09.726Z</time>
      </trkpt>
      <trkpt lat="43.99249" lon="3.50249">
        <ele>467</ele>
        <time>2021-06-27T08:57:14.723Z</time>
      </trkpt>
      <trkpt lat="43.9925" lon="3.50242">
        <ele>467</ele>
        <time>2021-06-27T08:57:19.707Z</time>
      </trkpt>
      <trkpt lat="43.99259" lon="3.50252">
        <ele>467</ele>
        <time>2021-06-27T08:57:23.723Z</time>
      </trkpt>
      <trkpt lat="43.99263" lon="3.50247">
        <ele>467</ele>
        <time>2021-06-27T08:57:27.701Z</time>
      </trkpt>
      <trkpt lat="43.99266" lon="3.50245">
        <ele>469</ele>
        <time>2021-06-27T08:57:32.701Z</time>
      </trkpt>
      <trkpt lat="43.99267" lon="3.50245">
        <ele>469</ele>
        <time>2021-06-27T08:57:37.699Z</time>
      </trkpt>
      <trkpt lat="43.99271" lon="3.50246">
        <ele>469</ele>
        <time>2021-06-27T08:57:51.714Z</time>
      </trkpt>
      <trkpt lat="43.99273" lon="3.50247">
        <ele>469</ele>
        <time>2021-06-27T08:59:11.714Z</time>
      </trkpt>
      <trkpt lat="43.9928" lon="3.50252">
        <ele>469</ele>
        <time>2021-06-27T08:59:16.698Z</time>
      </trkpt>
      <trkpt lat="43.99288" lon="3.50255">
        <ele>469</ele>
        <time>2021-06-27T08:59:39.724Z</time>
      </trkpt>
      <trkpt lat="43.99293" lon="3.50251">
        <ele>471</ele>
        <time>2021-06-27T08:59:44.725Z</time>
      </trkpt>
      <trkpt lat="43.99297" lon="3.50247">
        <ele>471</ele>
        <time>2021-06-27T08:59:49.719Z</time>
      </trkpt>
      <trkpt lat="43.99299" lon="3.50248">
        <ele>471</ele>
        <time>2021-06-27T08:59:54.722Z</time>
      </trkpt>
      <trkpt lat="43.99306" lon="3.5025">
        <ele>471</ele>
        <time>2021-06-27T08:59:59.716Z</time>
      </trkpt>
      <trkpt lat="43.9931" lon="3.50252">
        <ele>471</ele>
        <time>2021-06-27T09:00:04.744Z</time>
      </trkpt>
      <trkpt lat="43.99315" lon="3.50251">
        <ele>471</ele>
        <time>2021-06-27T09:00:09.714Z</time>
      </trkpt>
      <trkpt lat="43.99319" lon="3.50252">
        <ele>471</ele>
        <time>2021-06-27T09:00:13.720Z</time>
      </trkpt>
      <trkpt lat="43.99324" lon="3.50248">
        <ele>474</ele>
        <time>2021-06-27T09:00:18.713Z</time>
      </trkpt>
      <trkpt lat="43.9933" lon="3.50243">
        <ele>474</ele>
        <time>2021-06-27T09:00:22.738Z</time>
      </trkpt>
      <trkpt lat="43.99335" lon="3.50244">
        <ele>474</ele>
        <time>2021-06-27T09:00:27.728Z</time>
      </trkpt>
      <trkpt lat="43.9934" lon="3.50245">
        <ele>474</ele>
        <time>2021-06-27T09:00:32.726Z</time>
      </trkpt>
      <trkpt lat="43.99344" lon="3.50243">
        <ele>474</ele>
        <time>2021-06-27T09:00:37.724Z</time>
      </trkpt>
      <trkpt lat="43.99348" lon="3.50243">
        <ele>479</ele>
        <time>2021-06-27T09:00:42.727Z</time>
      </trkpt>
      <trkpt lat="43.99352" lon="3.50245">
        <ele>479</ele>
        <time>2021-06-27T09:00:47.729Z</time>
      </trkpt>
      <trkpt lat="43.99357" lon="3.50244">
        <ele>479</ele>
        <time>2021-06-27T09:00:52.729Z</time>
      </trkpt>
      <trkpt lat="43.99362" lon="3.50236">
        <ele>478</ele>
        <time>2021-06-27T09:00:57.728Z</time>
      </trkpt>
      <trkpt lat="43.99365" lon="3.50228">
        <ele>478</ele>
        <time>2021-06-27T09:01:02.728Z</time>
      </trkpt>
      <trkpt lat="43.99368" lon="3.50221">
        <ele>478</ele>
        <time>2021-06-27T09:01:07.723Z</time>
      </trkpt>
      <trkpt lat="43.9937" lon="3.50215">
        <ele>478</ele>
        <time>2021-06-27T09:01:11.752Z</time>
      </trkpt>
      <trkpt lat="43.99374" lon="3.5021">
        <ele>478</ele>
        <time>2021-06-27T09:01:16.730Z</time>
      </trkpt>
      <trkpt lat="43.99377" lon="3.50208">
        <ele>478</ele>
        <time>2021-06-27T09:01:21.728Z</time>
      </trkpt>
      <trkpt lat="43.9938" lon="3.5021">
        <ele>479</ele>
        <time>2021-06-27T09:01:25.730Z</time>
      </trkpt>
      <trkpt lat="43.99382" lon="3.50211">
        <ele>479</ele>
        <time>2021-06-27T09:01:30.720Z</time>
      </trkpt>
      <trkpt lat="43.99384" lon="3.50217">
        <ele>479</ele>
        <time>2021-06-27T09:01:35.729Z</time>
      </trkpt>
      <trkpt lat="43.99388" lon="3.5022">
        <ele>479</ele>
        <time>2021-06-27T09:01:40.726Z</time>
      </trkpt>
      <trkpt lat="43.9939" lon="3.50216">
        <ele>479</ele>
        <time>2021-06-27T09:01:45.728Z</time>
      </trkpt>
      <trkpt lat="43.99395" lon="3.50212">
        <ele>479</ele>
        <time>2021-06-27T09:01:50.700Z</time>
      </trkpt>
      <trkpt lat="43.99397" lon="3.50207">
        <ele>478</ele>
        <time>2021-06-27T09:01:54.718Z</time>
      </trkpt>
      <trkpt lat="43.99399" lon="3.50204">
        <ele>478</ele>
        <time>2021-06-27T09:01:58.721Z</time>
      </trkpt>
      <trkpt lat="43.994" lon="3.50199">
        <ele>478</ele>
        <time>2021-06-27T09:02:08.722Z</time>
      </trkpt>
      <trkpt lat="43.99399" lon="3.50192">
        <ele>478</ele>
        <time>2021-06-27T09:02:12.726Z</time>
      </trkpt>
      <trkpt lat="43.99399" lon="3.50182">
        <ele>478</ele>
        <time>2021-06-27T09:02:17.721Z</time>
      </trkpt>
      <trkpt lat="43.99398" lon="3.50175">
        <ele>476</ele>
        <time>2021-06-27T09:02:21.728Z</time>
      </trkpt>
      <trkpt lat="43.99404" lon="3.5017">
        <ele>478</ele>
        <time>2021-06-27T09:02:26.705Z</time>
      </trkpt>
      <trkpt lat="43.99407" lon="3.50168">
        <ele>478</ele>
        <time>2021-06-27T09:02:30.730Z</time>
      </trkpt>
      <trkpt lat="43.99409" lon="3.50165">
        <ele>478</ele>
        <time>2021-06-27T09:02:34.725Z</time>
      </trkpt>
      <trkpt lat="43.99414" lon="3.50163">
        <ele>478</ele>
        <time>2021-06-27T09:02:39.715Z</time>
      </trkpt>
      <trkpt lat="43.99414" lon="3.50162">
        <ele>478</ele>
        <time>2021-06-27T09:02:43.735Z</time>
      </trkpt>
      <trkpt lat="43.99417" lon="3.50158">
        <ele>478</ele>
        <time>2021-06-27T09:03:08.729Z</time>
      </trkpt>
      <trkpt lat="43.99421" lon="3.50158">
        <ele>478</ele>
        <time>2021-06-27T09:03:13.722Z</time>
      </trkpt>
      <trkpt lat="43.99426" lon="3.50158">
        <ele>478</ele>
        <time>2021-06-27T09:03:18.721Z</time>
      </trkpt>
      <trkpt lat="43.99432" lon="3.50157">
        <ele>482</ele>
        <time>2021-06-27T09:03:23.720Z</time>
      </trkpt>
      <trkpt lat="43.99437" lon="3.50156">
        <ele>482</ele>
        <time>2021-06-27T09:03:28.729Z</time>
      </trkpt>
      <trkpt lat="43.99442" lon="3.50149">
        <ele>480</ele>
        <time>2021-06-27T09:03:33.718Z</time>
      </trkpt>
      <trkpt lat="43.99446" lon="3.50144">
        <ele>480</ele>
        <time>2021-06-27T09:03:38.718Z</time>
      </trkpt>
      <trkpt lat="43.99451" lon="3.5014">
        <ele>480</ele>
        <time>2021-06-27T09:03:43.724Z</time>
      </trkpt>
      <trkpt lat="43.99454" lon="3.50137">
        <ele>480</ele>
        <time>2021-06-27T09:03:47.729Z</time>
      </trkpt>
      <trkpt lat="43.99457" lon="3.50136">
        <ele>480</ele>
        <time>2021-06-27T09:03:52.721Z</time>
      </trkpt>
      <trkpt lat="43.99459" lon="3.50135">
        <ele>486</ele>
        <time>2021-06-27T09:03:57.723Z</time>
      </trkpt>
      <trkpt lat="43.9946" lon="3.50133">
        <ele>486</ele>
        <time>2021-06-27T09:04:02.728Z</time>
      </trkpt>
      <trkpt lat="43.99465" lon="3.50126">
        <ele>486</ele>
        <time>2021-06-27T09:04:07.722Z</time>
      </trkpt>
      <trkpt lat="43.99467" lon="3.50125">
        <ele>485</ele>
        <time>2021-06-27T09:04:11.727Z</time>
      </trkpt>
      <trkpt lat="43.9947" lon="3.50125">
        <ele>486</ele>
        <time>2021-06-27T09:04:16.725Z</time>
      </trkpt>
      <trkpt lat="43.99476" lon="3.50123">
        <ele>485</ele>
        <time>2021-06-27T09:04:21.726Z</time>
      </trkpt>
      <trkpt lat="43.99482" lon="3.50122">
        <ele>485</ele>
        <time>2021-06-27T09:04:25.728Z</time>
      </trkpt>
      <trkpt lat="43.99486" lon="3.50119">
        <ele>485</ele>
        <time>2021-06-27T09:04:30.727Z</time>
      </trkpt>
      <trkpt lat="43.99488" lon="3.50114">
        <ele>489</ele>
        <time>2021-06-27T09:04:34.727Z</time>
      </trkpt>
      <trkpt lat="43.99491" lon="3.50113">
        <ele>489</ele>
        <time>2021-06-27T09:04:38.750Z</time>
      </trkpt>
      <trkpt lat="43.99495" lon="3.50107">
        <ele>489</ele>
        <time>2021-06-27T09:04:43.728Z</time>
      </trkpt>
      <trkpt lat="43.995" lon="3.50105">
        <ele>489</ele>
        <time>2021-06-27T09:04:48.721Z</time>
      </trkpt>
      <trkpt lat="43.99504" lon="3.50104">
        <ele>489</ele>
        <time>2021-06-27T09:04:53.727Z</time>
      </trkpt>
      <trkpt lat="43.99506" lon="3.50106">
        <ele>489</ele>
        <time>2021-06-27T09:04:57.729Z</time>
      </trkpt>
      <trkpt lat="43.99508" lon="3.50108">
        <ele>489</ele>
        <time>2021-06-27T09:05:02.711Z</time>
      </trkpt>
      <trkpt lat="43.99512" lon="3.50109">
        <ele>489</ele>
        <time>2021-06-27T09:05:07.727Z</time>
      </trkpt>
      <trkpt lat="43.99515" lon="3.5011">
        <ele>490</ele>
        <time>2021-06-27T09:05:12.706Z</time>
      </trkpt>
      <trkpt lat="43.99518" lon="3.50114">
        <ele>490</ele>
        <time>2021-06-27T09:05:16.727Z</time>
      </trkpt>
      <trkpt lat="43.99521" lon="3.50114">
        <ele>490</ele>
        <time>2021-06-27T09:05:21.728Z</time>
      </trkpt>
      <trkpt lat="43.99523" lon="3.50114">
        <ele>490</ele>
        <time>2021-06-27T09:05:25.733Z</time>
      </trkpt>
      <trkpt lat="43.99529" lon="3.50116">
        <ele>490</ele>
        <time>2021-06-27T09:05:30.759Z</time>
      </trkpt>
      <trkpt lat="43.99534" lon="3.50117">
        <ele>490</ele>
        <time>2021-06-27T09:05:35.717Z</time>
      </trkpt>
      <trkpt lat="43.99538" lon="3.50116">
        <ele>490</ele>
        <time>2021-06-27T09:05:39.729Z</time>
      </trkpt>
      <trkpt lat="43.99543" lon="3.50116">
        <ele>491</ele>
        <time>2021-06-27T09:05:44.717Z</time>
      </trkpt>
      <trkpt lat="43.99547" lon="3.50115">
        <ele>491</ele>
        <time>2021-06-27T09:05:49.720Z</time>
      </trkpt>
      <trkpt lat="43.99552" lon="3.50115">
        <ele>491</ele>
        <time>2021-06-27T09:05:53.746Z</time>
      </trkpt>
      <trkpt lat="43.99555" lon="3.50111">
        <ele>491</ele>
        <time>2021-06-27T09:05:58.726Z</time>
      </trkpt>
      <trkpt lat="43.9956" lon="3.50111">
        <ele>491</ele>
        <time>2021-06-27T09:06:03.728Z</time>
      </trkpt>
      <trkpt lat="43.99562" lon="3.50109">
        <ele>491</ele>
        <time>2021-06-27T09:06:08.728Z</time>
      </trkpt>
      <trkpt lat="43.99564" lon="3.50102">
        <ele>491</ele>
        <time>2021-06-27T09:06:13.719Z</time>
      </trkpt>
      <trkpt lat="43.99571" lon="3.50098">
        <ele>495</ele>
        <time>2021-06-27T09:06:18.711Z</time>
      </trkpt>
      <trkpt lat="43.99574" lon="3.50099">
        <ele>495</ele>
        <time>2021-06-27T09:06:22.722Z</time>
      </trkpt>
      <trkpt lat="43.99574" lon="3.50098">
        <ele>495</ele>
        <time>2021-06-27T09:06:27.725Z</time>
      </trkpt>
      <trkpt lat="43.9958" lon="3.50098">
        <ele>495</ele>
        <time>2021-06-27T09:06:31.757Z</time>
      </trkpt>
      <trkpt lat="43.99589" lon="3.50101">
        <ele>495</ele>
        <time>2021-06-27T09:06:36.720Z</time>
      </trkpt>
      <trkpt lat="43.99592" lon="3.50103">
        <ele>495</ele>
        <time>2021-06-27T09:06:41.736Z</time>
      </trkpt>
      <trkpt lat="43.99595" lon="3.50101">
        <ele>495</ele>
        <time>2021-06-27T09:06:46.722Z</time>
      </trkpt>
      <trkpt lat="43.99601" lon="3.50101">
        <ele>498</ele>
        <time>2021-06-27T09:06:50.728Z</time>
      </trkpt>
      <trkpt lat="43.99606" lon="3.50107">
        <ele>498</ele>
        <time>2021-06-27T09:07:44.721Z</time>
      </trkpt>
      <trkpt lat="43.99607" lon="3.50111">
        <ele>498</ele>
        <time>2021-06-27T09:07:49.720Z</time>
      </trkpt>
      <trkpt lat="43.99612" lon="3.50116">
        <ele>498</ele>
        <time>2021-06-27T09:08:03.730Z</time>
      </trkpt>
      <trkpt lat="43.99618" lon="3.5012">
        <ele>498</ele>
        <time>2021-06-27T09:08:08.698Z</time>
      </trkpt>
      <trkpt lat="43.99621" lon="3.50122">
        <ele>498</ele>
        <time>2021-06-27T09:08:12.728Z</time>
      </trkpt>
      <trkpt lat="43.99623" lon="3.50126">
        <ele>503</ele>
        <time>2021-06-27T09:08:17.730Z</time>
      </trkpt>
      <trkpt lat="43.99627" lon="3.50129">
        <ele>503</ele>
        <time>2021-06-27T09:08:27.728Z</time>
      </trkpt>
      <trkpt lat="43.99628" lon="3.50129">
        <ele>503</ele>
        <time>2021-06-27T09:08:32.725Z</time>
      </trkpt>
      <trkpt lat="43.99633" lon="3.50132">
        <ele>503</ele>
        <time>2021-06-27T09:08:47.722Z</time>
      </trkpt>
      <trkpt lat="43.99638" lon="3.50135">
        <ele>503</ele>
        <time>2021-06-27T09:08:52.727Z</time>
      </trkpt>
      <trkpt lat="43.99639" lon="3.50136">
        <ele>503</ele>
        <time>2021-06-27T09:08:56.728Z</time>
      </trkpt>
      <trkpt lat="43.99643" lon="3.50139">
        <ele>503</ele>
        <time>2021-06-27T09:09:05.728Z</time>
      </trkpt>
      <trkpt lat="43.99647" lon="3.50141">
        <ele>503</ele>
        <time>2021-06-27T09:09:10.728Z</time>
      </trkpt>
      <trkpt lat="43.99654" lon="3.50145">
        <ele>506</ele>
        <time>2021-06-27T09:09:15.717Z</time>
      </trkpt>
      <trkpt lat="43.99658" lon="3.50149">
        <ele>506</ele>
        <time>2021-06-27T09:09:25.722Z</time>
      </trkpt>
      <trkpt lat="43.99659" lon="3.50149">
        <ele>506</ele>
        <time>2021-06-27T09:09:29.728Z</time>
      </trkpt>
      <trkpt lat="43.99671" lon="3.5015">
        <ele>506</ele>
        <time>2021-06-27T09:09:34.722Z</time>
      </trkpt>
      <trkpt lat="43.99682" lon="3.5015">
        <ele>511</ele>
        <time>2021-06-27T09:09:39.714Z</time>
      </trkpt>
      <trkpt lat="43.99689" lon="3.50151">
        <ele>511</ele>
        <time>2021-06-27T09:09:44.723Z</time>
      </trkpt>
      <trkpt lat="43.99693" lon="3.50155">
        <ele>516</ele>
        <time>2021-06-27T09:09:49.727Z</time>
      </trkpt>
      <trkpt lat="43.99698" lon="3.50156">
        <ele>516</ele>
        <time>2021-06-27T09:09:54.728Z</time>
      </trkpt>
      <trkpt lat="43.99702" lon="3.50154">
        <ele>516</ele>
        <time>2021-06-27T09:09:59.723Z</time>
      </trkpt>
      <trkpt lat="43.99705" lon="3.5015">
        <ele>511</ele>
        <time>2021-06-27T09:10:03.728Z</time>
      </trkpt>
      <trkpt lat="43.99707" lon="3.50152">
        <ele>511</ele>
        <time>2021-06-27T09:10:08.724Z</time>
      </trkpt>
      <trkpt lat="43.99711" lon="3.50149">
        <ele>517</ele>
        <time>2021-06-27T09:10:12.728Z</time>
      </trkpt>
      <trkpt lat="43.99716" lon="3.50148">
        <ele>517</ele>
        <time>2021-06-27T09:10:22.754Z</time>
      </trkpt>
      <trkpt lat="43.99726" lon="3.50148">
        <ele>517</ele>
        <time>2021-06-27T09:10:27.747Z</time>
      </trkpt>
      <trkpt lat="43.99732" lon="3.5014">
        <ele>517</ele>
        <time>2021-06-27T09:10:32.721Z</time>
      </trkpt>
      <trkpt lat="43.99734" lon="3.50137">
        <ele>517</ele>
        <time>2021-06-27T09:10:37.720Z</time>
      </trkpt>
      <trkpt lat="43.99735" lon="3.50136">
        <ele>517</ele>
        <time>2021-06-27T09:10:57.721Z</time>
      </trkpt>
      <trkpt lat="43.99742" lon="3.50135">
        <ele>526</ele>
        <time>2021-06-27T09:11:02.729Z</time>
      </trkpt>
      <trkpt lat="43.99747" lon="3.50134">
        <ele>526</ele>
        <time>2021-06-27T09:11:07.728Z</time>
      </trkpt>
      <trkpt lat="43.99751" lon="3.50133">
        <ele>526</ele>
        <time>2021-06-27T09:11:12.728Z</time>
      </trkpt>
      <trkpt lat="43.99759" lon="3.50132">
        <ele>526</ele>
        <time>2021-06-27T09:11:17.722Z</time>
      </trkpt>
      <trkpt lat="43.99768" lon="3.50133">
        <ele>530</ele>
        <time>2021-06-27T09:11:22.726Z</time>
      </trkpt>
      <trkpt lat="43.99773" lon="3.50133">
        <ele>530</ele>
        <time>2021-06-27T09:11:26.721Z</time>
      </trkpt>
      <trkpt lat="43.99782" lon="3.50131">
        <ele>530</ele>
        <time>2021-06-27T09:11:31.725Z</time>
      </trkpt>
      <trkpt lat="43.99787" lon="3.50131">
        <ele>530</ele>
        <time>2021-06-27T09:11:36.702Z</time>
      </trkpt>
      <trkpt lat="43.9979" lon="3.50131">
        <ele>530</ele>
        <time>2021-06-27T09:11:40.728Z</time>
      </trkpt>
      <trkpt lat="43.99791" lon="3.50131">
        <ele>530</ele>
        <time>2021-06-27T09:11:45.721Z</time>
      </trkpt>
      <trkpt lat="43.99793" lon="3.50128">
        <ele>538</ele>
        <time>2021-06-27T09:11:50.732Z</time>
      </trkpt>
      <trkpt lat="43.99795" lon="3.5012">
        <ele>533</ele>
        <time>2021-06-27T09:11:55.714Z</time>
      </trkpt>
      <trkpt lat="43.998" lon="3.50119">
        <ele>533</ele>
        <time>2021-06-27T09:11:59.730Z</time>
      </trkpt>
      <trkpt lat="43.99801" lon="3.50112">
        <ele>533</ele>
        <time>2021-06-27T09:12:04.720Z</time>
      </trkpt>
      <trkpt lat="43.99801" lon="3.50109">
        <ele>533</ele>
        <time>2021-06-27T09:12:09.750Z</time>
      </trkpt>
      <trkpt lat="43.99803" lon="3.50108">
        <ele>533</ele>
        <time>2021-06-27T09:12:14.722Z</time>
      </trkpt>
      <trkpt lat="43.99807" lon="3.50108">
        <ele>533</ele>
        <time>2021-06-27T09:12:18.736Z</time>
      </trkpt>
      <trkpt lat="43.99809" lon="3.50108">
        <ele>533</ele>
        <time>2021-06-27T09:12:23.751Z</time>
      </trkpt>
      <trkpt lat="43.9981" lon="3.50107">
        <ele>533</ele>
        <time>2021-06-27T09:12:28.716Z</time>
      </trkpt>
      <trkpt lat="43.99814" lon="3.501">
        <ele>533</ele>
        <time>2021-06-27T09:12:33.724Z</time>
      </trkpt>
      <trkpt lat="43.99818" lon="3.50095">
        <ele>534</ele>
        <time>2021-06-27T09:12:38.719Z</time>
      </trkpt>
      <trkpt lat="43.99818" lon="3.50086">
        <ele>534</ele>
        <time>2021-06-27T09:12:43.721Z</time>
      </trkpt>
      <trkpt lat="43.99818" lon="3.50084">
        <ele>534</ele>
        <time>2021-06-27T09:12:48.718Z</time>
      </trkpt>
      <trkpt lat="43.99821" lon="3.50081">
        <ele>542</ele>
        <time>2021-06-27T09:13:08.726Z</time>
      </trkpt>
      <trkpt lat="43.99829" lon="3.50066">
        <ele>543</ele>
        <time>2021-06-27T09:13:13.720Z</time>
      </trkpt>
      <trkpt lat="43.99833" lon="3.5006">
        <ele>543</ele>
        <time>2021-06-27T09:13:18.722Z</time>
      </trkpt>
      <trkpt lat="43.99837" lon="3.5006">
        <ele>543</ele>
        <time>2021-06-27T09:14:16.721Z</time>
      </trkpt>
      <trkpt lat="43.99838" lon="3.50061">
        <ele>543</ele>
        <time>2021-06-27T09:14:21.722Z</time>
      </trkpt>
      <trkpt lat="43.9984" lon="3.5006">
        <ele>543</ele>
        <time>2021-06-27T09:14:26.714Z</time>
      </trkpt>
      <trkpt lat="43.99847" lon="3.50058">
        <ele>543</ele>
        <time>2021-06-27T09:14:30.731Z</time>
      </trkpt>
      <trkpt lat="43.99853" lon="3.50056">
        <ele>550</ele>
        <time>2021-06-27T09:14:34.723Z</time>
      </trkpt>
      <trkpt lat="43.9986" lon="3.50055">
        <ele>550</ele>
        <time>2021-06-27T09:14:39.729Z</time>
      </trkpt>
      <trkpt lat="43.99862" lon="3.50055">
        <ele>550</ele>
        <time>2021-06-27T09:14:44.720Z</time>
      </trkpt>
      <trkpt lat="43.99864" lon="3.50054">
        <ele>550</ele>
        <time>2021-06-27T09:14:48.723Z</time>
      </trkpt>
      <trkpt lat="43.99864" lon="3.50053">
        <ele>550</ele>
        <time>2021-06-27T09:14:53.718Z</time>
      </trkpt>
      <trkpt lat="43.99866" lon="3.50053">
        <ele>550</ele>
        <time>2021-06-27T09:14:57.727Z</time>
      </trkpt>
      <trkpt lat="43.9987" lon="3.50054">
        <ele>550</ele>
        <time>2021-06-27T09:15:12.717Z</time>
      </trkpt>
      <trkpt lat="43.99874" lon="3.50054">
        <ele>550</ele>
        <time>2021-06-27T09:15:21.718Z</time>
      </trkpt>
      <trkpt lat="43.99875" lon="3.50054">
        <ele>550</ele>
        <time>2021-06-27T09:15:26.698Z</time>
      </trkpt>
      <trkpt lat="43.99876" lon="3.50051">
        <ele>557</ele>
        <time>2021-06-27T09:15:45.698Z</time>
      </trkpt>
      <trkpt lat="43.99885" lon="3.50051">
        <ele>557</ele>
        <time>2021-06-27T09:15:50.728Z</time>
      </trkpt>
      <trkpt lat="43.99888" lon="3.50049">
        <ele>557</ele>
        <time>2021-06-27T09:16:15.749Z</time>
      </trkpt>
      <trkpt lat="43.9989" lon="3.50044">
        <ele>557</ele>
        <time>2021-06-27T09:16:20.723Z</time>
      </trkpt>
      <trkpt lat="43.99891" lon="3.50045">
        <ele>557</ele>
        <time>2021-06-27T09:16:29.725Z</time>
      </trkpt>
      <trkpt lat="43.99893" lon="3.50046">
        <ele>557</ele>
        <time>2021-06-27T09:16:34.715Z</time>
      </trkpt>
      <trkpt lat="43.99895" lon="3.50042">
        <ele>557</ele>
        <time>2021-06-27T09:16:39.739Z</time>
      </trkpt>
      <trkpt lat="43.99897" lon="3.50035">
        <ele>558</ele>
        <time>2021-06-27T09:16:44.726Z</time>
      </trkpt>
      <trkpt lat="43.99898" lon="3.50034">
        <ele>558</ele>
        <time>2021-06-27T09:16:49.722Z</time>
      </trkpt>
      <trkpt lat="43.99899" lon="3.50027">
        <ele>558</ele>
        <time>2021-06-27T09:16:54.718Z</time>
      </trkpt>
      <trkpt lat="43.99899" lon="3.50026">
        <ele>558</ele>
        <time>2021-06-27T09:16:58.719Z</time>
      </trkpt>
      <trkpt lat="43.99898" lon="3.50022">
        <ele>558</ele>
        <time>2021-06-27T09:17:03.718Z</time>
      </trkpt>
      <trkpt lat="43.99897" lon="3.50017">
        <ele>558</ele>
        <time>2021-06-27T09:17:08.714Z</time>
      </trkpt>
      <trkpt lat="43.99901" lon="3.50013">
        <ele>556</ele>
        <time>2021-06-27T09:17:13.718Z</time>
      </trkpt>
      <trkpt lat="43.99902" lon="3.50009">
        <ele>556</ele>
        <time>2021-06-27T09:17:22.709Z</time>
      </trkpt>
      <trkpt lat="43.99905" lon="3.50004">
        <ele>565</ele>
        <time>2021-06-27T09:17:26.719Z</time>
      </trkpt>
      <trkpt lat="43.99906" lon="3.50003">
        <ele>565</ele>
        <time>2021-06-27T09:17:31.717Z</time>
      </trkpt>
      <trkpt lat="43.99907" lon="3.50004">
        <ele>565</ele>
        <time>2021-06-27T09:17:35.744Z</time>
      </trkpt>
      <trkpt lat="43.99908" lon="3.50004">
        <ele>565</ele>
        <time>2021-06-27T09:17:40.724Z</time>
      </trkpt>
      <trkpt lat="43.99909" lon="3.50003">
        <ele>565</ele>
        <time>2021-06-27T09:17:45.722Z</time>
      </trkpt>
      <trkpt lat="43.99915" lon="3.50004">
        <ele>565</ele>
        <time>2021-06-27T09:17:50.721Z</time>
      </trkpt>
      <trkpt lat="43.99915" lon="3.50004">
        <ele>565</ele>
        <time>2021-06-27T09:17:55.722Z</time>
      </trkpt>
      <trkpt lat="43.99917" lon="3.50005">
        <ele>565</ele>
        <time>2021-06-27T09:18:00.726Z</time>
      </trkpt>
      <trkpt lat="43.99918" lon="3.50003">
        <ele>565</ele>
        <time>2021-06-27T09:18:44.724Z</time>
      </trkpt>
      <trkpt lat="43.99927" lon="3.49994">
        <ele>565</ele>
        <time>2021-06-27T09:18:49.724Z</time>
      </trkpt>
      <trkpt lat="43.99929" lon="3.49991">
        <ele>565</ele>
        <time>2021-06-27T09:18:54.724Z</time>
      </trkpt>
      <trkpt lat="43.99937" lon="3.49989">
        <ele>579</ele>
        <time>2021-06-27T09:19:04.721Z</time>
      </trkpt>
      <trkpt lat="43.9994" lon="3.49989">
        <ele>579</ele>
        <time>2021-06-27T09:19:09.722Z</time>
      </trkpt>
      <trkpt lat="43.99944" lon="3.49989">
        <ele>579</ele>
        <time>2021-06-27T09:19:19.720Z</time>
      </trkpt>
      <trkpt lat="43.99953" lon="3.49985">
        <ele>575</ele>
        <time>2021-06-27T09:19:29.722Z</time>
      </trkpt>
      <trkpt lat="43.9996" lon="3.49982">
        <ele>585</ele>
        <time>2021-06-27T09:19:34.750Z</time>
      </trkpt>
      <trkpt lat="43.99964" lon="3.4998">
        <ele>585</ele>
        <time>2021-06-27T09:19:39.725Z</time>
      </trkpt>
      <trkpt lat="43.99964" lon="3.49978">
        <ele>585</ele>
        <time>2021-06-27T09:19:44.725Z</time>
      </trkpt>
      <trkpt lat="43.99966" lon="3.49977">
        <ele>585</ele>
        <time>2021-06-27T09:19:49.720Z</time>
      </trkpt>
      <trkpt lat="43.99973" lon="3.49978">
        <ele>585</ele>
        <time>2021-06-27T09:19:54.718Z</time>
      </trkpt>
      <trkpt lat="43.99981" lon="3.49979">
        <ele>585</ele>
        <time>2021-06-27T09:19:59.749Z</time>
      </trkpt>
      <trkpt lat="43.99986" lon="3.49981">
        <ele>585</ele>
        <time>2021-06-27T09:20:04.722Z</time>
      </trkpt>
      <trkpt lat="43.99988" lon="3.49981">
        <ele>597</ele>
        <time>2021-06-27T09:20:09.716Z</time>
      </trkpt>
      <trkpt lat="43.99988" lon="3.49977">
        <ele>597</ele>
        <time>2021-06-27T09:20:13.726Z</time>
      </trkpt>
      <trkpt lat="43.99989" lon="3.49972">
        <ele>597</ele>
        <time>2021-06-27T09:20:18.720Z</time>
      </trkpt>
      <trkpt lat="43.99996" lon="3.49966">
        <ele>597</ele>
        <time>2021-06-27T09:20:37.711Z</time>
      </trkpt>
      <trkpt lat="44.00002" lon="3.49969">
        <ele>597</ele>
        <time>2021-06-27T09:20:42.754Z</time>
      </trkpt>
      <trkpt lat="44.00008" lon="3.49967">
        <ele>597</ele>
        <time>2021-06-27T09:20:47.718Z</time>
      </trkpt>
      <trkpt lat="44.00012" lon="3.49963">
        <ele>597</ele>
        <time>2021-06-27T09:20:52.722Z</time>
      </trkpt>
      <trkpt lat="44.00017" lon="3.4996">
        <ele>605</ele>
        <time>2021-06-27T09:20:57.722Z</time>
      </trkpt>
      <trkpt lat="44.00022" lon="3.49959">
        <ele>605</ele>
        <time>2021-06-27T09:21:02.721Z</time>
      </trkpt>
      <trkpt lat="44.00027" lon="3.49963">
        <ele>605</ele>
        <time>2021-06-27T09:21:07.725Z</time>
      </trkpt>
      <trkpt lat="44.00028" lon="3.4996">
        <ele>605</ele>
        <time>2021-06-27T09:21:12.720Z</time>
      </trkpt>
      <trkpt lat="44.00031" lon="3.49955">
        <ele>599</ele>
        <time>2021-06-27T09:21:17.725Z</time>
      </trkpt>
      <trkpt lat="44.0004" lon="3.49946">
        <ele>599</ele>
        <time>2021-06-27T09:21:36.721Z</time>
      </trkpt>
      <trkpt lat="44.00041" lon="3.49944">
        <ele>599</ele>
        <time>2021-06-27T09:21:41.726Z</time>
      </trkpt>
      <trkpt lat="44.00043" lon="3.49942">
        <ele>606</ele>
        <time>2021-06-27T09:21:46.725Z</time>
      </trkpt>
      <trkpt lat="44.00045" lon="3.4994">
        <ele>606</ele>
        <time>2021-06-27T09:21:51.719Z</time>
      </trkpt>
      <trkpt lat="44.00048" lon="3.49934">
        <ele>606</ele>
        <time>2021-06-27T09:21:56.718Z</time>
      </trkpt>
      <trkpt lat="44.0005" lon="3.4993">
        <ele>603</ele>
        <time>2021-06-27T09:22:01.719Z</time>
      </trkpt>
      <trkpt lat="44.00055" lon="3.49927">
        <ele>603</ele>
        <time>2021-06-27T09:22:15.722Z</time>
      </trkpt>
      <trkpt lat="44.00057" lon="3.49924">
        <ele>603</ele>
        <time>2021-06-27T09:22:20.723Z</time>
      </trkpt>
      <trkpt lat="44.00059" lon="3.49924">
        <ele>603</ele>
        <time>2021-06-27T09:22:24.722Z</time>
      </trkpt>
      <trkpt lat="44.00062" lon="3.49923">
        <ele>603</ele>
        <time>2021-06-27T09:22:29.720Z</time>
      </trkpt>
      <trkpt lat="44.00066" lon="3.4992">
        <ele>603</ele>
        <time>2021-06-27T09:22:34.722Z</time>
      </trkpt>
      <trkpt lat="44.00071" lon="3.49915">
        <ele>615</ele>
        <time>2021-06-27T09:22:39.726Z</time>
      </trkpt>
      <trkpt lat="44.00076" lon="3.49915">
        <ele>615</ele>
        <time>2021-06-27T09:22:44.743Z</time>
      </trkpt>
      <trkpt lat="44.00076" lon="3.49907">
        <ele>615</ele>
        <time>2021-06-27T09:23:02.749Z</time>
      </trkpt>
      <trkpt lat="44.00075" lon="3.499">
        <ele>611</ele>
        <time>2021-06-27T09:23:07.725Z</time>
      </trkpt>
      <trkpt lat="44.00078" lon="3.49897">
        <ele>611</ele>
        <time>2021-06-27T09:23:11.722Z</time>
      </trkpt>
      <trkpt lat="44.00082" lon="3.49901">
        <ele>611</ele>
        <time>2021-06-27T09:23:16.728Z</time>
      </trkpt>
      <trkpt lat="44.00084" lon="3.49898">
        <ele>611</ele>
        <time>2021-06-27T09:23:21.725Z</time>
      </trkpt>
      <trkpt lat="44.00085" lon="3.49896">
        <ele>611</ele>
        <time>2021-06-27T09:23:25.755Z</time>
      </trkpt>
      <trkpt lat="44.0009" lon="3.49894">
        <ele>611</ele>
        <time>2021-06-27T09:23:30.725Z</time>
      </trkpt>
      <trkpt lat="44.00093" lon="3.4989">
        <ele>611</ele>
        <time>2021-06-27T09:23:35.724Z</time>
      </trkpt>
      <trkpt lat="44.00097" lon="3.49889">
        <ele>611</ele>
        <time>2021-06-27T09:24:13.725Z</time>
      </trkpt>
      <trkpt lat="44.001" lon="3.49889">
        <ele>623</ele>
        <time>2021-06-27T09:24:28.728Z</time>
      </trkpt>
      <trkpt lat="44.00101" lon="3.4989">
        <ele>623</ele>
        <time>2021-06-27T09:24:33.717Z</time>
      </trkpt>
      <trkpt lat="44.00104" lon="3.49896">
        <ele>623</ele>
        <time>2021-06-27T09:24:56.724Z</time>
      </trkpt>
      <trkpt lat="44.00105" lon="3.49897">
        <ele>623</ele>
        <time>2021-06-27T09:25:01.721Z</time>
      </trkpt>
      <trkpt lat="44.0011" lon="3.49901">
        <ele>623</ele>
        <time>2021-06-27T09:25:05.719Z</time>
      </trkpt>
      <trkpt lat="44.00111" lon="3.49901">
        <ele>623</ele>
        <time>2021-06-27T09:25:10.723Z</time>
      </trkpt>
      <trkpt lat="44.00114" lon="3.49905">
        <ele>629</ele>
        <time>2021-06-27T09:25:15.719Z</time>
      </trkpt>
      <trkpt lat="44.00115" lon="3.49906">
        <ele>629</ele>
        <time>2021-06-27T09:25:20.723Z</time>
      </trkpt>
      <trkpt lat="44.0012" lon="3.49908">
        <ele>629</ele>
        <time>2021-06-27T09:25:30.723Z</time>
      </trkpt>
      <trkpt lat="44.00124" lon="3.49909">
        <ele>629</ele>
        <time>2021-06-27T09:25:44.723Z</time>
      </trkpt>
      <trkpt lat="44.00131" lon="3.49906">
        <ele>638</ele>
        <time>2021-06-27T09:25:48.728Z</time>
      </trkpt>
      <trkpt lat="44.00137" lon="3.49907">
        <ele>638</ele>
        <time>2021-06-27T09:25:53.713Z</time>
      </trkpt>
      <trkpt lat="44.00142" lon="3.49906">
        <ele>638</ele>
        <time>2021-06-27T09:25:57.751Z</time>
      </trkpt>
      <trkpt lat="44.00146" lon="3.49906">
        <ele>638</ele>
        <time>2021-06-27T09:26:02.724Z</time>
      </trkpt>
      <trkpt lat="44.00149" lon="3.49903">
        <ele>638</ele>
        <time>2021-06-27T09:26:07.745Z</time>
      </trkpt>
      <trkpt lat="44.00151" lon="3.49901">
        <ele>631</ele>
        <time>2021-06-27T09:26:12.726Z</time>
      </trkpt>
      <trkpt lat="44.00153" lon="3.49901">
        <ele>639</ele>
        <time>2021-06-27T09:26:17.719Z</time>
      </trkpt>
      <trkpt lat="44.00154" lon="3.49901">
        <ele>639</ele>
        <time>2021-06-27T09:26:21.725Z</time>
      </trkpt>
      <trkpt lat="44.00157" lon="3.49898">
        <ele>639</ele>
        <time>2021-06-27T09:26:26.717Z</time>
      </trkpt>
      <trkpt lat="44.00159" lon="3.49898">
        <ele>639</ele>
        <time>2021-06-27T09:26:30.729Z</time>
      </trkpt>
      <trkpt lat="44.00162" lon="3.49897">
        <ele>639</ele>
        <time>2021-06-27T09:26:35.734Z</time>
      </trkpt>
      <trkpt lat="44.00165" lon="3.49896">
        <ele>639</ele>
        <time>2021-06-27T09:26:39.754Z</time>
      </trkpt>
      <trkpt lat="44.00167" lon="3.499">
        <ele>639</ele>
        <time>2021-06-27T09:26:44.705Z</time>
      </trkpt>
      <trkpt lat="44.0017" lon="3.49902">
        <ele>639</ele>
        <time>2021-06-27T09:26:49.717Z</time>
      </trkpt>
      <trkpt lat="44.00173" lon="3.49902">
        <ele>639</ele>
        <time>2021-06-27T09:26:53.725Z</time>
      </trkpt>
      <trkpt lat="44.00175" lon="3.49898">
        <ele>639</ele>
        <time>2021-06-27T09:26:58.728Z</time>
      </trkpt>
      <trkpt lat="44.0018" lon="3.49893">
        <ele>639</ele>
        <time>2021-06-27T09:27:03.704Z</time>
      </trkpt>
      <trkpt lat="44.00185" lon="3.49892">
        <ele>651</ele>
        <time>2021-06-27T09:27:35.710Z</time>
      </trkpt>
      <trkpt lat="44.00187" lon="3.49896">
        <ele>651</ele>
        <time>2021-06-27T09:27:39.748Z</time>
      </trkpt>
      <trkpt lat="44.00189" lon="3.49895">
        <ele>651</ele>
        <time>2021-06-27T09:27:53.722Z</time>
      </trkpt>
      <trkpt lat="44.00193" lon="3.49894">
        <ele>651</ele>
        <time>2021-06-27T09:27:58.724Z</time>
      </trkpt>
      <trkpt lat="44.00196" lon="3.49894">
        <ele>651</ele>
        <time>2021-06-27T09:28:03.747Z</time>
      </trkpt>
      <trkpt lat="44.00201" lon="3.49892">
        <ele>651</ele>
        <time>2021-06-27T09:29:28.712Z</time>
      </trkpt>
      <trkpt lat="44.0021" lon="3.49889">
        <ele>660</ele>
        <time>2021-06-27T09:29:33.727Z</time>
      </trkpt>
      <trkpt lat="44.00215" lon="3.49888">
        <ele>660</ele>
        <time>2021-06-27T09:29:38.724Z</time>
      </trkpt>
      <trkpt lat="44.00219" lon="3.4989">
        <ele>660</ele>
        <time>2021-06-27T09:29:42.721Z</time>
      </trkpt>
      <trkpt lat="44.00223" lon="3.49892">
        <ele>660</ele>
        <time>2021-06-27T09:29:47.723Z</time>
      </trkpt>
      <trkpt lat="44.00225" lon="3.49891">
        <ele>660</ele>
        <time>2021-06-27T09:29:52.726Z</time>
      </trkpt>
      <trkpt lat="44.00226" lon="3.49891">
        <ele>660</ele>
        <time>2021-06-27T09:29:57.726Z</time>
      </trkpt>
      <trkpt lat="44.00231" lon="3.49891">
        <ele>660</ele>
        <time>2021-06-27T09:30:29.717Z</time>
      </trkpt>
      <trkpt lat="44.0024" lon="3.49888">
        <ele>672</ele>
        <time>2021-06-27T09:30:34.723Z</time>
      </trkpt>
      <trkpt lat="44.0025" lon="3.49888">
        <ele>672</ele>
        <time>2021-06-27T09:30:39.724Z</time>
      </trkpt>
      <trkpt lat="44.00255" lon="3.49883">
        <ele>672</ele>
        <time>2021-06-27T09:30:44.723Z</time>
      </trkpt>
      <trkpt lat="44.00258" lon="3.49878">
        <ele>672</ele>
        <time>2021-06-27T09:30:49.725Z</time>
      </trkpt>
      <trkpt lat="44.00261" lon="3.49875">
        <ele>667</ele>
        <time>2021-06-27T09:30:54.721Z</time>
      </trkpt>
      <trkpt lat="44.00265" lon="3.49868">
        <ele>679</ele>
        <time>2021-06-27T09:30:59.717Z</time>
      </trkpt>
      <trkpt lat="44.0027" lon="3.49862">
        <ele>679</ele>
        <time>2021-06-27T09:31:04.716Z</time>
      </trkpt>
      <trkpt lat="44.00274" lon="3.49862">
        <ele>679</ele>
        <time>2021-06-27T09:31:08.754Z</time>
      </trkpt>
      <trkpt lat="44.00276" lon="3.49861">
        <ele>679</ele>
        <time>2021-06-27T09:31:13.723Z</time>
      </trkpt>
      <trkpt lat="44.00278" lon="3.49854">
        <ele>679</ele>
        <time>2021-06-27T09:31:18.719Z</time>
      </trkpt>
      <trkpt lat="44.00281" lon="3.49853">
        <ele>679</ele>
        <time>2021-06-27T09:31:22.729Z</time>
      </trkpt>
      <trkpt lat="44.00286" lon="3.49853">
        <ele>679</ele>
        <time>2021-06-27T09:31:27.750Z</time>
      </trkpt>
      <trkpt lat="44.00288" lon="3.49852">
        <ele>679</ele>
        <time>2021-06-27T09:31:32.728Z</time>
      </trkpt>
      <trkpt lat="44.00288" lon="3.49854">
        <ele>679</ele>
        <time>2021-06-27T09:31:37.720Z</time>
      </trkpt>
      <trkpt lat="44.0029" lon="3.49857">
        <ele>679</ele>
        <time>2021-06-27T09:31:47.726Z</time>
      </trkpt>
      <trkpt lat="44.00294" lon="3.49857">
        <ele>689</ele>
        <time>2021-06-27T09:31:51.753Z</time>
      </trkpt>
      <trkpt lat="44.00295" lon="3.49855">
        <ele>689</ele>
        <time>2021-06-27T09:31:56.722Z</time>
      </trkpt>
      <trkpt lat="44.00298" lon="3.49855">
        <ele>689</ele>
        <time>2021-06-27T09:32:01.718Z</time>
      </trkpt>
      <trkpt lat="44.00301" lon="3.49855">
        <ele>689</ele>
        <time>2021-06-27T09:32:06.712Z</time>
      </trkpt>
      <trkpt lat="44.00303" lon="3.49854">
        <ele>689</ele>
        <time>2021-06-27T09:32:10.726Z</time>
      </trkpt>
      <trkpt lat="44.00306" lon="3.49853">
        <ele>689</ele>
        <time>2021-06-27T09:32:15.722Z</time>
      </trkpt>
      <trkpt lat="44.00308" lon="3.49852">
        <ele>689</ele>
        <time>2021-06-27T09:32:20.723Z</time>
      </trkpt>
      <trkpt lat="44.0031" lon="3.49851">
        <ele>689</ele>
        <time>2021-06-27T09:32:24.723Z</time>
      </trkpt>
      <trkpt lat="44.00312" lon="3.49854">
        <ele>689</ele>
        <time>2021-06-27T09:32:29.723Z</time>
      </trkpt>
      <trkpt lat="44.00317" lon="3.49857">
        <ele>689</ele>
        <time>2021-06-27T09:32:34.720Z</time>
      </trkpt>
      <trkpt lat="44.00323" lon="3.49857">
        <ele>696</ele>
        <time>2021-06-27T09:32:39.723Z</time>
      </trkpt>
      <trkpt lat="44.00326" lon="3.49857">
        <ele>696</ele>
        <time>2021-06-27T09:32:43.720Z</time>
      </trkpt>
      <trkpt lat="44.00333" lon="3.49861">
        <ele>696</ele>
        <time>2021-06-27T09:32:53.723Z</time>
      </trkpt>
      <trkpt lat="44.00335" lon="3.4986">
        <ele>696</ele>
        <time>2021-06-27T09:32:58.723Z</time>
      </trkpt>
      <trkpt lat="44.00336" lon="3.49859">
        <ele>696</ele>
        <time>2021-06-27T09:33:03.719Z</time>
      </trkpt>
      <trkpt lat="44.00337" lon="3.49858">
        <ele>696</ele>
        <time>2021-06-27T09:33:08.698Z</time>
      </trkpt>
      <trkpt lat="44.0034" lon="3.49856">
        <ele>696</ele>
        <time>2021-06-27T09:33:13.704Z</time>
      </trkpt>
      <trkpt lat="44.0035" lon="3.49855">
        <ele>706</ele>
        <time>2021-06-27T09:33:41.734Z</time>
      </trkpt>
      <trkpt lat="44.00351" lon="3.49855">
        <ele>706</ele>
        <time>2021-06-27T09:33:46.715Z</time>
      </trkpt>
      <trkpt lat="44.00352" lon="3.49854">
        <ele>706</ele>
        <time>2021-06-27T09:34:11.742Z</time>
      </trkpt>
      <trkpt lat="44.00352" lon="3.49854">
        <ele>706</ele>
        <time>2021-06-27T09:34:16.714Z</time>
      </trkpt>
      <trkpt lat="44.00355" lon="3.49852">
        <ele>706</ele>
        <time>2021-06-27T09:34:26.715Z</time>
      </trkpt>
      <trkpt lat="44.00356" lon="3.49851">
        <ele>706</ele>
        <time>2021-06-27T09:34:30.717Z</time>
      </trkpt>
      <trkpt lat="44.00359" lon="3.49847">
        <ele>706</ele>
        <time>2021-06-27T09:35:00.710Z</time>
      </trkpt>
      <trkpt lat="44.00361" lon="3.49845">
        <ele>697</ele>
        <time>2021-06-27T09:35:05.707Z</time>
      </trkpt>
      <trkpt lat="44.00369" lon="3.49848">
        <ele>706</ele>
        <time>2021-06-27T09:35:14.720Z</time>
      </trkpt>
      <trkpt lat="44.0037" lon="3.49848">
        <ele>706</ele>
        <time>2021-06-27T09:35:19.721Z</time>
      </trkpt>
      <trkpt lat="44.00374" lon="3.49849">
        <ele>706</ele>
        <time>2021-06-27T09:35:24.710Z</time>
      </trkpt>
      <trkpt lat="44.00379" lon="3.4985">
        <ele>718</ele>
        <time>2021-06-27T09:35:28.722Z</time>
      </trkpt>
      <trkpt lat="44.00379" lon="3.4985">
        <ele>718</ele>
        <time>2021-06-27T09:35:33.721Z</time>
      </trkpt>
      <trkpt lat="44.00382" lon="3.49851">
        <ele>718</ele>
        <time>2021-06-27T09:35:58.735Z</time>
      </trkpt>
      <trkpt lat="44.00389" lon="3.49848">
        <ele>718</ele>
        <time>2021-06-27T09:36:03.720Z</time>
      </trkpt>
      <trkpt lat="44.00395" lon="3.49849">
        <ele>718</ele>
        <time>2021-06-27T09:36:08.723Z</time>
      </trkpt>
      <trkpt lat="44.00401" lon="3.49846">
        <ele>709</ele>
        <time>2021-06-27T09:36:13.717Z</time>
      </trkpt>
      <trkpt lat="44.00403" lon="3.49846">
        <ele>715</ele>
        <time>2021-06-27T09:36:17.727Z</time>
      </trkpt>
      <trkpt lat="44.00411" lon="3.49849">
        <ele>724</ele>
        <time>2021-06-27T09:37:32.723Z</time>
      </trkpt>
      <trkpt lat="44.00421" lon="3.49846">
        <ele>715</ele>
        <time>2021-06-27T09:37:37.722Z</time>
      </trkpt>
      <trkpt lat="44.00431" lon="3.49848">
        <ele>724</ele>
        <time>2021-06-27T09:37:42.722Z</time>
      </trkpt>
      <trkpt lat="44.00436" lon="3.4985">
        <ele>729</ele>
        <time>2021-06-27T09:37:46.757Z</time>
      </trkpt>
      <trkpt lat="44.0044" lon="3.49849">
        <ele>729</ele>
        <time>2021-06-27T09:37:56.729Z</time>
      </trkpt>
      <trkpt lat="44.00442" lon="3.4985">
        <ele>729</ele>
        <time>2021-06-27T09:38:01.720Z</time>
      </trkpt>
      <trkpt lat="44.00444" lon="3.49849">
        <ele>729</ele>
        <time>2021-06-27T09:38:21.723Z</time>
      </trkpt>
      <trkpt lat="44.00454" lon="3.49844">
        <ele>721</ele>
        <time>2021-06-27T09:38:26.722Z</time>
      </trkpt>
      <trkpt lat="44.00459" lon="3.49843">
        <ele>731</ele>
        <time>2021-06-27T09:38:31.723Z</time>
      </trkpt>
      <trkpt lat="44.00463" lon="3.49847">
        <ele>731</ele>
        <time>2021-06-27T09:39:09.720Z</time>
      </trkpt>
      <trkpt lat="44.00468" lon="3.49851">
        <ele>742</ele>
        <time>2021-06-27T09:39:14.722Z</time>
      </trkpt>
      <trkpt lat="44.00476" lon="3.49857">
        <ele>742</ele>
        <time>2021-06-27T09:39:19.722Z</time>
      </trkpt>
      <trkpt lat="44.0048" lon="3.49859">
        <ele>742</ele>
        <time>2021-06-27T09:39:23.728Z</time>
      </trkpt>
      <trkpt lat="44.00485" lon="3.49857">
        <ele>742</ele>
        <time>2021-06-27T09:39:28.724Z</time>
      </trkpt>
      <trkpt lat="44.00486" lon="3.49856">
        <ele>758</ele>
        <time>2021-06-27T09:39:43.723Z</time>
      </trkpt>
      <trkpt lat="44.00491" lon="3.49849">
        <ele>758</ele>
        <time>2021-06-27T09:39:47.726Z</time>
      </trkpt>
      <trkpt lat="44.00494" lon="3.49846">
        <ele>746</ele>
        <time>2021-06-27T09:39:57.719Z</time>
      </trkpt>
      <trkpt lat="44.00494" lon="3.49846">
        <ele>746</ele>
        <time>2021-06-27T09:40:02.699Z</time>
      </trkpt>
      <trkpt lat="44.00501" lon="3.49839">
        <ele>746</ele>
        <time>2021-06-27T09:40:11.734Z</time>
      </trkpt>
      <trkpt lat="44.00506" lon="3.49838">
        <ele>746</ele>
        <time>2021-06-27T09:40:26.730Z</time>
      </trkpt>
      <trkpt lat="44.0051" lon="3.49835">
        <ele>746</ele>
        <time>2021-06-27T09:40:31.720Z</time>
      </trkpt>
      <trkpt lat="44.00512" lon="3.49835">
        <ele>746</ele>
        <time>2021-06-27T09:40:36.721Z</time>
      </trkpt>
      <trkpt lat="44.00516" lon="3.49835">
        <ele>757</ele>
        <time>2021-06-27T09:40:49.754Z</time>
      </trkpt>
      <trkpt lat="44.00527" lon="3.49834">
        <ele>757</ele>
        <time>2021-06-27T09:40:54.716Z</time>
      </trkpt>
      <trkpt lat="44.00528" lon="3.49834">
        <ele>757</ele>
        <time>2021-06-27T09:40:59.721Z</time>
      </trkpt>
      <trkpt lat="44.00531" lon="3.49831">
        <ele>757</ele>
        <time>2021-06-27T09:41:18.722Z</time>
      </trkpt>
      <trkpt lat="44.00532" lon="3.49831">
        <ele>757</ele>
        <time>2021-06-27T09:41:22.727Z</time>
      </trkpt>
      <trkpt lat="44.00536" lon="3.49831">
        <ele>757</ele>
        <time>2021-06-27T09:41:27.721Z</time>
      </trkpt>
      <trkpt lat="44.00537" lon="3.49831">
        <ele>757</ele>
        <time>2021-06-27T09:41:31.720Z</time>
      </trkpt>
      <trkpt lat="44.00539" lon="3.49823">
        <ele>757</ele>
        <time>2021-06-27T09:41:36.700Z</time>
      </trkpt>
      <trkpt lat="44.00546" lon="3.4982">
        <ele>769</ele>
        <time>2021-06-27T09:41:50.727Z</time>
      </trkpt>
      <trkpt lat="44.00545" lon="3.49818">
        <ele>763</ele>
        <time>2021-06-27T09:41:55.712Z</time>
      </trkpt>
      <trkpt lat="44.00553" lon="3.49824">
        <ele>769</ele>
        <time>2021-06-27T09:43:05.726Z</time>
      </trkpt>
      <trkpt lat="44.00554" lon="3.49823">
        <ele>769</ele>
        <time>2021-06-27T09:43:10.723Z</time>
      </trkpt>
      <trkpt lat="44.00554" lon="3.49822">
        <ele>769</ele>
        <time>2021-06-27T09:43:15.730Z</time>
      </trkpt>
      <trkpt lat="44.00558" lon="3.4982">
        <ele>769</ele>
        <time>2021-06-27T09:43:34.754Z</time>
      </trkpt>
      <trkpt lat="44.00559" lon="3.49819">
        <ele>763</ele>
        <time>2021-06-27T09:43:39.722Z</time>
      </trkpt>
      <trkpt lat="44.00563" lon="3.49818">
        <ele>763</ele>
        <time>2021-06-27T09:43:44.718Z</time>
      </trkpt>
      <trkpt lat="44.00578" lon="3.49816">
        <ele>779</ele>
        <time>2021-06-27T09:44:45.731Z</time>
      </trkpt>
      <trkpt lat="44.00579" lon="3.49816">
        <ele>779</ele>
        <time>2021-06-27T09:45:07.721Z</time>
      </trkpt>
      <trkpt lat="44.00582" lon="3.49815">
        <ele>779</ele>
        <time>2021-06-27T09:45:12.722Z</time>
      </trkpt>
      <trkpt lat="44.00583" lon="3.49814">
        <ele>779</ele>
        <time>2021-06-27T09:45:17.722Z</time>
      </trkpt>
      <trkpt lat="44.00587" lon="3.49813">
        <ele>779</ele>
        <time>2021-06-27T09:45:50.740Z</time>
      </trkpt>
      <trkpt lat="44.00591" lon="3.49818">
        <ele>779</ele>
        <time>2021-06-27T09:45:55.722Z</time>
      </trkpt>
      <trkpt lat="44.00592" lon="3.49819">
        <ele>779</ele>
        <time>2021-06-27T09:46:00.717Z</time>
      </trkpt>
      <trkpt lat="44.00596" lon="3.49832">
        <ele>784</ele>
        <time>2021-06-27T09:46:39.723Z</time>
      </trkpt>
      <trkpt lat="44.00596" lon="3.49834">
        <ele>784</ele>
        <time>2021-06-27T09:46:43.722Z</time>
      </trkpt>
      <trkpt lat="44.00597" lon="3.49847">
        <ele>784</ele>
        <time>2021-06-27T09:47:22.717Z</time>
      </trkpt>
      <trkpt lat="44.006" lon="3.49859">
        <ele>800</ele>
        <time>2021-06-27T09:47:32.723Z</time>
      </trkpt>
      <trkpt lat="44.00602" lon="3.49868">
        <ele>800</ele>
        <time>2021-06-27T09:47:37.744Z</time>
      </trkpt>
      <trkpt lat="44.00603" lon="3.49871">
        <ele>800</ele>
        <time>2021-06-27T09:47:56.723Z</time>
      </trkpt>
      <trkpt lat="44.00604" lon="3.49872">
        <ele>800</ele>
        <time>2021-06-27T09:48:01.720Z</time>
      </trkpt>
      <trkpt lat="44.00609" lon="3.49894">
        <ele>808</ele>
        <time>2021-06-27T09:48:45.723Z</time>
      </trkpt>
      <trkpt lat="44.0061" lon="3.49897">
        <ele>808</ele>
        <time>2021-06-27T09:48:50.723Z</time>
      </trkpt>
      <trkpt lat="44.00612" lon="3.49897">
        <ele>808</ele>
        <time>2021-06-27T09:48:55.722Z</time>
      </trkpt>
      <trkpt lat="44.00616" lon="3.49906">
        <ele>817</ele>
        <time>2021-06-27T09:48:59.725Z</time>
      </trkpt>
      <trkpt lat="44.00619" lon="3.49913">
        <ele>817</ele>
        <time>2021-06-27T09:49:04.706Z</time>
      </trkpt>
      <trkpt lat="44.00621" lon="3.49916">
        <ele>817</ele>
        <time>2021-06-27T09:49:09.698Z</time>
      </trkpt>
      <trkpt lat="44.00621" lon="3.49924">
        <ele>817</ele>
        <time>2021-06-27T09:50:16.722Z</time>
      </trkpt>
      <trkpt lat="44.00622" lon="3.49926">
        <ele>817</ele>
        <time>2021-06-27T09:50:21.723Z</time>
      </trkpt>
      <trkpt lat="44.00623" lon="3.49927">
        <ele>817</ele>
        <time>2021-06-27T09:50:31.718Z</time>
      </trkpt>
      <trkpt lat="44.00625" lon="3.4993">
        <ele>817</ele>
        <time>2021-06-27T09:50:35.722Z</time>
      </trkpt>
      <trkpt lat="44.00636" lon="3.49932">
        <ele>835</ele>
        <time>2021-06-27T09:51:03.723Z</time>
      </trkpt>
      <trkpt lat="44.00638" lon="3.49943">
        <ele>835</ele>
        <time>2021-06-27T09:51:45.721Z</time>
      </trkpt>
      <trkpt lat="44.00637" lon="3.49947">
        <ele>835</ele>
        <time>2021-06-27T09:51:49.720Z</time>
      </trkpt>
      <trkpt lat="44.00637" lon="3.49953">
        <ele>835</ele>
        <time>2021-06-27T09:51:54.717Z</time>
      </trkpt>
      <trkpt lat="44.00636" lon="3.49955">
        <ele>835</ele>
        <time>2021-06-27T09:51:58.745Z</time>
      </trkpt>
      <trkpt lat="44.00635" lon="3.49978">
        <ele>844</ele>
        <time>2021-06-27T09:52:23.720Z</time>
      </trkpt>
      <trkpt lat="44.00635" lon="3.49991">
        <ele>854</ele>
        <time>2021-06-27T09:52:28.718Z</time>
      </trkpt>
      <trkpt lat="44.00634" lon="3.49993">
        <ele>854</ele>
        <time>2021-06-27T09:52:33.719Z</time>
      </trkpt>
      <trkpt lat="44.00634" lon="3.49996">
        <ele>854</ele>
        <time>2021-06-27T09:52:51.725Z</time>
      </trkpt>
      <trkpt lat="44.00635" lon="3.49999">
        <ele>854</ele>
        <time>2021-06-27T09:52:56.723Z</time>
      </trkpt>
      <trkpt lat="44.00634" lon="3.50004">
        <ele>854</ele>
        <time>2021-06-27T09:53:00.727Z</time>
      </trkpt>
      <trkpt lat="44.00636" lon="3.50006">
        <ele>854</ele>
        <time>2021-06-27T09:53:05.728Z</time>
      </trkpt>
      <trkpt lat="44.00636" lon="3.5001">
        <ele>854</ele>
        <time>2021-06-27T09:53:43.720Z</time>
      </trkpt>
      <trkpt lat="44.00631" lon="3.50022">
        <ele>865</ele>
        <time>2021-06-27T09:53:47.725Z</time>
      </trkpt>
      <trkpt lat="44.0063" lon="3.50027">
        <ele>865</ele>
        <time>2021-06-27T09:53:52.727Z</time>
      </trkpt>
      <trkpt lat="44.00628" lon="3.50029">
        <ele>865</ele>
        <time>2021-06-27T09:53:57.726Z</time>
      </trkpt>
      <trkpt lat="44.00627" lon="3.5003">
        <ele>865</ele>
        <time>2021-06-27T09:54:07.718Z</time>
      </trkpt>
      <trkpt lat="44.00623" lon="3.50037">
        <ele>859</ele>
        <time>2021-06-27T09:54:22.721Z</time>
      </trkpt>
      <trkpt lat="44.00616" lon="3.50055">
        <ele>871</ele>
        <time>2021-06-27T09:54:42.723Z</time>
      </trkpt>
      <trkpt lat="44.00612" lon="3.50061">
        <ele>871</ele>
        <time>2021-06-27T09:54:47.721Z</time>
      </trkpt>
      <trkpt lat="44.0061" lon="3.50063">
        <ele>871</ele>
        <time>2021-06-27T09:54:52.721Z</time>
      </trkpt>
      <trkpt lat="44.00608" lon="3.50064">
        <ele>871</ele>
        <time>2021-06-27T09:54:56.725Z</time>
      </trkpt>
      <trkpt lat="44.00602" lon="3.50069">
        <ele>871</ele>
        <time>2021-06-27T09:55:49.728Z</time>
      </trkpt>
      <trkpt lat="44.00594" lon="3.50073">
        <ele>875</ele>
        <time>2021-06-27T09:55:54.723Z</time>
      </trkpt>
      <trkpt lat="44.00589" lon="3.50076">
        <ele>875</ele>
        <time>2021-06-27T09:55:59.729Z</time>
      </trkpt>
      <trkpt lat="44.00584" lon="3.50077">
        <ele>875</ele>
        <time>2021-06-27T09:56:04.718Z</time>
      </trkpt>
      <trkpt lat="44.00579" lon="3.5008">
        <ele>875</ele>
        <time>2021-06-27T09:56:08.730Z</time>
      </trkpt>
      <trkpt lat="44.00576" lon="3.50081">
        <ele>875</ele>
        <time>2021-06-27T09:56:13.727Z</time>
      </trkpt>
      <trkpt lat="44.00576" lon="3.50081">
        <ele>875</ele>
        <time>2021-06-27T09:56:18.726Z</time>
      </trkpt>
      <trkpt lat="44.00572" lon="3.50083">
        <ele>875</ele>
        <time>2021-06-27T09:56:23.718Z</time>
      </trkpt>
      <trkpt lat="44.00571" lon="3.50084">
        <ele>875</ele>
        <time>2021-06-27T09:56:28.719Z</time>
      </trkpt>
      <trkpt lat="44.00567" lon="3.50086">
        <ele>875</ele>
        <time>2021-06-27T09:56:33.719Z</time>
      </trkpt>
      <trkpt lat="44.00564" lon="3.50085">
        <ele>875</ele>
        <time>2021-06-27T09:59:04.727Z</time>
      </trkpt>
      <trkpt lat="44.00564" lon="3.50086">
        <ele>875</ele>
        <time>2021-06-27T09:59:09.723Z</time>
      </trkpt>
      <trkpt lat="44.0056" lon="3.50086">
        <ele>875</ele>
        <time>2021-06-27T09:59:55.728Z</time>
      </trkpt>
      <trkpt lat="44.00558" lon="3.50086">
        <ele>875</ele>
        <time>2021-06-27T10:00:00.719Z</time>
      </trkpt>
      <trkpt lat="44.00556" lon="3.50087">
        <ele>875</ele>
        <time>2021-06-27T10:00:05.719Z</time>
      </trkpt>
      <trkpt lat="44.00555" lon="3.5009">
        <ele>875</ele>
        <time>2021-06-27T10:06:35.700Z</time>
      </trkpt>
      <trkpt lat="44.00555" lon="3.50093">
        <ele>875</ele>
        <time>2021-06-27T10:07:34.725Z</time>
      </trkpt>
      <trkpt lat="44.00555" lon="3.50095">
        <ele>875</ele>
        <time>2021-06-27T10:07:39.721Z</time>
      </trkpt>
      <trkpt lat="44.00555" lon="3.50098">
        <ele>881</ele>
        <time>2021-06-27T10:08:04.723Z</time>
      </trkpt>
      <trkpt lat="44.00555" lon="3.50105">
        <ele>881</ele>
        <time>2021-06-27T10:08:08.719Z</time>
      </trkpt>
      <trkpt lat="44.00551" lon="3.50124">
        <ele>881</ele>
        <time>2021-06-27T10:08:22.721Z</time>
      </trkpt>
      <trkpt lat="44.00552" lon="3.50138">
        <ele>884</ele>
        <time>2021-06-27T10:08:27.723Z</time>
      </trkpt>
      <trkpt lat="44.00551" lon="3.50141">
        <ele>884</ele>
        <time>2021-06-27T10:08:32.720Z</time>
      </trkpt>
      <trkpt lat="44.00556" lon="3.50144">
        <ele>884</ele>
        <time>2021-06-27T10:08:57.726Z</time>
      </trkpt>
      <trkpt lat="44.00559" lon="3.50153">
        <ele>882</ele>
        <time>2021-06-27T10:09:07.728Z</time>
      </trkpt>
      <trkpt lat="44.00562" lon="3.50157">
        <ele>882</ele>
        <time>2021-06-27T10:09:17.723Z</time>
      </trkpt>
      <trkpt lat="44.00569" lon="3.50163">
        <ele>882</ele>
        <time>2021-06-27T10:09:22.710Z</time>
      </trkpt>
      <trkpt lat="44.00572" lon="3.50164">
        <ele>887</ele>
        <time>2021-06-27T10:09:42.710Z</time>
      </trkpt>
      <trkpt lat="44.00579" lon="3.50164">
        <ele>887</ele>
        <time>2021-06-27T10:09:47.709Z</time>
      </trkpt>
      <trkpt lat="44.00586" lon="3.50165">
        <ele>887</ele>
        <time>2021-06-27T10:09:51.732Z</time>
      </trkpt>
      <trkpt lat="44.00587" lon="3.50169">
        <ele>887</ele>
        <time>2021-06-27T10:10:01.720Z</time>
      </trkpt>
      <trkpt lat="44.00587" lon="3.50171">
        <ele>887</ele>
        <time>2021-06-27T10:10:06.718Z</time>
      </trkpt>
      <trkpt lat="44.0059" lon="3.50172">
        <ele>887</ele>
        <time>2021-06-27T10:10:16.706Z</time>
      </trkpt>
      <trkpt lat="44.00591" lon="3.50172">
        <ele>887</ele>
        <time>2021-06-27T10:10:20.724Z</time>
      </trkpt>
      <trkpt lat="44.00598" lon="3.50176">
        <ele>890</ele>
        <time>2021-06-27T10:10:24.725Z</time>
      </trkpt>
      <trkpt lat="44.00607" lon="3.50176">
        <ele>890</ele>
        <time>2021-06-27T10:10:29.698Z</time>
      </trkpt>
      <trkpt lat="44.0061" lon="3.50171">
        <ele>890</ele>
        <time>2021-06-27T10:10:39.716Z</time>
      </trkpt>
      <trkpt lat="44.00614" lon="3.50168">
        <ele>890</ele>
        <time>2021-06-27T10:10:44.730Z</time>
      </trkpt>
      <trkpt lat="44.00615" lon="3.50167">
        <ele>890</ele>
        <time>2021-06-27T10:10:49.699Z</time>
      </trkpt>
      <trkpt lat="44.00617" lon="3.50172">
        <ele>890</ele>
        <time>2021-06-27T10:11:02.725Z</time>
      </trkpt>
      <trkpt lat="44.00619" lon="3.5018">
        <ele>890</ele>
        <time>2021-06-27T10:11:07.718Z</time>
      </trkpt>
      <trkpt lat="44.00622" lon="3.50182">
        <ele>888</ele>
        <time>2021-06-27T10:11:27.699Z</time>
      </trkpt>
      <trkpt lat="44.00628" lon="3.50187">
        <ele>895</ele>
        <time>2021-06-27T10:11:31.724Z</time>
      </trkpt>
      <trkpt lat="44.00633" lon="3.50187">
        <ele>895</ele>
        <time>2021-06-27T10:11:36.719Z</time>
      </trkpt>
      <trkpt lat="44.00645" lon="3.50191">
        <ele>895</ele>
        <time>2021-06-27T10:11:41.722Z</time>
      </trkpt>
      <trkpt lat="44.00649" lon="3.50194">
        <ele>895</ele>
        <time>2021-06-27T10:11:55.725Z</time>
      </trkpt>
      <trkpt lat="44.00652" lon="3.50194">
        <ele>895</ele>
        <time>2021-06-27T10:11:59.720Z</time>
      </trkpt>
      <trkpt lat="44.0066" lon="3.5019">
        <ele>906</ele>
        <time>2021-06-27T10:12:14.723Z</time>
      </trkpt>
      <trkpt lat="44.00661" lon="3.50186">
        <ele>906</ele>
        <time>2021-06-27T10:12:51.745Z</time>
      </trkpt>
      <trkpt lat="44.00664" lon="3.5018">
        <ele>910</ele>
        <time>2021-06-27T10:12:56.726Z</time>
      </trkpt>
      <trkpt lat="44.0067" lon="3.5018">
        <ele>910</ele>
        <time>2021-06-27T10:13:05.723Z</time>
      </trkpt>
      <trkpt lat="44.00673" lon="3.5018">
        <ele>910</ele>
        <time>2021-06-27T10:13:10.724Z</time>
      </trkpt>
      <trkpt lat="44.00678" lon="3.50183">
        <ele>906</ele>
        <time>2021-06-27T10:13:20.724Z</time>
      </trkpt>
      <trkpt lat="44.00679" lon="3.50183">
        <ele>906</ele>
        <time>2021-06-27T10:13:25.727Z</time>
      </trkpt>
      <trkpt lat="44.00683" lon="3.50186">
        <ele>914</ele>
        <time>2021-06-27T10:13:34.742Z</time>
      </trkpt>
      <trkpt lat="44.00687" lon="3.50194">
        <ele>914</ele>
        <time>2021-06-27T10:13:39.730Z</time>
      </trkpt>
      <trkpt lat="44.00686" lon="3.50196">
        <ele>914</ele>
        <time>2021-06-27T10:13:44.712Z</time>
      </trkpt>
      <trkpt lat="44.00693" lon="3.50201">
        <ele>914</ele>
        <time>2021-06-27T10:13:53.715Z</time>
      </trkpt>
      <trkpt lat="44.007" lon="3.50207">
        <ele>914</ele>
        <time>2021-06-27T10:14:02.724Z</time>
      </trkpt>
      <trkpt lat="44.00701" lon="3.50208">
        <ele>914</ele>
        <time>2021-06-27T10:14:07.717Z</time>
      </trkpt>
      <trkpt lat="44.00707" lon="3.50213">
        <ele>909</ele>
        <time>2021-06-27T10:14:25.725Z</time>
      </trkpt>
      <trkpt lat="44.00711" lon="3.50215">
        <ele>914</ele>
        <time>2021-06-27T10:14:29.751Z</time>
      </trkpt>
      <trkpt lat="44.00718" lon="3.50223">
        <ele>914</ele>
        <time>2021-06-27T10:14:39.719Z</time>
      </trkpt>
      <trkpt lat="44.00722" lon="3.50231">
        <ele>914</ele>
        <time>2021-06-27T10:14:57.725Z</time>
      </trkpt>
      <trkpt lat="44.00728" lon="3.50238">
        <ele>910</ele>
        <time>2021-06-27T10:15:12.723Z</time>
      </trkpt>
      <trkpt lat="44.00734" lon="3.50242">
        <ele>910</ele>
        <time>2021-06-27T10:15:51.712Z</time>
      </trkpt>
      <trkpt lat="44.00738" lon="3.50245">
        <ele>918</ele>
        <time>2021-06-27T10:15:55.727Z</time>
      </trkpt>
      <trkpt lat="44.00742" lon="3.50252">
        <ele>918</ele>
        <time>2021-06-27T10:16:05.723Z</time>
      </trkpt>
      <trkpt lat="44.00746" lon="3.50257">
        <ele>918</ele>
        <time>2021-06-27T10:16:24.717Z</time>
      </trkpt>
      <trkpt lat="44.00751" lon="3.50266">
        <ele>916</ele>
        <time>2021-06-27T10:16:29.719Z</time>
      </trkpt>
      <trkpt lat="44.00752" lon="3.50276">
        <ele>916</ele>
        <time>2021-06-27T10:17:03.724Z</time>
      </trkpt>
      <trkpt lat="44.00754" lon="3.50305">
        <ele>919</ele>
        <time>2021-06-27T10:17:08.717Z</time>
      </trkpt>
      <trkpt lat="44.00753" lon="3.50312">
        <ele>919</ele>
        <time>2021-06-27T10:17:13.723Z</time>
      </trkpt>
      <trkpt lat="44.00755" lon="3.50316">
        <ele>919</ele>
        <time>2021-06-27T10:17:17.720Z</time>
      </trkpt>
      <trkpt lat="44.00757" lon="3.50327">
        <ele>922</ele>
        <time>2021-06-27T10:17:22.713Z</time>
      </trkpt>
      <trkpt lat="44.00757" lon="3.50331">
        <ele>922</ele>
        <time>2021-06-27T10:17:26.719Z</time>
      </trkpt>
      <trkpt lat="44.00758" lon="3.50338">
        <ele>922</ele>
        <time>2021-06-27T10:17:44.746Z</time>
      </trkpt>
      <trkpt lat="44.0076" lon="3.50346">
        <ele>922</ele>
        <time>2021-06-27T10:17:49.724Z</time>
      </trkpt>
      <trkpt lat="44.0076" lon="3.50349">
        <ele>924</ele>
        <time>2021-06-27T10:17:54.740Z</time>
      </trkpt>
      <trkpt lat="44.00761" lon="3.50352">
        <ele>924</ele>
        <time>2021-06-27T10:17:59.717Z</time>
      </trkpt>
      <trkpt lat="44.00764" lon="3.5036">
        <ele>924</ele>
        <time>2021-06-27T10:18:04.718Z</time>
      </trkpt>
      <trkpt lat="44.00765" lon="3.50365">
        <ele>928</ele>
        <time>2021-06-27T10:18:08.726Z</time>
      </trkpt>
      <trkpt lat="44.00767" lon="3.50368">
        <ele>928</ele>
        <time>2021-06-27T10:18:13.725Z</time>
      </trkpt>
      <trkpt lat="44.00767" lon="3.50369">
        <ele>928</ele>
        <time>2021-06-27T10:18:18.720Z</time>
      </trkpt>
      <trkpt lat="44.00769" lon="3.50374">
        <ele>928</ele>
        <time>2021-06-27T10:18:36.724Z</time>
      </trkpt>
      <trkpt lat="44.00779" lon="3.50399">
        <ele>929</ele>
        <time>2021-06-27T10:18:41.722Z</time>
      </trkpt>
      <trkpt lat="44.00781" lon="3.50402">
        <ele>929</ele>
        <time>2021-06-27T10:19:35.724Z</time>
      </trkpt>
      <trkpt lat="44.00781" lon="3.50401">
        <ele>929</ele>
        <time>2021-06-27T10:19:40.716Z</time>
      </trkpt>
      <trkpt lat="44.00779" lon="3.50398">
        <ele>929</ele>
        <time>2021-06-27T10:19:45.723Z</time>
      </trkpt>
      <trkpt lat="44.00776" lon="3.50395">
        <ele>929</ele>
        <time>2021-06-27T10:19:50.715Z</time>
      </trkpt>
      <trkpt lat="44.0077" lon="3.50392">
        <ele>929</ele>
        <time>2021-06-27T10:19:59.717Z</time>
      </trkpt>
      <trkpt lat="44.0077" lon="3.50392">
        <ele>929</ele>
        <time>2021-06-27T10:20:03.740Z</time>
      </trkpt>
      <trkpt lat="44.00759" lon="3.50388">
        <ele>927</ele>
        <time>2021-06-27T10:20:42.721Z</time>
      </trkpt>
      <trkpt lat="44.00753" lon="3.50386">
        <ele>927</ele>
        <time>2021-06-27T10:20:47.722Z</time>
      </trkpt>
      <trkpt lat="44.00743" lon="3.5038">
        <ele>927</ele>
        <time>2021-06-27T10:20:52.723Z</time>
      </trkpt>
      <trkpt lat="44.00735" lon="3.50383">
        <ele>928</ele>
        <time>2021-06-27T10:21:21.726Z</time>
      </trkpt>
      <trkpt lat="44.00731" lon="3.50384">
        <ele>928</ele>
        <time>2021-06-27T10:21:26.728Z</time>
      </trkpt>
      <trkpt lat="44.00719" lon="3.50385">
        <ele>928</ele>
        <time>2021-06-27T10:21:30.747Z</time>
      </trkpt>
      <trkpt lat="44.00714" lon="3.50386">
        <ele>928</ele>
        <time>2021-06-27T10:21:35.724Z</time>
      </trkpt>
      <trkpt lat="44.00712" lon="3.50388">
        <ele>928</ele>
        <time>2021-06-27T10:22:14.733Z</time>
      </trkpt>
      <trkpt lat="44.00709" lon="3.50392">
        <ele>928</ele>
        <time>2021-06-27T10:22:23.720Z</time>
      </trkpt>
      <trkpt lat="44.00704" lon="3.50401">
        <ele>927</ele>
        <time>2021-06-27T10:22:28.712Z</time>
      </trkpt>
      <trkpt lat="44.00701" lon="3.50403">
        <ele>927</ele>
        <time>2021-06-27T10:22:33.717Z</time>
      </trkpt>
      <trkpt lat="44.00698" lon="3.50404">
        <ele>929</ele>
        <time>2021-06-27T10:22:43.696Z</time>
      </trkpt>
      <trkpt lat="44.00698" lon="3.50407">
        <ele>929</ele>
        <time>2021-06-27T10:22:47.721Z</time>
      </trkpt>
      <trkpt lat="44.00696" lon="3.50413">
        <ele>929</ele>
        <time>2021-06-27T10:22:52.707Z</time>
      </trkpt>
      <trkpt lat="44.00696" lon="3.50417">
        <ele>929</ele>
        <time>2021-06-27T10:22:56.725Z</time>
      </trkpt>
      <trkpt lat="44.00697" lon="3.5042">
        <ele>929</ele>
        <time>2021-06-27T10:23:01.739Z</time>
      </trkpt>
      <trkpt lat="44.00699" lon="3.50421">
        <ele>929</ele>
        <time>2021-06-27T10:23:25.723Z</time>
      </trkpt>
      <trkpt lat="44.007" lon="3.50426">
        <ele>929</ele>
        <time>2021-06-27T10:23:30.717Z</time>
      </trkpt>
      <trkpt lat="44.007" lon="3.5043">
        <ele>929</ele>
        <time>2021-06-27T10:23:34.741Z</time>
      </trkpt>
      <trkpt lat="44.00702" lon="3.50433">
        <ele>935</ele>
        <time>2021-06-27T10:23:39.723Z</time>
      </trkpt>
      <trkpt lat="44.00705" lon="3.50439">
        <ele>935</ele>
        <time>2021-06-27T10:23:53.716Z</time>
      </trkpt>
      <trkpt lat="44.00706" lon="3.50441">
        <ele>935</ele>
        <time>2021-06-27T10:24:07.725Z</time>
      </trkpt>
      <trkpt lat="44.00706" lon="3.50442">
        <ele>935</ele>
        <time>2021-06-27T10:24:27.714Z</time>
      </trkpt>
      <trkpt lat="44.00704" lon="3.50446">
        <ele>935</ele>
        <time>2021-06-27T10:24:32.725Z</time>
      </trkpt>
      <trkpt lat="44.00703" lon="3.50452">
        <ele>935</ele>
        <time>2021-06-27T10:24:36.735Z</time>
      </trkpt>
      <trkpt lat="44.00703" lon="3.50453">
        <ele>935</ele>
        <time>2021-06-27T10:24:41.717Z</time>
      </trkpt>
      <trkpt lat="44.00702" lon="3.50454">
        <ele>935</ele>
        <time>2021-06-27T10:24:45.722Z</time>
      </trkpt>
      <trkpt lat="44.00701" lon="3.50458">
        <ele>935</ele>
        <time>2021-06-27T10:24:50.718Z</time>
      </trkpt>
      <trkpt lat="44.00699" lon="3.5046">
        <ele>944</ele>
        <time>2021-06-27T10:24:55.729Z</time>
      </trkpt>
      <trkpt lat="44.00698" lon="3.50464">
        <ele>944</ele>
        <time>2021-06-27T10:25:00.730Z</time>
      </trkpt>
      <trkpt lat="44.007" lon="3.50473">
        <ele>944</ele>
        <time>2021-06-27T10:25:10.723Z</time>
      </trkpt>
      <trkpt lat="44.00701" lon="3.50477">
        <ele>944</ele>
        <time>2021-06-27T10:25:15.723Z</time>
      </trkpt>
      <trkpt lat="44.007" lon="3.50479">
        <ele>944</ele>
        <time>2021-06-27T10:25:20.721Z</time>
      </trkpt>
      <trkpt lat="44.00698" lon="3.50481">
        <ele>944</ele>
        <time>2021-06-27T10:25:35.726Z</time>
      </trkpt>
      <trkpt lat="44.00697" lon="3.50484">
        <ele>944</ele>
        <time>2021-06-27T10:25:40.728Z</time>
      </trkpt>
      <trkpt lat="44.00704" lon="3.50495">
        <ele>953</ele>
        <time>2021-06-27T10:26:22.724Z</time>
      </trkpt>
      <trkpt lat="44.00704" lon="3.50496">
        <ele>953</ele>
        <time>2021-06-27T10:26:27.720Z</time>
      </trkpt>
      <trkpt lat="44.00705" lon="3.50499">
        <ele>953</ele>
        <time>2021-06-27T10:26:31.725Z</time>
      </trkpt>
      <trkpt lat="44.00705" lon="3.505">
        <ele>953</ele>
        <time>2021-06-27T10:26:36.723Z</time>
      </trkpt>
      <trkpt lat="44.00706" lon="3.50503">
        <ele>953</ele>
        <time>2021-06-27T10:26:41.721Z</time>
      </trkpt>
      <trkpt lat="44.00707" lon="3.50505">
        <ele>953</ele>
        <time>2021-06-27T10:26:50.723Z</time>
      </trkpt>
      <trkpt lat="44.00708" lon="3.50509">
        <ele>953</ele>
        <time>2021-06-27T10:26:55.723Z</time>
      </trkpt>
      <trkpt lat="44.00708" lon="3.50512">
        <ele>953</ele>
        <time>2021-06-27T10:27:00.727Z</time>
      </trkpt>
      <trkpt lat="44.00709" lon="3.50515">
        <ele>963</ele>
        <time>2021-06-27T10:27:04.747Z</time>
      </trkpt>
      <trkpt lat="44.00714" lon="3.50518">
        <ele>963</ele>
        <time>2021-06-27T10:27:09.715Z</time>
      </trkpt>
      <trkpt lat="44.00718" lon="3.50526">
        <ele>963</ele>
        <time>2021-06-27T10:27:18.721Z</time>
      </trkpt>
      <trkpt lat="44.00718" lon="3.50526">
        <ele>963</ele>
        <time>2021-06-27T10:27:23.715Z</time>
      </trkpt>
      <trkpt lat="44.00719" lon="3.50527">
        <ele>963</ele>
        <time>2021-06-27T10:27:32.721Z</time>
      </trkpt>
      <trkpt lat="44.0072" lon="3.5053">
        <ele>963</ele>
        <time>2021-06-27T10:27:36.755Z</time>
      </trkpt>
      <trkpt lat="44.00721" lon="3.50533">
        <ele>963</ele>
        <time>2021-06-27T10:27:41.719Z</time>
      </trkpt>
      <trkpt lat="44.00724" lon="3.50539">
        <ele>963</ele>
        <time>2021-06-27T10:27:54.740Z</time>
      </trkpt>
      <trkpt lat="44.00725" lon="3.50542">
        <ele>963</ele>
        <time>2021-06-27T10:27:59.726Z</time>
      </trkpt>
      <trkpt lat="44.00726" lon="3.50544">
        <ele>976</ele>
        <time>2021-06-27T10:28:08.745Z</time>
      </trkpt>
      <trkpt lat="44.00724" lon="3.50546">
        <ele>976</ele>
        <time>2021-06-27T10:28:18.720Z</time>
      </trkpt>
      <trkpt lat="44.00727" lon="3.50552">
        <ele>976</ele>
        <time>2021-06-27T10:28:23.721Z</time>
      </trkpt>
      <trkpt lat="44.00729" lon="3.50556">
        <ele>976</ele>
        <time>2021-06-27T10:28:28.695Z</time>
      </trkpt>
      <trkpt lat="44.0073" lon="3.50559">
        <ele>976</ele>
        <time>2021-06-27T10:28:36.722Z</time>
      </trkpt>
      <trkpt lat="44.0073" lon="3.50561">
        <ele>976</ele>
        <time>2021-06-27T10:28:40.730Z</time>
      </trkpt>
      <trkpt lat="44.0073" lon="3.50564">
        <ele>976</ele>
        <time>2021-06-27T10:28:45.722Z</time>
      </trkpt>
      <trkpt lat="44.00731" lon="3.50568">
        <ele>976</ele>
        <time>2021-06-27T10:28:50.722Z</time>
      </trkpt>
      <trkpt lat="44.00731" lon="3.50568">
        <ele>976</ele>
        <time>2021-06-27T10:28:54.728Z</time>
      </trkpt>
      <trkpt lat="44.00732" lon="3.50571">
        <ele>986</ele>
        <time>2021-06-27T10:29:04.711Z</time>
      </trkpt>
      <trkpt lat="44.00734" lon="3.50575">
        <ele>986</ele>
        <time>2021-06-27T10:29:08.723Z</time>
      </trkpt>
      <trkpt lat="44.00736" lon="3.50576">
        <ele>986</ele>
        <time>2021-06-27T10:29:13.715Z</time>
      </trkpt>
      <trkpt lat="44.00737" lon="3.50578">
        <ele>989</ele>
        <time>2021-06-27T10:29:17.742Z</time>
      </trkpt>
      <trkpt lat="44.00738" lon="3.50579">
        <ele>989</ele>
        <time>2021-06-27T10:29:32.715Z</time>
      </trkpt>
      <trkpt lat="44.0074" lon="3.50581">
        <ele>989</ele>
        <time>2021-06-27T10:29:37.725Z</time>
      </trkpt>
      <trkpt lat="44.00742" lon="3.50584">
        <ele>989</ele>
        <time>2021-06-27T10:29:47.726Z</time>
      </trkpt>
      <trkpt lat="44.00743" lon="3.5059">
        <ele>989</ele>
        <time>2021-06-27T10:30:01.722Z</time>
      </trkpt>
      <trkpt lat="44.00743" lon="3.50591">
        <ele>989</ele>
        <time>2021-06-27T10:30:05.724Z</time>
      </trkpt>
      <trkpt lat="44.00746" lon="3.50593">
        <ele>989</ele>
        <time>2021-06-27T10:30:10.716Z</time>
      </trkpt>
      <trkpt lat="44.00747" lon="3.50595">
        <ele>989</ele>
        <time>2021-06-27T10:30:15.722Z</time>
      </trkpt>
      <trkpt lat="44.00747" lon="3.50596">
        <ele>989</ele>
        <time>2021-06-27T10:30:20.725Z</time>
      </trkpt>
      <trkpt lat="44.0075" lon="3.506">
        <ele>1000</ele>
        <time>2021-06-27T10:30:24.721Z</time>
      </trkpt>
      <trkpt lat="44.00754" lon="3.50603">
        <ele>1000</ele>
        <time>2021-06-27T10:30:29.727Z</time>
      </trkpt>
      <trkpt lat="44.00758" lon="3.50609">
        <ele>1000</ele>
        <time>2021-06-27T10:30:49.715Z</time>
      </trkpt>
      <trkpt lat="44.0076" lon="3.50611">
        <ele>1000</ele>
        <time>2021-06-27T10:30:54.718Z</time>
      </trkpt>
      <trkpt lat="44.0076" lon="3.50613">
        <ele>1000</ele>
        <time>2021-06-27T10:31:04.720Z</time>
      </trkpt>
      <trkpt lat="44.0076" lon="3.50614">
        <ele>1000</ele>
        <time>2021-06-27T10:31:09.717Z</time>
      </trkpt>
      <trkpt lat="44.00761" lon="3.50617">
        <ele>1000</ele>
        <time>2021-06-27T10:31:14.721Z</time>
      </trkpt>
      <trkpt lat="44.00763" lon="3.50621">
        <ele>1000</ele>
        <time>2021-06-27T10:31:23.735Z</time>
      </trkpt>
      <trkpt lat="44.00765" lon="3.50627">
        <ele>1015</ele>
        <time>2021-06-27T10:31:28.718Z</time>
      </trkpt>
      <trkpt lat="44.00765" lon="3.50627">
        <ele>1015</ele>
        <time>2021-06-27T10:31:33.715Z</time>
      </trkpt>
      <trkpt lat="44.00765" lon="3.50629">
        <ele>1015</ele>
        <time>2021-06-27T10:31:37.717Z</time>
      </trkpt>
      <trkpt lat="44.00767" lon="3.50633">
        <ele>1015</ele>
        <time>2021-06-27T10:31:42.713Z</time>
      </trkpt>
      <trkpt lat="44.00768" lon="3.50634">
        <ele>1015</ele>
        <time>2021-06-27T10:31:47.726Z</time>
      </trkpt>
      <trkpt lat="44.00771" lon="3.50637">
        <ele>1015</ele>
        <time>2021-06-27T10:31:52.723Z</time>
      </trkpt>
      <trkpt lat="44.00774" lon="3.5064">
        <ele>1015</ele>
        <time>2021-06-27T10:31:57.726Z</time>
      </trkpt>
      <trkpt lat="44.00775" lon="3.50644">
        <ele>1015</ele>
        <time>2021-06-27T10:32:02.718Z</time>
      </trkpt>
      <trkpt lat="44.00778" lon="3.50646">
        <ele>1015</ele>
        <time>2021-06-27T10:32:12.714Z</time>
      </trkpt>
      <trkpt lat="44.0078" lon="3.50648">
        <ele>1015</ele>
        <time>2021-06-27T10:32:17.722Z</time>
      </trkpt>
      <trkpt lat="44.00781" lon="3.50648">
        <ele>1015</ele>
        <time>2021-06-27T10:32:22.721Z</time>
      </trkpt>
      <trkpt lat="44.00783" lon="3.50648">
        <ele>1015</ele>
        <time>2021-06-27T10:32:27.722Z</time>
      </trkpt>
      <trkpt lat="44.00787" lon="3.50648">
        <ele>1015</ele>
        <time>2021-06-27T10:32:32.719Z</time>
      </trkpt>
      <trkpt lat="44.00789" lon="3.50649">
        <ele>1015</ele>
        <time>2021-06-27T10:32:36.715Z</time>
      </trkpt>
      <trkpt lat="44.00793" lon="3.50653">
        <ele>1014</ele>
        <time>2021-06-27T10:32:41.728Z</time>
      </trkpt>
      <trkpt lat="44.00797" lon="3.50655">
        <ele>1021</ele>
        <time>2021-06-27T10:32:46.725Z</time>
      </trkpt>
      <trkpt lat="44.008" lon="3.50656">
        <ele>1021</ele>
        <time>2021-06-27T10:32:51.719Z</time>
      </trkpt>
      <trkpt lat="44.00803" lon="3.50659">
        <ele>1021</ele>
        <time>2021-06-27T10:33:09.724Z</time>
      </trkpt>
      <trkpt lat="44.00804" lon="3.5066">
        <ele>1021</ele>
        <time>2021-06-27T10:33:14.721Z</time>
      </trkpt>
      <trkpt lat="44.00806" lon="3.50662">
        <ele>1021</ele>
        <time>2021-06-27T10:33:19.715Z</time>
      </trkpt>
      <trkpt lat="44.00808" lon="3.50662">
        <ele>1021</ele>
        <time>2021-06-27T10:33:23.729Z</time>
      </trkpt>
      <trkpt lat="44.0081" lon="3.50663">
        <ele>1021</ele>
        <time>2021-06-27T10:33:28.718Z</time>
      </trkpt>
      <trkpt lat="44.00815" lon="3.50664">
        <ele>1021</ele>
        <time>2021-06-27T10:33:46.722Z</time>
      </trkpt>
      <trkpt lat="44.00817" lon="3.50666">
        <ele>1021</ele>
        <time>2021-06-27T10:33:51.725Z</time>
      </trkpt>
      <trkpt lat="44.00819" lon="3.50668">
        <ele>1021</ele>
        <time>2021-06-27T10:33:56.725Z</time>
      </trkpt>
      <trkpt lat="44.00819" lon="3.50669">
        <ele>1021</ele>
        <time>2021-06-27T10:34:15.723Z</time>
      </trkpt>
      <trkpt lat="44.00819" lon="3.50673">
        <ele>1021</ele>
        <time>2021-06-27T10:34:20.727Z</time>
      </trkpt>
      <trkpt lat="44.0082" lon="3.50673">
        <ele>1021</ele>
        <time>2021-06-27T10:34:24.727Z</time>
      </trkpt>
      <trkpt lat="44.00823" lon="3.50679">
        <ele>1021</ele>
        <time>2021-06-27T10:34:29.715Z</time>
      </trkpt>
      <trkpt lat="44.00823" lon="3.50681">
        <ele>1029</ele>
        <time>2021-06-27T10:34:34.723Z</time>
      </trkpt>
      <trkpt lat="44.00824" lon="3.50682">
        <ele>1029</ele>
        <time>2021-06-27T10:34:39.722Z</time>
      </trkpt>
      <trkpt lat="44.00827" lon="3.50686">
        <ele>1029</ele>
        <time>2021-06-27T10:34:43.724Z</time>
      </trkpt>
      <trkpt lat="44.00829" lon="3.50692">
        <ele>1029</ele>
        <time>2021-06-27T10:34:53.701Z</time>
      </trkpt>
      <trkpt lat="44.00831" lon="3.50694">
        <ele>1029</ele>
        <time>2021-06-27T10:34:57.738Z</time>
      </trkpt>
      <trkpt lat="44.00831" lon="3.50695">
        <ele>1029</ele>
        <time>2021-06-27T10:35:02.719Z</time>
      </trkpt>
      <trkpt lat="44.00834" lon="3.50696">
        <ele>1029</ele>
        <time>2021-06-27T10:35:30.723Z</time>
      </trkpt>
      <trkpt lat="44.00836" lon="3.50698">
        <ele>1029</ele>
        <time>2021-06-27T10:35:34.720Z</time>
      </trkpt>
      <trkpt lat="44.00838" lon="3.507">
        <ele>1029</ele>
        <time>2021-06-27T10:35:39.724Z</time>
      </trkpt>
      <trkpt lat="44.0084" lon="3.50703">
        <ele>1029</ele>
        <time>2021-06-27T10:35:44.728Z</time>
      </trkpt>
      <trkpt lat="44.00841" lon="3.50708">
        <ele>1029</ele>
        <time>2021-06-27T10:36:36.720Z</time>
      </trkpt>
      <trkpt lat="44.00839" lon="3.50714">
        <ele>1041</ele>
        <time>2021-06-27T10:36:41.723Z</time>
      </trkpt>
      <trkpt lat="44.0084" lon="3.50717">
        <ele>1041</ele>
        <time>2021-06-27T10:36:45.724Z</time>
      </trkpt>
      <trkpt lat="44.00839" lon="3.50721">
        <ele>1041</ele>
        <time>2021-06-27T10:37:04.724Z</time>
      </trkpt>
      <trkpt lat="44.00837" lon="3.50725">
        <ele>1041</ele>
        <time>2021-06-27T10:37:14.720Z</time>
      </trkpt>
      <trkpt lat="44.00836" lon="3.50732">
        <ele>1041</ele>
        <time>2021-06-27T10:37:19.728Z</time>
      </trkpt>
      <trkpt lat="44.00835" lon="3.50742">
        <ele>1052</ele>
        <time>2021-06-27T10:37:58.713Z</time>
      </trkpt>
      <trkpt lat="44.00833" lon="3.50749">
        <ele>1052</ele>
        <time>2021-06-27T10:38:02.723Z</time>
      </trkpt>
      <trkpt lat="44.00836" lon="3.5075">
        <ele>1052</ele>
        <time>2021-06-27T10:38:07.725Z</time>
      </trkpt>
      <trkpt lat="44.00836" lon="3.50753">
        <ele>1052</ele>
        <time>2021-06-27T10:38:12.722Z</time>
      </trkpt>
      <trkpt lat="44.00837" lon="3.50755">
        <ele>1052</ele>
        <time>2021-06-27T10:38:17.727Z</time>
      </trkpt>
      <trkpt lat="44.00842" lon="3.50765">
        <ele>1060</ele>
        <time>2021-06-27T10:39:00.720Z</time>
      </trkpt>
      <trkpt lat="44.00842" lon="3.50768">
        <ele>1060</ele>
        <time>2021-06-27T10:39:04.726Z</time>
      </trkpt>
      <trkpt lat="44.00841" lon="3.50772">
        <ele>1060</ele>
        <time>2021-06-27T10:39:09.721Z</time>
      </trkpt>
      <trkpt lat="44.00841" lon="3.50774">
        <ele>1060</ele>
        <time>2021-06-27T10:39:14.723Z</time>
      </trkpt>
      <trkpt lat="44.00843" lon="3.50781">
        <ele>1060</ele>
        <time>2021-06-27T10:39:19.722Z</time>
      </trkpt>
      <trkpt lat="44.00842" lon="3.50785">
        <ele>1060</ele>
        <time>2021-06-27T10:39:23.729Z</time>
      </trkpt>
      <trkpt lat="44.0084" lon="3.50786">
        <ele>1060</ele>
        <time>2021-06-27T10:39:28.722Z</time>
      </trkpt>
      <trkpt lat="44.0084" lon="3.50792">
        <ele>1060</ele>
        <time>2021-06-27T10:39:37.724Z</time>
      </trkpt>
      <trkpt lat="44.00841" lon="3.50799">
        <ele>1068</ele>
        <time>2021-06-27T10:39:46.723Z</time>
      </trkpt>
      <trkpt lat="44.0084" lon="3.50808">
        <ele>1068</ele>
        <time>2021-06-27T10:40:01.725Z</time>
      </trkpt>
      <trkpt lat="44.00839" lon="3.50808">
        <ele>1068</ele>
        <time>2021-06-27T10:40:06.718Z</time>
      </trkpt>
      <trkpt lat="44.00839" lon="3.50811">
        <ele>1068</ele>
        <time>2021-06-27T10:40:11.722Z</time>
      </trkpt>
      <trkpt lat="44.0084" lon="3.50816">
        <ele>1068</ele>
        <time>2021-06-27T10:40:16.717Z</time>
      </trkpt>
      <trkpt lat="44.0084" lon="3.50823">
        <ele>1076</ele>
        <time>2021-06-27T10:40:31.725Z</time>
      </trkpt>
      <trkpt lat="44.00843" lon="3.5083">
        <ele>1076</ele>
        <time>2021-06-27T10:40:45.720Z</time>
      </trkpt>
      <trkpt lat="44.00844" lon="3.50831">
        <ele>1076</ele>
        <time>2021-06-27T10:40:50.721Z</time>
      </trkpt>
      <trkpt lat="44.00844" lon="3.50834">
        <ele>1076</ele>
        <time>2021-06-27T10:41:00.722Z</time>
      </trkpt>
      <trkpt lat="44.00842" lon="3.50837">
        <ele>1076</ele>
        <time>2021-06-27T10:41:05.724Z</time>
      </trkpt>
      <trkpt lat="44.0084" lon="3.50841">
        <ele>1076</ele>
        <time>2021-06-27T10:41:14.712Z</time>
      </trkpt>
      <trkpt lat="44.00839" lon="3.50844">
        <ele>1076</ele>
        <time>2021-06-27T10:41:19.723Z</time>
      </trkpt>
      <trkpt lat="44.00838" lon="3.50846">
        <ele>1076</ele>
        <time>2021-06-27T10:41:24.753Z</time>
      </trkpt>
      <trkpt lat="44.00837" lon="3.50855">
        <ele>1082</ele>
        <time>2021-06-27T10:41:39.722Z</time>
      </trkpt>
      <trkpt lat="44.00835" lon="3.50857">
        <ele>1082</ele>
        <time>2021-06-27T10:41:49.719Z</time>
      </trkpt>
      <trkpt lat="44.00833" lon="3.50862">
        <ele>1082</ele>
        <time>2021-06-27T10:41:53.742Z</time>
      </trkpt>
      <trkpt lat="44.00833" lon="3.50864">
        <ele>1082</ele>
        <time>2021-06-27T10:41:58.696Z</time>
      </trkpt>
      <trkpt lat="44.00833" lon="3.50866">
        <ele>1082</ele>
        <time>2021-06-27T10:42:03.720Z</time>
      </trkpt>
      <trkpt lat="44.00833" lon="3.50875">
        <ele>1082</ele>
        <time>2021-06-27T10:42:08.721Z</time>
      </trkpt>
      <trkpt lat="44.00832" lon="3.50881">
        <ele>1085</ele>
        <time>2021-06-27T10:42:18.723Z</time>
      </trkpt>
      <trkpt lat="44.00833" lon="3.50885">
        <ele>1085</ele>
        <time>2021-06-27T10:42:23.723Z</time>
      </trkpt>
      <trkpt lat="44.00835" lon="3.50889">
        <ele>1085</ele>
        <time>2021-06-27T10:42:33.727Z</time>
      </trkpt>
      <trkpt lat="44.00832" lon="3.50892">
        <ele>1085</ele>
        <time>2021-06-27T10:42:38.713Z</time>
      </trkpt>
      <trkpt lat="44.00831" lon="3.50894">
        <ele>1085</ele>
        <time>2021-06-27T10:42:43.720Z</time>
      </trkpt>
      <trkpt lat="44.00831" lon="3.50898">
        <ele>1085</ele>
        <time>2021-06-27T10:42:47.724Z</time>
      </trkpt>
      <trkpt lat="44.00833" lon="3.50904">
        <ele>1096</ele>
        <time>2021-06-27T10:43:07.722Z</time>
      </trkpt>
      <trkpt lat="44.00833" lon="3.50905">
        <ele>1096</ele>
        <time>2021-06-27T10:43:11.726Z</time>
      </trkpt>
      <trkpt lat="44.00835" lon="3.5091">
        <ele>1096</ele>
        <time>2021-06-27T10:43:16.717Z</time>
      </trkpt>
      <trkpt lat="44.00835" lon="3.5091">
        <ele>1096</ele>
        <time>2021-06-27T10:43:20.721Z</time>
      </trkpt>
      <trkpt lat="44.00836" lon="3.50918">
        <ele>1096</ele>
        <time>2021-06-27T10:43:35.722Z</time>
      </trkpt>
      <trkpt lat="44.00838" lon="3.50923">
        <ele>1096</ele>
        <time>2021-06-27T10:43:40.713Z</time>
      </trkpt>
      <trkpt lat="44.00841" lon="3.50928">
        <ele>1096</ele>
        <time>2021-06-27T10:43:45.719Z</time>
      </trkpt>
      <trkpt lat="44.00842" lon="3.50931">
        <ele>1103</ele>
        <time>2021-06-27T10:43:50.721Z</time>
      </trkpt>
      <trkpt lat="44.00842" lon="3.50933">
        <ele>1103</ele>
        <time>2021-06-27T10:43:54.717Z</time>
      </trkpt>
      <trkpt lat="44.00841" lon="3.50937">
        <ele>1103</ele>
        <time>2021-06-27T10:43:59.728Z</time>
      </trkpt>
      <trkpt lat="44.00843" lon="3.50944">
        <ele>1103</ele>
        <time>2021-06-27T10:44:04.712Z</time>
      </trkpt>
      <trkpt lat="44.00846" lon="3.50948">
        <ele>1103</ele>
        <time>2021-06-27T10:44:13.723Z</time>
      </trkpt>
      <trkpt lat="44.00847" lon="3.50953">
        <ele>1104</ele>
        <time>2021-06-27T10:44:18.713Z</time>
      </trkpt>
      <trkpt lat="44.00847" lon="3.50953">
        <ele>1104</ele>
        <time>2021-06-27T10:44:23.726Z</time>
      </trkpt>
      <trkpt lat="44.00849" lon="3.50953">
        <ele>1104</ele>
        <time>2021-06-27T10:44:28.717Z</time>
      </trkpt>
      <trkpt lat="44.00852" lon="3.50956">
        <ele>1104</ele>
        <time>2021-06-27T10:44:38.718Z</time>
      </trkpt>
      <trkpt lat="44.00852" lon="3.50963">
        <ele>1107</ele>
        <time>2021-06-27T10:45:03.721Z</time>
      </trkpt>
      <trkpt lat="44.00855" lon="3.50968">
        <ele>1107</ele>
        <time>2021-06-27T10:45:08.722Z</time>
      </trkpt>
      <trkpt lat="44.00855" lon="3.50972">
        <ele>1107</ele>
        <time>2021-06-27T10:45:13.713Z</time>
      </trkpt>
      <trkpt lat="44.00856" lon="3.50977">
        <ele>1107</ele>
        <time>2021-06-27T10:45:18.723Z</time>
      </trkpt>
      <trkpt lat="44.00857" lon="3.50984">
        <ele>1107</ele>
        <time>2021-06-27T10:45:23.714Z</time>
      </trkpt>
      <trkpt lat="44.0086" lon="3.50989">
        <ele>1111</ele>
        <time>2021-06-27T10:45:27.720Z</time>
      </trkpt>
      <trkpt lat="44.00864" lon="3.50994">
        <ele>1111</ele>
        <time>2021-06-27T10:45:32.723Z</time>
      </trkpt>
      <trkpt lat="44.0087" lon="3.50995">
        <ele>1111</ele>
        <time>2021-06-27T10:45:37.700Z</time>
      </trkpt>
      <trkpt lat="44.00871" lon="3.50996">
        <ele>1111</ele>
        <time>2021-06-27T10:45:41.719Z</time>
      </trkpt>
      <trkpt lat="44.00871" lon="3.50997">
        <ele>1111</ele>
        <time>2021-06-27T10:45:45.721Z</time>
      </trkpt>
      <trkpt lat="44.00872" lon="3.51001">
        <ele>1111</ele>
        <time>2021-06-27T10:45:50.722Z</time>
      </trkpt>
      <trkpt lat="44.00874" lon="3.51003">
        <ele>1111</ele>
        <time>2021-06-27T10:46:00.719Z</time>
      </trkpt>
      <trkpt lat="44.00878" lon="3.51006">
        <ele>1114</ele>
        <time>2021-06-27T10:46:04.724Z</time>
      </trkpt>
      <trkpt lat="44.00883" lon="3.51004">
        <ele>1114</ele>
        <time>2021-06-27T10:46:09.725Z</time>
      </trkpt>
      <trkpt lat="44.00886" lon="3.51">
        <ele>1114</ele>
        <time>2021-06-27T10:46:14.720Z</time>
      </trkpt>
      <trkpt lat="44.00888" lon="3.51">
        <ele>1114</ele>
        <time>2021-06-27T10:46:18.727Z</time>
      </trkpt>
      <trkpt lat="44.00893" lon="3.51">
        <ele>1114</ele>
        <time>2021-06-27T10:46:23.733Z</time>
      </trkpt>
      <trkpt lat="44.00897" lon="3.50999">
        <ele>1114</ele>
        <time>2021-06-27T10:46:28.721Z</time>
      </trkpt>
      <trkpt lat="44.009" lon="3.51001">
        <ele>1114</ele>
        <time>2021-06-27T10:46:33.724Z</time>
      </trkpt>
      <trkpt lat="44.00905" lon="3.51001">
        <ele>1119</ele>
        <time>2021-06-27T10:46:38.722Z</time>
      </trkpt>
      <trkpt lat="44.00908" lon="3.51002">
        <ele>1119</ele>
        <time>2021-06-27T10:46:43.716Z</time>
      </trkpt>
      <trkpt lat="44.00911" lon="3.51005">
        <ele>1119</ele>
        <time>2021-06-27T10:46:48.705Z</time>
      </trkpt>
      <trkpt lat="44.00911" lon="3.51006">
        <ele>1119</ele>
        <time>2021-06-27T10:46:52.722Z</time>
      </trkpt>
      <trkpt lat="44.00916" lon="3.51007">
        <ele>1119</ele>
        <time>2021-06-27T10:46:57.722Z</time>
      </trkpt>
      <trkpt lat="44.00921" lon="3.5101">
        <ele>1119</ele>
        <time>2021-06-27T10:47:02.723Z</time>
      </trkpt>
      <trkpt lat="44.00928" lon="3.51009">
        <ele>1119</ele>
        <time>2021-06-27T10:47:07.713Z</time>
      </trkpt>
      <trkpt lat="44.0093" lon="3.51009">
        <ele>1119</ele>
        <time>2021-06-27T10:47:11.723Z</time>
      </trkpt>
      <trkpt lat="44.00936" lon="3.51008">
        <ele>1122</ele>
        <time>2021-06-27T10:47:16.721Z</time>
      </trkpt>
      <trkpt lat="44.00938" lon="3.5101">
        <ele>1122</ele>
        <time>2021-06-27T10:47:21.718Z</time>
      </trkpt>
      <trkpt lat="44.00939" lon="3.51011">
        <ele>1122</ele>
        <time>2021-06-27T10:47:25.726Z</time>
      </trkpt>
      <trkpt lat="44.00942" lon="3.51013">
        <ele>1122</ele>
        <time>2021-06-27T10:47:30.725Z</time>
      </trkpt>
      <trkpt lat="44.00946" lon="3.51014">
        <ele>1122</ele>
        <time>2021-06-27T10:47:35.715Z</time>
      </trkpt>
      <trkpt lat="44.00947" lon="3.51013">
        <ele>1122</ele>
        <time>2021-06-27T10:47:39.723Z</time>
      </trkpt>
      <trkpt lat="44.00953" lon="3.51011">
        <ele>1122</ele>
        <time>2021-06-27T10:47:44.716Z</time>
      </trkpt>
      <trkpt lat="44.00956" lon="3.51011">
        <ele>1122</ele>
        <time>2021-06-27T10:47:49.721Z</time>
      </trkpt>
      <trkpt lat="44.00961" lon="3.51012">
        <ele>1125</ele>
        <time>2021-06-27T10:47:54.721Z</time>
      </trkpt>
      <trkpt lat="44.00965" lon="3.5101">
        <ele>1125</ele>
        <time>2021-06-27T10:47:59.721Z</time>
      </trkpt>
      <trkpt lat="44.00969" lon="3.51005">
        <ele>1125</ele>
        <time>2021-06-27T10:48:03.779Z</time>
      </trkpt>
      <trkpt lat="44.00973" lon="3.51005">
        <ele>1125</ele>
        <time>2021-06-27T10:48:08.720Z</time>
      </trkpt>
      <trkpt lat="44.00974" lon="3.51006">
        <ele>1125</ele>
        <time>2021-06-27T10:48:13.723Z</time>
      </trkpt>
      <trkpt lat="44.00974" lon="3.51002">
        <ele>1125</ele>
        <time>2021-06-27T10:48:18.721Z</time>
      </trkpt>
      <trkpt lat="44.00977" lon="3.51005">
        <ele>1125</ele>
        <time>2021-06-27T10:48:28.719Z</time>
      </trkpt>
      <trkpt lat="44.00983" lon="3.51009">
        <ele>1125</ele>
        <time>2021-06-27T10:49:05.725Z</time>
      </trkpt>
      <trkpt lat="44.00986" lon="3.51012">
        <ele>1125</ele>
        <time>2021-06-27T10:49:10.713Z</time>
      </trkpt>
      <trkpt lat="44.00986" lon="3.51013">
        <ele>1125</ele>
        <time>2021-06-27T10:49:14.723Z</time>
      </trkpt>
      <trkpt lat="44.00989" lon="3.51017">
        <ele>1130</ele>
        <time>2021-06-27T10:49:19.722Z</time>
      </trkpt>
      <trkpt lat="44.00992" lon="3.51024">
        <ele>1130</ele>
        <time>2021-06-27T10:49:24.724Z</time>
      </trkpt>
      <trkpt lat="44.00997" lon="3.51028">
        <ele>1130</ele>
        <time>2021-06-27T10:49:29.719Z</time>
      </trkpt>
      <trkpt lat="44.01001" lon="3.51027">
        <ele>1130</ele>
        <time>2021-06-27T10:49:34.723Z</time>
      </trkpt>
      <trkpt lat="44.01003" lon="3.51025">
        <ele>1130</ele>
        <time>2021-06-27T10:49:38.728Z</time>
      </trkpt>
      <trkpt lat="44.01008" lon="3.51023">
        <ele>1130</ele>
        <time>2021-06-27T10:49:43.714Z</time>
      </trkpt>
      <trkpt lat="44.01008" lon="3.51023">
        <ele>1130</ele>
        <time>2021-06-27T10:49:48.724Z</time>
      </trkpt>
      <trkpt lat="44.01012" lon="3.51022">
        <ele>1130</ele>
        <time>2021-06-27T10:49:53.722Z</time>
      </trkpt>
      <trkpt lat="44.01015" lon="3.5102">
        <ele>1133</ele>
        <time>2021-06-27T10:49:58.727Z</time>
      </trkpt>
      <trkpt lat="44.01017" lon="3.5102">
        <ele>1133</ele>
        <time>2021-06-27T10:50:02.723Z</time>
      </trkpt>
      <trkpt lat="44.01021" lon="3.51021">
        <ele>1133</ele>
        <time>2021-06-27T10:50:07.725Z</time>
      </trkpt>
      <trkpt lat="44.01026" lon="3.5102">
        <ele>1133</ele>
        <time>2021-06-27T10:50:12.710Z</time>
      </trkpt>
      <trkpt lat="44.01029" lon="3.51021">
        <ele>1133</ele>
        <time>2021-06-27T10:50:16.722Z</time>
      </trkpt>
      <trkpt lat="44.01033" lon="3.51022">
        <ele>1133</ele>
        <time>2021-06-27T10:50:21.713Z</time>
      </trkpt>
      <trkpt lat="44.01037" lon="3.51019">
        <ele>1133</ele>
        <time>2021-06-27T10:50:26.722Z</time>
      </trkpt>
      <trkpt lat="44.0104" lon="3.51018">
        <ele>1133</ele>
        <time>2021-06-27T10:50:31.696Z</time>
      </trkpt>
      <trkpt lat="44.0104" lon="3.51016">
        <ele>1133</ele>
        <time>2021-06-27T10:50:35.713Z</time>
      </trkpt>
      <trkpt lat="44.01044" lon="3.51011">
        <ele>1138</ele>
        <time>2021-06-27T10:50:39.719Z</time>
      </trkpt>
      <trkpt lat="44.01049" lon="3.51008">
        <ele>1138</ele>
        <time>2021-06-27T10:50:44.712Z</time>
      </trkpt>
      <trkpt lat="44.01051" lon="3.51003">
        <ele>1138</ele>
        <time>2021-06-27T10:51:09.719Z</time>
      </trkpt>
      <trkpt lat="44.01052" lon="3.51008">
        <ele>1138</ele>
        <time>2021-06-27T10:51:14.707Z</time>
      </trkpt>
      <trkpt lat="44.01054" lon="3.51015">
        <ele>1139</ele>
        <time>2021-06-27T10:51:18.721Z</time>
      </trkpt>
      <trkpt lat="44.01057" lon="3.5102">
        <ele>1139</ele>
        <time>2021-06-27T10:51:22.729Z</time>
      </trkpt>
      <trkpt lat="44.01061" lon="3.51021">
        <ele>1139</ele>
        <time>2021-06-27T10:51:27.724Z</time>
      </trkpt>
      <trkpt lat="44.01065" lon="3.51024">
        <ele>1139</ele>
        <time>2021-06-27T10:51:31.721Z</time>
      </trkpt>
      <trkpt lat="44.0107" lon="3.51026">
        <ele>1149</ele>
        <time>2021-06-27T10:51:36.716Z</time>
      </trkpt>
      <trkpt lat="44.01075" lon="3.51027">
        <ele>1149</ele>
        <time>2021-06-27T10:51:41.724Z</time>
      </trkpt>
      <trkpt lat="44.0108" lon="3.51027">
        <ele>1149</ele>
        <time>2021-06-27T10:51:46.723Z</time>
      </trkpt>
      <trkpt lat="44.01081" lon="3.51027">
        <ele>1149</ele>
        <time>2021-06-27T10:51:51.723Z</time>
      </trkpt>
      <trkpt lat="44.01082" lon="3.51028">
        <ele>1149</ele>
        <time>2021-06-27T10:51:56.717Z</time>
      </trkpt>
      <trkpt lat="44.01085" lon="3.51029">
        <ele>1149</ele>
        <time>2021-06-27T10:52:00.720Z</time>
      </trkpt>
      <trkpt lat="44.01089" lon="3.51029">
        <ele>1149</ele>
        <time>2021-06-27T10:52:05.722Z</time>
      </trkpt>
      <trkpt lat="44.01091" lon="3.51031">
        <ele>1149</ele>
        <time>2021-06-27T10:52:09.736Z</time>
      </trkpt>
      <trkpt lat="44.01092" lon="3.51032">
        <ele>1149</ele>
        <time>2021-06-27T10:52:14.723Z</time>
      </trkpt>
      <trkpt lat="44.01096" lon="3.51036">
        <ele>1149</ele>
        <time>2021-06-27T10:52:19.730Z</time>
      </trkpt>
      <trkpt lat="44.01101" lon="3.51038">
        <ele>1153</ele>
        <time>2021-06-27T10:52:28.719Z</time>
      </trkpt>
      <trkpt lat="44.01105" lon="3.51038">
        <ele>1153</ele>
        <time>2021-06-27T10:52:32.730Z</time>
      </trkpt>
      <trkpt lat="44.01108" lon="3.51039">
        <ele>1153</ele>
        <time>2021-06-27T10:52:37.698Z</time>
      </trkpt>
      <trkpt lat="44.0111" lon="3.51041">
        <ele>1153</ele>
        <time>2021-06-27T10:52:41.720Z</time>
      </trkpt>
      <trkpt lat="44.01116" lon="3.51045">
        <ele>1153</ele>
        <time>2021-06-27T10:52:46.742Z</time>
      </trkpt>
      <trkpt lat="44.01119" lon="3.51044">
        <ele>1153</ele>
        <time>2021-06-27T10:52:51.732Z</time>
      </trkpt>
      <trkpt lat="44.01123" lon="3.51041">
        <ele>1153</ele>
        <time>2021-06-27T10:53:01.728Z</time>
      </trkpt>
      <trkpt lat="44.01124" lon="3.51042">
        <ele>1153</ele>
        <time>2021-06-27T10:53:06.710Z</time>
      </trkpt>
      <trkpt lat="44.01125" lon="3.51044">
        <ele>1153</ele>
        <time>2021-06-27T10:53:10.725Z</time>
      </trkpt>
      <trkpt lat="44.01126" lon="3.51048">
        <ele>1158</ele>
        <time>2021-06-27T10:53:14.722Z</time>
      </trkpt>
      <trkpt lat="44.01131" lon="3.51052">
        <ele>1158</ele>
        <time>2021-06-27T10:53:19.716Z</time>
      </trkpt>
      <trkpt lat="44.01134" lon="3.51055">
        <ele>1158</ele>
        <time>2021-06-27T10:53:24.718Z</time>
      </trkpt>
      <trkpt lat="44.0114" lon="3.51056">
        <ele>1158</ele>
        <time>2021-06-27T10:53:29.719Z</time>
      </trkpt>
      <trkpt lat="44.01144" lon="3.51057">
        <ele>1158</ele>
        <time>2021-06-27T10:53:33.730Z</time>
      </trkpt>
      <trkpt lat="44.01145" lon="3.51058">
        <ele>1158</ele>
        <time>2021-06-27T10:53:38.721Z</time>
      </trkpt>
      <trkpt lat="44.01148" lon="3.51056">
        <ele>1158</ele>
        <time>2021-06-27T10:53:43.720Z</time>
      </trkpt>
      <trkpt lat="44.01149" lon="3.51056">
        <ele>1158</ele>
        <time>2021-06-27T10:53:48.721Z</time>
      </trkpt>
      <trkpt lat="44.01151" lon="3.51058">
        <ele>1158</ele>
        <time>2021-06-27T10:53:53.721Z</time>
      </trkpt>
      <trkpt lat="44.01154" lon="3.51056">
        <ele>1162</ele>
        <time>2021-06-27T10:53:58.741Z</time>
      </trkpt>
      <trkpt lat="44.01158" lon="3.51056">
        <ele>1162</ele>
        <time>2021-06-27T10:54:03.721Z</time>
      </trkpt>
      <trkpt lat="44.01161" lon="3.51054">
        <ele>1162</ele>
        <time>2021-06-27T10:54:08.748Z</time>
      </trkpt>
      <trkpt lat="44.01166" lon="3.51054">
        <ele>1162</ele>
        <time>2021-06-27T10:54:13.729Z</time>
      </trkpt>
      <trkpt lat="44.0117" lon="3.5106">
        <ele>1162</ele>
        <time>2021-06-27T10:54:18.721Z</time>
      </trkpt>
      <trkpt lat="44.01172" lon="3.5106">
        <ele>1162</ele>
        <time>2021-06-27T10:54:23.725Z</time>
      </trkpt>
      <trkpt lat="44.01175" lon="3.51059">
        <ele>1162</ele>
        <time>2021-06-27T10:54:28.724Z</time>
      </trkpt>
      <trkpt lat="44.01177" lon="3.51058">
        <ele>1162</ele>
        <time>2021-06-27T10:54:38.724Z</time>
      </trkpt>
      <trkpt lat="44.0118" lon="3.51059">
        <ele>1162</ele>
        <time>2021-06-27T10:54:43.724Z</time>
      </trkpt>
      <trkpt lat="44.01183" lon="3.51062">
        <ele>1167</ele>
        <time>2021-06-27T10:54:48.729Z</time>
      </trkpt>
      <trkpt lat="44.01185" lon="3.51062">
        <ele>1167</ele>
        <time>2021-06-27T10:54:53.712Z</time>
      </trkpt>
      <trkpt lat="44.01191" lon="3.51064">
        <ele>1167</ele>
        <time>2021-06-27T10:55:12.701Z</time>
      </trkpt>
      <trkpt lat="44.01195" lon="3.51065">
        <ele>1167</ele>
        <time>2021-06-27T10:55:16.748Z</time>
      </trkpt>
      <trkpt lat="44.01203" lon="3.51065">
        <ele>1167</ele>
        <time>2021-06-27T10:55:26.712Z</time>
      </trkpt>
      <trkpt lat="44.01208" lon="3.51066">
        <ele>1167</ele>
        <time>2021-06-27T10:55:31.724Z</time>
      </trkpt>
      <trkpt lat="44.0121" lon="3.51062">
        <ele>1173</ele>
        <time>2021-06-27T10:55:36.703Z</time>
      </trkpt>
      <trkpt lat="44.01214" lon="3.51062">
        <ele>1173</ele>
        <time>2021-06-27T10:55:44.722Z</time>
      </trkpt>
      <trkpt lat="44.01216" lon="3.51061">
        <ele>1173</ele>
        <time>2021-06-27T10:55:49.713Z</time>
      </trkpt>
      <trkpt lat="44.01218" lon="3.51061">
        <ele>1173</ele>
        <time>2021-06-27T10:55:54.713Z</time>
      </trkpt>
      <trkpt lat="44.01222" lon="3.51061">
        <ele>1173</ele>
        <time>2021-06-27T10:55:59.728Z</time>
      </trkpt>
      <trkpt lat="44.01224" lon="3.51065">
        <ele>1173</ele>
        <time>2021-06-27T10:56:04.717Z</time>
      </trkpt>
      <trkpt lat="44.01228" lon="3.5107">
        <ele>1175</ele>
        <time>2021-06-27T10:56:14.718Z</time>
      </trkpt>
      <trkpt lat="44.01232" lon="3.51074">
        <ele>1175</ele>
        <time>2021-06-27T10:56:19.720Z</time>
      </trkpt>
      <trkpt lat="44.01234" lon="3.51076">
        <ele>1175</ele>
        <time>2021-06-27T10:56:24.719Z</time>
      </trkpt>
      <trkpt lat="44.01235" lon="3.51077">
        <ele>1175</ele>
        <time>2021-06-27T10:56:29.719Z</time>
      </trkpt>
      <trkpt lat="44.01238" lon="3.51079">
        <ele>1183</ele>
        <time>2021-06-27T10:56:34.720Z</time>
      </trkpt>
      <trkpt lat="44.0124" lon="3.51081">
        <ele>1183</ele>
        <time>2021-06-27T10:56:38.740Z</time>
      </trkpt>
      <trkpt lat="44.01241" lon="3.51082">
        <ele>1183</ele>
        <time>2021-06-27T10:56:43.722Z</time>
      </trkpt>
      <trkpt lat="44.01247" lon="3.51077">
        <ele>1183</ele>
        <time>2021-06-27T10:56:53.721Z</time>
      </trkpt>
      <trkpt lat="44.01252" lon="3.51071">
        <ele>1183</ele>
        <time>2021-06-27T10:56:58.722Z</time>
      </trkpt>
      <trkpt lat="44.01253" lon="3.51068">
        <ele>1179</ele>
        <time>2021-06-27T10:57:03.723Z</time>
      </trkpt>
      <trkpt lat="44.01257" lon="3.51063">
        <ele>1179</ele>
        <time>2021-06-27T10:57:08.722Z</time>
      </trkpt>
      <trkpt lat="44.01258" lon="3.51062">
        <ele>1179</ele>
        <time>2021-06-27T10:57:13.720Z</time>
      </trkpt>
      <trkpt lat="44.01263" lon="3.51061">
        <ele>1179</ele>
        <time>2021-06-27T10:57:18.726Z</time>
      </trkpt>
      <trkpt lat="44.0127" lon="3.51057">
        <ele>1188</ele>
        <time>2021-06-27T10:57:32.715Z</time>
      </trkpt>
      <trkpt lat="44.0127" lon="3.51057">
        <ele>1188</ele>
        <time>2021-06-27T10:57:46.723Z</time>
      </trkpt>
      <trkpt lat="44.01271" lon="3.51061">
        <ele>1188</ele>
        <time>2021-06-27T10:57:50.726Z</time>
      </trkpt>
      <trkpt lat="44.01278" lon="3.51064">
        <ele>1188</ele>
        <time>2021-06-27T10:58:00.720Z</time>
      </trkpt>
      <trkpt lat="44.01282" lon="3.51065">
        <ele>1188</ele>
        <time>2021-06-27T10:58:05.727Z</time>
      </trkpt>
      <trkpt lat="44.01285" lon="3.51067">
        <ele>1188</ele>
        <time>2021-06-27T10:58:14.724Z</time>
      </trkpt>
      <trkpt lat="44.01286" lon="3.51068">
        <ele>1188</ele>
        <time>2021-06-27T10:58:19.721Z</time>
      </trkpt>
      <trkpt lat="44.01292" lon="3.51067">
        <ele>1194</ele>
        <time>2021-06-27T10:58:24.722Z</time>
      </trkpt>
      <trkpt lat="44.01298" lon="3.51069">
        <ele>1194</ele>
        <time>2021-06-27T10:58:29.725Z</time>
      </trkpt>
      <trkpt lat="44.01305" lon="3.51074">
        <ele>1197</ele>
        <time>2021-06-27T10:58:44.722Z</time>
      </trkpt>
      <trkpt lat="44.01306" lon="3.51074">
        <ele>1197</ele>
        <time>2021-06-27T10:58:48.726Z</time>
      </trkpt>
      <trkpt lat="44.01309" lon="3.51075">
        <ele>1197</ele>
        <time>2021-06-27T10:58:53.723Z</time>
      </trkpt>
      <trkpt lat="44.0131" lon="3.51075">
        <ele>1197</ele>
        <time>2021-06-27T10:59:20.718Z</time>
      </trkpt>
      <trkpt lat="44.01311" lon="3.51077">
        <ele>1197</ele>
        <time>2021-06-27T10:59:25.710Z</time>
      </trkpt>
      <trkpt lat="44.01312" lon="3.51075">
        <ele>1197</ele>
        <time>2021-06-27T10:59:30.717Z</time>
      </trkpt>
      <trkpt lat="44.01318" lon="3.51073">
        <ele>1197</ele>
        <time>2021-06-27T10:59:35.719Z</time>
      </trkpt>
      <trkpt lat="44.01321" lon="3.51073">
        <ele>1198</ele>
        <time>2021-06-27T10:59:39.721Z</time>
      </trkpt>
      <trkpt lat="44.01325" lon="3.51073">
        <ele>1198</ele>
        <time>2021-06-27T10:59:44.720Z</time>
      </trkpt>
      <trkpt lat="44.01328" lon="3.51075">
        <ele>1198</ele>
        <time>2021-06-27T10:59:49.723Z</time>
      </trkpt>
      <trkpt lat="44.0133" lon="3.51075">
        <ele>1198</ele>
        <time>2021-06-27T10:59:54.717Z</time>
      </trkpt>
      <trkpt lat="44.01335" lon="3.51074">
        <ele>1198</ele>
        <time>2021-06-27T10:59:59.718Z</time>
      </trkpt>
      <trkpt lat="44.0134" lon="3.51072">
        <ele>1198</ele>
        <time>2021-06-27T11:00:03.721Z</time>
      </trkpt>
      <trkpt lat="44.01343" lon="3.51074">
        <ele>1198</ele>
        <time>2021-06-27T11:00:08.720Z</time>
      </trkpt>
      <trkpt lat="44.01347" lon="3.51072">
        <ele>1198</ele>
        <time>2021-06-27T11:00:13.722Z</time>
      </trkpt>
      <trkpt lat="44.01351" lon="3.51073">
        <ele>1200</ele>
        <time>2021-06-27T11:00:18.721Z</time>
      </trkpt>
      <trkpt lat="44.01354" lon="3.51072">
        <ele>1200</ele>
        <time>2021-06-27T11:00:22.725Z</time>
      </trkpt>
      <trkpt lat="44.01357" lon="3.51074">
        <ele>1200</ele>
        <time>2021-06-27T11:00:27.714Z</time>
      </trkpt>
      <trkpt lat="44.01362" lon="3.51071">
        <ele>1200</ele>
        <time>2021-06-27T11:00:32.709Z</time>
      </trkpt>
      <trkpt lat="44.01369" lon="3.51069">
        <ele>1199</ele>
        <time>2021-06-27T11:00:37.724Z</time>
      </trkpt>
      <trkpt lat="44.01373" lon="3.51069">
        <ele>1199</ele>
        <time>2021-06-27T11:00:42.720Z</time>
      </trkpt>
      <trkpt lat="44.01373" lon="3.51068">
        <ele>1199</ele>
        <time>2021-06-27T11:00:46.738Z</time>
      </trkpt>
      <trkpt lat="44.01376" lon="3.51068">
        <ele>1204</ele>
        <time>2021-06-27T11:00:51.750Z</time>
      </trkpt>
      <trkpt lat="44.01382" lon="3.51067">
        <ele>1204</ele>
        <time>2021-06-27T11:00:56.721Z</time>
      </trkpt>
      <trkpt lat="44.01386" lon="3.51066">
        <ele>1204</ele>
        <time>2021-06-27T11:01:01.723Z</time>
      </trkpt>
      <trkpt lat="44.0139" lon="3.51064">
        <ele>1204</ele>
        <time>2021-06-27T11:01:06.725Z</time>
      </trkpt>
      <trkpt lat="44.01393" lon="3.51068">
        <ele>1204</ele>
        <time>2021-06-27T11:01:11.721Z</time>
      </trkpt>
      <trkpt lat="44.01394" lon="3.51068">
        <ele>1204</ele>
        <time>2021-06-27T11:01:16.712Z</time>
      </trkpt>
      <trkpt lat="44.01399" lon="3.51069">
        <ele>1204</ele>
        <time>2021-06-27T11:01:20.724Z</time>
      </trkpt>
      <trkpt lat="44.01403" lon="3.5107">
        <ele>1209</ele>
        <time>2021-06-27T11:01:25.723Z</time>
      </trkpt>
      <trkpt lat="44.01404" lon="3.5107">
        <ele>1209</ele>
        <time>2021-06-27T11:01:30.724Z</time>
      </trkpt>
      <trkpt lat="44.01405" lon="3.51069">
        <ele>1211</ele>
        <time>2021-06-27T11:01:35.721Z</time>
      </trkpt>
      <trkpt lat="44.01411" lon="3.51064">
        <ele>1211</ele>
        <time>2021-06-27T11:01:39.724Z</time>
      </trkpt>
      <trkpt lat="44.01414" lon="3.51062">
        <ele>1211</ele>
        <time>2021-06-27T11:01:44.713Z</time>
      </trkpt>
      <trkpt lat="44.01417" lon="3.51062">
        <ele>1211</ele>
        <time>2021-06-27T11:01:54.713Z</time>
      </trkpt>
      <trkpt lat="44.01423" lon="3.51063">
        <ele>1211</ele>
        <time>2021-06-27T11:01:58.724Z</time>
      </trkpt>
      <trkpt lat="44.01427" lon="3.51065">
        <ele>1211</ele>
        <time>2021-06-27T11:02:03.729Z</time>
      </trkpt>
      <trkpt lat="44.01428" lon="3.51065">
        <ele>1211</ele>
        <time>2021-06-27T11:02:08.715Z</time>
      </trkpt>
      <trkpt lat="44.01431" lon="3.51066">
        <ele>1211</ele>
        <time>2021-06-27T11:02:12.715Z</time>
      </trkpt>
      <trkpt lat="44.01436" lon="3.51067">
        <ele>1212</ele>
        <time>2021-06-27T11:02:17.700Z</time>
      </trkpt>
      <trkpt lat="44.01436" lon="3.51068">
        <ele>1212</ele>
        <time>2021-06-27T11:02:21.727Z</time>
      </trkpt>
      <trkpt lat="44.01438" lon="3.51069">
        <ele>1212</ele>
        <time>2021-06-27T11:02:26.715Z</time>
      </trkpt>
      <trkpt lat="44.01443" lon="3.51071">
        <ele>1212</ele>
        <time>2021-06-27T11:02:31.716Z</time>
      </trkpt>
      <trkpt lat="44.01449" lon="3.51069">
        <ele>1212</ele>
        <time>2021-06-27T11:02:36.717Z</time>
      </trkpt>
      <trkpt lat="44.01454" lon="3.51068">
        <ele>1212</ele>
        <time>2021-06-27T11:02:41.724Z</time>
      </trkpt>
      <trkpt lat="44.01457" lon="3.5107">
        <ele>1212</ele>
        <time>2021-06-27T11:02:46.722Z</time>
      </trkpt>
      <trkpt lat="44.01463" lon="3.51068">
        <ele>1212</ele>
        <time>2021-06-27T11:02:51.741Z</time>
      </trkpt>
      <trkpt lat="44.0147" lon="3.51063">
        <ele>1212</ele>
        <time>2021-06-27T11:02:56.720Z</time>
      </trkpt>
      <trkpt lat="44.01471" lon="3.51062">
        <ele>1212</ele>
        <time>2021-06-27T11:03:01.722Z</time>
      </trkpt>
      <trkpt lat="44.01474" lon="3.51062">
        <ele>1212</ele>
        <time>2021-06-27T11:03:06.720Z</time>
      </trkpt>
      <trkpt lat="44.01479" lon="3.5106">
        <ele>1212</ele>
        <time>2021-06-27T11:03:11.724Z</time>
      </trkpt>
      <trkpt lat="44.01482" lon="3.51059">
        <ele>1212</ele>
        <time>2021-06-27T11:03:16.721Z</time>
      </trkpt>
      <trkpt lat="44.01485" lon="3.51058">
        <ele>1212</ele>
        <time>2021-06-27T11:03:21.724Z</time>
      </trkpt>
      <trkpt lat="44.01489" lon="3.51055">
        <ele>1213</ele>
        <time>2021-06-27T11:03:26.722Z</time>
      </trkpt>
      <trkpt lat="44.01493" lon="3.51056">
        <ele>1213</ele>
        <time>2021-06-27T11:03:31.712Z</time>
      </trkpt>
      <trkpt lat="44.01496" lon="3.51056">
        <ele>1213</ele>
        <time>2021-06-27T11:03:35.723Z</time>
      </trkpt>
      <trkpt lat="44.01499" lon="3.51056">
        <ele>1213</ele>
        <time>2021-06-27T11:03:39.751Z</time>
      </trkpt>
      <trkpt lat="44.01504" lon="3.51057">
        <ele>1213</ele>
        <time>2021-06-27T11:03:44.729Z</time>
      </trkpt>
      <trkpt lat="44.0151" lon="3.51062">
        <ele>1213</ele>
        <time>2021-06-27T11:03:54.723Z</time>
      </trkpt>
      <trkpt lat="44.01511" lon="3.51062">
        <ele>1213</ele>
        <time>2021-06-27T11:03:58.752Z</time>
      </trkpt>
      <trkpt lat="44.01514" lon="3.51059">
        <ele>1216</ele>
        <time>2021-06-27T11:04:02.697Z</time>
      </trkpt>
      <trkpt lat="44.01516" lon="3.51059">
        <ele>1216</ele>
        <time>2021-06-27T11:04:07.703Z</time>
      </trkpt>
      <trkpt lat="44.0152" lon="3.5106">
        <ele>1216</ele>
        <time>2021-06-27T11:04:12.702Z</time>
      </trkpt>
      <trkpt lat="44.01526" lon="3.51062">
        <ele>1216</ele>
        <time>2021-06-27T11:04:16.712Z</time>
      </trkpt>
      <trkpt lat="44.01532" lon="3.51063">
        <ele>1216</ele>
        <time>2021-06-27T11:04:21.719Z</time>
      </trkpt>
      <trkpt lat="44.01534" lon="3.51065">
        <ele>1216</ele>
        <time>2021-06-27T11:04:25.727Z</time>
      </trkpt>
      <trkpt lat="44.01539" lon="3.51069">
        <ele>1216</ele>
        <time>2021-06-27T11:04:30.735Z</time>
      </trkpt>
      <trkpt lat="44.01543" lon="3.51071">
        <ele>1215</ele>
        <time>2021-06-27T11:04:35.724Z</time>
      </trkpt>
      <trkpt lat="44.01547" lon="3.51071">
        <ele>1215</ele>
        <time>2021-06-27T11:04:40.722Z</time>
      </trkpt>
      <trkpt lat="44.0155" lon="3.5107">
        <ele>1215</ele>
        <time>2021-06-27T11:04:45.723Z</time>
      </trkpt>
      <trkpt lat="44.01556" lon="3.51074">
        <ele>1215</ele>
        <time>2021-06-27T11:04:50.751Z</time>
      </trkpt>
      <trkpt lat="44.0156" lon="3.51078">
        <ele>1215</ele>
        <time>2021-06-27T11:04:55.723Z</time>
      </trkpt>
      <trkpt lat="44.01565" lon="3.51079">
        <ele>1215</ele>
        <time>2021-06-27T11:05:00.723Z</time>
      </trkpt>
      <trkpt lat="44.0157" lon="3.51079">
        <ele>1212</ele>
        <time>2021-06-27T11:05:05.724Z</time>
      </trkpt>
      <trkpt lat="44.01577" lon="3.5108">
        <ele>1212</ele>
        <time>2021-06-27T11:05:10.725Z</time>
      </trkpt>
      <trkpt lat="44.01581" lon="3.51076">
        <ele>1212</ele>
        <time>2021-06-27T11:05:15.723Z</time>
      </trkpt>
      <trkpt lat="44.01584" lon="3.51073">
        <ele>1212</ele>
        <time>2021-06-27T11:05:20.713Z</time>
      </trkpt>
      <trkpt lat="44.01588" lon="3.51071">
        <ele>1212</ele>
        <time>2021-06-27T11:05:25.714Z</time>
      </trkpt>
      <trkpt lat="44.01592" lon="3.5107">
        <ele>1212</ele>
        <time>2021-06-27T11:05:30.725Z</time>
      </trkpt>
      <trkpt lat="44.01596" lon="3.51071">
        <ele>1212</ele>
        <time>2021-06-27T11:05:34.741Z</time>
      </trkpt>
      <trkpt lat="44.016" lon="3.51072">
        <ele>1210</ele>
        <time>2021-06-27T11:05:39.720Z</time>
      </trkpt>
      <trkpt lat="44.01604" lon="3.51074">
        <ele>1210</ele>
        <time>2021-06-27T11:05:44.714Z</time>
      </trkpt>
      <trkpt lat="44.0161" lon="3.51074">
        <ele>1210</ele>
        <time>2021-06-27T11:05:49.721Z</time>
      </trkpt>
      <trkpt lat="44.01616" lon="3.51073">
        <ele>1210</ele>
        <time>2021-06-27T11:05:54.718Z</time>
      </trkpt>
      <trkpt lat="44.0162" lon="3.51074">
        <ele>1210</ele>
        <time>2021-06-27T11:05:58.751Z</time>
      </trkpt>
      <trkpt lat="44.01623" lon="3.51078">
        <ele>1210</ele>
        <time>2021-06-27T11:06:03.721Z</time>
      </trkpt>
      <trkpt lat="44.01627" lon="3.5108">
        <ele>1210</ele>
        <time>2021-06-27T11:06:08.722Z</time>
      </trkpt>
      <trkpt lat="44.0163" lon="3.51078">
        <ele>1210</ele>
        <time>2021-06-27T11:06:13.723Z</time>
      </trkpt>
      <trkpt lat="44.01633" lon="3.51079">
        <ele>1210</ele>
        <time>2021-06-27T11:06:18.724Z</time>
      </trkpt>
      <trkpt lat="44.01636" lon="3.51082">
        <ele>1210</ele>
        <time>2021-06-27T11:06:23.720Z</time>
      </trkpt>
      <trkpt lat="44.01641" lon="3.51083">
        <ele>1210</ele>
        <time>2021-06-27T11:06:28.722Z</time>
      </trkpt>
      <trkpt lat="44.01646" lon="3.51083">
        <ele>1210</ele>
        <time>2021-06-27T11:06:33.724Z</time>
      </trkpt>
      <trkpt lat="44.01652" lon="3.51084">
        <ele>1210</ele>
        <time>2021-06-27T11:06:38.725Z</time>
      </trkpt>
      <trkpt lat="44.01658" lon="3.51085">
        <ele>1209</ele>
        <time>2021-06-27T11:06:43.726Z</time>
      </trkpt>
      <trkpt lat="44.01662" lon="3.51088">
        <ele>1209</ele>
        <time>2021-06-27T11:06:48.722Z</time>
      </trkpt>
      <trkpt lat="44.01664" lon="3.51092">
        <ele>1209</ele>
        <time>2021-06-27T11:06:53.726Z</time>
      </trkpt>
      <trkpt lat="44.01666" lon="3.51093">
        <ele>1209</ele>
        <time>2021-06-27T11:06:57.740Z</time>
      </trkpt>
      <trkpt lat="44.0167" lon="3.51095">
        <ele>1209</ele>
        <time>2021-06-27T11:07:02.731Z</time>
      </trkpt>
      <trkpt lat="44.01674" lon="3.51092">
        <ele>1209</ele>
        <time>2021-06-27T11:07:07.697Z</time>
      </trkpt>
      <trkpt lat="44.01677" lon="3.51094">
        <ele>1209</ele>
        <time>2021-06-27T11:07:16.722Z</time>
      </trkpt>
      <trkpt lat="44.0168" lon="3.51094">
        <ele>1209</ele>
        <time>2021-06-27T11:07:20.729Z</time>
      </trkpt>
      <trkpt lat="44.01681" lon="3.51093">
        <ele>1210</ele>
        <time>2021-06-27T11:07:25.724Z</time>
      </trkpt>
      <trkpt lat="44.01683" lon="3.51094">
        <ele>1210</ele>
        <time>2021-06-27T11:07:35.717Z</time>
      </trkpt>
      <trkpt lat="44.01685" lon="3.51095">
        <ele>1210</ele>
        <time>2021-06-27T11:07:40.756Z</time>
      </trkpt>
      <trkpt lat="44.01691" lon="3.51098">
        <ele>1212</ele>
        <time>2021-06-27T11:07:45.726Z</time>
      </trkpt>
      <trkpt lat="44.01692" lon="3.51101">
        <ele>1212</ele>
        <time>2021-06-27T11:07:50.723Z</time>
      </trkpt>
      <trkpt lat="44.01697" lon="3.51101">
        <ele>1212</ele>
        <time>2021-06-27T11:07:55.710Z</time>
      </trkpt>
      <trkpt lat="44.017" lon="3.51101">
        <ele>1212</ele>
        <time>2021-06-27T11:07:59.724Z</time>
      </trkpt>
      <trkpt lat="44.01705" lon="3.51102">
        <ele>1212</ele>
        <time>2021-06-27T11:08:08.723Z</time>
      </trkpt>
      <trkpt lat="44.01707" lon="3.51106">
        <ele>1212</ele>
        <time>2021-06-27T11:08:13.697Z</time>
      </trkpt>
      <trkpt lat="44.01709" lon="3.51106">
        <ele>1214</ele>
        <time>2021-06-27T11:14:29.722Z</time>
      </trkpt>
      <trkpt lat="44.01711" lon="3.51106">
        <ele>1214</ele>
        <time>2021-06-27T11:14:34.723Z</time>
      </trkpt>
      <trkpt lat="44.01713" lon="3.51102">
        <ele>1214</ele>
        <time>2021-06-27T11:20:24.728Z</time>
      </trkpt>
      <trkpt lat="44.0172" lon="3.51099">
        <ele>1214</ele>
        <time>2021-06-27T11:20:29.726Z</time>
      </trkpt>
      <trkpt lat="44.01725" lon="3.51101">
        <ele>1214</ele>
        <time>2021-06-27T11:20:34.707Z</time>
      </trkpt>
      <trkpt lat="44.01729" lon="3.51106">
        <ele>1214</ele>
        <time>2021-06-27T11:20:38.728Z</time>
      </trkpt>
      <trkpt lat="44.0173" lon="3.51107">
        <ele>1214</ele>
        <time>2021-06-27T11:20:43.717Z</time>
      </trkpt>
      <trkpt lat="44.01735" lon="3.51107">
        <ele>1214</ele>
        <time>2021-06-27T11:20:53.715Z</time>
      </trkpt>
      <trkpt lat="44.01737" lon="3.51112">
        <ele>1213</ele>
        <time>2021-06-27T11:20:58.720Z</time>
      </trkpt>
      <trkpt lat="44.01742" lon="3.51113">
        <ele>1213</ele>
        <time>2021-06-27T11:21:03.710Z</time>
      </trkpt>
      <trkpt lat="44.01742" lon="3.51113">
        <ele>1213</ele>
        <time>2021-06-27T11:21:07.749Z</time>
      </trkpt>
      <trkpt lat="44.01749" lon="3.51118">
        <ele>1213</ele>
        <time>2021-06-27T11:21:12.722Z</time>
      </trkpt>
      <trkpt lat="44.01751" lon="3.51118">
        <ele>1213</ele>
        <time>2021-06-27T11:21:16.724Z</time>
      </trkpt>
      <trkpt lat="44.01755" lon="3.51121">
        <ele>1213</ele>
        <time>2021-06-27T11:21:21.721Z</time>
      </trkpt>
      <trkpt lat="44.01757" lon="3.51122">
        <ele>1213</ele>
        <time>2021-06-27T11:21:25.723Z</time>
      </trkpt>
      <trkpt lat="44.01761" lon="3.51122">
        <ele>1213</ele>
        <time>2021-06-27T11:21:30.720Z</time>
      </trkpt>
      <trkpt lat="44.01765" lon="3.51121">
        <ele>1213</ele>
        <time>2021-06-27T11:21:39.726Z</time>
      </trkpt>
      <trkpt lat="44.01769" lon="3.51121">
        <ele>1213</ele>
        <time>2021-06-27T11:21:43.743Z</time>
      </trkpt>
      <trkpt lat="44.01773" lon="3.51123">
        <ele>1213</ele>
        <time>2021-06-27T11:21:48.724Z</time>
      </trkpt>
      <trkpt lat="44.01775" lon="3.51125">
        <ele>1211</ele>
        <time>2021-06-27T11:21:53.723Z</time>
      </trkpt>
      <trkpt lat="44.01782" lon="3.5113">
        <ele>1211</ele>
        <time>2021-06-27T11:22:21.710Z</time>
      </trkpt>
      <trkpt lat="44.01785" lon="3.51133">
        <ele>1211</ele>
        <time>2021-06-27T11:22:25.715Z</time>
      </trkpt>
      <trkpt lat="44.01783" lon="3.51145">
        <ele>1211</ele>
        <time>2021-06-27T11:23:13.723Z</time>
      </trkpt>
      <trkpt lat="44.01783" lon="3.51147">
        <ele>1211</ele>
        <time>2021-06-27T11:23:18.717Z</time>
      </trkpt>
      <trkpt lat="44.01779" lon="3.51151">
        <ele>1211</ele>
        <time>2021-06-27T11:23:36.729Z</time>
      </trkpt>
      <trkpt lat="44.01778" lon="3.51157">
        <ele>1206</ele>
        <time>2021-06-27T11:23:51.725Z</time>
      </trkpt>
      <trkpt lat="44.0177" lon="3.51173">
        <ele>1206</ele>
        <time>2021-06-27T11:23:56.724Z</time>
      </trkpt>
      <trkpt lat="44.01771" lon="3.51175">
        <ele>1206</ele>
        <time>2021-06-27T11:24:05.710Z</time>
      </trkpt>
      <trkpt lat="44.01772" lon="3.51182">
        <ele>1201</ele>
        <time>2021-06-27T11:24:10.714Z</time>
      </trkpt>
      <trkpt lat="44.01775" lon="3.51186">
        <ele>1201</ele>
        <time>2021-06-27T11:24:24.721Z</time>
      </trkpt>
      <trkpt lat="44.0178" lon="3.51192">
        <ele>1201</ele>
        <time>2021-06-27T11:24:29.722Z</time>
      </trkpt>
      <trkpt lat="44.01786" lon="3.51199">
        <ele>1201</ele>
        <time>2021-06-27T11:24:39.724Z</time>
      </trkpt>
      <trkpt lat="44.01796" lon="3.51208">
        <ele>1206</ele>
        <time>2021-06-27T11:24:44.726Z</time>
      </trkpt>
      <trkpt lat="44.01803" lon="3.51212">
        <ele>1197</ele>
        <time>2021-06-27T11:24:49.723Z</time>
      </trkpt>
      <trkpt lat="44.01807" lon="3.51215">
        <ele>1197</ele>
        <time>2021-06-27T11:24:54.741Z</time>
      </trkpt>
      <trkpt lat="44.0181" lon="3.5122">
        <ele>1197</ele>
        <time>2021-06-27T11:24:59.713Z</time>
      </trkpt>
      <trkpt lat="44.01811" lon="3.51225">
        <ele>1197</ele>
        <time>2021-06-27T11:25:03.722Z</time>
      </trkpt>
      <trkpt lat="44.01811" lon="3.51226">
        <ele>1197</ele>
        <time>2021-06-27T11:25:08.712Z</time>
      </trkpt>
      <trkpt lat="44.01818" lon="3.51231">
        <ele>1197</ele>
        <time>2021-06-27T11:25:13.714Z</time>
      </trkpt>
      <trkpt lat="44.01826" lon="3.51235">
        <ele>1202</ele>
        <time>2021-06-27T11:25:18.698Z</time>
      </trkpt>
      <trkpt lat="44.01831" lon="3.51242">
        <ele>1194</ele>
        <time>2021-06-27T11:25:31.722Z</time>
      </trkpt>
      <trkpt lat="44.0184" lon="3.51249">
        <ele>1194</ele>
        <time>2021-06-27T11:25:36.716Z</time>
      </trkpt>
      <trkpt lat="44.01845" lon="3.5126">
        <ele>1194</ele>
        <time>2021-06-27T11:25:41.734Z</time>
      </trkpt>
      <trkpt lat="44.01848" lon="3.51265">
        <ele>1192</ele>
        <time>2021-06-27T11:25:45.729Z</time>
      </trkpt>
      <trkpt lat="44.01852" lon="3.51267">
        <ele>1192</ele>
        <time>2021-06-27T11:25:50.712Z</time>
      </trkpt>
      <trkpt lat="44.01855" lon="3.51269">
        <ele>1192</ele>
        <time>2021-06-27T11:25:55.718Z</time>
      </trkpt>
      <trkpt lat="44.01855" lon="3.51269">
        <ele>1192</ele>
        <time>2021-06-27T11:26:00.722Z</time>
      </trkpt>
      <trkpt lat="44.01861" lon="3.51272">
        <ele>1192</ele>
        <time>2021-06-27T11:26:09.722Z</time>
      </trkpt>
      <trkpt lat="44.01867" lon="3.51275">
        <ele>1192</ele>
        <time>2021-06-27T11:26:14.719Z</time>
      </trkpt>
      <trkpt lat="44.01871" lon="3.51276">
        <ele>1192</ele>
        <time>2021-06-27T11:26:18.739Z</time>
      </trkpt>
      <trkpt lat="44.01878" lon="3.51277">
        <ele>1198</ele>
        <time>2021-06-27T11:26:23.722Z</time>
      </trkpt>
      <trkpt lat="44.01891" lon="3.51282">
        <ele>1198</ele>
        <time>2021-06-27T11:26:28.723Z</time>
      </trkpt>
      <trkpt lat="44.019" lon="3.51292">
        <ele>1190</ele>
        <time>2021-06-27T11:26:42.722Z</time>
      </trkpt>
      <trkpt lat="44.01902" lon="3.51295">
        <ele>1190</ele>
        <time>2021-06-27T11:26:56.697Z</time>
      </trkpt>
      <trkpt lat="44.01904" lon="3.51299">
        <ele>1192</ele>
        <time>2021-06-27T11:27:00.726Z</time>
      </trkpt>
      <trkpt lat="44.01908" lon="3.51303">
        <ele>1192</ele>
        <time>2021-06-27T11:27:05.750Z</time>
      </trkpt>
      <trkpt lat="44.01909" lon="3.51305">
        <ele>1192</ele>
        <time>2021-06-27T11:27:10.729Z</time>
      </trkpt>
      <trkpt lat="44.01914" lon="3.51309">
        <ele>1192</ele>
        <time>2021-06-27T11:27:15.724Z</time>
      </trkpt>
      <trkpt lat="44.01914" lon="3.51309">
        <ele>1192</ele>
        <time>2021-06-27T11:27:19.727Z</time>
      </trkpt>
      <trkpt lat="44.01925" lon="3.51316">
        <ele>1192</ele>
        <time>2021-06-27T11:27:24.711Z</time>
      </trkpt>
      <trkpt lat="44.01935" lon="3.51322">
        <ele>1190</ele>
        <time>2021-06-27T11:27:28.728Z</time>
      </trkpt>
      <trkpt lat="44.0194" lon="3.51325">
        <ele>1190</ele>
        <time>2021-06-27T11:27:33.729Z</time>
      </trkpt>
      <trkpt lat="44.01949" lon="3.51329">
        <ele>1190</ele>
        <time>2021-06-27T11:27:38.725Z</time>
      </trkpt>
      <trkpt lat="44.01958" lon="3.51333">
        <ele>1190</ele>
        <time>2021-06-27T11:27:43.722Z</time>
      </trkpt>
      <trkpt lat="44.01964" lon="3.51336">
        <ele>1194</ele>
        <time>2021-06-27T11:27:48.711Z</time>
      </trkpt>
      <trkpt lat="44.01969" lon="3.51336">
        <ele>1194</ele>
        <time>2021-06-27T11:27:53.695Z</time>
      </trkpt>
      <trkpt lat="44.01973" lon="3.51337">
        <ele>1194</ele>
        <time>2021-06-27T11:27:57.714Z</time>
      </trkpt>
      <trkpt lat="44.01978" lon="3.51338">
        <ele>1194</ele>
        <time>2021-06-27T11:28:02.713Z</time>
      </trkpt>
      <trkpt lat="44.01983" lon="3.51336">
        <ele>1194</ele>
        <time>2021-06-27T11:28:07.721Z</time>
      </trkpt>
      <trkpt lat="44.01989" lon="3.51333">
        <ele>1196</ele>
        <time>2021-06-27T11:28:12.722Z</time>
      </trkpt>
      <trkpt lat="44.01991" lon="3.51331">
        <ele>1196</ele>
        <time>2021-06-27T11:28:17.714Z</time>
      </trkpt>
      <trkpt lat="44.01996" lon="3.51332">
        <ele>1196</ele>
        <time>2021-06-27T11:28:22.715Z</time>
      </trkpt>
      <trkpt lat="44.01996" lon="3.51333">
        <ele>1196</ele>
        <time>2021-06-27T11:28:26.728Z</time>
      </trkpt>
      <trkpt lat="44.02002" lon="3.51329">
        <ele>1196</ele>
        <time>2021-06-27T11:28:31.717Z</time>
      </trkpt>
      <trkpt lat="44.02008" lon="3.51325">
        <ele>1196</ele>
        <time>2021-06-27T11:28:36.718Z</time>
      </trkpt>
      <trkpt lat="44.0201" lon="3.51326">
        <ele>1196</ele>
        <time>2021-06-27T11:28:41.723Z</time>
      </trkpt>
      <trkpt lat="44.02011" lon="3.51326">
        <ele>1196</ele>
        <time>2021-06-27T11:28:45.728Z</time>
      </trkpt>
      <trkpt lat="44.02013" lon="3.51328">
        <ele>1196</ele>
        <time>2021-06-27T11:28:50.722Z</time>
      </trkpt>
      <trkpt lat="44.02019" lon="3.51323">
        <ele>1198</ele>
        <time>2021-06-27T11:28:55.720Z</time>
      </trkpt>
      <trkpt lat="44.02024" lon="3.51323">
        <ele>1198</ele>
        <time>2021-06-27T11:29:00.718Z</time>
      </trkpt>
      <trkpt lat="44.02028" lon="3.51322">
        <ele>1198</ele>
        <time>2021-06-27T11:29:05.694Z</time>
      </trkpt>
      <trkpt lat="44.0204" lon="3.51315">
        <ele>1204</ele>
        <time>2021-06-27T11:29:23.712Z</time>
      </trkpt>
      <trkpt lat="44.02043" lon="3.51312">
        <ele>1209</ele>
        <time>2021-06-27T11:29:28.722Z</time>
      </trkpt>
      <trkpt lat="44.02048" lon="3.51307">
        <ele>1209</ele>
        <time>2021-06-27T11:29:37.723Z</time>
      </trkpt>
      <trkpt lat="44.02056" lon="3.5131">
        <ele>1209</ele>
        <time>2021-06-27T11:29:57.718Z</time>
      </trkpt>
      <trkpt lat="44.02064" lon="3.51311">
        <ele>1209</ele>
        <time>2021-06-27T11:30:02.720Z</time>
      </trkpt>
      <trkpt lat="44.0207" lon="3.51311">
        <ele>1212</ele>
        <time>2021-06-27T11:30:16.711Z</time>
      </trkpt>
      <trkpt lat="44.02077" lon="3.5131">
        <ele>1212</ele>
        <time>2021-06-27T11:30:21.750Z</time>
      </trkpt>
      <trkpt lat="44.02079" lon="3.5131">
        <ele>1212</ele>
        <time>2021-06-27T11:30:26.722Z</time>
      </trkpt>
      <trkpt lat="44.02082" lon="3.51309">
        <ele>1212</ele>
        <time>2021-06-27T11:30:35.728Z</time>
      </trkpt>
      <trkpt lat="44.02083" lon="3.51309">
        <ele>1212</ele>
        <time>2021-06-27T11:30:40.729Z</time>
      </trkpt>
      <trkpt lat="44.0209" lon="3.51311">
        <ele>1212</ele>
        <time>2021-06-27T11:30:54.719Z</time>
      </trkpt>
      <trkpt lat="44.02092" lon="3.51312">
        <ele>1212</ele>
        <time>2021-06-27T11:30:59.716Z</time>
      </trkpt>
      <trkpt lat="44.02104" lon="3.51314">
        <ele>1212</ele>
        <time>2021-06-27T11:31:04.722Z</time>
      </trkpt>
      <trkpt lat="44.0211" lon="3.51314">
        <ele>1212</ele>
        <time>2021-06-27T11:31:09.725Z</time>
      </trkpt>
      <trkpt lat="44.02115" lon="3.51313">
        <ele>1212</ele>
        <time>2021-06-27T11:31:18.725Z</time>
      </trkpt>
      <trkpt lat="44.02116" lon="3.51313">
        <ele>1212</ele>
        <time>2021-06-27T11:31:23.729Z</time>
      </trkpt>
      <trkpt lat="44.02123" lon="3.51315">
        <ele>1212</ele>
        <time>2021-06-27T11:31:28.712Z</time>
      </trkpt>
      <trkpt lat="44.02128" lon="3.51316">
        <ele>1218</ele>
        <time>2021-06-27T11:31:33.716Z</time>
      </trkpt>
      <trkpt lat="44.02132" lon="3.51316">
        <ele>1218</ele>
        <time>2021-06-27T11:31:37.719Z</time>
      </trkpt>
      <trkpt lat="44.02134" lon="3.51317">
        <ele>1218</ele>
        <time>2021-06-27T11:31:51.718Z</time>
      </trkpt>
      <trkpt lat="44.02137" lon="3.51319">
        <ele>1218</ele>
        <time>2021-06-27T11:31:56.708Z</time>
      </trkpt>
      <trkpt lat="44.0214" lon="3.5132">
        <ele>1212</ele>
        <time>2021-06-27T11:32:00.724Z</time>
      </trkpt>
      <trkpt lat="44.02146" lon="3.51326">
        <ele>1212</ele>
        <time>2021-06-27T11:32:05.722Z</time>
      </trkpt>
      <trkpt lat="44.02152" lon="3.51334">
        <ele>1212</ele>
        <time>2021-06-27T11:32:10.726Z</time>
      </trkpt>
      <trkpt lat="44.02156" lon="3.51338">
        <ele>1220</ele>
        <time>2021-06-27T11:32:15.725Z</time>
      </trkpt>
      <trkpt lat="44.02165" lon="3.51348">
        <ele>1217</ele>
        <time>2021-06-27T11:32:25.722Z</time>
      </trkpt>
      <trkpt lat="44.02174" lon="3.51356">
        <ele>1217</ele>
        <time>2021-06-27T11:32:30.728Z</time>
      </trkpt>
      <trkpt lat="44.02178" lon="3.51362">
        <ele>1217</ele>
        <time>2021-06-27T11:32:49.716Z</time>
      </trkpt>
      <trkpt lat="44.02179" lon="3.51362">
        <ele>1217</ele>
        <time>2021-06-27T11:32:54.749Z</time>
      </trkpt>
      <trkpt lat="44.02178" lon="3.51363">
        <ele>1217</ele>
        <time>2021-06-27T11:32:59.718Z</time>
      </trkpt>
      <trkpt lat="44.02179" lon="3.51366">
        <ele>1217</ele>
        <time>2021-06-27T11:33:13.728Z</time>
      </trkpt>
      <trkpt lat="44.02182" lon="3.51378">
        <ele>1220</ele>
        <time>2021-06-27T11:33:18.722Z</time>
      </trkpt>
      <trkpt lat="44.02185" lon="3.51386">
        <ele>1220</ele>
        <time>2021-06-27T11:33:23.698Z</time>
      </trkpt>
      <trkpt lat="44.02185" lon="3.51387">
        <ele>1220</ele>
        <time>2021-06-27T11:33:28.713Z</time>
      </trkpt>
      <trkpt lat="44.02187" lon="3.51398">
        <ele>1220</ele>
        <time>2021-06-27T11:33:38.728Z</time>
      </trkpt>
      <trkpt lat="44.02188" lon="3.51414">
        <ele>1218</ele>
        <time>2021-06-27T11:33:43.744Z</time>
      </trkpt>
      <trkpt lat="44.0219" lon="3.51419">
        <ele>1218</ele>
        <time>2021-06-27T11:33:48.729Z</time>
      </trkpt>
      <trkpt lat="44.02196" lon="3.51418">
        <ele>1218</ele>
        <time>2021-06-27T11:33:58.713Z</time>
      </trkpt>
      <trkpt lat="44.02208" lon="3.51416">
        <ele>1218</ele>
        <time>2021-06-27T11:34:02.721Z</time>
      </trkpt>
      <trkpt lat="44.02216" lon="3.51413">
        <ele>1226</ele>
        <time>2021-06-27T11:34:07.721Z</time>
      </trkpt>
      <trkpt lat="44.0222" lon="3.51412">
        <ele>1226</ele>
        <time>2021-06-27T11:34:12.716Z</time>
      </trkpt>
      <trkpt lat="44.02222" lon="3.51411">
        <ele>1226</ele>
        <time>2021-06-27T11:34:16.727Z</time>
      </trkpt>
      <trkpt lat="44.02224" lon="3.5141">
        <ele>1226</ele>
        <time>2021-06-27T11:34:21.717Z</time>
      </trkpt>
      <trkpt lat="44.02225" lon="3.51408">
        <ele>1226</ele>
        <time>2021-06-27T11:34:25.728Z</time>
      </trkpt>
      <trkpt lat="44.02228" lon="3.51405">
        <ele>1226</ele>
        <time>2021-06-27T11:34:30.716Z</time>
      </trkpt>
      <trkpt lat="44.02229" lon="3.51404">
        <ele>1226</ele>
        <time>2021-06-27T11:34:34.730Z</time>
      </trkpt>
      <trkpt lat="44.02239" lon="3.51397">
        <ele>1234</ele>
        <time>2021-06-27T11:34:39.720Z</time>
      </trkpt>
      <trkpt lat="44.0224" lon="3.51396">
        <ele>1234</ele>
        <time>2021-06-27T11:34:44.722Z</time>
      </trkpt>
      <trkpt lat="44.02247" lon="3.51393">
        <ele>1234</ele>
        <time>2021-06-27T11:34:53.713Z</time>
      </trkpt>
      <trkpt lat="44.02254" lon="3.51384">
        <ele>1234</ele>
        <time>2021-06-27T11:34:58.726Z</time>
      </trkpt>
      <trkpt lat="44.02257" lon="3.51374">
        <ele>1234</ele>
        <time>2021-06-27T11:35:03.718Z</time>
      </trkpt>
      <trkpt lat="44.02259" lon="3.5137">
        <ele>1234</ele>
        <time>2021-06-27T11:35:08.719Z</time>
      </trkpt>
      <trkpt lat="44.02258" lon="3.51363">
        <ele>1234</ele>
        <time>2021-06-27T11:35:13.720Z</time>
      </trkpt>
      <trkpt lat="44.02258" lon="3.51346">
        <ele>1234</ele>
        <time>2021-06-27T11:35:18.720Z</time>
      </trkpt>
      <trkpt lat="44.02258" lon="3.51337">
        <ele>1234</ele>
        <time>2021-06-27T11:35:23.719Z</time>
      </trkpt>
      <trkpt lat="44.02254" lon="3.51333">
        <ele>1234</ele>
        <time>2021-06-27T11:35:28.719Z</time>
      </trkpt>
      <trkpt lat="44.02251" lon="3.51328">
        <ele>1234</ele>
        <time>2021-06-27T11:35:33.722Z</time>
      </trkpt>
      <trkpt lat="44.02248" lon="3.51323">
        <ele>1234</ele>
        <time>2021-06-27T11:35:38.720Z</time>
      </trkpt>
      <trkpt lat="44.02247" lon="3.51318">
        <ele>1237</ele>
        <time>2021-06-27T11:35:43.719Z</time>
      </trkpt>
      <trkpt lat="44.02246" lon="3.51314">
        <ele>1237</ele>
        <time>2021-06-27T11:35:47.720Z</time>
      </trkpt>
      <trkpt lat="44.0225" lon="3.51309">
        <ele>1237</ele>
        <time>2021-06-27T11:35:52.724Z</time>
      </trkpt>
      <trkpt lat="44.0225" lon="3.51307">
        <ele>1237</ele>
        <time>2021-06-27T11:36:26.725Z</time>
      </trkpt>
      <trkpt lat="44.02252" lon="3.51309">
        <ele>1237</ele>
        <time>2021-06-27T11:36:31.698Z</time>
      </trkpt>
      <trkpt lat="44.02251" lon="3.51311">
        <ele>1237</ele>
        <time>2021-06-27T11:36:35.726Z</time>
      </trkpt>
      <trkpt lat="44.02252" lon="3.51315">
        <ele>1237</ele>
        <time>2021-06-27T11:36:39.723Z</time>
      </trkpt>
      <trkpt lat="44.02255" lon="3.51318">
        <ele>1237</ele>
        <time>2021-06-27T11:36:44.719Z</time>
      </trkpt>
      <trkpt lat="44.02258" lon="3.51322">
        <ele>1234</ele>
        <time>2021-06-27T11:36:49.713Z</time>
      </trkpt>
      <trkpt lat="44.02261" lon="3.51326">
        <ele>1234</ele>
        <time>2021-06-27T11:36:53.746Z</time>
      </trkpt>
      <trkpt lat="44.02263" lon="3.51328">
        <ele>1234</ele>
        <time>2021-06-27T11:36:57.773Z</time>
      </trkpt>
      <trkpt lat="44.02265" lon="3.5133">
        <ele>1242</ele>
        <time>2021-06-27T11:37:02.717Z</time>
      </trkpt>
      <trkpt lat="44.02266" lon="3.51332">
        <ele>1242</ele>
        <time>2021-06-27T11:37:07.712Z</time>
      </trkpt>
      <trkpt lat="44.02268" lon="3.51335">
        <ele>1242</ele>
        <time>2021-06-27T11:37:11.722Z</time>
      </trkpt>
      <trkpt lat="44.02271" lon="3.51337">
        <ele>1242</ele>
        <time>2021-06-27T11:37:16.717Z</time>
      </trkpt>
      <trkpt lat="44.02275" lon="3.5134">
        <ele>1242</ele>
        <time>2021-06-27T11:37:20.724Z</time>
      </trkpt>
      <trkpt lat="44.02277" lon="3.51342">
        <ele>1242</ele>
        <time>2021-06-27T11:37:25.728Z</time>
      </trkpt>
      <trkpt lat="44.0228" lon="3.51346">
        <ele>1242</ele>
        <time>2021-06-27T11:37:30.720Z</time>
      </trkpt>
      <trkpt lat="44.02285" lon="3.51349">
        <ele>1242</ele>
        <time>2021-06-27T11:37:35.717Z</time>
      </trkpt>
      <trkpt lat="44.02287" lon="3.51351">
        <ele>1242</ele>
        <time>2021-06-27T11:37:39.725Z</time>
      </trkpt>
      <trkpt lat="44.02296" lon="3.51359">
        <ele>1249</ele>
        <time>2021-06-27T11:37:44.717Z</time>
      </trkpt>
      <trkpt lat="44.02305" lon="3.51368">
        <ele>1249</ele>
        <time>2021-06-27T11:37:58.719Z</time>
      </trkpt>
      <trkpt lat="44.02306" lon="3.51367">
        <ele>1249</ele>
        <time>2021-06-27T11:38:18.711Z</time>
      </trkpt>
      <trkpt lat="44.02307" lon="3.51368">
        <ele>1249</ele>
        <time>2021-06-27T11:38:22.725Z</time>
      </trkpt>
      <trkpt lat="44.02307" lon="3.51374">
        <ele>1249</ele>
        <time>2021-06-27T11:38:27.717Z</time>
      </trkpt>
      <trkpt lat="44.02309" lon="3.51373">
        <ele>1249</ele>
        <time>2021-06-27T11:38:32.720Z</time>
      </trkpt>
      <trkpt lat="44.02313" lon="3.51375">
        <ele>1249</ele>
        <time>2021-06-27T11:38:37.729Z</time>
      </trkpt>
      <trkpt lat="44.02314" lon="3.51378">
        <ele>1248</ele>
        <time>2021-06-27T11:38:42.722Z</time>
      </trkpt>
      <trkpt lat="44.02314" lon="3.51379">
        <ele>1248</ele>
        <time>2021-06-27T11:38:46.744Z</time>
      </trkpt>
      <trkpt lat="44.02313" lon="3.51387">
        <ele>1248</ele>
        <time>2021-06-27T11:38:51.712Z</time>
      </trkpt>
      <trkpt lat="44.02316" lon="3.51393">
        <ele>1248</ele>
        <time>2021-06-27T11:38:56.697Z</time>
      </trkpt>
      <trkpt lat="44.02317" lon="3.51395">
        <ele>1248</ele>
        <time>2021-06-27T11:39:00.736Z</time>
      </trkpt>
      <trkpt lat="44.02319" lon="3.51404">
        <ele>1248</ele>
        <time>2021-06-27T11:39:09.712Z</time>
      </trkpt>
      <trkpt lat="44.02321" lon="3.5141">
        <ele>1253</ele>
        <time>2021-06-27T11:39:14.709Z</time>
      </trkpt>
      <trkpt lat="44.02326" lon="3.51411">
        <ele>1253</ele>
        <time>2021-06-27T11:39:19.693Z</time>
      </trkpt>
      <trkpt lat="44.02331" lon="3.51414">
        <ele>1253</ele>
        <time>2021-06-27T11:39:23.715Z</time>
      </trkpt>
      <trkpt lat="44.02334" lon="3.51419">
        <ele>1253</ele>
        <time>2021-06-27T11:39:28.726Z</time>
      </trkpt>
      <trkpt lat="44.02336" lon="3.51418">
        <ele>1253</ele>
        <time>2021-06-27T11:39:38.715Z</time>
      </trkpt>
      <trkpt lat="44.02343" lon="3.51413">
        <ele>1253</ele>
        <time>2021-06-27T11:39:42.719Z</time>
      </trkpt>
      <trkpt lat="44.0235" lon="3.51408">
        <ele>1258</ele>
        <time>2021-06-27T11:39:47.720Z</time>
      </trkpt>
      <trkpt lat="44.02355" lon="3.51403">
        <ele>1258</ele>
        <time>2021-06-27T11:39:52.695Z</time>
      </trkpt>
      <trkpt lat="44.02362" lon="3.514">
        <ele>1258</ele>
        <time>2021-06-27T11:39:56.719Z</time>
      </trkpt>
      <trkpt lat="44.02366" lon="3.51398">
        <ele>1258</ele>
        <time>2021-06-27T11:40:01.744Z</time>
      </trkpt>
      <trkpt lat="44.02368" lon="3.51394">
        <ele>1258</ele>
        <time>2021-06-27T11:40:06.719Z</time>
      </trkpt>
      <trkpt lat="44.02369" lon="3.51391">
        <ele>1258</ele>
        <time>2021-06-27T11:40:11.718Z</time>
      </trkpt>
      <trkpt lat="44.02369" lon="3.51386">
        <ele>1258</ele>
        <time>2021-06-27T11:40:16.717Z</time>
      </trkpt>
      <trkpt lat="44.0237" lon="3.51381">
        <ele>1258</ele>
        <time>2021-06-27T11:40:21.729Z</time>
      </trkpt>
      <trkpt lat="44.02372" lon="3.51371">
        <ele>1259</ele>
        <time>2021-06-27T11:40:36.717Z</time>
      </trkpt>
      <trkpt lat="44.02372" lon="3.51367">
        <ele>1259</ele>
        <time>2021-06-27T11:40:44.771Z</time>
      </trkpt>
      <trkpt lat="44.02369" lon="3.51361">
        <ele>1259</ele>
        <time>2021-06-27T11:40:49.719Z</time>
      </trkpt>
      <trkpt lat="44.02368" lon="3.51356">
        <ele>1259</ele>
        <time>2021-06-27T11:40:54.718Z</time>
      </trkpt>
      <trkpt lat="44.02368" lon="3.5135">
        <ele>1259</ele>
        <time>2021-06-27T11:40:59.721Z</time>
      </trkpt>
      <trkpt lat="44.02365" lon="3.51337">
        <ele>1262</ele>
        <time>2021-06-27T11:41:04.725Z</time>
      </trkpt>
      <trkpt lat="44.02365" lon="3.51328">
        <ele>1262</ele>
        <time>2021-06-27T11:41:09.717Z</time>
      </trkpt>
      <trkpt lat="44.0236" lon="3.51321">
        <ele>1262</ele>
        <time>2021-06-27T11:41:14.720Z</time>
      </trkpt>
      <trkpt lat="44.02353" lon="3.51314">
        <ele>1269</ele>
        <time>2021-06-27T11:41:19.720Z</time>
      </trkpt>
      <trkpt lat="44.02347" lon="3.51312">
        <ele>1261</ele>
        <time>2021-06-27T11:41:24.726Z</time>
      </trkpt>
      <trkpt lat="44.02342" lon="3.51305">
        <ele>1261</ele>
        <time>2021-06-27T11:41:29.722Z</time>
      </trkpt>
      <trkpt lat="44.0234" lon="3.51297">
        <ele>1261</ele>
        <time>2021-06-27T11:41:34.715Z</time>
      </trkpt>
      <trkpt lat="44.02335" lon="3.51292">
        <ele>1261</ele>
        <time>2021-06-27T11:41:39.711Z</time>
      </trkpt>
      <trkpt lat="44.0233" lon="3.51289">
        <ele>1267</ele>
        <time>2021-06-27T11:42:02.725Z</time>
      </trkpt>
      <trkpt lat="44.02328" lon="3.51303">
        <ele>1261</ele>
        <time>2021-06-27T11:42:07.729Z</time>
      </trkpt>
      <trkpt lat="44.0233" lon="3.51312">
        <ele>1261</ele>
        <time>2021-06-27T11:42:12.718Z</time>
      </trkpt>
      <trkpt lat="44.02331" lon="3.51316">
        <ele>1261</ele>
        <time>2021-06-27T11:42:16.720Z</time>
      </trkpt>
      <trkpt lat="44.02332" lon="3.51317">
        <ele>1261</ele>
        <time>2021-06-27T11:42:21.738Z</time>
      </trkpt>
      <trkpt lat="44.02333" lon="3.51316">
        <ele>1261</ele>
        <time>2021-06-27T11:42:26.721Z</time>
      </trkpt>
      <trkpt lat="44.0234" lon="3.51315">
        <ele>1261</ele>
        <time>2021-06-27T11:42:31.716Z</time>
      </trkpt>
      <trkpt lat="44.02348" lon="3.51315">
        <ele>1269</ele>
        <time>2021-06-27T11:42:36.719Z</time>
      </trkpt>
      <trkpt lat="44.02352" lon="3.51319">
        <ele>1269</ele>
        <time>2021-06-27T11:42:41.728Z</time>
      </trkpt>
      <trkpt lat="44.02354" lon="3.51322">
        <ele>1262</ele>
        <time>2021-06-27T11:42:45.751Z</time>
      </trkpt>
      <trkpt lat="44.02357" lon="3.51326">
        <ele>1262</ele>
        <time>2021-06-27T11:42:50.723Z</time>
      </trkpt>
      <trkpt lat="44.0236" lon="3.5133">
        <ele>1262</ele>
        <time>2021-06-27T11:42:55.708Z</time>
      </trkpt>
      <trkpt lat="44.0236" lon="3.51331">
        <ele>1262</ele>
        <time>2021-06-27T11:43:00.710Z</time>
      </trkpt>
      <trkpt lat="44.02364" lon="3.51334">
        <ele>1262</ele>
        <time>2021-06-27T11:43:04.745Z</time>
      </trkpt>
      <trkpt lat="44.02367" lon="3.51335">
        <ele>1262</ele>
        <time>2021-06-27T11:43:09.713Z</time>
      </trkpt>
      <trkpt lat="44.02371" lon="3.51338">
        <ele>1262</ele>
        <time>2021-06-27T11:43:13.720Z</time>
      </trkpt>
      <trkpt lat="44.02374" lon="3.51342">
        <ele>1262</ele>
        <time>2021-06-27T11:43:18.721Z</time>
      </trkpt>
      <trkpt lat="44.02376" lon="3.51344">
        <ele>1269</ele>
        <time>2021-06-27T11:43:23.699Z</time>
      </trkpt>
      <trkpt lat="44.02381" lon="3.51349">
        <ele>1263</ele>
        <time>2021-06-27T11:43:28.694Z</time>
      </trkpt>
      <trkpt lat="44.02385" lon="3.51354">
        <ele>1263</ele>
        <time>2021-06-27T11:43:33.727Z</time>
      </trkpt>
      <trkpt lat="44.0239" lon="3.5136">
        <ele>1263</ele>
        <time>2021-06-27T11:43:38.724Z</time>
      </trkpt>
      <trkpt lat="44.02395" lon="3.51364">
        <ele>1263</ele>
        <time>2021-06-27T11:43:43.720Z</time>
      </trkpt>
      <trkpt lat="44.02397" lon="3.51368">
        <ele>1263</ele>
        <time>2021-06-27T11:43:48.723Z</time>
      </trkpt>
      <trkpt lat="44.02401" lon="3.51369">
        <ele>1263</ele>
        <time>2021-06-27T11:43:53.716Z</time>
      </trkpt>
      <trkpt lat="44.02405" lon="3.51369">
        <ele>1271</ele>
        <time>2021-06-27T11:43:58.719Z</time>
      </trkpt>
      <trkpt lat="44.0241" lon="3.5137">
        <ele>1271</ele>
        <time>2021-06-27T11:44:03.716Z</time>
      </trkpt>
      <trkpt lat="44.02413" lon="3.5137">
        <ele>1271</ele>
        <time>2021-06-27T11:44:07.729Z</time>
      </trkpt>
      <trkpt lat="44.02415" lon="3.51372">
        <ele>1271</ele>
        <time>2021-06-27T11:44:12.713Z</time>
      </trkpt>
      <trkpt lat="44.02417" lon="3.51372">
        <ele>1271</ele>
        <time>2021-06-27T11:44:16.724Z</time>
      </trkpt>
      <trkpt lat="44.02418" lon="3.51373">
        <ele>1271</ele>
        <time>2021-06-27T11:44:20.779Z</time>
      </trkpt>
      <trkpt lat="44.02421" lon="3.51377">
        <ele>1267</ele>
        <time>2021-06-27T11:44:25.715Z</time>
      </trkpt>
      <trkpt lat="44.02425" lon="3.51382">
        <ele>1267</ele>
        <time>2021-06-27T11:44:30.717Z</time>
      </trkpt>
      <trkpt lat="44.0243" lon="3.51383">
        <ele>1267</ele>
        <time>2021-06-27T11:44:35.719Z</time>
      </trkpt>
      <trkpt lat="44.02432" lon="3.51384">
        <ele>1275</ele>
        <time>2021-06-27T11:44:39.724Z</time>
      </trkpt>
      <trkpt lat="44.02434" lon="3.51383">
        <ele>1275</ele>
        <time>2021-06-27T11:45:03.718Z</time>
      </trkpt>
      <trkpt lat="44.02442" lon="3.51383">
        <ele>1275</ele>
        <time>2021-06-27T11:45:08.719Z</time>
      </trkpt>
      <trkpt lat="44.02441" lon="3.51386">
        <ele>1275</ele>
        <time>2021-06-27T11:45:38.718Z</time>
      </trkpt>
      <trkpt lat="44.0244" lon="3.51389">
        <ele>1275</ele>
        <time>2021-06-27T11:45:43.698Z</time>
      </trkpt>
      <trkpt lat="44.02441" lon="3.51391">
        <ele>1275</ele>
        <time>2021-06-27T11:45:57.721Z</time>
      </trkpt>
      <trkpt lat="44.02442" lon="3.51396">
        <ele>1275</ele>
        <time>2021-06-27T11:46:02.719Z</time>
      </trkpt>
      <trkpt lat="44.02443" lon="3.51397">
        <ele>1275</ele>
        <time>2021-06-27T11:46:12.719Z</time>
      </trkpt>
      <trkpt lat="44.02449" lon="3.51399">
        <ele>1275</ele>
        <time>2021-06-27T11:46:17.705Z</time>
      </trkpt>
      <trkpt lat="44.02451" lon="3.514">
        <ele>1275</ele>
        <time>2021-06-27T11:46:22.724Z</time>
      </trkpt>
      <trkpt lat="44.02454" lon="3.51403">
        <ele>1275</ele>
        <time>2021-06-27T11:46:27.740Z</time>
      </trkpt>
      <trkpt lat="44.02457" lon="3.51409">
        <ele>1273</ele>
        <time>2021-06-27T11:46:32.695Z</time>
      </trkpt>
      <trkpt lat="44.02457" lon="3.51415">
        <ele>1273</ele>
        <time>2021-06-27T11:46:36.718Z</time>
      </trkpt>
      <trkpt lat="44.02458" lon="3.51422">
        <ele>1273</ele>
        <time>2021-06-27T11:46:41.720Z</time>
      </trkpt>
      <trkpt lat="44.0246" lon="3.51425">
        <ele>1278</ele>
        <time>2021-06-27T11:46:46.721Z</time>
      </trkpt>
      <trkpt lat="44.02462" lon="3.51431">
        <ele>1274</ele>
        <time>2021-06-27T11:46:51.713Z</time>
      </trkpt>
      <trkpt lat="44.02462" lon="3.51437">
        <ele>1274</ele>
        <time>2021-06-27T11:46:56.715Z</time>
      </trkpt>
      <trkpt lat="44.02465" lon="3.51439">
        <ele>1274</ele>
        <time>2021-06-27T11:47:00.752Z</time>
      </trkpt>
      <trkpt lat="44.02467" lon="3.51443">
        <ele>1274</ele>
        <time>2021-06-27T11:47:05.724Z</time>
      </trkpt>
      <trkpt lat="44.02468" lon="3.51444">
        <ele>1274</ele>
        <time>2021-06-27T11:47:10.722Z</time>
      </trkpt>
      <trkpt lat="44.02469" lon="3.51447">
        <ele>1274</ele>
        <time>2021-06-27T11:47:15.725Z</time>
      </trkpt>
      <trkpt lat="44.0247" lon="3.51453">
        <ele>1274</ele>
        <time>2021-06-27T11:47:20.720Z</time>
      </trkpt>
      <trkpt lat="44.02469" lon="3.51458">
        <ele>1274</ele>
        <time>2021-06-27T11:47:25.718Z</time>
      </trkpt>
      <trkpt lat="44.02469" lon="3.51461">
        <ele>1272</ele>
        <time>2021-06-27T11:47:30.728Z</time>
      </trkpt>
      <trkpt lat="44.02469" lon="3.51466">
        <ele>1272</ele>
        <time>2021-06-27T11:47:35.721Z</time>
      </trkpt>
      <trkpt lat="44.0247" lon="3.51472">
        <ele>1272</ele>
        <time>2021-06-27T11:47:40.721Z</time>
      </trkpt>
      <trkpt lat="44.02467" lon="3.51479">
        <ele>1272</ele>
        <time>2021-06-27T11:47:45.714Z</time>
      </trkpt>
      <trkpt lat="44.02466" lon="3.51483">
        <ele>1272</ele>
        <time>2021-06-27T11:47:49.723Z</time>
      </trkpt>
      <trkpt lat="44.02464" lon="3.51488">
        <ele>1271</ele>
        <time>2021-06-27T11:47:54.721Z</time>
      </trkpt>
      <trkpt lat="44.02465" lon="3.51496">
        <ele>1271</ele>
        <time>2021-06-27T11:47:59.720Z</time>
      </trkpt>
      <trkpt lat="44.02469" lon="3.51506">
        <ele>1271</ele>
        <time>2021-06-27T11:48:04.720Z</time>
      </trkpt>
      <trkpt lat="44.02478" lon="3.51516">
        <ele>1272</ele>
        <time>2021-06-27T11:48:09.725Z</time>
      </trkpt>
      <trkpt lat="44.02487" lon="3.51511">
        <ele>1277</ele>
        <time>2021-06-27T11:48:14.721Z</time>
      </trkpt>
      <trkpt lat="44.02489" lon="3.51508">
        <ele>1277</ele>
        <time>2021-06-27T11:48:19.764Z</time>
      </trkpt>
      <trkpt lat="44.02493" lon="3.51503">
        <ele>1277</ele>
        <time>2021-06-27T11:48:24.721Z</time>
      </trkpt>
      <trkpt lat="44.02495" lon="3.51502">
        <ele>1277</ele>
        <time>2021-06-27T11:48:29.724Z</time>
      </trkpt>
      <trkpt lat="44.02496" lon="3.51501">
        <ele>1277</ele>
        <time>2021-06-27T11:48:34.720Z</time>
      </trkpt>
      <trkpt lat="44.02499" lon="3.51499">
        <ele>1277</ele>
        <time>2021-06-27T11:48:39.724Z</time>
      </trkpt>
      <trkpt lat="44.02505" lon="3.51498">
        <ele>1277</ele>
        <time>2021-06-27T11:48:44.714Z</time>
      </trkpt>
      <trkpt lat="44.02505" lon="3.51498">
        <ele>1277</ele>
        <time>2021-06-27T11:48:49.717Z</time>
      </trkpt>
      <trkpt lat="44.02509" lon="3.51498">
        <ele>1277</ele>
        <time>2021-06-27T11:48:54.720Z</time>
      </trkpt>
      <trkpt lat="44.02516" lon="3.51499">
        <ele>1284</ele>
        <time>2021-06-27T11:48:59.717Z</time>
      </trkpt>
      <trkpt lat="44.02524" lon="3.51499">
        <ele>1284</ele>
        <time>2021-06-27T11:49:04.723Z</time>
      </trkpt>
      <trkpt lat="44.02526" lon="3.51499">
        <ele>1284</ele>
        <time>2021-06-27T11:49:09.725Z</time>
      </trkpt>
      <trkpt lat="44.02531" lon="3.515">
        <ele>1284</ele>
        <time>2021-06-27T11:49:14.727Z</time>
      </trkpt>
      <trkpt lat="44.02537" lon="3.51497">
        <ele>1284</ele>
        <time>2021-06-27T11:49:19.724Z</time>
      </trkpt>
      <trkpt lat="44.02537" lon="3.51502">
        <ele>1284</ele>
        <time>2021-06-27T11:49:24.722Z</time>
      </trkpt>
      <trkpt lat="44.0254" lon="3.51507">
        <ele>1284</ele>
        <time>2021-06-27T11:49:34.744Z</time>
      </trkpt>
      <trkpt lat="44.02536" lon="3.51508">
        <ele>1284</ele>
        <time>2021-06-27T11:49:39.713Z</time>
      </trkpt>
      <trkpt lat="44.02534" lon="3.51508">
        <ele>1284</ele>
        <time>2021-06-27T11:49:43.726Z</time>
      </trkpt>
      <trkpt lat="44.0253" lon="3.51506">
        <ele>1284</ele>
        <time>2021-06-27T11:49:48.715Z</time>
      </trkpt>
      <trkpt lat="44.02526" lon="3.51503">
        <ele>1284</ele>
        <time>2021-06-27T11:49:53.720Z</time>
      </trkpt>
      <trkpt lat="44.02522" lon="3.515">
        <ele>1284</ele>
        <time>2021-06-27T11:49:58.719Z</time>
      </trkpt>
      <trkpt lat="44.02516" lon="3.515">
        <ele>1284</ele>
        <time>2021-06-27T11:50:02.725Z</time>
      </trkpt>
      <trkpt lat="44.02511" lon="3.51501">
        <ele>1277</ele>
        <time>2021-06-27T11:50:07.715Z</time>
      </trkpt>
      <trkpt lat="44.02509" lon="3.51502">
        <ele>1277</ele>
        <time>2021-06-27T11:50:12.715Z</time>
      </trkpt>
      <trkpt lat="44.02504" lon="3.51506">
        <ele>1277</ele>
        <time>2021-06-27T11:50:17.735Z</time>
      </trkpt>
      <trkpt lat="44.02499" lon="3.51511">
        <ele>1277</ele>
        <time>2021-06-27T11:50:22.725Z</time>
      </trkpt>
      <trkpt lat="44.025" lon="3.51519">
        <ele>1278</ele>
        <time>2021-06-27T11:50:27.718Z</time>
      </trkpt>
      <trkpt lat="44.02505" lon="3.51532">
        <ele>1278</ele>
        <time>2021-06-27T11:50:32.722Z</time>
      </trkpt>
      <trkpt lat="44.0251" lon="3.51535">
        <ele>1278</ele>
        <time>2021-06-27T11:50:37.719Z</time>
      </trkpt>
      <trkpt lat="44.02515" lon="3.51537">
        <ele>1285</ele>
        <time>2021-06-27T11:50:41.753Z</time>
      </trkpt>
      <trkpt lat="44.0252" lon="3.51541">
        <ele>1285</ele>
        <time>2021-06-27T11:50:46.727Z</time>
      </trkpt>
      <trkpt lat="44.02526" lon="3.51541">
        <ele>1285</ele>
        <time>2021-06-27T11:50:51.714Z</time>
      </trkpt>
      <trkpt lat="44.02528" lon="3.51538">
        <ele>1285</ele>
        <time>2021-06-27T11:50:55.747Z</time>
      </trkpt>
      <trkpt lat="44.02531" lon="3.5154">
        <ele>1285</ele>
        <time>2021-06-27T11:51:00.722Z</time>
      </trkpt>
      <trkpt lat="44.02534" lon="3.51541">
        <ele>1285</ele>
        <time>2021-06-27T11:51:04.750Z</time>
      </trkpt>
      <trkpt lat="44.0254" lon="3.51541">
        <ele>1285</ele>
        <time>2021-06-27T11:51:09.725Z</time>
      </trkpt>
      <trkpt lat="44.02543" lon="3.51539">
        <ele>1289</ele>
        <time>2021-06-27T11:51:14.720Z</time>
      </trkpt>
      <trkpt lat="44.02544" lon="3.51539">
        <ele>1289</ele>
        <time>2021-06-27T11:51:19.718Z</time>
      </trkpt>
      <trkpt lat="44.02548" lon="3.51536">
        <ele>1289</ele>
        <time>2021-06-27T11:51:23.728Z</time>
      </trkpt>
      <trkpt lat="44.02554" lon="3.51535">
        <ele>1289</ele>
        <time>2021-06-27T11:51:28.720Z</time>
      </trkpt>
      <trkpt lat="44.02558" lon="3.5153">
        <ele>1289</ele>
        <time>2021-06-27T11:51:33.741Z</time>
      </trkpt>
      <trkpt lat="44.02563" lon="3.51527">
        <ele>1289</ele>
        <time>2021-06-27T11:51:38.724Z</time>
      </trkpt>
      <trkpt lat="44.02563" lon="3.51527">
        <ele>1289</ele>
        <time>2021-06-27T11:51:43.727Z</time>
      </trkpt>
      <trkpt lat="44.02567" lon="3.51526">
        <ele>1289</ele>
        <time>2021-06-27T11:51:47.742Z</time>
      </trkpt>
      <trkpt lat="44.02572" lon="3.51523">
        <ele>1292</ele>
        <time>2021-06-27T11:51:52.719Z</time>
      </trkpt>
      <trkpt lat="44.02576" lon="3.51524">
        <ele>1292</ele>
        <time>2021-06-27T11:51:57.718Z</time>
      </trkpt>
      <trkpt lat="44.02581" lon="3.51522">
        <ele>1292</ele>
        <time>2021-06-27T11:52:02.713Z</time>
      </trkpt>
      <trkpt lat="44.02586" lon="3.51522">
        <ele>1292</ele>
        <time>2021-06-27T11:52:07.720Z</time>
      </trkpt>
      <trkpt lat="44.02588" lon="3.51523">
        <ele>1292</ele>
        <time>2021-06-27T11:52:12.728Z</time>
      </trkpt>
      <trkpt lat="44.0259" lon="3.51524">
        <ele>1292</ele>
        <time>2021-06-27T11:52:17.717Z</time>
      </trkpt>
      <trkpt lat="44.02593" lon="3.51525">
        <ele>1292</ele>
        <time>2021-06-27T11:52:22.720Z</time>
      </trkpt>
      <trkpt lat="44.02596" lon="3.51526">
        <ele>1292</ele>
        <time>2021-06-27T11:52:27.723Z</time>
      </trkpt>
      <trkpt lat="44.02599" lon="3.51529">
        <ele>1297</ele>
        <time>2021-06-27T11:52:31.743Z</time>
      </trkpt>
      <trkpt lat="44.02605" lon="3.51531">
        <ele>1297</ele>
        <time>2021-06-27T11:52:36.721Z</time>
      </trkpt>
      <trkpt lat="44.02609" lon="3.51537">
        <ele>1297</ele>
        <time>2021-06-27T11:52:41.715Z</time>
      </trkpt>
      <trkpt lat="44.02612" lon="3.51544">
        <ele>1299</ele>
        <time>2021-06-27T11:52:46.720Z</time>
      </trkpt>
      <trkpt lat="44.02614" lon="3.5155">
        <ele>1299</ele>
        <time>2021-06-27T11:52:51.723Z</time>
      </trkpt>
      <trkpt lat="44.02615" lon="3.51555">
        <ele>1299</ele>
        <time>2021-06-27T11:52:55.721Z</time>
      </trkpt>
      <trkpt lat="44.02619" lon="3.51559">
        <ele>1299</ele>
        <time>2021-06-27T11:53:00.744Z</time>
      </trkpt>
      <trkpt lat="44.02621" lon="3.51563">
        <ele>1299</ele>
        <time>2021-06-27T11:53:05.728Z</time>
      </trkpt>
      <trkpt lat="44.02624" lon="3.51565">
        <ele>1299</ele>
        <time>2021-06-27T11:53:10.724Z</time>
      </trkpt>
      <trkpt lat="44.02627" lon="3.51568">
        <ele>1303</ele>
        <time>2021-06-27T11:53:14.747Z</time>
      </trkpt>
      <trkpt lat="44.02631" lon="3.51573">
        <ele>1303</ele>
        <time>2021-06-27T11:53:19.720Z</time>
      </trkpt>
      <trkpt lat="44.02635" lon="3.51577">
        <ele>1303</ele>
        <time>2021-06-27T11:53:24.717Z</time>
      </trkpt>
      <trkpt lat="44.02636" lon="3.51584">
        <ele>1303</ele>
        <time>2021-06-27T11:53:29.740Z</time>
      </trkpt>
      <trkpt lat="44.02639" lon="3.51589">
        <ele>1303</ele>
        <time>2021-06-27T11:53:34.697Z</time>
      </trkpt>
      <trkpt lat="44.0264" lon="3.5159">
        <ele>1303</ele>
        <time>2021-06-27T11:53:38.726Z</time>
      </trkpt>
      <trkpt lat="44.02641" lon="3.51592">
        <ele>1303</ele>
        <time>2021-06-27T11:53:43.728Z</time>
      </trkpt>
      <trkpt lat="44.02645" lon="3.516">
        <ele>1301</ele>
        <time>2021-06-27T11:53:48.719Z</time>
      </trkpt>
      <trkpt lat="44.02648" lon="3.51608">
        <ele>1301</ele>
        <time>2021-06-27T11:53:53.712Z</time>
      </trkpt>
      <trkpt lat="44.02651" lon="3.51615">
        <ele>1301</ele>
        <time>2021-06-27T11:53:58.715Z</time>
      </trkpt>
      <trkpt lat="44.02652" lon="3.51619">
        <ele>1301</ele>
        <time>2021-06-27T11:54:02.720Z</time>
      </trkpt>
      <trkpt lat="44.02655" lon="3.51624">
        <ele>1303</ele>
        <time>2021-06-27T11:54:07.717Z</time>
      </trkpt>
      <trkpt lat="44.02659" lon="3.51629">
        <ele>1302</ele>
        <time>2021-06-27T11:54:12.718Z</time>
      </trkpt>
      <trkpt lat="44.02664" lon="3.51632">
        <ele>1302</ele>
        <time>2021-06-27T11:54:17.720Z</time>
      </trkpt>
      <trkpt lat="44.02668" lon="3.51635">
        <ele>1302</ele>
        <time>2021-06-27T11:54:21.726Z</time>
      </trkpt>
      <trkpt lat="44.02672" lon="3.51638">
        <ele>1302</ele>
        <time>2021-06-27T11:54:26.717Z</time>
      </trkpt>
      <trkpt lat="44.02674" lon="3.5164">
        <ele>1302</ele>
        <time>2021-06-27T11:54:30.743Z</time>
      </trkpt>
      <trkpt lat="44.02677" lon="3.51643">
        <ele>1302</ele>
        <time>2021-06-27T11:54:35.730Z</time>
      </trkpt>
      <trkpt lat="44.0268" lon="3.51647">
        <ele>1302</ele>
        <time>2021-06-27T11:54:40.729Z</time>
      </trkpt>
      <trkpt lat="44.02682" lon="3.51651">
        <ele>1305</ele>
        <time>2021-06-27T11:54:45.713Z</time>
      </trkpt>
      <trkpt lat="44.02685" lon="3.51652">
        <ele>1305</ele>
        <time>2021-06-27T11:54:49.722Z</time>
      </trkpt>
      <trkpt lat="44.02691" lon="3.51655">
        <ele>1305</ele>
        <time>2021-06-27T11:54:54.714Z</time>
      </trkpt>
      <trkpt lat="44.02695" lon="3.51661">
        <ele>1305</ele>
        <time>2021-06-27T11:54:59.717Z</time>
      </trkpt>
      <trkpt lat="44.027" lon="3.51665">
        <ele>1305</ele>
        <time>2021-06-27T11:55:04.713Z</time>
      </trkpt>
      <trkpt lat="44.02709" lon="3.51671">
        <ele>1305</ele>
        <time>2021-06-27T11:55:37.720Z</time>
      </trkpt>
      <trkpt lat="44.0271" lon="3.5167">
        <ele>1305</ele>
        <time>2021-06-27T11:55:56.695Z</time>
      </trkpt>
      <trkpt lat="44.02716" lon="3.51671">
        <ele>1305</ele>
        <time>2021-06-27T11:56:01.703Z</time>
      </trkpt>
      <trkpt lat="44.02719" lon="3.51675">
        <ele>1305</ele>
        <time>2021-06-27T11:56:05.725Z</time>
      </trkpt>
      <trkpt lat="44.02719" lon="3.51683">
        <ele>1304</ele>
        <time>2021-06-27T11:56:10.727Z</time>
      </trkpt>
      <trkpt lat="44.02725" lon="3.51695">
        <ele>1304</ele>
        <time>2021-06-27T11:56:29.699Z</time>
      </trkpt>
      <trkpt lat="44.02725" lon="3.51697">
        <ele>1304</ele>
        <time>2021-06-27T11:56:52.695Z</time>
      </trkpt>
      <trkpt lat="44.02727" lon="3.51702">
        <ele>1304</ele>
        <time>2021-06-27T11:56:56.730Z</time>
      </trkpt>
      <trkpt lat="44.0273" lon="3.51711">
        <ele>1303</ele>
        <time>2021-06-27T11:57:01.731Z</time>
      </trkpt>
      <trkpt lat="44.02733" lon="3.51716">
        <ele>1303</ele>
        <time>2021-06-27T11:57:06.721Z</time>
      </trkpt>
      <trkpt lat="44.02734" lon="3.51722">
        <ele>1303</ele>
        <time>2021-06-27T11:57:11.723Z</time>
      </trkpt>
      <trkpt lat="44.02736" lon="3.51728">
        <ele>1303</ele>
        <time>2021-06-27T11:57:16.723Z</time>
      </trkpt>
      <trkpt lat="44.02737" lon="3.51734">
        <ele>1306</ele>
        <time>2021-06-27T11:57:21.721Z</time>
      </trkpt>
      <trkpt lat="44.02738" lon="3.5174">
        <ele>1305</ele>
        <time>2021-06-27T11:57:26.719Z</time>
      </trkpt>
      <trkpt lat="44.02741" lon="3.51748">
        <ele>1305</ele>
        <time>2021-06-27T11:57:31.702Z</time>
      </trkpt>
      <trkpt lat="44.02744" lon="3.51752">
        <ele>1305</ele>
        <time>2021-06-27T11:57:35.725Z</time>
      </trkpt>
      <trkpt lat="44.02749" lon="3.51755">
        <ele>1305</ele>
        <time>2021-06-27T11:57:40.719Z</time>
      </trkpt>
      <trkpt lat="44.02751" lon="3.51762">
        <ele>1305</ele>
        <time>2021-06-27T11:57:45.714Z</time>
      </trkpt>
      <trkpt lat="44.02753" lon="3.51768">
        <ele>1303</ele>
        <time>2021-06-27T11:57:50.724Z</time>
      </trkpt>
      <trkpt lat="44.02754" lon="3.51775">
        <ele>1303</ele>
        <time>2021-06-27T11:57:55.722Z</time>
      </trkpt>
      <trkpt lat="44.02756" lon="3.51782">
        <ele>1303</ele>
        <time>2021-06-27T11:58:00.722Z</time>
      </trkpt>
      <trkpt lat="44.02757" lon="3.51785">
        <ele>1303</ele>
        <time>2021-06-27T11:58:05.715Z</time>
      </trkpt>
      <trkpt lat="44.02757" lon="3.51791">
        <ele>1303</ele>
        <time>2021-06-27T11:58:10.721Z</time>
      </trkpt>
      <trkpt lat="44.02759" lon="3.51798">
        <ele>1300</ele>
        <time>2021-06-27T11:58:14.719Z</time>
      </trkpt>
      <trkpt lat="44.02761" lon="3.51808">
        <ele>1300</ele>
        <time>2021-06-27T11:58:19.724Z</time>
      </trkpt>
      <trkpt lat="44.0276" lon="3.5182">
        <ele>1292</ele>
        <time>2021-06-27T11:58:24.725Z</time>
      </trkpt>
      <trkpt lat="44.02763" lon="3.51818">
        <ele>1300</ele>
        <time>2021-06-27T11:58:29.720Z</time>
      </trkpt>
      <trkpt lat="44.02767" lon="3.51819">
        <ele>1309</ele>
        <time>2021-06-27T11:58:33.724Z</time>
      </trkpt>
      <trkpt lat="44.02771" lon="3.51817">
        <ele>1309</ele>
        <time>2021-06-27T11:58:37.753Z</time>
      </trkpt>
      <trkpt lat="44.02775" lon="3.51819">
        <ele>1309</ele>
        <time>2021-06-27T11:58:42.721Z</time>
      </trkpt>
      <trkpt lat="44.02782" lon="3.51821">
        <ele>1304</ele>
        <time>2021-06-27T11:58:47.712Z</time>
      </trkpt>
      <trkpt lat="44.02785" lon="3.51824">
        <ele>1304</ele>
        <time>2021-06-27T11:58:51.720Z</time>
      </trkpt>
      <trkpt lat="44.0279" lon="3.5183">
        <ele>1304</ele>
        <time>2021-06-27T11:58:56.720Z</time>
      </trkpt>
      <trkpt lat="44.02795" lon="3.51833">
        <ele>1307</ele>
        <time>2021-06-27T11:59:01.717Z</time>
      </trkpt>
      <trkpt lat="44.02797" lon="3.51829">
        <ele>1307</ele>
        <time>2021-06-27T11:59:06.721Z</time>
      </trkpt>
      <trkpt lat="44.028" lon="3.51829">
        <ele>1307</ele>
        <time>2021-06-27T11:59:11.714Z</time>
      </trkpt>
      <trkpt lat="44.02805" lon="3.51836">
        <ele>1307</ele>
        <time>2021-06-27T11:59:16.722Z</time>
      </trkpt>
      <trkpt lat="44.02809" lon="3.51842">
        <ele>1307</ele>
        <time>2021-06-27T11:59:21.745Z</time>
      </trkpt>
      <trkpt lat="44.02813" lon="3.51848">
        <ele>1305</ele>
        <time>2021-06-27T11:59:26.721Z</time>
      </trkpt>
      <trkpt lat="44.02817" lon="3.51853">
        <ele>1305</ele>
        <time>2021-06-27T11:59:31.716Z</time>
      </trkpt>
      <trkpt lat="44.02824" lon="3.51856">
        <ele>1307</ele>
        <time>2021-06-27T11:59:36.730Z</time>
      </trkpt>
      <trkpt lat="44.02826" lon="3.51856">
        <ele>1307</ele>
        <time>2021-06-27T11:59:41.717Z</time>
      </trkpt>
      <trkpt lat="44.02829" lon="3.51859">
        <ele>1307</ele>
        <time>2021-06-27T11:59:46.752Z</time>
      </trkpt>
      <trkpt lat="44.02832" lon="3.51862">
        <ele>1307</ele>
        <time>2021-06-27T11:59:51.722Z</time>
      </trkpt>
      <trkpt lat="44.02833" lon="3.51866">
        <ele>1307</ele>
        <time>2021-06-27T11:59:56.721Z</time>
      </trkpt>
      <trkpt lat="44.02836" lon="3.51867">
        <ele>1307</ele>
        <time>2021-06-27T12:00:00.752Z</time>
      </trkpt>
      <trkpt lat="44.0284" lon="3.51872">
        <ele>1307</ele>
        <time>2021-06-27T12:00:05.725Z</time>
      </trkpt>
      <trkpt lat="44.02843" lon="3.51878">
        <ele>1305</ele>
        <time>2021-06-27T12:00:10.718Z</time>
      </trkpt>
      <trkpt lat="44.02846" lon="3.51885">
        <ele>1305</ele>
        <time>2021-06-27T12:00:15.724Z</time>
      </trkpt>
      <trkpt lat="44.02851" lon="3.51889">
        <ele>1305</ele>
        <time>2021-06-27T12:00:20.698Z</time>
      </trkpt>
      <trkpt lat="44.02852" lon="3.51889">
        <ele>1305</ele>
        <time>2021-06-27T12:00:24.712Z</time>
      </trkpt>
      <trkpt lat="44.02862" lon="3.51889">
        <ele>1305</ele>
        <time>2021-06-27T12:00:44.715Z</time>
      </trkpt>
      <trkpt lat="44.02867" lon="3.51896">
        <ele>1305</ele>
        <time>2021-06-27T12:00:49.722Z</time>
      </trkpt>
      <trkpt lat="44.02869" lon="3.519">
        <ele>1305</ele>
        <time>2021-06-27T12:00:53.723Z</time>
      </trkpt>
      <trkpt lat="44.0287" lon="3.51904">
        <ele>1300</ele>
        <time>2021-06-27T12:00:58.715Z</time>
      </trkpt>
      <trkpt lat="44.0287" lon="3.51905">
        <ele>1300</ele>
        <time>2021-06-27T12:01:03.716Z</time>
      </trkpt>
      <trkpt lat="44.02871" lon="3.51907">
        <ele>1300</ele>
        <time>2021-06-27T12:01:07.718Z</time>
      </trkpt>
      <trkpt lat="44.02875" lon="3.51912">
        <ele>1299</ele>
        <time>2021-06-27T12:01:12.718Z</time>
      </trkpt>
      <trkpt lat="44.0288" lon="3.51913">
        <ele>1299</ele>
        <time>2021-06-27T12:01:17.716Z</time>
      </trkpt>
      <trkpt lat="44.02884" lon="3.51914">
        <ele>1299</ele>
        <time>2021-06-27T12:01:22.710Z</time>
      </trkpt>
      <trkpt lat="44.02889" lon="3.51915">
        <ele>1299</ele>
        <time>2021-06-27T12:01:26.716Z</time>
      </trkpt>
      <trkpt lat="44.02892" lon="3.51916">
        <ele>1299</ele>
        <time>2021-06-27T12:01:30.734Z</time>
      </trkpt>
      <trkpt lat="44.02896" lon="3.51918">
        <ele>1299</ele>
        <time>2021-06-27T12:01:35.718Z</time>
      </trkpt>
      <trkpt lat="44.029" lon="3.51919">
        <ele>1299</ele>
        <time>2021-06-27T12:01:39.724Z</time>
      </trkpt>
      <trkpt lat="44.02902" lon="3.51921">
        <ele>1299</ele>
        <time>2021-06-27T12:01:44.711Z</time>
      </trkpt>
      <trkpt lat="44.02909" lon="3.51925">
        <ele>1301</ele>
        <time>2021-06-27T12:01:49.709Z</time>
      </trkpt>
      <trkpt lat="44.02913" lon="3.51927">
        <ele>1301</ele>
        <time>2021-06-27T12:01:53.723Z</time>
      </trkpt>
      <trkpt lat="44.02917" lon="3.51931">
        <ele>1296</ele>
        <time>2021-06-27T12:01:58.721Z</time>
      </trkpt>
      <trkpt lat="44.02919" lon="3.51934">
        <ele>1296</ele>
        <time>2021-06-27T12:02:03.715Z</time>
      </trkpt>
      <trkpt lat="44.02924" lon="3.51936">
        <ele>1296</ele>
        <time>2021-06-27T12:02:08.718Z</time>
      </trkpt>
      <trkpt lat="44.02929" lon="3.51939">
        <ele>1296</ele>
        <time>2021-06-27T12:02:13.721Z</time>
      </trkpt>
      <trkpt lat="44.02933" lon="3.51942">
        <ele>1297</ele>
        <time>2021-06-27T12:02:18.714Z</time>
      </trkpt>
      <trkpt lat="44.02938" lon="3.51941">
        <ele>1297</ele>
        <time>2021-06-27T12:02:23.713Z</time>
      </trkpt>
      <trkpt lat="44.02938" lon="3.51941">
        <ele>1297</ele>
        <time>2021-06-27T12:02:27.723Z</time>
      </trkpt>
      <trkpt lat="44.02942" lon="3.51941">
        <ele>1297</ele>
        <time>2021-06-27T12:02:37.698Z</time>
      </trkpt>
      <trkpt lat="44.02949" lon="3.51941">
        <ele>1297</ele>
        <time>2021-06-27T12:02:42.697Z</time>
      </trkpt>
      <trkpt lat="44.02958" lon="3.51943">
        <ele>1297</ele>
        <time>2021-06-27T12:02:46.719Z</time>
      </trkpt>
      <trkpt lat="44.02965" lon="3.51942">
        <ele>1297</ele>
        <time>2021-06-27T12:02:51.716Z</time>
      </trkpt>
      <trkpt lat="44.02971" lon="3.51948">
        <ele>1297</ele>
        <time>2021-06-27T12:02:56.695Z</time>
      </trkpt>
      <trkpt lat="44.02976" lon="3.51955">
        <ele>1297</ele>
        <time>2021-06-27T12:03:00.723Z</time>
      </trkpt>
      <trkpt lat="44.02977" lon="3.51955">
        <ele>1297</ele>
        <time>2021-06-27T12:03:05.721Z</time>
      </trkpt>
      <trkpt lat="44.02983" lon="3.51958">
        <ele>1297</ele>
        <time>2021-06-27T12:03:10.725Z</time>
      </trkpt>
      <trkpt lat="44.02989" lon="3.51961">
        <ele>1295</ele>
        <time>2021-06-27T12:03:15.714Z</time>
      </trkpt>
      <trkpt lat="44.02994" lon="3.51962">
        <ele>1295</ele>
        <time>2021-06-27T12:03:19.720Z</time>
      </trkpt>
      <trkpt lat="44.02996" lon="3.51965">
        <ele>1295</ele>
        <time>2021-06-27T12:03:23.723Z</time>
      </trkpt>
      <trkpt lat="44.02999" lon="3.51969">
        <ele>1295</ele>
        <time>2021-06-27T12:03:28.724Z</time>
      </trkpt>
      <trkpt lat="44.03004" lon="3.51974">
        <ele>1295</ele>
        <time>2021-06-27T12:03:33.717Z</time>
      </trkpt>
      <trkpt lat="44.0301" lon="3.51979">
        <ele>1295</ele>
        <time>2021-06-27T12:03:38.724Z</time>
      </trkpt>
      <trkpt lat="44.03016" lon="3.51982">
        <ele>1292</ele>
        <time>2021-06-27T12:03:43.717Z</time>
      </trkpt>
      <trkpt lat="44.03021" lon="3.51984">
        <ele>1292</ele>
        <time>2021-06-27T12:03:48.723Z</time>
      </trkpt>
      <trkpt lat="44.03026" lon="3.51981">
        <ele>1292</ele>
        <time>2021-06-27T12:03:52.751Z</time>
      </trkpt>
      <trkpt lat="44.03032" lon="3.51978">
        <ele>1292</ele>
        <time>2021-06-27T12:03:57.719Z</time>
      </trkpt>
      <trkpt lat="44.03033" lon="3.51981">
        <ele>1292</ele>
        <time>2021-06-27T12:04:01.727Z</time>
      </trkpt>
      <trkpt lat="44.03036" lon="3.51982">
        <ele>1292</ele>
        <time>2021-06-27T12:04:06.727Z</time>
      </trkpt>
      <trkpt lat="44.03037" lon="3.51983">
        <ele>1292</ele>
        <time>2021-06-27T12:04:11.746Z</time>
      </trkpt>
      <trkpt lat="44.03041" lon="3.51984">
        <ele>1292</ele>
        <time>2021-06-27T12:04:16.710Z</time>
      </trkpt>
      <trkpt lat="44.03045" lon="3.51985">
        <ele>1293</ele>
        <time>2021-06-27T12:04:21.744Z</time>
      </trkpt>
      <trkpt lat="44.03048" lon="3.5199">
        <ele>1283</ele>
        <time>2021-06-27T12:04:26.712Z</time>
      </trkpt>
      <trkpt lat="44.03052" lon="3.51994">
        <ele>1283</ele>
        <time>2021-06-27T12:04:30.743Z</time>
      </trkpt>
      <trkpt lat="44.03056" lon="3.51998">
        <ele>1283</ele>
        <time>2021-06-27T12:04:35.710Z</time>
      </trkpt>
      <trkpt lat="44.03061" lon="3.51997">
        <ele>1283</ele>
        <time>2021-06-27T12:04:40.711Z</time>
      </trkpt>
      <trkpt lat="44.03065" lon="3.51994">
        <ele>1283</ele>
        <time>2021-06-27T12:04:45.718Z</time>
      </trkpt>
      <trkpt lat="44.03069" lon="3.51995">
        <ele>1283</ele>
        <time>2021-06-27T12:04:50.724Z</time>
      </trkpt>
      <trkpt lat="44.03073" lon="3.51995">
        <ele>1287</ele>
        <time>2021-06-27T12:04:54.744Z</time>
      </trkpt>
      <trkpt lat="44.03076" lon="3.51995">
        <ele>1287</ele>
        <time>2021-06-27T12:04:59.716Z</time>
      </trkpt>
      <trkpt lat="44.0308" lon="3.51996">
        <ele>1287</ele>
        <time>2021-06-27T12:05:04.718Z</time>
      </trkpt>
      <trkpt lat="44.03084" lon="3.51995">
        <ele>1287</ele>
        <time>2021-06-27T12:05:09.694Z</time>
      </trkpt>
      <trkpt lat="44.03087" lon="3.51995">
        <ele>1287</ele>
        <time>2021-06-27T12:05:13.720Z</time>
      </trkpt>
      <trkpt lat="44.03095" lon="3.51997">
        <ele>1287</ele>
        <time>2021-06-27T12:05:18.727Z</time>
      </trkpt>
      <trkpt lat="44.031" lon="3.52003">
        <ele>1286</ele>
        <time>2021-06-27T12:05:23.727Z</time>
      </trkpt>
      <trkpt lat="44.03108" lon="3.52">
        <ele>1286</ele>
        <time>2021-06-27T12:05:28.720Z</time>
      </trkpt>
      <trkpt lat="44.03109" lon="3.51999">
        <ele>1286</ele>
        <time>2021-06-27T12:05:33.721Z</time>
      </trkpt>
      <trkpt lat="44.03113" lon="3.52001">
        <ele>1286</ele>
        <time>2021-06-27T12:05:38.724Z</time>
      </trkpt>
      <trkpt lat="44.03116" lon="3.52003">
        <ele>1286</ele>
        <time>2021-06-27T12:05:43.716Z</time>
      </trkpt>
      <trkpt lat="44.0312" lon="3.52004">
        <ele>1286</ele>
        <time>2021-06-27T12:05:47.756Z</time>
      </trkpt>
      <trkpt lat="44.03129" lon="3.52008">
        <ele>1285</ele>
        <time>2021-06-27T12:05:51.757Z</time>
      </trkpt>
      <trkpt lat="44.03137" lon="3.5201">
        <ele>1285</ele>
        <time>2021-06-27T12:05:56.711Z</time>
      </trkpt>
      <trkpt lat="44.03139" lon="3.52009">
        <ele>1285</ele>
        <time>2021-06-27T12:06:01.721Z</time>
      </trkpt>
      <trkpt lat="44.03143" lon="3.52007">
        <ele>1285</ele>
        <time>2021-06-27T12:06:06.722Z</time>
      </trkpt>
      <trkpt lat="44.03145" lon="3.52007">
        <ele>1285</ele>
        <time>2021-06-27T12:06:11.721Z</time>
      </trkpt>
      <trkpt lat="44.03149" lon="3.52009">
        <ele>1285</ele>
        <time>2021-06-27T12:06:16.722Z</time>
      </trkpt>
      <trkpt lat="44.03155" lon="3.52013">
        <ele>1282</ele>
        <time>2021-06-27T12:06:21.728Z</time>
      </trkpt>
      <trkpt lat="44.03159" lon="3.5201">
        <ele>1282</ele>
        <time>2021-06-27T12:06:26.720Z</time>
      </trkpt>
      <trkpt lat="44.03163" lon="3.52007">
        <ele>1282</ele>
        <time>2021-06-27T12:06:30.747Z</time>
      </trkpt>
      <trkpt lat="44.03169" lon="3.52005">
        <ele>1282</ele>
        <time>2021-06-27T12:06:35.720Z</time>
      </trkpt>
      <trkpt lat="44.03176" lon="3.52005">
        <ele>1282</ele>
        <time>2021-06-27T12:06:40.720Z</time>
      </trkpt>
      <trkpt lat="44.03179" lon="3.52005">
        <ele>1282</ele>
        <time>2021-06-27T12:06:45.718Z</time>
      </trkpt>
      <trkpt lat="44.03184" lon="3.52005">
        <ele>1279</ele>
        <time>2021-06-27T12:06:49.729Z</time>
      </trkpt>
      <trkpt lat="44.03191" lon="3.52004">
        <ele>1279</ele>
        <time>2021-06-27T12:06:54.720Z</time>
      </trkpt>
      <trkpt lat="44.03193" lon="3.52004">
        <ele>1279</ele>
        <time>2021-06-27T12:06:59.743Z</time>
      </trkpt>
      <trkpt lat="44.03199" lon="3.52002">
        <ele>1279</ele>
        <time>2021-06-27T12:07:04.723Z</time>
      </trkpt>
      <trkpt lat="44.03206" lon="3.52001">
        <ele>1279</ele>
        <time>2021-06-27T12:07:09.723Z</time>
      </trkpt>
      <trkpt lat="44.03208" lon="3.52002">
        <ele>1279</ele>
        <time>2021-06-27T12:07:13.780Z</time>
      </trkpt>
      <trkpt lat="44.03213" lon="3.52001">
        <ele>1279</ele>
        <time>2021-06-27T12:07:18.719Z</time>
      </trkpt>
      <trkpt lat="44.03219" lon="3.52002">
        <ele>1279</ele>
        <time>2021-06-27T12:07:23.714Z</time>
      </trkpt>
      <trkpt lat="44.03222" lon="3.52003">
        <ele>1279</ele>
        <time>2021-06-27T12:07:27.743Z</time>
      </trkpt>
      <trkpt lat="44.03226" lon="3.52002">
        <ele>1279</ele>
        <time>2021-06-27T12:07:32.720Z</time>
      </trkpt>
      <trkpt lat="44.03228" lon="3.52003">
        <ele>1279</ele>
        <time>2021-06-27T12:07:37.720Z</time>
      </trkpt>
      <trkpt lat="44.03233" lon="3.52005">
        <ele>1279</ele>
        <time>2021-06-27T12:07:42.717Z</time>
      </trkpt>
      <trkpt lat="44.03238" lon="3.52006">
        <ele>1278</ele>
        <time>2021-06-27T12:07:46.724Z</time>
      </trkpt>
      <trkpt lat="44.03244" lon="3.52011">
        <ele>1278</ele>
        <time>2021-06-27T12:07:51.715Z</time>
      </trkpt>
      <trkpt lat="44.03248" lon="3.52015">
        <ele>1269</ele>
        <time>2021-06-27T12:07:55.731Z</time>
      </trkpt>
      <trkpt lat="44.03253" lon="3.52013">
        <ele>1278</ele>
        <time>2021-06-27T12:08:00.714Z</time>
      </trkpt>
      <trkpt lat="44.03255" lon="3.52015">
        <ele>1269</ele>
        <time>2021-06-27T12:08:04.722Z</time>
      </trkpt>
      <trkpt lat="44.03258" lon="3.52015">
        <ele>1269</ele>
        <time>2021-06-27T12:08:09.726Z</time>
      </trkpt>
      <trkpt lat="44.03265" lon="3.5201">
        <ele>1277</ele>
        <time>2021-06-27T12:08:14.704Z</time>
      </trkpt>
      <trkpt lat="44.03268" lon="3.52012">
        <ele>1277</ele>
        <time>2021-06-27T12:08:18.745Z</time>
      </trkpt>
      <trkpt lat="44.0327" lon="3.52014">
        <ele>1277</ele>
        <time>2021-06-27T12:08:23.716Z</time>
      </trkpt>
      <trkpt lat="44.03273" lon="3.52012">
        <ele>1277</ele>
        <time>2021-06-27T12:08:28.716Z</time>
      </trkpt>
      <trkpt lat="44.03276" lon="3.5201">
        <ele>1277</ele>
        <time>2021-06-27T12:08:32.718Z</time>
      </trkpt>
      <trkpt lat="44.03282" lon="3.52012">
        <ele>1277</ele>
        <time>2021-06-27T12:08:37.712Z</time>
      </trkpt>
      <trkpt lat="44.03286" lon="3.52014">
        <ele>1269</ele>
        <time>2021-06-27T12:08:42.722Z</time>
      </trkpt>
      <trkpt lat="44.03288" lon="3.52013">
        <ele>1277</ele>
        <time>2021-06-27T12:08:47.718Z</time>
      </trkpt>
      <trkpt lat="44.03296" lon="3.52015">
        <ele>1268</ele>
        <time>2021-06-27T12:08:52.714Z</time>
      </trkpt>
      <trkpt lat="44.03302" lon="3.52015">
        <ele>1268</ele>
        <time>2021-06-27T12:08:57.713Z</time>
      </trkpt>
      <trkpt lat="44.03305" lon="3.52014">
        <ele>1268</ele>
        <time>2021-06-27T12:09:02.694Z</time>
      </trkpt>
      <trkpt lat="44.03309" lon="3.52011">
        <ele>1279</ele>
        <time>2021-06-27T12:09:06.728Z</time>
      </trkpt>
      <trkpt lat="44.03314" lon="3.52008">
        <ele>1279</ele>
        <time>2021-06-27T12:09:11.718Z</time>
      </trkpt>
      <trkpt lat="44.03319" lon="3.5201">
        <ele>1279</ele>
        <time>2021-06-27T12:09:16.717Z</time>
      </trkpt>
      <trkpt lat="44.03323" lon="3.52012">
        <ele>1275</ele>
        <time>2021-06-27T12:09:20.719Z</time>
      </trkpt>
      <trkpt lat="44.03326" lon="3.52013">
        <ele>1275</ele>
        <time>2021-06-27T12:09:25.720Z</time>
      </trkpt>
      <trkpt lat="44.0333" lon="3.52012">
        <ele>1275</ele>
        <time>2021-06-27T12:09:30.719Z</time>
      </trkpt>
      <trkpt lat="44.03335" lon="3.52009">
        <ele>1275</ele>
        <time>2021-06-27T12:09:35.720Z</time>
      </trkpt>
      <trkpt lat="44.03343" lon="3.52003">
        <ele>1275</ele>
        <time>2021-06-27T12:09:40.718Z</time>
      </trkpt>
      <trkpt lat="44.03348" lon="3.52001">
        <ele>1267</ele>
        <time>2021-06-27T12:09:44.743Z</time>
      </trkpt>
      <trkpt lat="44.03353" lon="3.51999">
        <ele>1267</ele>
        <time>2021-06-27T12:09:49.719Z</time>
      </trkpt>
      <trkpt lat="44.03358" lon="3.51996">
        <ele>1267</ele>
        <time>2021-06-27T12:09:54.707Z</time>
      </trkpt>
      <trkpt lat="44.0336" lon="3.51998">
        <ele>1267</ele>
        <time>2021-06-27T12:09:59.720Z</time>
      </trkpt>
      <trkpt lat="44.03362" lon="3.51997">
        <ele>1267</ele>
        <time>2021-06-27T12:10:03.745Z</time>
      </trkpt>
      <trkpt lat="44.03365" lon="3.51996">
        <ele>1267</ele>
        <time>2021-06-27T12:10:08.722Z</time>
      </trkpt>
      <trkpt lat="44.0337" lon="3.51998">
        <ele>1267</ele>
        <time>2021-06-27T12:10:13.719Z</time>
      </trkpt>
      <trkpt lat="44.03373" lon="3.5199">
        <ele>1267</ele>
        <time>2021-06-27T12:10:18.719Z</time>
      </trkpt>
      <trkpt lat="44.03376" lon="3.51988">
        <ele>1261</ele>
        <time>2021-06-27T12:10:22.717Z</time>
      </trkpt>
      <trkpt lat="44.03379" lon="3.51987">
        <ele>1261</ele>
        <time>2021-06-27T12:10:27.718Z</time>
      </trkpt>
      <trkpt lat="44.03386" lon="3.51988">
        <ele>1261</ele>
        <time>2021-06-27T12:10:32.710Z</time>
      </trkpt>
      <trkpt lat="44.0339" lon="3.51988">
        <ele>1261</ele>
        <time>2021-06-27T12:10:37.713Z</time>
      </trkpt>
      <trkpt lat="44.03393" lon="3.51987">
        <ele>1261</ele>
        <time>2021-06-27T12:10:42.723Z</time>
      </trkpt>
      <trkpt lat="44.03401" lon="3.51981">
        <ele>1270</ele>
        <time>2021-06-27T12:10:47.694Z</time>
      </trkpt>
      <trkpt lat="44.03405" lon="3.51977">
        <ele>1267</ele>
        <time>2021-06-27T12:10:51.713Z</time>
      </trkpt>
      <trkpt lat="44.03407" lon="3.51975">
        <ele>1267</ele>
        <time>2021-06-27T12:10:56.721Z</time>
      </trkpt>
      <trkpt lat="44.03408" lon="3.51976">
        <ele>1267</ele>
        <time>2021-06-27T12:11:01.719Z</time>
      </trkpt>
      <trkpt lat="44.03413" lon="3.51975">
        <ele>1267</ele>
        <time>2021-06-27T12:11:10.725Z</time>
      </trkpt>
      <trkpt lat="44.0342" lon="3.51979">
        <ele>1267</ele>
        <time>2021-06-27T12:11:15.715Z</time>
      </trkpt>
      <trkpt lat="44.03427" lon="3.5198">
        <ele>1267</ele>
        <time>2021-06-27T12:11:19.719Z</time>
      </trkpt>
      <trkpt lat="44.03432" lon="3.51979">
        <ele>1266</ele>
        <time>2021-06-27T12:11:24.714Z</time>
      </trkpt>
      <trkpt lat="44.03436" lon="3.51975">
        <ele>1266</ele>
        <time>2021-06-27T12:11:29.719Z</time>
      </trkpt>
      <trkpt lat="44.03443" lon="3.5197">
        <ele>1266</ele>
        <time>2021-06-27T12:11:34.718Z</time>
      </trkpt>
      <trkpt lat="44.03451" lon="3.51967">
        <ele>1266</ele>
        <time>2021-06-27T12:11:39.716Z</time>
      </trkpt>
      <trkpt lat="44.03457" lon="3.51968">
        <ele>1266</ele>
        <time>2021-06-27T12:11:44.717Z</time>
      </trkpt>
      <trkpt lat="44.03458" lon="3.51969">
        <ele>1261</ele>
        <time>2021-06-27T12:11:49.718Z</time>
      </trkpt>
      <trkpt lat="44.0346" lon="3.51969">
        <ele>1261</ele>
        <time>2021-06-27T12:11:54.723Z</time>
      </trkpt>
      <trkpt lat="44.03466" lon="3.51972">
        <ele>1261</ele>
        <time>2021-06-27T12:11:59.721Z</time>
      </trkpt>
      <trkpt lat="44.03472" lon="3.51969">
        <ele>1261</ele>
        <time>2021-06-27T12:12:04.719Z</time>
      </trkpt>
      <trkpt lat="44.03473" lon="3.51967">
        <ele>1261</ele>
        <time>2021-06-27T12:12:09.720Z</time>
      </trkpt>
      <trkpt lat="44.03474" lon="3.51965">
        <ele>1261</ele>
        <time>2021-06-27T12:12:19.720Z</time>
      </trkpt>
      <trkpt lat="44.03482" lon="3.51959">
        <ele>1261</ele>
        <time>2021-06-27T12:12:24.718Z</time>
      </trkpt>
      <trkpt lat="44.03483" lon="3.5196">
        <ele>1261</ele>
        <time>2021-06-27T12:12:29.718Z</time>
      </trkpt>
      <trkpt lat="44.03485" lon="3.51953">
        <ele>1266</ele>
        <time>2021-06-27T12:12:34.720Z</time>
      </trkpt>
      <trkpt lat="44.0349" lon="3.5195">
        <ele>1262</ele>
        <time>2021-06-27T12:12:39.727Z</time>
      </trkpt>
      <trkpt lat="44.03493" lon="3.51947">
        <ele>1262</ele>
        <time>2021-06-27T12:12:48.719Z</time>
      </trkpt>
      <trkpt lat="44.03503" lon="3.5194">
        <ele>1262</ele>
        <time>2021-06-27T12:12:53.718Z</time>
      </trkpt>
      <trkpt lat="44.03509" lon="3.5194">
        <ele>1262</ele>
        <time>2021-06-27T12:12:57.737Z</time>
      </trkpt>
      <trkpt lat="44.03515" lon="3.51933">
        <ele>1259</ele>
        <time>2021-06-27T12:13:02.711Z</time>
      </trkpt>
      <trkpt lat="44.03519" lon="3.51929">
        <ele>1262</ele>
        <time>2021-06-27T12:13:07.695Z</time>
      </trkpt>
      <trkpt lat="44.03524" lon="3.51925">
        <ele>1262</ele>
        <time>2021-06-27T12:13:11.712Z</time>
      </trkpt>
      <trkpt lat="44.03527" lon="3.51921">
        <ele>1262</ele>
        <time>2021-06-27T12:13:15.718Z</time>
      </trkpt>
      <trkpt lat="44.03529" lon="3.51915">
        <ele>1262</ele>
        <time>2021-06-27T12:13:20.714Z</time>
      </trkpt>
      <trkpt lat="44.03531" lon="3.51908">
        <ele>1262</ele>
        <time>2021-06-27T12:13:25.734Z</time>
      </trkpt>
      <trkpt lat="44.03534" lon="3.51904">
        <ele>1262</ele>
        <time>2021-06-27T12:13:30.725Z</time>
      </trkpt>
      <trkpt lat="44.03538" lon="3.51899">
        <ele>1265</ele>
        <time>2021-06-27T12:13:35.723Z</time>
      </trkpt>
      <trkpt lat="44.03542" lon="3.51895">
        <ele>1260</ele>
        <time>2021-06-27T12:13:39.750Z</time>
      </trkpt>
      <trkpt lat="44.03546" lon="3.51894">
        <ele>1260</ele>
        <time>2021-06-27T12:13:44.713Z</time>
      </trkpt>
      <trkpt lat="44.03548" lon="3.51892">
        <ele>1260</ele>
        <time>2021-06-27T12:13:48.719Z</time>
      </trkpt>
      <trkpt lat="44.03548" lon="3.51891">
        <ele>1260</ele>
        <time>2021-06-27T12:13:53.725Z</time>
      </trkpt>
      <trkpt lat="44.03553" lon="3.51886">
        <ele>1260</ele>
        <time>2021-06-27T12:13:58.718Z</time>
      </trkpt>
      <trkpt lat="44.03557" lon="3.51881">
        <ele>1260</ele>
        <time>2021-06-27T12:14:03.718Z</time>
      </trkpt>
      <trkpt lat="44.03559" lon="3.51879">
        <ele>1260</ele>
        <time>2021-06-27T12:14:07.726Z</time>
      </trkpt>
      <trkpt lat="44.03562" lon="3.51873">
        <ele>1262</ele>
        <time>2021-06-27T12:14:12.718Z</time>
      </trkpt>
      <trkpt lat="44.03565" lon="3.51869">
        <ele>1262</ele>
        <time>2021-06-27T12:14:17.699Z</time>
      </trkpt>
      <trkpt lat="44.03568" lon="3.51868">
        <ele>1262</ele>
        <time>2021-06-27T12:14:21.758Z</time>
      </trkpt>
      <trkpt lat="44.03574" lon="3.51865">
        <ele>1258</ele>
        <time>2021-06-27T12:14:26.721Z</time>
      </trkpt>
      <trkpt lat="44.03579" lon="3.51861">
        <ele>1258</ele>
        <time>2021-06-27T12:14:31.719Z</time>
      </trkpt>
      <trkpt lat="44.03581" lon="3.5186">
        <ele>1258</ele>
        <time>2021-06-27T12:14:35.726Z</time>
      </trkpt>
      <trkpt lat="44.03584" lon="3.51857">
        <ele>1258</ele>
        <time>2021-06-27T12:14:40.725Z</time>
      </trkpt>
      <trkpt lat="44.03588" lon="3.51851">
        <ele>1258</ele>
        <time>2021-06-27T12:14:45.719Z</time>
      </trkpt>
      <trkpt lat="44.03591" lon="3.51842">
        <ele>1260</ele>
        <time>2021-06-27T12:14:50.721Z</time>
      </trkpt>
      <trkpt lat="44.03598" lon="3.51832">
        <ele>1256</ele>
        <time>2021-06-27T12:14:55.719Z</time>
      </trkpt>
      <trkpt lat="44.03602" lon="3.51825">
        <ele>1256</ele>
        <time>2021-06-27T12:14:59.718Z</time>
      </trkpt>
      <trkpt lat="44.03605" lon="3.51818">
        <ele>1257</ele>
        <time>2021-06-27T12:15:04.717Z</time>
      </trkpt>
      <trkpt lat="44.03605" lon="3.5181">
        <ele>1257</ele>
        <time>2021-06-27T12:15:09.724Z</time>
      </trkpt>
      <trkpt lat="44.03607" lon="3.51803">
        <ele>1257</ele>
        <time>2021-06-27T12:15:14.718Z</time>
      </trkpt>
      <trkpt lat="44.03605" lon="3.51795">
        <ele>1257</ele>
        <time>2021-06-27T12:15:19.711Z</time>
      </trkpt>
      <trkpt lat="44.03606" lon="3.51786">
        <ele>1256</ele>
        <time>2021-06-27T12:15:24.714Z</time>
      </trkpt>
      <trkpt lat="44.03604" lon="3.51782">
        <ele>1256</ele>
        <time>2021-06-27T12:15:28.718Z</time>
      </trkpt>
      <trkpt lat="44.03604" lon="3.51772">
        <ele>1256</ele>
        <time>2021-06-27T12:15:33.718Z</time>
      </trkpt>
      <trkpt lat="44.03604" lon="3.51766">
        <ele>1256</ele>
        <time>2021-06-27T12:15:38.725Z</time>
      </trkpt>
      <trkpt lat="44.03603" lon="3.51766">
        <ele>1256</ele>
        <time>2021-06-27T12:16:33.722Z</time>
      </trkpt>
      <trkpt lat="44.03604" lon="3.51763">
        <ele>1256</ele>
        <time>2021-06-27T12:16:47.726Z</time>
      </trkpt>
      <trkpt lat="44.03603" lon="3.51759">
        <ele>1256</ele>
        <time>2021-06-27T12:16:52.698Z</time>
      </trkpt>
      <trkpt lat="44.03601" lon="3.51756">
        <ele>1256</ele>
        <time>2021-06-27T12:16:56.722Z</time>
      </trkpt>
      <trkpt lat="44.03598" lon="3.51748">
        <ele>1256</ele>
        <time>2021-06-27T12:17:01.727Z</time>
      </trkpt>
      <trkpt lat="44.03594" lon="3.51745">
        <ele>1259</ele>
        <time>2021-06-27T12:17:06.753Z</time>
      </trkpt>
      <trkpt lat="44.03591" lon="3.5174">
        <ele>1259</ele>
        <time>2021-06-27T12:17:11.719Z</time>
      </trkpt>
      <trkpt lat="44.03587" lon="3.51732">
        <ele>1260</ele>
        <time>2021-06-27T12:17:16.726Z</time>
      </trkpt>
      <trkpt lat="44.03587" lon="3.51724">
        <ele>1260</ele>
        <time>2021-06-27T12:17:21.724Z</time>
      </trkpt>
      <trkpt lat="44.03588" lon="3.51718">
        <ele>1260</ele>
        <time>2021-06-27T12:17:26.714Z</time>
      </trkpt>
      <trkpt lat="44.03589" lon="3.51712">
        <ele>1260</ele>
        <time>2021-06-27T12:17:30.720Z</time>
      </trkpt>
      <trkpt lat="44.03587" lon="3.51708">
        <ele>1259</ele>
        <time>2021-06-27T12:17:35.716Z</time>
      </trkpt>
      <trkpt lat="44.03585" lon="3.51704">
        <ele>1259</ele>
        <time>2021-06-27T12:17:40.725Z</time>
      </trkpt>
      <trkpt lat="44.03586" lon="3.51696">
        <ele>1259</ele>
        <time>2021-06-27T12:18:22.722Z</time>
      </trkpt>
      <trkpt lat="44.0359" lon="3.51695">
        <ele>1259</ele>
        <time>2021-06-27T12:18:27.718Z</time>
      </trkpt>
      <trkpt lat="44.03592" lon="3.51695">
        <ele>1259</ele>
        <time>2021-06-27T12:18:32.716Z</time>
      </trkpt>
      <trkpt lat="44.03594" lon="3.51693">
        <ele>1259</ele>
        <time>2021-06-27T12:18:37.720Z</time>
      </trkpt>
      <trkpt lat="44.03599" lon="3.51692">
        <ele>1258</ele>
        <time>2021-06-27T12:18:42.697Z</time>
      </trkpt>
      <trkpt lat="44.03603" lon="3.51691">
        <ele>1258</ele>
        <time>2021-06-27T12:18:46.723Z</time>
      </trkpt>
      <trkpt lat="44.03606" lon="3.51686">
        <ele>1258</ele>
        <time>2021-06-27T12:18:51.721Z</time>
      </trkpt>
      <trkpt lat="44.03609" lon="3.51682">
        <ele>1258</ele>
        <time>2021-06-27T12:18:56.718Z</time>
      </trkpt>
      <trkpt lat="44.03616" lon="3.51679">
        <ele>1258</ele>
        <time>2021-06-27T12:19:00.722Z</time>
      </trkpt>
      <trkpt lat="44.03625" lon="3.51671">
        <ele>1256</ele>
        <time>2021-06-27T12:19:05.725Z</time>
      </trkpt>
      <trkpt lat="44.03632" lon="3.51667">
        <ele>1256</ele>
        <time>2021-06-27T12:19:10.719Z</time>
      </trkpt>
      <trkpt lat="44.03638" lon="3.51662">
        <ele>1256</ele>
        <time>2021-06-27T12:19:14.737Z</time>
      </trkpt>
      <trkpt lat="44.03644" lon="3.51657">
        <ele>1256</ele>
        <time>2021-06-27T12:19:19.719Z</time>
      </trkpt>
      <trkpt lat="44.03649" lon="3.51652">
        <ele>1258</ele>
        <time>2021-06-27T12:19:24.720Z</time>
      </trkpt>
      <trkpt lat="44.03652" lon="3.51648">
        <ele>1258</ele>
        <time>2021-06-27T12:19:29.714Z</time>
      </trkpt>
      <trkpt lat="44.03655" lon="3.51643">
        <ele>1255</ele>
        <time>2021-06-27T12:19:34.725Z</time>
      </trkpt>
      <trkpt lat="44.03657" lon="3.5164">
        <ele>1255</ele>
        <time>2021-06-27T12:19:39.720Z</time>
      </trkpt>
      <trkpt lat="44.03656" lon="3.5164">
        <ele>1255</ele>
        <time>2021-06-27T12:19:43.744Z</time>
      </trkpt>
      <trkpt lat="44.03662" lon="3.51637">
        <ele>1255</ele>
        <time>2021-06-27T12:19:48.714Z</time>
      </trkpt>
      <trkpt lat="44.03665" lon="3.51637">
        <ele>1255</ele>
        <time>2021-06-27T12:19:53.723Z</time>
      </trkpt>
      <trkpt lat="44.03667" lon="3.51636">
        <ele>1255</ele>
        <time>2021-06-27T12:19:58.720Z</time>
      </trkpt>
      <trkpt lat="44.03669" lon="3.51636">
        <ele>1255</ele>
        <time>2021-06-27T12:20:03.719Z</time>
      </trkpt>
      <trkpt lat="44.03674" lon="3.51636">
        <ele>1255</ele>
        <time>2021-06-27T12:20:08.722Z</time>
      </trkpt>
      <trkpt lat="44.03678" lon="3.51636">
        <ele>1255</ele>
        <time>2021-06-27T12:20:13.717Z</time>
      </trkpt>
      <trkpt lat="44.03683" lon="3.51636">
        <ele>1254</ele>
        <time>2021-06-27T12:20:18.725Z</time>
      </trkpt>
      <trkpt lat="44.03689" lon="3.51639">
        <ele>1254</ele>
        <time>2021-06-27T12:20:23.724Z</time>
      </trkpt>
      <trkpt lat="44.03693" lon="3.51641">
        <ele>1254</ele>
        <time>2021-06-27T12:20:28.712Z</time>
      </trkpt>
      <trkpt lat="44.03697" lon="3.51643">
        <ele>1254</ele>
        <time>2021-06-27T12:20:33.717Z</time>
      </trkpt>
      <trkpt lat="44.03702" lon="3.51642">
        <ele>1254</ele>
        <time>2021-06-27T12:20:38.718Z</time>
      </trkpt>
      <trkpt lat="44.03708" lon="3.51638">
        <ele>1254</ele>
        <time>2021-06-27T12:20:43.714Z</time>
      </trkpt>
      <trkpt lat="44.03716" lon="3.51634">
        <ele>1254</ele>
        <time>2021-06-27T12:20:48.724Z</time>
      </trkpt>
      <trkpt lat="44.0372" lon="3.51634">
        <ele>1254</ele>
        <time>2021-06-27T12:20:53.712Z</time>
      </trkpt>
      <trkpt lat="44.03723" lon="3.51634">
        <ele>1254</ele>
        <time>2021-06-27T12:20:57.720Z</time>
      </trkpt>
      <trkpt lat="44.03725" lon="3.51633">
        <ele>1254</ele>
        <time>2021-06-27T12:21:02.714Z</time>
      </trkpt>
      <trkpt lat="44.0373" lon="3.51634">
        <ele>1254</ele>
        <time>2021-06-27T12:21:06.723Z</time>
      </trkpt>
      <trkpt lat="44.03737" lon="3.51637">
        <ele>1253</ele>
        <time>2021-06-27T12:21:11.735Z</time>
      </trkpt>
      <trkpt lat="44.0374" lon="3.51638">
        <ele>1253</ele>
        <time>2021-06-27T12:21:16.716Z</time>
      </trkpt>
      <trkpt lat="44.03742" lon="3.5164">
        <ele>1253</ele>
        <time>2021-06-27T12:21:21.727Z</time>
      </trkpt>
      <trkpt lat="44.03745" lon="3.51643">
        <ele>1253</ele>
        <time>2021-06-27T12:21:25.725Z</time>
      </trkpt>
      <trkpt lat="44.03748" lon="3.51644">
        <ele>1253</ele>
        <time>2021-06-27T12:21:29.753Z</time>
      </trkpt>
      <trkpt lat="44.03755" lon="3.51642">
        <ele>1253</ele>
        <time>2021-06-27T12:21:34.719Z</time>
      </trkpt>
      <trkpt lat="44.03763" lon="3.51641">
        <ele>1253</ele>
        <time>2021-06-27T12:21:39.725Z</time>
      </trkpt>
      <trkpt lat="44.03767" lon="3.51639">
        <ele>1248</ele>
        <time>2021-06-27T12:21:43.727Z</time>
      </trkpt>
      <trkpt lat="44.03771" lon="3.51638">
        <ele>1248</ele>
        <time>2021-06-27T12:21:48.721Z</time>
      </trkpt>
      <trkpt lat="44.03777" lon="3.51638">
        <ele>1248</ele>
        <time>2021-06-27T12:21:53.719Z</time>
      </trkpt>
      <trkpt lat="44.03783" lon="3.51633">
        <ele>1248</ele>
        <time>2021-06-27T12:21:58.718Z</time>
      </trkpt>
      <trkpt lat="44.03789" lon="3.51631">
        <ele>1248</ele>
        <time>2021-06-27T12:22:03.721Z</time>
      </trkpt>
      <trkpt lat="44.03795" lon="3.51627">
        <ele>1241</ele>
        <time>2021-06-27T12:22:08.719Z</time>
      </trkpt>
      <trkpt lat="44.03799" lon="3.51622">
        <ele>1244</ele>
        <time>2021-06-27T12:22:12.737Z</time>
      </trkpt>
      <trkpt lat="44.03802" lon="3.51618">
        <ele>1244</ele>
        <time>2021-06-27T12:22:17.718Z</time>
      </trkpt>
      <trkpt lat="44.03803" lon="3.51618">
        <ele>1244</ele>
        <time>2021-06-27T12:22:21.725Z</time>
      </trkpt>
      <trkpt lat="44.03808" lon="3.51616">
        <ele>1244</ele>
        <time>2021-06-27T12:22:26.724Z</time>
      </trkpt>
      <trkpt lat="44.03813" lon="3.51616">
        <ele>1244</ele>
        <time>2021-06-27T12:22:31.715Z</time>
      </trkpt>
      <trkpt lat="44.03821" lon="3.51617">
        <ele>1238</ele>
        <time>2021-06-27T12:22:36.724Z</time>
      </trkpt>
      <trkpt lat="44.03827" lon="3.5161">
        <ele>1238</ele>
        <time>2021-06-27T12:22:41.723Z</time>
      </trkpt>
      <trkpt lat="44.03831" lon="3.51602">
        <ele>1238</ele>
        <time>2021-06-27T12:22:46.724Z</time>
      </trkpt>
      <trkpt lat="44.03833" lon="3.51595">
        <ele>1242</ele>
        <time>2021-06-27T12:22:51.727Z</time>
      </trkpt>
      <trkpt lat="44.03839" lon="3.51587">
        <ele>1242</ele>
        <time>2021-06-27T12:22:56.746Z</time>
      </trkpt>
      <trkpt lat="44.03842" lon="3.5158">
        <ele>1242</ele>
        <time>2021-06-27T12:23:01.723Z</time>
      </trkpt>
      <trkpt lat="44.03847" lon="3.51577">
        <ele>1242</ele>
        <time>2021-06-27T12:23:06.729Z</time>
      </trkpt>
      <trkpt lat="44.03849" lon="3.51569">
        <ele>1241</ele>
        <time>2021-06-27T12:23:11.719Z</time>
      </trkpt>
      <trkpt lat="44.0385" lon="3.51562">
        <ele>1241</ele>
        <time>2021-06-27T12:23:15.726Z</time>
      </trkpt>
      <trkpt lat="44.03854" lon="3.51555">
        <ele>1241</ele>
        <time>2021-06-27T12:23:20.726Z</time>
      </trkpt>
      <trkpt lat="44.03858" lon="3.51551">
        <ele>1241</ele>
        <time>2021-06-27T12:23:25.725Z</time>
      </trkpt>
      <trkpt lat="44.03863" lon="3.51546">
        <ele>1241</ele>
        <time>2021-06-27T12:23:30.727Z</time>
      </trkpt>
      <trkpt lat="44.03867" lon="3.5154">
        <ele>1244</ele>
        <time>2021-06-27T12:23:35.723Z</time>
      </trkpt>
      <trkpt lat="44.0387" lon="3.51535">
        <ele>1244</ele>
        <time>2021-06-27T12:23:40.727Z</time>
      </trkpt>
      <trkpt lat="44.03874" lon="3.51531">
        <ele>1244</ele>
        <time>2021-06-27T12:23:45.724Z</time>
      </trkpt>
      <trkpt lat="44.03878" lon="3.51528">
        <ele>1240</ele>
        <time>2021-06-27T12:23:50.720Z</time>
      </trkpt>
      <trkpt lat="44.03882" lon="3.51523">
        <ele>1240</ele>
        <time>2021-06-27T12:23:55.724Z</time>
      </trkpt>
      <trkpt lat="44.03885" lon="3.51517">
        <ele>1240</ele>
        <time>2021-06-27T12:24:00.719Z</time>
      </trkpt>
      <trkpt lat="44.03888" lon="3.51511">
        <ele>1242</ele>
        <time>2021-06-27T12:24:05.720Z</time>
      </trkpt>
      <trkpt lat="44.03891" lon="3.51506">
        <ele>1242</ele>
        <time>2021-06-27T12:24:10.738Z</time>
      </trkpt>
      <trkpt lat="44.03893" lon="3.51501">
        <ele>1242</ele>
        <time>2021-06-27T12:24:15.725Z</time>
      </trkpt>
      <trkpt lat="44.03896" lon="3.51496">
        <ele>1242</ele>
        <time>2021-06-27T12:24:20.718Z</time>
      </trkpt>
      <trkpt lat="44.03899" lon="3.51492">
        <ele>1242</ele>
        <time>2021-06-27T12:24:24.722Z</time>
      </trkpt>
      <trkpt lat="44.03902" lon="3.5149">
        <ele>1242</ele>
        <time>2021-06-27T12:24:29.757Z</time>
      </trkpt>
      <trkpt lat="44.03907" lon="3.51486">
        <ele>1239</ele>
        <time>2021-06-27T12:24:34.726Z</time>
      </trkpt>
      <trkpt lat="44.03911" lon="3.51481">
        <ele>1239</ele>
        <time>2021-06-27T12:24:39.719Z</time>
      </trkpt>
      <trkpt lat="44.03914" lon="3.51476">
        <ele>1239</ele>
        <time>2021-06-27T12:24:43.724Z</time>
      </trkpt>
      <trkpt lat="44.03915" lon="3.51471">
        <ele>1239</ele>
        <time>2021-06-27T12:24:48.735Z</time>
      </trkpt>
      <trkpt lat="44.03919" lon="3.51464">
        <ele>1239</ele>
        <time>2021-06-27T12:24:53.714Z</time>
      </trkpt>
      <trkpt lat="44.03921" lon="3.51457">
        <ele>1239</ele>
        <time>2021-06-27T12:24:58.702Z</time>
      </trkpt>
      <trkpt lat="44.03925" lon="3.51454">
        <ele>1239</ele>
        <time>2021-06-27T12:25:02.717Z</time>
      </trkpt>
      <trkpt lat="44.03927" lon="3.51451">
        <ele>1239</ele>
        <time>2021-06-27T12:25:06.723Z</time>
      </trkpt>
      <trkpt lat="44.03931" lon="3.51447">
        <ele>1240</ele>
        <time>2021-06-27T12:25:11.723Z</time>
      </trkpt>
      <trkpt lat="44.03934" lon="3.51444">
        <ele>1240</ele>
        <time>2021-06-27T12:25:16.723Z</time>
      </trkpt>
      <trkpt lat="44.03937" lon="3.5144">
        <ele>1240</ele>
        <time>2021-06-27T12:25:21.753Z</time>
      </trkpt>
      <trkpt lat="44.0394" lon="3.51436">
        <ele>1240</ele>
        <time>2021-06-27T12:25:26.722Z</time>
      </trkpt>
      <trkpt lat="44.0394" lon="3.51434">
        <ele>1240</ele>
        <time>2021-06-27T12:25:31.726Z</time>
      </trkpt>
      <trkpt lat="44.03944" lon="3.51435">
        <ele>1240</ele>
        <time>2021-06-27T12:25:36.739Z</time>
      </trkpt>
      <trkpt lat="44.03946" lon="3.51429">
        <ele>1240</ele>
        <time>2021-06-27T12:25:41.710Z</time>
      </trkpt>
      <trkpt lat="44.03948" lon="3.51423">
        <ele>1240</ele>
        <time>2021-06-27T12:25:45.725Z</time>
      </trkpt>
      <trkpt lat="44.03949" lon="3.51413">
        <ele>1240</ele>
        <time>2021-06-27T12:25:50.725Z</time>
      </trkpt>
      <trkpt lat="44.03952" lon="3.51404">
        <ele>1240</ele>
        <time>2021-06-27T12:25:55.722Z</time>
      </trkpt>
      <trkpt lat="44.03954" lon="3.51398">
        <ele>1240</ele>
        <time>2021-06-27T12:25:59.733Z</time>
      </trkpt>
      <trkpt lat="44.03957" lon="3.51392">
        <ele>1240</ele>
        <time>2021-06-27T12:26:04.712Z</time>
      </trkpt>
      <trkpt lat="44.03958" lon="3.51389">
        <ele>1243</ele>
        <time>2021-06-27T12:26:09.725Z</time>
      </trkpt>
      <trkpt lat="44.0396" lon="3.51384">
        <ele>1243</ele>
        <time>2021-06-27T12:26:13.724Z</time>
      </trkpt>
      <trkpt lat="44.03961" lon="3.51376">
        <ele>1243</ele>
        <time>2021-06-27T12:26:18.719Z</time>
      </trkpt>
      <trkpt lat="44.03962" lon="3.51367">
        <ele>1243</ele>
        <time>2021-06-27T12:26:23.724Z</time>
      </trkpt>
      <trkpt lat="44.03963" lon="3.51357">
        <ele>1243</ele>
        <time>2021-06-27T12:26:28.715Z</time>
      </trkpt>
      <trkpt lat="44.03965" lon="3.51347">
        <ele>1241</ele>
        <time>2021-06-27T12:26:33.717Z</time>
      </trkpt>
      <trkpt lat="44.03967" lon="3.5134">
        <ele>1241</ele>
        <time>2021-06-27T12:26:38.718Z</time>
      </trkpt>
      <trkpt lat="44.03969" lon="3.51334">
        <ele>1241</ele>
        <time>2021-06-27T12:26:42.724Z</time>
      </trkpt>
      <trkpt lat="44.03972" lon="3.51329">
        <ele>1241</ele>
        <time>2021-06-27T12:26:47.724Z</time>
      </trkpt>
      <trkpt lat="44.03974" lon="3.51322">
        <ele>1241</ele>
        <time>2021-06-27T12:26:52.722Z</time>
      </trkpt>
      <trkpt lat="44.03974" lon="3.51317">
        <ele>1242</ele>
        <time>2021-06-27T12:26:57.724Z</time>
      </trkpt>
      <trkpt lat="44.03975" lon="3.51311">
        <ele>1242</ele>
        <time>2021-06-27T12:27:02.718Z</time>
      </trkpt>
      <trkpt lat="44.03975" lon="3.51304">
        <ele>1242</ele>
        <time>2021-06-27T12:27:06.723Z</time>
      </trkpt>
      <trkpt lat="44.03974" lon="3.51297">
        <ele>1242</ele>
        <time>2021-06-27T12:27:11.714Z</time>
      </trkpt>
      <trkpt lat="44.03975" lon="3.51289">
        <ele>1243</ele>
        <time>2021-06-27T12:27:16.717Z</time>
      </trkpt>
      <trkpt lat="44.03975" lon="3.51283">
        <ele>1243</ele>
        <time>2021-06-27T12:27:20.720Z</time>
      </trkpt>
      <trkpt lat="44.03974" lon="3.51275">
        <ele>1243</ele>
        <time>2021-06-27T12:27:25.720Z</time>
      </trkpt>
      <trkpt lat="44.03973" lon="3.51269">
        <ele>1243</ele>
        <time>2021-06-27T12:27:29.720Z</time>
      </trkpt>
      <trkpt lat="44.0397" lon="3.51263">
        <ele>1245</ele>
        <time>2021-06-27T12:27:34.728Z</time>
      </trkpt>
      <trkpt lat="44.03965" lon="3.51258">
        <ele>1245</ele>
        <time>2021-06-27T12:27:39.722Z</time>
      </trkpt>
      <trkpt lat="44.03963" lon="3.51252">
        <ele>1245</ele>
        <time>2021-06-27T12:27:44.722Z</time>
      </trkpt>
      <trkpt lat="44.03962" lon="3.51247">
        <ele>1245</ele>
        <time>2021-06-27T12:27:48.728Z</time>
      </trkpt>
      <trkpt lat="44.0396" lon="3.51241">
        <ele>1245</ele>
        <time>2021-06-27T12:27:53.728Z</time>
      </trkpt>
      <trkpt lat="44.0396" lon="3.51235">
        <ele>1246</ele>
        <time>2021-06-27T12:27:58.720Z</time>
      </trkpt>
      <trkpt lat="44.03958" lon="3.5123">
        <ele>1246</ele>
        <time>2021-06-27T12:28:03.721Z</time>
      </trkpt>
      <trkpt lat="44.03956" lon="3.51224">
        <ele>1242</ele>
        <time>2021-06-27T12:28:08.709Z</time>
      </trkpt>
      <trkpt lat="44.03955" lon="3.5122">
        <ele>1242</ele>
        <time>2021-06-27T12:28:12.723Z</time>
      </trkpt>
      <trkpt lat="44.03955" lon="3.51213">
        <ele>1242</ele>
        <time>2021-06-27T12:28:17.697Z</time>
      </trkpt>
      <trkpt lat="44.03955" lon="3.51209">
        <ele>1242</ele>
        <time>2021-06-27T12:28:21.723Z</time>
      </trkpt>
      <trkpt lat="44.03953" lon="3.51201">
        <ele>1243</ele>
        <time>2021-06-27T12:28:26.745Z</time>
      </trkpt>
      <trkpt lat="44.03954" lon="3.51193">
        <ele>1243</ele>
        <time>2021-06-27T12:28:31.717Z</time>
      </trkpt>
      <trkpt lat="44.03955" lon="3.51188">
        <ele>1243</ele>
        <time>2021-06-27T12:28:35.735Z</time>
      </trkpt>
      <trkpt lat="44.03956" lon="3.51181">
        <ele>1243</ele>
        <time>2021-06-27T12:28:40.721Z</time>
      </trkpt>
      <trkpt lat="44.03958" lon="3.51174">
        <ele>1243</ele>
        <time>2021-06-27T12:28:45.719Z</time>
      </trkpt>
      <trkpt lat="44.03958" lon="3.51166">
        <ele>1243</ele>
        <time>2021-06-27T12:28:50.702Z</time>
      </trkpt>
      <trkpt lat="44.03956" lon="3.51157">
        <ele>1243</ele>
        <time>2021-06-27T12:28:55.702Z</time>
      </trkpt>
      <trkpt lat="44.03953" lon="3.5115">
        <ele>1245</ele>
        <time>2021-06-27T12:29:00.702Z</time>
      </trkpt>
      <trkpt lat="44.03951" lon="3.51142">
        <ele>1245</ele>
        <time>2021-06-27T12:29:05.700Z</time>
      </trkpt>
      <trkpt lat="44.03949" lon="3.51136">
        <ele>1245</ele>
        <time>2021-06-27T12:29:09.715Z</time>
      </trkpt>
      <trkpt lat="44.03947" lon="3.5113">
        <ele>1245</ele>
        <time>2021-06-27T12:29:14.718Z</time>
      </trkpt>
      <trkpt lat="44.03945" lon="3.51124">
        <ele>1247</ele>
        <time>2021-06-27T12:29:19.723Z</time>
      </trkpt>
      <trkpt lat="44.03941" lon="3.51118">
        <ele>1247</ele>
        <time>2021-06-27T12:29:24.717Z</time>
      </trkpt>
      <trkpt lat="44.03937" lon="3.51114">
        <ele>1247</ele>
        <time>2021-06-27T12:29:28.721Z</time>
      </trkpt>
      <trkpt lat="44.03932" lon="3.51107">
        <ele>1247</ele>
        <time>2021-06-27T12:29:33.718Z</time>
      </trkpt>
      <trkpt lat="44.03929" lon="3.51101">
        <ele>1245</ele>
        <time>2021-06-27T12:29:38.722Z</time>
      </trkpt>
      <trkpt lat="44.03925" lon="3.51097">
        <ele>1245</ele>
        <time>2021-06-27T12:29:43.725Z</time>
      </trkpt>
      <trkpt lat="44.03921" lon="3.51096">
        <ele>1248</ele>
        <time>2021-06-27T12:29:48.718Z</time>
      </trkpt>
      <trkpt lat="44.03916" lon="3.51096">
        <ele>1248</ele>
        <time>2021-06-27T12:29:53.700Z</time>
      </trkpt>
      <trkpt lat="44.03911" lon="3.51096">
        <ele>1248</ele>
        <time>2021-06-27T12:29:58.699Z</time>
      </trkpt>
      <trkpt lat="44.03906" lon="3.51095">
        <ele>1248</ele>
        <time>2021-06-27T12:30:03.725Z</time>
      </trkpt>
      <trkpt lat="44.03903" lon="3.51092">
        <ele>1248</ele>
        <time>2021-06-27T12:30:07.725Z</time>
      </trkpt>
      <trkpt lat="44.039" lon="3.51086">
        <ele>1247</ele>
        <time>2021-06-27T12:30:12.724Z</time>
      </trkpt>
      <trkpt lat="44.03895" lon="3.51082">
        <ele>1247</ele>
        <time>2021-06-27T12:30:17.721Z</time>
      </trkpt>
      <trkpt lat="44.03892" lon="3.51079">
        <ele>1247</ele>
        <time>2021-06-27T12:30:22.724Z</time>
      </trkpt>
      <trkpt lat="44.03888" lon="3.51077">
        <ele>1247</ele>
        <time>2021-06-27T12:30:26.727Z</time>
      </trkpt>
      <trkpt lat="44.03884" lon="3.51072">
        <ele>1247</ele>
        <time>2021-06-27T12:30:31.725Z</time>
      </trkpt>
      <trkpt lat="44.03881" lon="3.51059">
        <ele>1251</ele>
        <time>2021-06-27T12:30:55.705Z</time>
      </trkpt>
      <trkpt lat="44.03882" lon="3.51058">
        <ele>1251</ele>
        <time>2021-06-27T12:30:59.725Z</time>
      </trkpt>
      <trkpt lat="44.03883" lon="3.51052">
        <ele>1251</ele>
        <time>2021-06-27T12:31:04.720Z</time>
      </trkpt>
      <trkpt lat="44.03885" lon="3.51046">
        <ele>1251</ele>
        <time>2021-06-27T12:31:09.723Z</time>
      </trkpt>
      <trkpt lat="44.03888" lon="3.51041">
        <ele>1254</ele>
        <time>2021-06-27T12:31:14.709Z</time>
      </trkpt>
      <trkpt lat="44.03891" lon="3.51037">
        <ele>1254</ele>
        <time>2021-06-27T12:31:19.725Z</time>
      </trkpt>
      <trkpt lat="44.03895" lon="3.51032">
        <ele>1254</ele>
        <time>2021-06-27T12:31:24.723Z</time>
      </trkpt>
      <trkpt lat="44.03898" lon="3.51033">
        <ele>1254</ele>
        <time>2021-06-27T12:31:29.722Z</time>
      </trkpt>
      <trkpt lat="44.03903" lon="3.51037">
        <ele>1254</ele>
        <time>2021-06-27T12:31:34.723Z</time>
      </trkpt>
      <trkpt lat="44.03906" lon="3.51041">
        <ele>1257</ele>
        <time>2021-06-27T12:31:39.727Z</time>
      </trkpt>
      <trkpt lat="44.03911" lon="3.51045">
        <ele>1252</ele>
        <time>2021-06-27T12:31:44.725Z</time>
      </trkpt>
      <trkpt lat="44.03916" lon="3.51045">
        <ele>1252</ele>
        <time>2021-06-27T12:31:49.725Z</time>
      </trkpt>
      <trkpt lat="44.0392" lon="3.51045">
        <ele>1252</ele>
        <time>2021-06-27T12:31:53.730Z</time>
      </trkpt>
      <trkpt lat="44.03925" lon="3.51046">
        <ele>1252</ele>
        <time>2021-06-27T12:31:58.725Z</time>
      </trkpt>
      <trkpt lat="44.03928" lon="3.51044">
        <ele>1252</ele>
        <time>2021-06-27T12:32:03.723Z</time>
      </trkpt>
      <trkpt lat="44.03928" lon="3.51044">
        <ele>1252</ele>
        <time>2021-06-27T12:32:08.700Z</time>
      </trkpt>
      <trkpt lat="44.03932" lon="3.51044">
        <ele>1254</ele>
        <time>2021-06-27T12:32:17.700Z</time>
      </trkpt>
      <trkpt lat="44.03936" lon="3.51042">
        <ele>1254</ele>
        <time>2021-06-27T12:32:21.720Z</time>
      </trkpt>
      <trkpt lat="44.03941" lon="3.51042">
        <ele>1254</ele>
        <time>2021-06-27T12:32:26.739Z</time>
      </trkpt>
      <trkpt lat="44.03945" lon="3.51041">
        <ele>1259</ele>
        <time>2021-06-27T12:32:31.720Z</time>
      </trkpt>
      <trkpt lat="44.0395" lon="3.51039">
        <ele>1259</ele>
        <time>2021-06-27T12:32:36.726Z</time>
      </trkpt>
      <trkpt lat="44.03953" lon="3.51035">
        <ele>1259</ele>
        <time>2021-06-27T12:32:41.724Z</time>
      </trkpt>
      <trkpt lat="44.03956" lon="3.51033">
        <ele>1259</ele>
        <time>2021-06-27T12:32:46.709Z</time>
      </trkpt>
      <trkpt lat="44.03959" lon="3.51032">
        <ele>1260</ele>
        <time>2021-06-27T12:32:50.726Z</time>
      </trkpt>
      <trkpt lat="44.03965" lon="3.51028">
        <ele>1260</ele>
        <time>2021-06-27T12:32:55.727Z</time>
      </trkpt>
      <trkpt lat="44.03967" lon="3.51022">
        <ele>1260</ele>
        <time>2021-06-27T12:33:00.723Z</time>
      </trkpt>
      <trkpt lat="44.03972" lon="3.51016">
        <ele>1260</ele>
        <time>2021-06-27T12:33:05.723Z</time>
      </trkpt>
      <trkpt lat="44.03976" lon="3.5101">
        <ele>1261</ele>
        <time>2021-06-27T12:33:10.728Z</time>
      </trkpt>
      <trkpt lat="44.03978" lon="3.51006">
        <ele>1261</ele>
        <time>2021-06-27T12:33:15.724Z</time>
      </trkpt>
      <trkpt lat="44.0398" lon="3.51003">
        <ele>1261</ele>
        <time>2021-06-27T12:33:20.724Z</time>
      </trkpt>
      <trkpt lat="44.03982" lon="3.51">
        <ele>1261</ele>
        <time>2021-06-27T12:33:25.721Z</time>
      </trkpt>
      <trkpt lat="44.03986" lon="3.50997">
        <ele>1261</ele>
        <time>2021-06-27T12:33:30.724Z</time>
      </trkpt>
      <trkpt lat="44.03989" lon="3.50995">
        <ele>1263</ele>
        <time>2021-06-27T12:33:34.730Z</time>
      </trkpt>
      <trkpt lat="44.03993" lon="3.50993">
        <ele>1263</ele>
        <time>2021-06-27T12:33:39.758Z</time>
      </trkpt>
      <trkpt lat="44.03996" lon="3.50989">
        <ele>1263</ele>
        <time>2021-06-27T12:33:44.713Z</time>
      </trkpt>
      <trkpt lat="44.04" lon="3.50989">
        <ele>1263</ele>
        <time>2021-06-27T12:33:48.721Z</time>
      </trkpt>
      <trkpt lat="44.04004" lon="3.50989">
        <ele>1263</ele>
        <time>2021-06-27T12:33:52.728Z</time>
      </trkpt>
      <trkpt lat="44.04009" lon="3.5099">
        <ele>1263</ele>
        <time>2021-06-27T12:33:57.729Z</time>
      </trkpt>
      <trkpt lat="44.04015" lon="3.50988">
        <ele>1262</ele>
        <time>2021-06-27T12:34:02.729Z</time>
      </trkpt>
      <trkpt lat="44.04018" lon="3.50984">
        <ele>1263</ele>
        <time>2021-06-27T12:34:07.701Z</time>
      </trkpt>
      <trkpt lat="44.04021" lon="3.50982">
        <ele>1263</ele>
        <time>2021-06-27T12:34:11.704Z</time>
      </trkpt>
      <trkpt lat="44.04023" lon="3.50981">
        <ele>1263</ele>
        <time>2021-06-27T12:34:16.726Z</time>
      </trkpt>
      <trkpt lat="44.04026" lon="3.50978">
        <ele>1263</ele>
        <time>2021-06-27T12:34:21.702Z</time>
      </trkpt>
      <trkpt lat="44.04028" lon="3.50976">
        <ele>1263</ele>
        <time>2021-06-27T12:34:25.714Z</time>
      </trkpt>
      <trkpt lat="44.04029" lon="3.50974">
        <ele>1263</ele>
        <time>2021-06-27T12:34:29.731Z</time>
      </trkpt>
      <trkpt lat="44.0403" lon="3.50966">
        <ele>1263</ele>
        <time>2021-06-27T12:34:34.700Z</time>
      </trkpt>
      <trkpt lat="44.04032" lon="3.50961">
        <ele>1263</ele>
        <time>2021-06-27T12:34:39.705Z</time>
      </trkpt>
      <trkpt lat="44.04034" lon="3.50955">
        <ele>1265</ele>
        <time>2021-06-27T12:34:44.700Z</time>
      </trkpt>
      <trkpt lat="44.04034" lon="3.50954">
        <ele>1265</ele>
        <time>2021-06-27T12:34:48.712Z</time>
      </trkpt>
      <trkpt lat="44.04034" lon="3.50949">
        <ele>1265</ele>
        <time>2021-06-27T12:34:53.697Z</time>
      </trkpt>
      <trkpt lat="44.04035" lon="3.50943">
        <ele>1265</ele>
        <time>2021-06-27T12:34:57.708Z</time>
      </trkpt>
      <trkpt lat="44.04036" lon="3.50937">
        <ele>1265</ele>
        <time>2021-06-27T12:35:02.716Z</time>
      </trkpt>
      <trkpt lat="44.04037" lon="3.50929">
        <ele>1267</ele>
        <time>2021-06-27T12:35:07.734Z</time>
      </trkpt>
      <trkpt lat="44.04038" lon="3.50924">
        <ele>1267</ele>
        <time>2021-06-27T12:35:12.701Z</time>
      </trkpt>
      <trkpt lat="44.04039" lon="3.50919">
        <ele>1267</ele>
        <time>2021-06-27T12:35:16.732Z</time>
      </trkpt>
      <trkpt lat="44.04039" lon="3.50911">
        <ele>1267</ele>
        <time>2021-06-27T12:35:21.722Z</time>
      </trkpt>
      <trkpt lat="44.0404" lon="3.50903">
        <ele>1267</ele>
        <time>2021-06-27T12:35:26.721Z</time>
      </trkpt>
      <trkpt lat="44.04041" lon="3.50895">
        <ele>1268</ele>
        <time>2021-06-27T12:35:31.722Z</time>
      </trkpt>
      <trkpt lat="44.04042" lon="3.50889">
        <ele>1264</ele>
        <time>2021-06-27T12:35:35.724Z</time>
      </trkpt>
      <trkpt lat="44.04045" lon="3.50881">
        <ele>1264</ele>
        <time>2021-06-27T12:35:40.725Z</time>
      </trkpt>
      <trkpt lat="44.04046" lon="3.50873">
        <ele>1263</ele>
        <time>2021-06-27T12:35:45.725Z</time>
      </trkpt>
      <trkpt lat="44.04045" lon="3.50867">
        <ele>1263</ele>
        <time>2021-06-27T12:35:49.725Z</time>
      </trkpt>
      <trkpt lat="44.04044" lon="3.5086">
        <ele>1263</ele>
        <time>2021-06-27T12:35:54.723Z</time>
      </trkpt>
      <trkpt lat="44.04042" lon="3.50853">
        <ele>1263</ele>
        <time>2021-06-27T12:35:59.723Z</time>
      </trkpt>
      <trkpt lat="44.0404" lon="3.50848">
        <ele>1267</ele>
        <time>2021-06-27T12:36:03.724Z</time>
      </trkpt>
      <trkpt lat="44.04035" lon="3.50841">
        <ele>1267</ele>
        <time>2021-06-27T12:36:08.728Z</time>
      </trkpt>
      <trkpt lat="44.04032" lon="3.50835">
        <ele>1267</ele>
        <time>2021-06-27T12:36:13.724Z</time>
      </trkpt>
      <trkpt lat="44.04029" lon="3.50831">
        <ele>1267</ele>
        <time>2021-06-27T12:36:17.743Z</time>
      </trkpt>
      <trkpt lat="44.04027" lon="3.50826">
        <ele>1267</ele>
        <time>2021-06-27T12:36:22.723Z</time>
      </trkpt>
      <trkpt lat="44.04025" lon="3.50824">
        <ele>1267</ele>
        <time>2021-06-27T12:36:27.697Z</time>
      </trkpt>
      <trkpt lat="44.04022" lon="3.5082">
        <ele>1267</ele>
        <time>2021-06-27T12:36:31.717Z</time>
      </trkpt>
      <trkpt lat="44.04019" lon="3.50814">
        <ele>1266</ele>
        <time>2021-06-27T12:36:36.752Z</time>
      </trkpt>
      <trkpt lat="44.04016" lon="3.5081">
        <ele>1266</ele>
        <time>2021-06-27T12:36:41.718Z</time>
      </trkpt>
      <trkpt lat="44.04011" lon="3.50804">
        <ele>1268</ele>
        <time>2021-06-27T12:36:46.698Z</time>
      </trkpt>
      <trkpt lat="44.0401" lon="3.50803">
        <ele>1268</ele>
        <time>2021-06-27T12:36:50.707Z</time>
      </trkpt>
      <trkpt lat="44.0401" lon="3.508">
        <ele>1268</ele>
        <time>2021-06-27T12:36:59.705Z</time>
      </trkpt>
      <trkpt lat="44.04007" lon="3.50796">
        <ele>1268</ele>
        <time>2021-06-27T12:37:04.713Z</time>
      </trkpt>
      <trkpt lat="44.04004" lon="3.50793">
        <ele>1268</ele>
        <time>2021-06-27T12:37:08.734Z</time>
      </trkpt>
      <trkpt lat="44.04001" lon="3.50786">
        <ele>1265</ele>
        <time>2021-06-27T12:37:13.704Z</time>
      </trkpt>
      <trkpt lat="44.03999" lon="3.50782">
        <ele>1265</ele>
        <time>2021-06-27T12:37:17.724Z</time>
      </trkpt>
      <trkpt lat="44.03996" lon="3.5078">
        <ele>1265</ele>
        <time>2021-06-27T12:37:22.718Z</time>
      </trkpt>
      <trkpt lat="44.03992" lon="3.50776">
        <ele>1265</ele>
        <time>2021-06-27T12:37:27.700Z</time>
      </trkpt>
      <trkpt lat="44.03989" lon="3.50774">
        <ele>1265</ele>
        <time>2021-06-27T12:37:31.725Z</time>
      </trkpt>
      <trkpt lat="44.03985" lon="3.50772">
        <ele>1265</ele>
        <time>2021-06-27T12:37:36.722Z</time>
      </trkpt>
      <trkpt lat="44.03979" lon="3.50769">
        <ele>1265</ele>
        <time>2021-06-27T12:37:41.718Z</time>
      </trkpt>
      <trkpt lat="44.03975" lon="3.50764">
        <ele>1265</ele>
        <time>2021-06-27T12:37:46.726Z</time>
      </trkpt>
      <trkpt lat="44.0397" lon="3.5076">
        <ele>1263</ele>
        <time>2021-06-27T12:37:51.716Z</time>
      </trkpt>
      <trkpt lat="44.03966" lon="3.50758">
        <ele>1263</ele>
        <time>2021-06-27T12:37:55.723Z</time>
      </trkpt>
      <trkpt lat="44.03961" lon="3.50753">
        <ele>1263</ele>
        <time>2021-06-27T12:38:00.702Z</time>
      </trkpt>
      <trkpt lat="44.03958" lon="3.50748">
        <ele>1264</ele>
        <time>2021-06-27T12:38:04.722Z</time>
      </trkpt>
      <trkpt lat="44.03954" lon="3.50745">
        <ele>1264</ele>
        <time>2021-06-27T12:38:08.729Z</time>
      </trkpt>
      <trkpt lat="44.03951" lon="3.50742">
        <ele>1264</ele>
        <time>2021-06-27T12:38:12.749Z</time>
      </trkpt>
      <trkpt lat="44.03946" lon="3.50741">
        <ele>1264</ele>
        <time>2021-06-27T12:38:17.723Z</time>
      </trkpt>
      <trkpt lat="44.03942" lon="3.50738">
        <ele>1264</ele>
        <time>2021-06-27T12:38:22.722Z</time>
      </trkpt>
      <trkpt lat="44.03937" lon="3.50736">
        <ele>1262</ele>
        <time>2021-06-27T12:38:27.727Z</time>
      </trkpt>
      <trkpt lat="44.03933" lon="3.50734">
        <ele>1262</ele>
        <time>2021-06-27T12:38:32.714Z</time>
      </trkpt>
      <trkpt lat="44.0393" lon="3.50733">
        <ele>1263</ele>
        <time>2021-06-27T12:38:36.750Z</time>
      </trkpt>
      <trkpt lat="44.03926" lon="3.50731">
        <ele>1263</ele>
        <time>2021-06-27T12:38:41.724Z</time>
      </trkpt>
      <trkpt lat="44.03922" lon="3.50729">
        <ele>1263</ele>
        <time>2021-06-27T12:38:45.751Z</time>
      </trkpt>
      <trkpt lat="44.03917" lon="3.50726">
        <ele>1263</ele>
        <time>2021-06-27T12:38:50.727Z</time>
      </trkpt>
      <trkpt lat="44.03912" lon="3.50724">
        <ele>1263</ele>
        <time>2021-06-27T12:38:55.721Z</time>
      </trkpt>
      <trkpt lat="44.03908" lon="3.5072">
        <ele>1263</ele>
        <time>2021-06-27T12:39:00.725Z</time>
      </trkpt>
      <trkpt lat="44.03904" lon="3.50717">
        <ele>1263</ele>
        <time>2021-06-27T12:39:04.725Z</time>
      </trkpt>
      <trkpt lat="44.039" lon="3.50713">
        <ele>1266</ele>
        <time>2021-06-27T12:39:09.725Z</time>
      </trkpt>
      <trkpt lat="44.03896" lon="3.50709">
        <ele>1266</ele>
        <time>2021-06-27T12:39:14.723Z</time>
      </trkpt>
      <trkpt lat="44.03894" lon="3.50704">
        <ele>1265</ele>
        <time>2021-06-27T12:39:19.748Z</time>
      </trkpt>
      <trkpt lat="44.03893" lon="3.50699">
        <ele>1265</ele>
        <time>2021-06-27T12:39:24.726Z</time>
      </trkpt>
      <trkpt lat="44.03889" lon="3.50695">
        <ele>1265</ele>
        <time>2021-06-27T12:39:29.725Z</time>
      </trkpt>
      <trkpt lat="44.03886" lon="3.50687">
        <ele>1265</ele>
        <time>2021-06-27T12:39:34.702Z</time>
      </trkpt>
      <trkpt lat="44.03885" lon="3.5068">
        <ele>1265</ele>
        <time>2021-06-27T12:39:38.724Z</time>
      </trkpt>
      <trkpt lat="44.03883" lon="3.50673">
        <ele>1265</ele>
        <time>2021-06-27T12:39:43.701Z</time>
      </trkpt>
      <trkpt lat="44.0388" lon="3.50667">
        <ele>1265</ele>
        <time>2021-06-27T12:39:47.729Z</time>
      </trkpt>
      <trkpt lat="44.03881" lon="3.50659">
        <ele>1265</ele>
        <time>2021-06-27T12:39:52.696Z</time>
      </trkpt>
      <trkpt lat="44.03882" lon="3.50651">
        <ele>1267</ele>
        <time>2021-06-27T12:39:57.727Z</time>
      </trkpt>
      <trkpt lat="44.03883" lon="3.50644">
        <ele>1267</ele>
        <time>2021-06-27T12:40:02.729Z</time>
      </trkpt>
      <trkpt lat="44.03886" lon="3.50637">
        <ele>1267</ele>
        <time>2021-06-27T12:40:07.756Z</time>
      </trkpt>
      <trkpt lat="44.03886" lon="3.50632">
        <ele>1267</ele>
        <time>2021-06-27T12:40:12.696Z</time>
      </trkpt>
      <trkpt lat="44.03888" lon="3.50629">
        <ele>1267</ele>
        <time>2021-06-27T12:40:16.725Z</time>
      </trkpt>
      <trkpt lat="44.03887" lon="3.50627">
        <ele>1267</ele>
        <time>2021-06-27T12:40:21.714Z</time>
      </trkpt>
      <trkpt lat="44.03889" lon="3.50626">
        <ele>1267</ele>
        <time>2021-06-27T12:40:25.723Z</time>
      </trkpt>
      <trkpt lat="44.03892" lon="3.50627">
        <ele>1267</ele>
        <time>2021-06-27T12:40:29.729Z</time>
      </trkpt>
      <trkpt lat="44.03899" lon="3.50629">
        <ele>1267</ele>
        <time>2021-06-27T12:40:34.718Z</time>
      </trkpt>
      <trkpt lat="44.03903" lon="3.50629">
        <ele>1261</ele>
        <time>2021-06-27T12:40:39.733Z</time>
      </trkpt>
      <trkpt lat="44.03908" lon="3.50629">
        <ele>1261</ele>
        <time>2021-06-27T12:40:44.728Z</time>
      </trkpt>
      <trkpt lat="44.03914" lon="3.50627">
        <ele>1261</ele>
        <time>2021-06-27T12:40:49.725Z</time>
      </trkpt>
      <trkpt lat="44.03917" lon="3.50624">
        <ele>1262</ele>
        <time>2021-06-27T12:40:54.728Z</time>
      </trkpt>
      <trkpt lat="44.03921" lon="3.50622">
        <ele>1262</ele>
        <time>2021-06-27T12:40:59.724Z</time>
      </trkpt>
      <trkpt lat="44.03925" lon="3.50619">
        <ele>1262</ele>
        <time>2021-06-27T12:41:04.721Z</time>
      </trkpt>
      <trkpt lat="44.0393" lon="3.50619">
        <ele>1262</ele>
        <time>2021-06-27T12:41:09.725Z</time>
      </trkpt>
      <trkpt lat="44.03934" lon="3.50619">
        <ele>1261</ele>
        <time>2021-06-27T12:41:14.734Z</time>
      </trkpt>
      <trkpt lat="44.03938" lon="3.50618">
        <ele>1261</ele>
        <time>2021-06-27T12:41:19.723Z</time>
      </trkpt>
      <trkpt lat="44.03943" lon="3.50619">
        <ele>1261</ele>
        <time>2021-06-27T12:41:24.717Z</time>
      </trkpt>
      <trkpt lat="44.03949" lon="3.5062">
        <ele>1261</ele>
        <time>2021-06-27T12:41:28.729Z</time>
      </trkpt>
      <trkpt lat="44.03956" lon="3.50625">
        <ele>1260</ele>
        <time>2021-06-27T12:41:33.724Z</time>
      </trkpt>
      <trkpt lat="44.0396" lon="3.50627">
        <ele>1261</ele>
        <time>2021-06-27T12:41:38.750Z</time>
      </trkpt>
      <trkpt lat="44.03964" lon="3.50633">
        <ele>1261</ele>
        <time>2021-06-27T12:41:43.725Z</time>
      </trkpt>
      <trkpt lat="44.03964" lon="3.50637">
        <ele>1261</ele>
        <time>2021-06-27T12:41:48.727Z</time>
      </trkpt>
      <trkpt lat="44.03964" lon="3.50639">
        <ele>1261</ele>
        <time>2021-06-27T12:41:53.701Z</time>
      </trkpt>
      <trkpt lat="44.03965" lon="3.50639">
        <ele>1261</ele>
        <time>2021-06-27T12:42:03.720Z</time>
      </trkpt>
      <trkpt lat="44.03969" lon="3.50634">
        <ele>1261</ele>
        <time>2021-06-27T12:42:08.717Z</time>
      </trkpt>
      <trkpt lat="44.03975" lon="3.50635">
        <ele>1261</ele>
        <time>2021-06-27T12:42:13.738Z</time>
      </trkpt>
      <trkpt lat="44.03979" lon="3.50636">
        <ele>1261</ele>
        <time>2021-06-27T12:42:18.699Z</time>
      </trkpt>
      <trkpt lat="44.03981" lon="3.50636">
        <ele>1261</ele>
        <time>2021-06-27T12:42:22.712Z</time>
      </trkpt>
      <trkpt lat="44.03984" lon="3.50634">
        <ele>1261</ele>
        <time>2021-06-27T12:42:27.728Z</time>
      </trkpt>
      <trkpt lat="44.03989" lon="3.50632">
        <ele>1261</ele>
        <time>2021-06-27T12:42:32.698Z</time>
      </trkpt>
      <trkpt lat="44.03991" lon="3.50626">
        <ele>1261</ele>
        <time>2021-06-27T12:42:36.725Z</time>
      </trkpt>
      <trkpt lat="44.03994" lon="3.50621">
        <ele>1263</ele>
        <time>2021-06-27T12:42:41.719Z</time>
      </trkpt>
      <trkpt lat="44.03995" lon="3.50615">
        <ele>1263</ele>
        <time>2021-06-27T12:42:46.722Z</time>
      </trkpt>
      <trkpt lat="44.03992" lon="3.50609">
        <ele>1263</ele>
        <time>2021-06-27T12:42:51.713Z</time>
      </trkpt>
      <trkpt lat="44.03991" lon="3.50604">
        <ele>1263</ele>
        <time>2021-06-27T12:42:55.751Z</time>
      </trkpt>
      <trkpt lat="44.03989" lon="3.50598">
        <ele>1263</ele>
        <time>2021-06-27T12:43:00.720Z</time>
      </trkpt>
      <trkpt lat="44.03988" lon="3.50591">
        <ele>1266</ele>
        <time>2021-06-27T12:43:05.725Z</time>
      </trkpt>
      <trkpt lat="44.03991" lon="3.50585">
        <ele>1266</ele>
        <time>2021-06-27T12:43:10.724Z</time>
      </trkpt>
      <trkpt lat="44.03991" lon="3.50581">
        <ele>1266</ele>
        <time>2021-06-27T12:43:14.723Z</time>
      </trkpt>
      <trkpt lat="44.03989" lon="3.50582">
        <ele>1266</ele>
        <time>2021-06-27T12:43:19.729Z</time>
      </trkpt>
      <trkpt lat="44.03989" lon="3.5058">
        <ele>1266</ele>
        <time>2021-06-27T12:43:24.725Z</time>
      </trkpt>
      <trkpt lat="44.03989" lon="3.50573">
        <ele>1266</ele>
        <time>2021-06-27T12:43:29.722Z</time>
      </trkpt>
      <trkpt lat="44.03989" lon="3.50567">
        <ele>1270</ele>
        <time>2021-06-27T12:43:33.760Z</time>
      </trkpt>
      <trkpt lat="44.03989" lon="3.50561">
        <ele>1270</ele>
        <time>2021-06-27T12:43:38.727Z</time>
      </trkpt>
      <trkpt lat="44.03991" lon="3.50555">
        <ele>1270</ele>
        <time>2021-06-27T12:43:43.729Z</time>
      </trkpt>
      <trkpt lat="44.03994" lon="3.50551">
        <ele>1270</ele>
        <time>2021-06-27T12:43:48.716Z</time>
      </trkpt>
      <trkpt lat="44.03996" lon="3.50549">
        <ele>1270</ele>
        <time>2021-06-27T12:43:52.715Z</time>
      </trkpt>
      <trkpt lat="44.03996" lon="3.50547">
        <ele>1270</ele>
        <time>2021-06-27T12:43:57.701Z</time>
      </trkpt>
      <trkpt lat="44.03997" lon="3.50544">
        <ele>1270</ele>
        <time>2021-06-27T12:45:38.726Z</time>
      </trkpt>
      <trkpt lat="44.04001" lon="3.50539">
        <ele>1274</ele>
        <time>2021-06-27T12:45:43.723Z</time>
      </trkpt>
      <trkpt lat="44.04001" lon="3.50534">
        <ele>1274</ele>
        <time>2021-06-27T12:45:47.751Z</time>
      </trkpt>
      <trkpt lat="44.04002" lon="3.50529">
        <ele>1274</ele>
        <time>2021-06-27T12:45:52.701Z</time>
      </trkpt>
      <trkpt lat="44.04005" lon="3.50525">
        <ele>1274</ele>
        <time>2021-06-27T12:45:57.701Z</time>
      </trkpt>
      <trkpt lat="44.04005" lon="3.50519">
        <ele>1274</ele>
        <time>2021-06-27T12:46:01.717Z</time>
      </trkpt>
      <trkpt lat="44.04007" lon="3.50514">
        <ele>1274</ele>
        <time>2021-06-27T12:46:05.724Z</time>
      </trkpt>
      <trkpt lat="44.04009" lon="3.5051">
        <ele>1277</ele>
        <time>2021-06-27T12:46:10.715Z</time>
      </trkpt>
      <trkpt lat="44.04008" lon="3.50507">
        <ele>1277</ele>
        <time>2021-06-27T12:46:14.717Z</time>
      </trkpt>
      <trkpt lat="44.04007" lon="3.50501">
        <ele>1277</ele>
        <time>2021-06-27T12:46:19.719Z</time>
      </trkpt>
      <trkpt lat="44.04007" lon="3.50494">
        <ele>1277</ele>
        <time>2021-06-27T12:46:24.729Z</time>
      </trkpt>
      <trkpt lat="44.04009" lon="3.50487">
        <ele>1277</ele>
        <time>2021-06-27T12:46:29.709Z</time>
      </trkpt>
      <trkpt lat="44.0401" lon="3.50481">
        <ele>1279</ele>
        <time>2021-06-27T12:46:33.725Z</time>
      </trkpt>
      <trkpt lat="44.04009" lon="3.50475">
        <ele>1279</ele>
        <time>2021-06-27T12:46:38.718Z</time>
      </trkpt>
      <trkpt lat="44.04008" lon="3.5047">
        <ele>1279</ele>
        <time>2021-06-27T12:46:42.727Z</time>
      </trkpt>
      <trkpt lat="44.04006" lon="3.50463">
        <ele>1279</ele>
        <time>2021-06-27T12:46:47.728Z</time>
      </trkpt>
      <trkpt lat="44.04002" lon="3.50458">
        <ele>1281</ele>
        <time>2021-06-27T12:46:52.698Z</time>
      </trkpt>
      <trkpt lat="44.03998" lon="3.50455">
        <ele>1281</ele>
        <time>2021-06-27T12:46:56.726Z</time>
      </trkpt>
      <trkpt lat="44.03995" lon="3.50454">
        <ele>1281</ele>
        <time>2021-06-27T12:47:00.749Z</time>
      </trkpt>
      <trkpt lat="44.03992" lon="3.5045">
        <ele>1281</ele>
        <time>2021-06-27T12:47:05.721Z</time>
      </trkpt>
      <trkpt lat="44.03989" lon="3.50445">
        <ele>1281</ele>
        <time>2021-06-27T12:47:10.725Z</time>
      </trkpt>
      <trkpt lat="44.03988" lon="3.50439">
        <ele>1281</ele>
        <time>2021-06-27T12:47:15.756Z</time>
      </trkpt>
      <trkpt lat="44.03987" lon="3.50434">
        <ele>1281</ele>
        <time>2021-06-27T12:47:20.725Z</time>
      </trkpt>
      <trkpt lat="44.03987" lon="3.5043">
        <ele>1283</ele>
        <time>2021-06-27T12:47:25.724Z</time>
      </trkpt>
      <trkpt lat="44.03987" lon="3.50427">
        <ele>1283</ele>
        <time>2021-06-27T12:47:30.727Z</time>
      </trkpt>
      <trkpt lat="44.0399" lon="3.50424">
        <ele>1283</ele>
        <time>2021-06-27T12:47:35.725Z</time>
      </trkpt>
      <trkpt lat="44.03992" lon="3.5042">
        <ele>1283</ele>
        <time>2021-06-27T12:47:40.711Z</time>
      </trkpt>
      <trkpt lat="44.03993" lon="3.50414">
        <ele>1283</ele>
        <time>2021-06-27T12:47:44.745Z</time>
      </trkpt>
      <trkpt lat="44.03995" lon="3.50411">
        <ele>1283</ele>
        <time>2021-06-27T12:47:49.732Z</time>
      </trkpt>
      <trkpt lat="44.03996" lon="3.50407">
        <ele>1283</ele>
        <time>2021-06-27T12:47:54.726Z</time>
      </trkpt>
      <trkpt lat="44.03998" lon="3.50402">
        <ele>1290</ele>
        <time>2021-06-27T12:47:58.752Z</time>
      </trkpt>
      <trkpt lat="44.04001" lon="3.50394">
        <ele>1290</ele>
        <time>2021-06-27T12:48:03.722Z</time>
      </trkpt>
      <trkpt lat="44.03998" lon="3.50388">
        <ele>1290</ele>
        <time>2021-06-27T12:48:08.724Z</time>
      </trkpt>
      <trkpt lat="44.03997" lon="3.5038">
        <ele>1290</ele>
        <time>2021-06-27T12:48:13.729Z</time>
      </trkpt>
      <trkpt lat="44.03994" lon="3.50373">
        <ele>1298</ele>
        <time>2021-06-27T12:48:18.718Z</time>
      </trkpt>
      <trkpt lat="44.03992" lon="3.50369">
        <ele>1298</ele>
        <time>2021-06-27T12:48:22.753Z</time>
      </trkpt>
      <trkpt lat="44.03986" lon="3.50366">
        <ele>1298</ele>
        <time>2021-06-27T12:48:27.704Z</time>
      </trkpt>
      <trkpt lat="44.0398" lon="3.50364">
        <ele>1295</ele>
        <time>2021-06-27T12:48:32.714Z</time>
      </trkpt>
      <trkpt lat="44.03978" lon="3.50364">
        <ele>1295</ele>
        <time>2021-06-27T12:48:37.698Z</time>
      </trkpt>
      <trkpt lat="44.03977" lon="3.50361">
        <ele>1295</ele>
        <time>2021-06-27T12:48:47.697Z</time>
      </trkpt>
      <trkpt lat="44.03976" lon="3.50357">
        <ele>1295</ele>
        <time>2021-06-27T12:48:51.714Z</time>
      </trkpt>
      <trkpt lat="44.03973" lon="3.50351">
        <ele>1295</ele>
        <time>2021-06-27T12:48:56.724Z</time>
      </trkpt>
      <trkpt lat="44.03972" lon="3.50348">
        <ele>1295</ele>
        <time>2021-06-27T12:49:01.723Z</time>
      </trkpt>
      <trkpt lat="44.03972" lon="3.50344">
        <ele>1301</ele>
        <time>2021-06-27T12:49:06.714Z</time>
      </trkpt>
      <trkpt lat="44.0397" lon="3.50333">
        <ele>1301</ele>
        <time>2021-06-27T12:49:16.720Z</time>
      </trkpt>
      <trkpt lat="44.03968" lon="3.50329">
        <ele>1301</ele>
        <time>2021-06-27T12:49:21.723Z</time>
      </trkpt>
      <trkpt lat="44.03966" lon="3.50328">
        <ele>1301</ele>
        <time>2021-06-27T12:49:25.724Z</time>
      </trkpt>
      <trkpt lat="44.03966" lon="3.50327">
        <ele>1301</ele>
        <time>2021-06-27T12:49:30.748Z</time>
      </trkpt>
      <trkpt lat="44.03966" lon="3.50321">
        <ele>1301</ele>
        <time>2021-06-27T12:49:35.722Z</time>
      </trkpt>
      <trkpt lat="44.03964" lon="3.50316">
        <ele>1308</ele>
        <time>2021-06-27T12:49:40.715Z</time>
      </trkpt>
      <trkpt lat="44.03963" lon="3.50315">
        <ele>1308</ele>
        <time>2021-06-27T12:49:44.728Z</time>
      </trkpt>
      <trkpt lat="44.03958" lon="3.50305">
        <ele>1303</ele>
        <time>2021-06-27T12:49:58.717Z</time>
      </trkpt>
      <trkpt lat="44.03956" lon="3.50298">
        <ele>1303</ele>
        <time>2021-06-27T12:50:03.723Z</time>
      </trkpt>
      <trkpt lat="44.03953" lon="3.50292">
        <ele>1308</ele>
        <time>2021-06-27T12:50:12.750Z</time>
      </trkpt>
      <trkpt lat="44.03953" lon="3.5029">
        <ele>1308</ele>
        <time>2021-06-27T12:50:17.722Z</time>
      </trkpt>
      <trkpt lat="44.0395" lon="3.50283">
        <ele>1308</ele>
        <time>2021-06-27T12:50:21.744Z</time>
      </trkpt>
      <trkpt lat="44.03949" lon="3.50282">
        <ele>1308</ele>
        <time>2021-06-27T12:50:26.721Z</time>
      </trkpt>
      <trkpt lat="44.03948" lon="3.50273">
        <ele>1308</ele>
        <time>2021-06-27T12:50:41.718Z</time>
      </trkpt>
      <trkpt lat="44.03947" lon="3.50259">
        <ele>1313</ele>
        <time>2021-06-27T12:50:51.717Z</time>
      </trkpt>
      <trkpt lat="44.03944" lon="3.50239">
        <ele>1313</ele>
        <time>2021-06-27T12:51:15.718Z</time>
      </trkpt>
      <trkpt lat="44.03942" lon="3.50226">
        <ele>1317</ele>
        <time>2021-06-27T12:51:19.752Z</time>
      </trkpt>
      <trkpt lat="44.03941" lon="3.5022">
        <ele>1317</ele>
        <time>2021-06-27T12:51:24.719Z</time>
      </trkpt>
      <trkpt lat="44.03941" lon="3.50208">
        <ele>1317</ele>
        <time>2021-06-27T12:51:42.722Z</time>
      </trkpt>
      <trkpt lat="44.03939" lon="3.50202">
        <ele>1321</ele>
        <time>2021-06-27T12:51:46.761Z</time>
      </trkpt>
      <trkpt lat="44.03934" lon="3.50191">
        <ele>1321</ele>
        <time>2021-06-27T12:51:56.712Z</time>
      </trkpt>
      <trkpt lat="44.03921" lon="3.50175">
        <ele>1321</ele>
        <time>2021-06-27T12:52:10.725Z</time>
      </trkpt>
      <trkpt lat="44.03915" lon="3.50167">
        <ele>1321</ele>
        <time>2021-06-27T12:52:15.723Z</time>
      </trkpt>
      <trkpt lat="44.03913" lon="3.50163">
        <ele>1321</ele>
        <time>2021-06-27T12:52:20.699Z</time>
      </trkpt>
      <trkpt lat="44.03913" lon="3.50158">
        <ele>1321</ele>
        <time>2021-06-27T12:52:24.713Z</time>
      </trkpt>
      <trkpt lat="44.03913" lon="3.50152">
        <ele>1324</ele>
        <time>2021-06-27T12:52:29.716Z</time>
      </trkpt>
      <trkpt lat="44.03911" lon="3.50147">
        <ele>1324</ele>
        <time>2021-06-27T12:52:33.714Z</time>
      </trkpt>
      <trkpt lat="44.03908" lon="3.50141">
        <ele>1324</ele>
        <time>2021-06-27T12:52:38.717Z</time>
      </trkpt>
      <trkpt lat="44.03904" lon="3.50138">
        <ele>1324</ele>
        <time>2021-06-27T12:52:42.723Z</time>
      </trkpt>
      <trkpt lat="44.03902" lon="3.50135">
        <ele>1321</ele>
        <time>2021-06-27T12:52:47.719Z</time>
      </trkpt>
      <trkpt lat="44.03901" lon="3.50133">
        <ele>1321</ele>
        <time>2021-06-27T12:52:51.747Z</time>
      </trkpt>
      <trkpt lat="44.03901" lon="3.50129">
        <ele>1321</ele>
        <time>2021-06-27T12:53:00.718Z</time>
      </trkpt>
      <trkpt lat="44.039" lon="3.50124">
        <ele>1324</ele>
        <time>2021-06-27T12:53:04.715Z</time>
      </trkpt>
      <trkpt lat="44.039" lon="3.50124">
        <ele>1324</ele>
        <time>2021-06-27T12:53:09.719Z</time>
      </trkpt>
      <trkpt lat="44.039" lon="3.50117">
        <ele>1324</ele>
        <time>2021-06-27T12:53:14.716Z</time>
      </trkpt>
      <trkpt lat="44.03899" lon="3.50114">
        <ele>1324</ele>
        <time>2021-06-27T12:53:18.739Z</time>
      </trkpt>
      <trkpt lat="44.03899" lon="3.50106">
        <ele>1324</ele>
        <time>2021-06-27T12:53:23.724Z</time>
      </trkpt>
      <trkpt lat="44.03898" lon="3.501">
        <ele>1324</ele>
        <time>2021-06-27T12:53:28.726Z</time>
      </trkpt>
      <trkpt lat="44.03897" lon="3.50092">
        <ele>1329</ele>
        <time>2021-06-27T12:53:33.722Z</time>
      </trkpt>
      <trkpt lat="44.03896" lon="3.50084">
        <ele>1329</ele>
        <time>2021-06-27T12:53:38.723Z</time>
      </trkpt>
      <trkpt lat="44.03895" lon="3.50078">
        <ele>1329</ele>
        <time>2021-06-27T12:53:43.723Z</time>
      </trkpt>
      <trkpt lat="44.03893" lon="3.50073">
        <ele>1329</ele>
        <time>2021-06-27T12:53:48.716Z</time>
      </trkpt>
      <trkpt lat="44.0389" lon="3.50069">
        <ele>1335</ele>
        <time>2021-06-27T12:53:52.745Z</time>
      </trkpt>
      <trkpt lat="44.03885" lon="3.50066">
        <ele>1335</ele>
        <time>2021-06-27T12:53:57.716Z</time>
      </trkpt>
      <trkpt lat="44.03881" lon="3.50062">
        <ele>1335</ele>
        <time>2021-06-27T12:54:02.721Z</time>
      </trkpt>
      <trkpt lat="44.03878" lon="3.5006">
        <ele>1335</ele>
        <time>2021-06-27T12:54:06.762Z</time>
      </trkpt>
      <trkpt lat="44.03875" lon="3.50056">
        <ele>1334</ele>
        <time>2021-06-27T12:54:11.723Z</time>
      </trkpt>
      <trkpt lat="44.03873" lon="3.50055">
        <ele>1334</ele>
        <time>2021-06-27T12:54:16.723Z</time>
      </trkpt>
      <trkpt lat="44.03868" lon="3.50054">
        <ele>1334</ele>
        <time>2021-06-27T12:54:21.725Z</time>
      </trkpt>
      <trkpt lat="44.03865" lon="3.50052">
        <ele>1334</ele>
        <time>2021-06-27T12:54:26.695Z</time>
      </trkpt>
      <trkpt lat="44.03861" lon="3.50047">
        <ele>1334</ele>
        <time>2021-06-27T12:54:31.721Z</time>
      </trkpt>
      <trkpt lat="44.03858" lon="3.50044">
        <ele>1334</ele>
        <time>2021-06-27T12:54:36.718Z</time>
      </trkpt>
      <trkpt lat="44.03855" lon="3.50042">
        <ele>1334</ele>
        <time>2021-06-27T12:54:40.727Z</time>
      </trkpt>
      <trkpt lat="44.03852" lon="3.5004">
        <ele>1343</ele>
        <time>2021-06-27T12:54:45.722Z</time>
      </trkpt>
      <trkpt lat="44.03849" lon="3.50037">
        <ele>1343</ele>
        <time>2021-06-27T12:54:50.726Z</time>
      </trkpt>
      <trkpt lat="44.03846" lon="3.50035">
        <ele>1339</ele>
        <time>2021-06-27T12:54:55.724Z</time>
      </trkpt>
      <trkpt lat="44.03846" lon="3.50034">
        <ele>1339</ele>
        <time>2021-06-27T12:55:00.726Z</time>
      </trkpt>
      <trkpt lat="44.03843" lon="3.50032">
        <ele>1339</ele>
        <time>2021-06-27T12:55:05.721Z</time>
      </trkpt>
      <trkpt lat="44.03839" lon="3.5003">
        <ele>1339</ele>
        <time>2021-06-27T12:55:10.719Z</time>
      </trkpt>
      <trkpt lat="44.03837" lon="3.50027">
        <ele>1339</ele>
        <time>2021-06-27T12:55:14.717Z</time>
      </trkpt>
      <trkpt lat="44.03833" lon="3.50026">
        <ele>1339</ele>
        <time>2021-06-27T12:55:19.721Z</time>
      </trkpt>
      <trkpt lat="44.0383" lon="3.50025">
        <ele>1339</ele>
        <time>2021-06-27T12:55:24.729Z</time>
      </trkpt>
      <trkpt lat="44.03826" lon="3.50024">
        <ele>1339</ele>
        <time>2021-06-27T12:55:29.722Z</time>
      </trkpt>
      <trkpt lat="44.03821" lon="3.50021">
        <ele>1339</ele>
        <time>2021-06-27T12:55:33.727Z</time>
      </trkpt>
      <trkpt lat="44.03817" lon="3.50015">
        <ele>1334</ele>
        <time>2021-06-27T12:55:38.724Z</time>
      </trkpt>
      <trkpt lat="44.03813" lon="3.50008">
        <ele>1339</ele>
        <time>2021-06-27T12:55:43.712Z</time>
      </trkpt>
      <trkpt lat="44.03811" lon="3.50003">
        <ele>1339</ele>
        <time>2021-06-27T12:55:47.716Z</time>
      </trkpt>
      <trkpt lat="44.03809" lon="3.49999">
        <ele>1339</ele>
        <time>2021-06-27T12:55:51.748Z</time>
      </trkpt>
      <trkpt lat="44.03807" lon="3.49995">
        <ele>1339</ele>
        <time>2021-06-27T12:55:56.714Z</time>
      </trkpt>
      <trkpt lat="44.03806" lon="3.49994">
        <ele>1339</ele>
        <time>2021-06-27T12:56:00.725Z</time>
      </trkpt>
      <trkpt lat="44.03806" lon="3.4999">
        <ele>1339</ele>
        <time>2021-06-27T12:56:05.721Z</time>
      </trkpt>
      <trkpt lat="44.03805" lon="3.49988">
        <ele>1339</ele>
        <time>2021-06-27T12:56:10.723Z</time>
      </trkpt>
      <trkpt lat="44.03804" lon="3.4998">
        <ele>1346</ele>
        <time>2021-06-27T12:56:15.723Z</time>
      </trkpt>
      <trkpt lat="44.03801" lon="3.49974">
        <ele>1346</ele>
        <time>2021-06-27T12:56:20.724Z</time>
      </trkpt>
      <trkpt lat="44.03799" lon="3.49968">
        <ele>1346</ele>
        <time>2021-06-27T12:56:25.714Z</time>
      </trkpt>
      <trkpt lat="44.03798" lon="3.49965">
        <ele>1346</ele>
        <time>2021-06-27T12:56:29.723Z</time>
      </trkpt>
      <trkpt lat="44.03796" lon="3.49959">
        <ele>1346</ele>
        <time>2021-06-27T12:56:34.725Z</time>
      </trkpt>
      <trkpt lat="44.03794" lon="3.49955">
        <ele>1353</ele>
        <time>2021-06-27T12:56:39.720Z</time>
      </trkpt>
      <trkpt lat="44.03792" lon="3.49952">
        <ele>1353</ele>
        <time>2021-06-27T12:56:44.717Z</time>
      </trkpt>
      <trkpt lat="44.03791" lon="3.4995">
        <ele>1345</ele>
        <time>2021-06-27T12:56:49.733Z</time>
      </trkpt>
      <trkpt lat="44.0379" lon="3.49948">
        <ele>1345</ele>
        <time>2021-06-27T12:56:54.720Z</time>
      </trkpt>
      <trkpt lat="44.03785" lon="3.4994">
        <ele>1345</ele>
        <time>2021-06-27T12:56:59.718Z</time>
      </trkpt>
      <trkpt lat="44.03784" lon="3.49938">
        <ele>1345</ele>
        <time>2021-06-27T12:57:04.718Z</time>
      </trkpt>
      <trkpt lat="44.0378" lon="3.49932">
        <ele>1345</ele>
        <time>2021-06-27T12:57:08.726Z</time>
      </trkpt>
      <trkpt lat="44.03777" lon="3.49927">
        <ele>1352</ele>
        <time>2021-06-27T12:57:13.699Z</time>
      </trkpt>
      <trkpt lat="44.03773" lon="3.4992">
        <ele>1352</ele>
        <time>2021-06-27T12:57:23.713Z</time>
      </trkpt>
      <trkpt lat="44.03767" lon="3.49904">
        <ele>1352</ele>
        <time>2021-06-27T12:57:32.722Z</time>
      </trkpt>
      <trkpt lat="44.03762" lon="3.49896">
        <ele>1353</ele>
        <time>2021-06-27T12:57:37.719Z</time>
      </trkpt>
      <trkpt lat="44.0376" lon="3.49892">
        <ele>1353</ele>
        <time>2021-06-27T12:57:41.721Z</time>
      </trkpt>
      <trkpt lat="44.03759" lon="3.49892">
        <ele>1353</ele>
        <time>2021-06-27T12:57:46.718Z</time>
      </trkpt>
      <trkpt lat="44.03755" lon="3.49877">
        <ele>1353</ele>
        <time>2021-06-27T12:57:56.722Z</time>
      </trkpt>
      <trkpt lat="44.03749" lon="3.49865">
        <ele>1359</ele>
        <time>2021-06-27T12:58:01.720Z</time>
      </trkpt>
      <trkpt lat="44.03747" lon="3.49858">
        <ele>1359</ele>
        <time>2021-06-27T12:58:06.722Z</time>
      </trkpt>
      <trkpt lat="44.03746" lon="3.49857">
        <ele>1359</ele>
        <time>2021-06-27T12:58:11.716Z</time>
      </trkpt>
      <trkpt lat="44.03744" lon="3.49853">
        <ele>1359</ele>
        <time>2021-06-27T12:58:16.752Z</time>
      </trkpt>
      <trkpt lat="44.03743" lon="3.49851">
        <ele>1359</ele>
        <time>2021-06-27T12:58:21.724Z</time>
      </trkpt>
      <trkpt lat="44.03741" lon="3.49849">
        <ele>1359</ele>
        <time>2021-06-27T12:58:26.723Z</time>
      </trkpt>
      <trkpt lat="44.03739" lon="3.49848">
        <ele>1359</ele>
        <time>2021-06-27T12:58:30.723Z</time>
      </trkpt>
      <trkpt lat="44.03733" lon="3.49843">
        <ele>1357</ele>
        <time>2021-06-27T12:58:35.720Z</time>
      </trkpt>
      <trkpt lat="44.03726" lon="3.49835">
        <ele>1357</ele>
        <time>2021-06-27T12:58:40.718Z</time>
      </trkpt>
      <trkpt lat="44.03724" lon="3.49834">
        <ele>1357</ele>
        <time>2021-06-27T12:58:44.724Z</time>
      </trkpt>
      <trkpt lat="44.03715" lon="3.49827">
        <ele>1357</ele>
        <time>2021-06-27T12:58:49.718Z</time>
      </trkpt>
      <trkpt lat="44.03709" lon="3.49823">
        <ele>1357</ele>
        <time>2021-06-27T12:58:54.719Z</time>
      </trkpt>
      <trkpt lat="44.03706" lon="3.49819">
        <ele>1355</ele>
        <time>2021-06-27T12:58:59.721Z</time>
      </trkpt>
      <trkpt lat="44.03704" lon="3.49817">
        <ele>1355</ele>
        <time>2021-06-27T12:59:04.709Z</time>
      </trkpt>
      <trkpt lat="44.03703" lon="3.49812">
        <ele>1355</ele>
        <time>2021-06-27T12:59:08.720Z</time>
      </trkpt>
      <trkpt lat="44.037" lon="3.49806">
        <ele>1355</ele>
        <time>2021-06-27T12:59:13.712Z</time>
      </trkpt>
      <trkpt lat="44.03698" lon="3.49801">
        <ele>1355</ele>
        <time>2021-06-27T12:59:18.723Z</time>
      </trkpt>
      <trkpt lat="44.03695" lon="3.49797">
        <ele>1355</ele>
        <time>2021-06-27T12:59:23.724Z</time>
      </trkpt>
      <trkpt lat="44.03695" lon="3.49795">
        <ele>1355</ele>
        <time>2021-06-27T12:59:28.715Z</time>
      </trkpt>
      <trkpt lat="44.0369" lon="3.49789">
        <ele>1362</ele>
        <time>2021-06-27T12:59:33.693Z</time>
      </trkpt>
      <trkpt lat="44.03689" lon="3.49787">
        <ele>1362</ele>
        <time>2021-06-27T12:59:37.701Z</time>
      </trkpt>
      <trkpt lat="44.03686" lon="3.49784">
        <ele>1362</ele>
        <time>2021-06-27T12:59:41.721Z</time>
      </trkpt>
      <trkpt lat="44.03685" lon="3.49783">
        <ele>1362</ele>
        <time>2021-06-27T12:59:46.718Z</time>
      </trkpt>
      <trkpt lat="44.03679" lon="3.49771">
        <ele>1354</ele>
        <time>2021-06-27T12:59:55.722Z</time>
      </trkpt>
      <trkpt lat="44.03679" lon="3.49767">
        <ele>1354</ele>
        <time>2021-06-27T13:00:00.720Z</time>
      </trkpt>
      <trkpt lat="44.03678" lon="3.49765">
        <ele>1354</ele>
        <time>2021-06-27T13:00:05.720Z</time>
      </trkpt>
      <trkpt lat="44.03676" lon="3.49761">
        <ele>1360</ele>
        <time>2021-06-27T13:00:14.724Z</time>
      </trkpt>
      <trkpt lat="44.0367" lon="3.49748">
        <ele>1360</ele>
        <time>2021-06-27T13:00:24.722Z</time>
      </trkpt>
      <trkpt lat="44.03668" lon="3.49745">
        <ele>1360</ele>
        <time>2021-06-27T13:00:29.723Z</time>
      </trkpt>
      <trkpt lat="44.03667" lon="3.49742">
        <ele>1360</ele>
        <time>2021-06-27T13:00:34.721Z</time>
      </trkpt>
      <trkpt lat="44.03662" lon="3.49733">
        <ele>1364</ele>
        <time>2021-06-27T13:00:39.713Z</time>
      </trkpt>
      <trkpt lat="44.03661" lon="3.49729">
        <ele>1364</ele>
        <time>2021-06-27T13:00:43.724Z</time>
      </trkpt>
      <trkpt lat="44.03656" lon="3.4972">
        <ele>1364</ele>
        <time>2021-06-27T13:00:48.720Z</time>
      </trkpt>
      <trkpt lat="44.03651" lon="3.49714">
        <ele>1359</ele>
        <time>2021-06-27T13:00:53.716Z</time>
      </trkpt>
      <trkpt lat="44.03647" lon="3.49709">
        <ele>1359</ele>
        <time>2021-06-27T13:00:58.723Z</time>
      </trkpt>
      <trkpt lat="44.03645" lon="3.49703">
        <ele>1364</ele>
        <time>2021-06-27T13:01:03.743Z</time>
      </trkpt>
      <trkpt lat="44.03642" lon="3.49698">
        <ele>1364</ele>
        <time>2021-06-27T13:01:08.714Z</time>
      </trkpt>
      <trkpt lat="44.03639" lon="3.49691">
        <ele>1364</ele>
        <time>2021-06-27T13:01:13.702Z</time>
      </trkpt>
      <trkpt lat="44.03637" lon="3.49688">
        <ele>1364</ele>
        <time>2021-06-27T13:01:17.723Z</time>
      </trkpt>
      <trkpt lat="44.03633" lon="3.49683">
        <ele>1364</ele>
        <time>2021-06-27T13:01:22.699Z</time>
      </trkpt>
      <trkpt lat="44.03632" lon="3.49679">
        <ele>1367</ele>
        <time>2021-06-27T13:01:26.721Z</time>
      </trkpt>
      <trkpt lat="44.03631" lon="3.49673">
        <ele>1367</ele>
        <time>2021-06-27T13:01:31.717Z</time>
      </trkpt>
      <trkpt lat="44.03632" lon="3.49668">
        <ele>1367</ele>
        <time>2021-06-27T13:01:36.720Z</time>
      </trkpt>
      <trkpt lat="44.03632" lon="3.49667">
        <ele>1367</ele>
        <time>2021-06-27T13:01:41.723Z</time>
      </trkpt>
      <trkpt lat="44.03631" lon="3.49664">
        <ele>1367</ele>
        <time>2021-06-27T13:01:46.715Z</time>
      </trkpt>
      <trkpt lat="44.03629" lon="3.49658">
        <ele>1367</ele>
        <time>2021-06-27T13:01:50.722Z</time>
      </trkpt>
      <trkpt lat="44.03628" lon="3.49656">
        <ele>1367</ele>
        <time>2021-06-27T13:01:55.723Z</time>
      </trkpt>
      <trkpt lat="44.03624" lon="3.4964">
        <ele>1366</ele>
        <time>2021-06-27T13:02:04.723Z</time>
      </trkpt>
      <trkpt lat="44.03613" lon="3.49626">
        <ele>1366</ele>
        <time>2021-06-27T13:02:09.708Z</time>
      </trkpt>
      <trkpt lat="44.03609" lon="3.49619">
        <ele>1366</ele>
        <time>2021-06-27T13:02:13.716Z</time>
      </trkpt>
      <trkpt lat="44.03605" lon="3.49615">
        <ele>1366</ele>
        <time>2021-06-27T13:02:18.714Z</time>
      </trkpt>
      <trkpt lat="44.03601" lon="3.49612">
        <ele>1366</ele>
        <time>2021-06-27T13:02:22.718Z</time>
      </trkpt>
      <trkpt lat="44.03597" lon="3.4961">
        <ele>1366</ele>
        <time>2021-06-27T13:02:27.723Z</time>
      </trkpt>
      <trkpt lat="44.03593" lon="3.49609">
        <ele>1366</ele>
        <time>2021-06-27T13:02:32.701Z</time>
      </trkpt>
      <trkpt lat="44.03592" lon="3.49607">
        <ele>1366</ele>
        <time>2021-06-27T13:02:36.730Z</time>
      </trkpt>
      <trkpt lat="44.03592" lon="3.49604">
        <ele>1366</ele>
        <time>2021-06-27T13:02:41.723Z</time>
      </trkpt>
      <trkpt lat="44.03592" lon="3.49599">
        <ele>1366</ele>
        <time>2021-06-27T13:02:46.716Z</time>
      </trkpt>
      <trkpt lat="44.03589" lon="3.49596">
        <ele>1365</ele>
        <time>2021-06-27T13:02:50.698Z</time>
      </trkpt>
      <trkpt lat="44.03586" lon="3.49593">
        <ele>1365</ele>
        <time>2021-06-27T13:03:04.720Z</time>
      </trkpt>
      <trkpt lat="44.03585" lon="3.49587">
        <ele>1365</ele>
        <time>2021-06-27T13:03:09.723Z</time>
      </trkpt>
      <trkpt lat="44.03583" lon="3.49579">
        <ele>1365</ele>
        <time>2021-06-27T13:03:14.711Z</time>
      </trkpt>
      <trkpt lat="44.03583" lon="3.49574">
        <ele>1365</ele>
        <time>2021-06-27T13:03:18.718Z</time>
      </trkpt>
      <trkpt lat="44.03582" lon="3.49566">
        <ele>1365</ele>
        <time>2021-06-27T13:03:23.697Z</time>
      </trkpt>
      <trkpt lat="44.0358" lon="3.49561">
        <ele>1365</ele>
        <time>2021-06-27T13:03:27.723Z</time>
      </trkpt>
      <trkpt lat="44.03579" lon="3.49554">
        <ele>1365</ele>
        <time>2021-06-27T13:03:32.722Z</time>
      </trkpt>
      <trkpt lat="44.03579" lon="3.49547">
        <ele>1365</ele>
        <time>2021-06-27T13:03:37.713Z</time>
      </trkpt>
      <trkpt lat="44.03578" lon="3.49542">
        <ele>1365</ele>
        <time>2021-06-27T13:03:42.702Z</time>
      </trkpt>
      <trkpt lat="44.03577" lon="3.49538">
        <ele>1367</ele>
        <time>2021-06-27T13:03:46.720Z</time>
      </trkpt>
      <trkpt lat="44.03575" lon="3.49532">
        <ele>1367</ele>
        <time>2021-06-27T13:03:51.717Z</time>
      </trkpt>
      <trkpt lat="44.03576" lon="3.49525">
        <ele>1367</ele>
        <time>2021-06-27T13:03:56.718Z</time>
      </trkpt>
      <trkpt lat="44.03575" lon="3.49519">
        <ele>1367</ele>
        <time>2021-06-27T13:04:01.722Z</time>
      </trkpt>
      <trkpt lat="44.03575" lon="3.49512">
        <ele>1367</ele>
        <time>2021-06-27T13:04:06.715Z</time>
      </trkpt>
      <trkpt lat="44.03575" lon="3.49506">
        <ele>1367</ele>
        <time>2021-06-27T13:04:10.725Z</time>
      </trkpt>
      <trkpt lat="44.03574" lon="3.49499">
        <ele>1367</ele>
        <time>2021-06-27T13:04:15.716Z</time>
      </trkpt>
      <trkpt lat="44.03573" lon="3.49493">
        <ele>1367</ele>
        <time>2021-06-27T13:04:20.718Z</time>
      </trkpt>
      <trkpt lat="44.03573" lon="3.49489">
        <ele>1367</ele>
        <time>2021-06-27T13:04:24.724Z</time>
      </trkpt>
      <trkpt lat="44.0357" lon="3.49483">
        <ele>1366</ele>
        <time>2021-06-27T13:04:29.719Z</time>
      </trkpt>
      <trkpt lat="44.03568" lon="3.49477">
        <ele>1367</ele>
        <time>2021-06-27T13:04:34.723Z</time>
      </trkpt>
      <trkpt lat="44.03567" lon="3.49471">
        <ele>1367</ele>
        <time>2021-06-27T13:04:39.720Z</time>
      </trkpt>
      <trkpt lat="44.03566" lon="3.49465">
        <ele>1367</ele>
        <time>2021-06-27T13:04:44.724Z</time>
      </trkpt>
      <trkpt lat="44.03564" lon="3.49457">
        <ele>1366</ele>
        <time>2021-06-27T13:04:49.718Z</time>
      </trkpt>
      <trkpt lat="44.03562" lon="3.49451">
        <ele>1366</ele>
        <time>2021-06-27T13:04:54.710Z</time>
      </trkpt>
      <trkpt lat="44.0356" lon="3.49446">
        <ele>1366</ele>
        <time>2021-06-27T13:04:58.721Z</time>
      </trkpt>
      <trkpt lat="44.03557" lon="3.49439">
        <ele>1366</ele>
        <time>2021-06-27T13:05:03.724Z</time>
      </trkpt>
      <trkpt lat="44.03552" lon="3.49434">
        <ele>1366</ele>
        <time>2021-06-27T13:05:08.720Z</time>
      </trkpt>
      <trkpt lat="44.03549" lon="3.49429">
        <ele>1365</ele>
        <time>2021-06-27T13:05:13.721Z</time>
      </trkpt>
      <trkpt lat="44.03548" lon="3.49423">
        <ele>1365</ele>
        <time>2021-06-27T13:05:17.743Z</time>
      </trkpt>
      <trkpt lat="44.03546" lon="3.49418">
        <ele>1365</ele>
        <time>2021-06-27T13:05:22.700Z</time>
      </trkpt>
      <trkpt lat="44.03545" lon="3.49413">
        <ele>1365</ele>
        <time>2021-06-27T13:05:26.721Z</time>
      </trkpt>
      <trkpt lat="44.03546" lon="3.49405">
        <ele>1365</ele>
        <time>2021-06-27T13:05:31.724Z</time>
      </trkpt>
      <trkpt lat="44.03546" lon="3.494">
        <ele>1365</ele>
        <time>2021-06-27T13:05:35.722Z</time>
      </trkpt>
      <trkpt lat="44.03545" lon="3.49395">
        <ele>1365</ele>
        <time>2021-06-27T13:05:40.724Z</time>
      </trkpt>
      <trkpt lat="44.03543" lon="3.49391">
        <ele>1365</ele>
        <time>2021-06-27T13:05:45.724Z</time>
      </trkpt>
      <trkpt lat="44.03542" lon="3.4939">
        <ele>1365</ele>
        <time>2021-06-27T13:05:50.726Z</time>
      </trkpt>
      <trkpt lat="44.03541" lon="3.49384">
        <ele>1365</ele>
        <time>2021-06-27T13:05:55.725Z</time>
      </trkpt>
      <trkpt lat="44.03539" lon="3.49376">
        <ele>1365</ele>
        <time>2021-06-27T13:05:59.725Z</time>
      </trkpt>
      <trkpt lat="44.03537" lon="3.49368">
        <ele>1366</ele>
        <time>2021-06-27T13:06:04.718Z</time>
      </trkpt>
      <trkpt lat="44.03534" lon="3.49359">
        <ele>1366</ele>
        <time>2021-06-27T13:06:09.721Z</time>
      </trkpt>
      <trkpt lat="44.03533" lon="3.49353">
        <ele>1366</ele>
        <time>2021-06-27T13:06:14.723Z</time>
      </trkpt>
      <trkpt lat="44.03532" lon="3.49348">
        <ele>1366</ele>
        <time>2021-06-27T13:06:19.722Z</time>
      </trkpt>
      <trkpt lat="44.03529" lon="3.49339">
        <ele>1367</ele>
        <time>2021-06-27T13:06:24.715Z</time>
      </trkpt>
      <trkpt lat="44.03526" lon="3.4933">
        <ele>1367</ele>
        <time>2021-06-27T13:06:29.724Z</time>
      </trkpt>
      <trkpt lat="44.03524" lon="3.49323">
        <ele>1367</ele>
        <time>2021-06-27T13:06:34.714Z</time>
      </trkpt>
      <trkpt lat="44.03523" lon="3.49317">
        <ele>1365</ele>
        <time>2021-06-27T13:06:39.715Z</time>
      </trkpt>
      <trkpt lat="44.03523" lon="3.4931">
        <ele>1365</ele>
        <time>2021-06-27T13:06:43.723Z</time>
      </trkpt>
      <trkpt lat="44.03521" lon="3.49303">
        <ele>1365</ele>
        <time>2021-06-27T13:06:48.721Z</time>
      </trkpt>
      <trkpt lat="44.0352" lon="3.493">
        <ele>1365</ele>
        <time>2021-06-27T13:06:53.721Z</time>
      </trkpt>
      <trkpt lat="44.03517" lon="3.49296">
        <ele>1365</ele>
        <time>2021-06-27T13:06:58.720Z</time>
      </trkpt>
      <trkpt lat="44.03515" lon="3.4929">
        <ele>1363</ele>
        <time>2021-06-27T13:07:03.723Z</time>
      </trkpt>
      <trkpt lat="44.03512" lon="3.49286">
        <ele>1366</ele>
        <time>2021-06-27T13:07:12.701Z</time>
      </trkpt>
      <trkpt lat="44.03507" lon="3.49279">
        <ele>1366</ele>
        <time>2021-06-27T13:07:17.715Z</time>
      </trkpt>
      <trkpt lat="44.03506" lon="3.49276">
        <ele>1366</ele>
        <time>2021-06-27T13:07:22.742Z</time>
      </trkpt>
      <trkpt lat="44.03502" lon="3.49269">
        <ele>1366</ele>
        <time>2021-06-27T13:07:27.705Z</time>
      </trkpt>
      <trkpt lat="44.03499" lon="3.49264">
        <ele>1363</ele>
        <time>2021-06-27T13:07:31.724Z</time>
      </trkpt>
      <trkpt lat="44.03493" lon="3.49256">
        <ele>1363</ele>
        <time>2021-06-27T13:07:36.721Z</time>
      </trkpt>
      <trkpt lat="44.03488" lon="3.49248">
        <ele>1363</ele>
        <time>2021-06-27T13:07:41.724Z</time>
      </trkpt>
      <trkpt lat="44.03485" lon="3.4924">
        <ele>1367</ele>
        <time>2021-06-27T13:07:46.713Z</time>
      </trkpt>
      <trkpt lat="44.03482" lon="3.49233">
        <ele>1364</ele>
        <time>2021-06-27T13:07:51.724Z</time>
      </trkpt>
      <trkpt lat="44.03479" lon="3.4923">
        <ele>1364</ele>
        <time>2021-06-27T13:07:56.717Z</time>
      </trkpt>
      <trkpt lat="44.03475" lon="3.49225">
        <ele>1364</ele>
        <time>2021-06-27T13:08:01.717Z</time>
      </trkpt>
      <trkpt lat="44.03471" lon="3.49221">
        <ele>1364</ele>
        <time>2021-06-27T13:08:05.724Z</time>
      </trkpt>
      <trkpt lat="44.03468" lon="3.49215">
        <ele>1364</ele>
        <time>2021-06-27T13:08:10.721Z</time>
      </trkpt>
      <trkpt lat="44.03464" lon="3.49206">
        <ele>1360</ele>
        <time>2021-06-27T13:08:15.720Z</time>
      </trkpt>
      <trkpt lat="44.03463" lon="3.49201">
        <ele>1360</ele>
        <time>2021-06-27T13:08:20.694Z</time>
      </trkpt>
      <trkpt lat="44.03459" lon="3.49197">
        <ele>1360</ele>
        <time>2021-06-27T13:08:24.718Z</time>
      </trkpt>
      <trkpt lat="44.03456" lon="3.49195">
        <ele>1362</ele>
        <time>2021-06-27T13:08:28.719Z</time>
      </trkpt>
      <trkpt lat="44.03454" lon="3.4919">
        <ele>1362</ele>
        <time>2021-06-27T13:08:33.724Z</time>
      </trkpt>
      <trkpt lat="44.03449" lon="3.49185">
        <ele>1362</ele>
        <time>2021-06-27T13:08:38.720Z</time>
      </trkpt>
      <trkpt lat="44.03445" lon="3.49179">
        <ele>1357</ele>
        <time>2021-06-27T13:08:43.722Z</time>
      </trkpt>
      <trkpt lat="44.0344" lon="3.49175">
        <ele>1357</ele>
        <time>2021-06-27T13:08:48.700Z</time>
      </trkpt>
      <trkpt lat="44.03436" lon="3.49166">
        <ele>1357</ele>
        <time>2021-06-27T13:08:53.722Z</time>
      </trkpt>
      <trkpt lat="44.03433" lon="3.49162">
        <ele>1357</ele>
        <time>2021-06-27T13:08:58.745Z</time>
      </trkpt>
      <trkpt lat="44.03434" lon="3.49156">
        <ele>1357</ele>
        <time>2021-06-27T13:09:03.722Z</time>
      </trkpt>
      <trkpt lat="44.03435" lon="3.49149">
        <ele>1357</ele>
        <time>2021-06-27T13:09:08.724Z</time>
      </trkpt>
      <trkpt lat="44.03433" lon="3.4914">
        <ele>1357</ele>
        <time>2021-06-27T13:09:13.717Z</time>
      </trkpt>
      <trkpt lat="44.03432" lon="3.49132">
        <ele>1357</ele>
        <time>2021-06-27T13:09:18.723Z</time>
      </trkpt>
      <trkpt lat="44.03428" lon="3.49125">
        <ele>1360</ele>
        <time>2021-06-27T13:09:23.719Z</time>
      </trkpt>
      <trkpt lat="44.03423" lon="3.49121">
        <ele>1357</ele>
        <time>2021-06-27T13:09:28.720Z</time>
      </trkpt>
      <trkpt lat="44.0342" lon="3.49115">
        <ele>1357</ele>
        <time>2021-06-27T13:09:33.710Z</time>
      </trkpt>
      <trkpt lat="44.03417" lon="3.49109">
        <ele>1357</ele>
        <time>2021-06-27T13:09:38.721Z</time>
      </trkpt>
      <trkpt lat="44.03411" lon="3.49104">
        <ele>1357</ele>
        <time>2021-06-27T13:09:43.724Z</time>
      </trkpt>
      <trkpt lat="44.03406" lon="3.49098">
        <ele>1357</ele>
        <time>2021-06-27T13:09:48.721Z</time>
      </trkpt>
      <trkpt lat="44.03404" lon="3.49096">
        <ele>1354</ele>
        <time>2021-06-27T13:09:53.721Z</time>
      </trkpt>
      <trkpt lat="44.03396" lon="3.49088">
        <ele>1358</ele>
        <time>2021-06-27T13:10:03.721Z</time>
      </trkpt>
      <trkpt lat="44.03386" lon="3.4908">
        <ele>1358</ele>
        <time>2021-06-27T13:10:08.723Z</time>
      </trkpt>
      <trkpt lat="44.03379" lon="3.49078">
        <ele>1358</ele>
        <time>2021-06-27T13:10:13.716Z</time>
      </trkpt>
      <trkpt lat="44.03368" lon="3.49074">
        <ele>1363</ele>
        <time>2021-06-27T13:10:18.718Z</time>
      </trkpt>
      <trkpt lat="44.03362" lon="3.4907">
        <ele>1363</ele>
        <time>2021-06-27T13:10:23.723Z</time>
      </trkpt>
      <trkpt lat="44.03358" lon="3.49068">
        <ele>1360</ele>
        <time>2021-06-27T13:10:28.718Z</time>
      </trkpt>
      <trkpt lat="44.03357" lon="3.49061">
        <ele>1360</ele>
        <time>2021-06-27T13:10:33.694Z</time>
      </trkpt>
      <trkpt lat="44.03354" lon="3.49057">
        <ele>1360</ele>
        <time>2021-06-27T13:10:37.718Z</time>
      </trkpt>
      <trkpt lat="44.03354" lon="3.49056">
        <ele>1360</ele>
        <time>2021-06-27T13:10:42.698Z</time>
      </trkpt>
      <trkpt lat="44.03353" lon="3.49054">
        <ele>1360</ele>
        <time>2021-06-27T13:10:46.726Z</time>
      </trkpt>
      <trkpt lat="44.03349" lon="3.49047">
        <ele>1360</ele>
        <time>2021-06-27T13:10:51.723Z</time>
      </trkpt>
      <trkpt lat="44.03343" lon="3.49042">
        <ele>1363</ele>
        <time>2021-06-27T13:10:56.720Z</time>
      </trkpt>
      <trkpt lat="44.0334" lon="3.49041">
        <ele>1358</ele>
        <time>2021-06-27T13:11:01.718Z</time>
      </trkpt>
      <trkpt lat="44.03334" lon="3.49036">
        <ele>1358</ele>
        <time>2021-06-27T13:11:06.718Z</time>
      </trkpt>
      <trkpt lat="44.03331" lon="3.49035">
        <ele>1358</ele>
        <time>2021-06-27T13:11:15.723Z</time>
      </trkpt>
      <trkpt lat="44.0333" lon="3.49035">
        <ele>1358</ele>
        <time>2021-06-27T13:11:20.725Z</time>
      </trkpt>
      <trkpt lat="44.03327" lon="3.49034">
        <ele>1358</ele>
        <time>2021-06-27T13:11:35.724Z</time>
      </trkpt>
      <trkpt lat="44.03318" lon="3.49028">
        <ele>1358</ele>
        <time>2021-06-27T13:11:39.724Z</time>
      </trkpt>
      <trkpt lat="44.03306" lon="3.49021">
        <ele>1358</ele>
        <time>2021-06-27T13:11:44.722Z</time>
      </trkpt>
      <trkpt lat="44.03303" lon="3.49018">
        <ele>1358</ele>
        <time>2021-06-27T13:11:49.716Z</time>
      </trkpt>
      <trkpt lat="44.033" lon="3.49013">
        <ele>1356</ele>
        <time>2021-06-27T13:11:53.725Z</time>
      </trkpt>
      <trkpt lat="44.03295" lon="3.4901">
        <ele>1356</ele>
        <time>2021-06-27T13:11:58.715Z</time>
      </trkpt>
      <trkpt lat="44.03294" lon="3.4901">
        <ele>1356</ele>
        <time>2021-06-27T13:12:03.716Z</time>
      </trkpt>
      <trkpt lat="44.03281" lon="3.49005">
        <ele>1357</ele>
        <time>2021-06-27T13:12:18.721Z</time>
      </trkpt>
      <trkpt lat="44.03268" lon="3.48999">
        <ele>1357</ele>
        <time>2021-06-27T13:12:23.711Z</time>
      </trkpt>
      <trkpt lat="44.03257" lon="3.48992">
        <ele>1360</ele>
        <time>2021-06-27T13:12:28.714Z</time>
      </trkpt>
      <trkpt lat="44.03249" lon="3.4899">
        <ele>1360</ele>
        <time>2021-06-27T13:12:33.722Z</time>
      </trkpt>
      <trkpt lat="44.03246" lon="3.48989">
        <ele>1360</ele>
        <time>2021-06-27T13:12:38.721Z</time>
      </trkpt>
      <trkpt lat="44.03242" lon="3.48989">
        <ele>1360</ele>
        <time>2021-06-27T13:12:43.717Z</time>
      </trkpt>
      <trkpt lat="44.03239" lon="3.48986">
        <ele>1360</ele>
        <time>2021-06-27T13:12:53.720Z</time>
      </trkpt>
      <trkpt lat="44.03233" lon="3.48981">
        <ele>1356</ele>
        <time>2021-06-27T13:12:58.727Z</time>
      </trkpt>
      <trkpt lat="44.03228" lon="3.48975">
        <ele>1356</ele>
        <time>2021-06-27T13:13:03.713Z</time>
      </trkpt>
      <trkpt lat="44.03223" lon="3.48967">
        <ele>1356</ele>
        <time>2021-06-27T13:13:08.721Z</time>
      </trkpt>
      <trkpt lat="44.0322" lon="3.48963">
        <ele>1356</ele>
        <time>2021-06-27T13:13:13.724Z</time>
      </trkpt>
      <trkpt lat="44.03214" lon="3.48961">
        <ele>1356</ele>
        <time>2021-06-27T13:13:18.723Z</time>
      </trkpt>
      <trkpt lat="44.03212" lon="3.48959">
        <ele>1356</ele>
        <time>2021-06-27T13:13:23.724Z</time>
      </trkpt>
      <trkpt lat="44.03207" lon="3.48955">
        <ele>1353</ele>
        <time>2021-06-27T13:13:28.725Z</time>
      </trkpt>
      <trkpt lat="44.03204" lon="3.48949">
        <ele>1353</ele>
        <time>2021-06-27T13:13:33.714Z</time>
      </trkpt>
      <trkpt lat="44.032" lon="3.48944">
        <ele>1353</ele>
        <time>2021-06-27T13:13:38.721Z</time>
      </trkpt>
      <trkpt lat="44.03198" lon="3.48938">
        <ele>1353</ele>
        <time>2021-06-27T13:13:43.714Z</time>
      </trkpt>
      <trkpt lat="44.03196" lon="3.48932">
        <ele>1353</ele>
        <time>2021-06-27T13:13:48.717Z</time>
      </trkpt>
      <trkpt lat="44.03194" lon="3.48927">
        <ele>1350</ele>
        <time>2021-06-27T13:13:53.726Z</time>
      </trkpt>
      <trkpt lat="44.03192" lon="3.4892">
        <ele>1350</ele>
        <time>2021-06-27T13:13:58.716Z</time>
      </trkpt>
      <trkpt lat="44.0319" lon="3.48913">
        <ele>1350</ele>
        <time>2021-06-27T13:14:03.720Z</time>
      </trkpt>
      <trkpt lat="44.03186" lon="3.48908">
        <ele>1350</ele>
        <time>2021-06-27T13:14:08.717Z</time>
      </trkpt>
      <trkpt lat="44.03182" lon="3.48904">
        <ele>1350</ele>
        <time>2021-06-27T13:14:13.699Z</time>
      </trkpt>
      <trkpt lat="44.03176" lon="3.489">
        <ele>1348</ele>
        <time>2021-06-27T13:14:18.695Z</time>
      </trkpt>
      <trkpt lat="44.0317" lon="3.489">
        <ele>1348</ele>
        <time>2021-06-27T13:14:23.737Z</time>
      </trkpt>
      <trkpt lat="44.03165" lon="3.48899">
        <ele>1348</ele>
        <time>2021-06-27T13:14:28.722Z</time>
      </trkpt>
      <trkpt lat="44.03159" lon="3.48898">
        <ele>1348</ele>
        <time>2021-06-27T13:14:33.711Z</time>
      </trkpt>
      <trkpt lat="44.03154" lon="3.48899">
        <ele>1348</ele>
        <time>2021-06-27T13:14:38.713Z</time>
      </trkpt>
      <trkpt lat="44.03147" lon="3.489">
        <ele>1348</ele>
        <time>2021-06-27T13:14:43.721Z</time>
      </trkpt>
      <trkpt lat="44.03141" lon="3.48901">
        <ele>1348</ele>
        <time>2021-06-27T13:14:48.692Z</time>
      </trkpt>
      <trkpt lat="44.03138" lon="3.48902">
        <ele>1348</ele>
        <time>2021-06-27T13:14:52.713Z</time>
      </trkpt>
      <trkpt lat="44.03134" lon="3.48903">
        <ele>1353</ele>
        <time>2021-06-27T13:14:57.697Z</time>
      </trkpt>
      <trkpt lat="44.03132" lon="3.48902">
        <ele>1348</ele>
        <time>2021-06-27T13:15:11.720Z</time>
      </trkpt>
      <trkpt lat="44.03132" lon="3.48902">
        <ele>1348</ele>
        <time>2021-06-27T13:15:16.710Z</time>
      </trkpt>
      <trkpt lat="44.03129" lon="3.48898">
        <ele>1348</ele>
        <time>2021-06-27T13:15:20.723Z</time>
      </trkpt>
      <trkpt lat="44.03127" lon="3.48895">
        <ele>1348</ele>
        <time>2021-06-27T13:15:25.723Z</time>
      </trkpt>
      <trkpt lat="44.03124" lon="3.48891">
        <ele>1347</ele>
        <time>2021-06-27T13:15:30.719Z</time>
      </trkpt>
      <trkpt lat="44.03122" lon="3.48888">
        <ele>1347</ele>
        <time>2021-06-27T13:15:35.698Z</time>
      </trkpt>
      <trkpt lat="44.0312" lon="3.48886">
        <ele>1347</ele>
        <time>2021-06-27T13:15:39.715Z</time>
      </trkpt>
      <trkpt lat="44.03118" lon="3.48884">
        <ele>1347</ele>
        <time>2021-06-27T13:15:43.724Z</time>
      </trkpt>
      <trkpt lat="44.03112" lon="3.4888">
        <ele>1347</ele>
        <time>2021-06-27T13:15:48.718Z</time>
      </trkpt>
      <trkpt lat="44.03106" lon="3.48876">
        <ele>1347</ele>
        <time>2021-06-27T13:15:53.724Z</time>
      </trkpt>
      <trkpt lat="44.031" lon="3.48875">
        <ele>1347</ele>
        <time>2021-06-27T13:15:58.721Z</time>
      </trkpt>
      <trkpt lat="44.03094" lon="3.48872">
        <ele>1341</ele>
        <time>2021-06-27T13:16:03.723Z</time>
      </trkpt>
      <trkpt lat="44.03089" lon="3.48867">
        <ele>1341</ele>
        <time>2021-06-27T13:16:08.714Z</time>
      </trkpt>
      <trkpt lat="44.03087" lon="3.48863">
        <ele>1341</ele>
        <time>2021-06-27T13:16:13.718Z</time>
      </trkpt>
      <trkpt lat="44.03086" lon="3.48861">
        <ele>1341</ele>
        <time>2021-06-27T13:16:18.722Z</time>
      </trkpt>
      <trkpt lat="44.03082" lon="3.48858">
        <ele>1341</ele>
        <time>2021-06-27T13:16:23.721Z</time>
      </trkpt>
      <trkpt lat="44.0308" lon="3.48858">
        <ele>1341</ele>
        <time>2021-06-27T13:16:28.727Z</time>
      </trkpt>
      <trkpt lat="44.03078" lon="3.48855">
        <ele>1341</ele>
        <time>2021-06-27T13:16:33.724Z</time>
      </trkpt>
      <trkpt lat="44.03078" lon="3.48853">
        <ele>1341</ele>
        <time>2021-06-27T13:16:38.720Z</time>
      </trkpt>
      <trkpt lat="44.03079" lon="3.48849">
        <ele>1341</ele>
        <time>2021-06-27T13:16:43.724Z</time>
      </trkpt>
      <trkpt lat="44.03071" lon="3.4884">
        <ele>1338</ele>
        <time>2021-06-27T13:16:48.694Z</time>
      </trkpt>
      <trkpt lat="44.03069" lon="3.48836">
        <ele>1338</ele>
        <time>2021-06-27T13:16:53.715Z</time>
      </trkpt>
      <trkpt lat="44.03061" lon="3.4883">
        <ele>1338</ele>
        <time>2021-06-27T13:17:03.718Z</time>
      </trkpt>
      <trkpt lat="44.03054" lon="3.4882">
        <ele>1338</ele>
        <time>2021-06-27T13:17:18.697Z</time>
      </trkpt>
      <trkpt lat="44.03048" lon="3.48817">
        <ele>1337</ele>
        <time>2021-06-27T13:17:23.720Z</time>
      </trkpt>
      <trkpt lat="44.03043" lon="3.48814">
        <ele>1337</ele>
        <time>2021-06-27T13:17:28.716Z</time>
      </trkpt>
      <trkpt lat="44.03039" lon="3.48811">
        <ele>1336</ele>
        <time>2021-06-27T13:17:43.713Z</time>
      </trkpt>
      <trkpt lat="44.03037" lon="3.48806">
        <ele>1336</ele>
        <time>2021-06-27T13:17:48.720Z</time>
      </trkpt>
      <trkpt lat="44.03033" lon="3.48799">
        <ele>1336</ele>
        <time>2021-06-27T13:17:52.716Z</time>
      </trkpt>
      <trkpt lat="44.03028" lon="3.4879">
        <ele>1334</ele>
        <time>2021-06-27T13:17:57.697Z</time>
      </trkpt>
      <trkpt lat="44.03022" lon="3.48786">
        <ele>1334</ele>
        <time>2021-06-27T13:18:01.722Z</time>
      </trkpt>
      <trkpt lat="44.03019" lon="3.48782">
        <ele>1334</ele>
        <time>2021-06-27T13:18:06.694Z</time>
      </trkpt>
      <trkpt lat="44.03012" lon="3.48776">
        <ele>1332</ele>
        <time>2021-06-27T13:18:10.714Z</time>
      </trkpt>
      <trkpt lat="44.03008" lon="3.48775">
        <ele>1332</ele>
        <time>2021-06-27T13:18:14.723Z</time>
      </trkpt>
      <trkpt lat="44.03003" lon="3.4877">
        <ele>1332</ele>
        <time>2021-06-27T13:18:28.725Z</time>
      </trkpt>
      <trkpt lat="44.02999" lon="3.48769">
        <ele>1332</ele>
        <time>2021-06-27T13:18:33.722Z</time>
      </trkpt>
      <trkpt lat="44.02995" lon="3.48764">
        <ele>1332</ele>
        <time>2021-06-27T13:18:38.725Z</time>
      </trkpt>
      <trkpt lat="44.02989" lon="3.48759">
        <ele>1330</ele>
        <time>2021-06-27T13:18:43.724Z</time>
      </trkpt>
      <trkpt lat="44.02984" lon="3.48756">
        <ele>1329</ele>
        <time>2021-06-27T13:18:48.719Z</time>
      </trkpt>
      <trkpt lat="44.02981" lon="3.48752">
        <ele>1329</ele>
        <time>2021-06-27T13:18:57.710Z</time>
      </trkpt>
      <trkpt lat="44.0297" lon="3.48744">
        <ele>1329</ele>
        <time>2021-06-27T13:19:01.723Z</time>
      </trkpt>
      <trkpt lat="44.02964" lon="3.48739">
        <ele>1329</ele>
        <time>2021-06-27T13:19:06.718Z</time>
      </trkpt>
      <trkpt lat="44.0296" lon="3.48733">
        <ele>1326</ele>
        <time>2021-06-27T13:19:26.718Z</time>
      </trkpt>
      <trkpt lat="44.02958" lon="3.48729">
        <ele>1320</ele>
        <time>2021-06-27T13:19:30.741Z</time>
      </trkpt>
      <trkpt lat="44.02957" lon="3.48728">
        <ele>1320</ele>
        <time>2021-06-27T13:19:35.721Z</time>
      </trkpt>
      <trkpt lat="44.02954" lon="3.48722">
        <ele>1320</ele>
        <time>2021-06-27T13:19:40.723Z</time>
      </trkpt>
      <trkpt lat="44.02953" lon="3.4872">
        <ele>1320</ele>
        <time>2021-06-27T13:19:44.719Z</time>
      </trkpt>
      <trkpt lat="44.02954" lon="3.48713">
        <ele>1320</ele>
        <time>2021-06-27T13:19:49.715Z</time>
      </trkpt>
      <trkpt lat="44.02953" lon="3.48711">
        <ele>1320</ele>
        <time>2021-06-27T13:19:54.722Z</time>
      </trkpt>
      <trkpt lat="44.0295" lon="3.48703">
        <ele>1315</ele>
        <time>2021-06-27T13:19:59.722Z</time>
      </trkpt>
      <trkpt lat="44.02948" lon="3.48696">
        <ele>1315</ele>
        <time>2021-06-27T13:20:04.719Z</time>
      </trkpt>
      <trkpt lat="44.02947" lon="3.48689">
        <ele>1315</ele>
        <time>2021-06-27T13:20:08.744Z</time>
      </trkpt>
      <trkpt lat="44.02946" lon="3.4868">
        <ele>1313</ele>
        <time>2021-06-27T13:20:13.725Z</time>
      </trkpt>
      <trkpt lat="44.02948" lon="3.48673">
        <ele>1313</ele>
        <time>2021-06-27T13:20:18.715Z</time>
      </trkpt>
      <trkpt lat="44.0295" lon="3.48669">
        <ele>1313</ele>
        <time>2021-06-27T13:20:23.725Z</time>
      </trkpt>
      <trkpt lat="44.02949" lon="3.48664">
        <ele>1313</ele>
        <time>2021-06-27T13:20:28.715Z</time>
      </trkpt>
      <trkpt lat="44.02947" lon="3.4866">
        <ele>1313</ele>
        <time>2021-06-27T13:20:33.725Z</time>
      </trkpt>
      <trkpt lat="44.02949" lon="3.48658">
        <ele>1313</ele>
        <time>2021-06-27T13:20:38.722Z</time>
      </trkpt>
      <trkpt lat="44.02952" lon="3.48653">
        <ele>1313</ele>
        <time>2021-06-27T13:20:43.717Z</time>
      </trkpt>
      <trkpt lat="44.02956" lon="3.48646">
        <ele>1311</ele>
        <time>2021-06-27T13:20:48.717Z</time>
      </trkpt>
      <trkpt lat="44.0296" lon="3.4864">
        <ele>1313</ele>
        <time>2021-06-27T13:20:53.718Z</time>
      </trkpt>
      <trkpt lat="44.02962" lon="3.48634">
        <ele>1313</ele>
        <time>2021-06-27T13:20:58.717Z</time>
      </trkpt>
      <trkpt lat="44.02964" lon="3.48631">
        <ele>1313</ele>
        <time>2021-06-27T13:21:03.736Z</time>
      </trkpt>
      <trkpt lat="44.02966" lon="3.48626">
        <ele>1313</ele>
        <time>2021-06-27T13:21:08.720Z</time>
      </trkpt>
      <trkpt lat="44.02971" lon="3.48621">
        <ele>1310</ele>
        <time>2021-06-27T13:21:13.720Z</time>
      </trkpt>
      <trkpt lat="44.02976" lon="3.48615">
        <ele>1310</ele>
        <time>2021-06-27T13:21:18.718Z</time>
      </trkpt>
      <trkpt lat="44.02974" lon="3.48609">
        <ele>1310</ele>
        <time>2021-06-27T13:21:23.717Z</time>
      </trkpt>
      <trkpt lat="44.02974" lon="3.48607">
        <ele>1310</ele>
        <time>2021-06-27T13:21:28.722Z</time>
      </trkpt>
      <trkpt lat="44.02972" lon="3.48603">
        <ele>1310</ele>
        <time>2021-06-27T13:21:33.723Z</time>
      </trkpt>
      <trkpt lat="44.02968" lon="3.4859">
        <ele>1309</ele>
        <time>2021-06-27T13:21:38.721Z</time>
      </trkpt>
      <trkpt lat="44.02966" lon="3.4858">
        <ele>1309</ele>
        <time>2021-06-27T13:21:43.724Z</time>
      </trkpt>
      <trkpt lat="44.02961" lon="3.48573">
        <ele>1309</ele>
        <time>2021-06-27T13:21:48.743Z</time>
      </trkpt>
      <trkpt lat="44.02956" lon="3.48569">
        <ele>1307</ele>
        <time>2021-06-27T13:21:53.724Z</time>
      </trkpt>
      <trkpt lat="44.02957" lon="3.48561">
        <ele>1307</ele>
        <time>2021-06-27T13:21:58.721Z</time>
      </trkpt>
      <trkpt lat="44.02957" lon="3.48555">
        <ele>1307</ele>
        <time>2021-06-27T13:22:03.721Z</time>
      </trkpt>
      <trkpt lat="44.02956" lon="3.48552">
        <ele>1307</ele>
        <time>2021-06-27T13:22:08.725Z</time>
      </trkpt>
      <trkpt lat="44.02953" lon="3.48547">
        <ele>1307</ele>
        <time>2021-06-27T13:22:13.724Z</time>
      </trkpt>
      <trkpt lat="44.02949" lon="3.48543">
        <ele>1307</ele>
        <time>2021-06-27T13:22:18.724Z</time>
      </trkpt>
      <trkpt lat="44.02945" lon="3.48539">
        <ele>1306</ele>
        <time>2021-06-27T13:22:23.695Z</time>
      </trkpt>
      <trkpt lat="44.02941" lon="3.48532">
        <ele>1306</ele>
        <time>2021-06-27T13:22:28.721Z</time>
      </trkpt>
      <trkpt lat="44.02941" lon="3.48529">
        <ele>1306</ele>
        <time>2021-06-27T13:22:33.713Z</time>
      </trkpt>
      <trkpt lat="44.02941" lon="3.48529">
        <ele>1306</ele>
        <time>2021-06-27T13:22:38.718Z</time>
      </trkpt>
      <trkpt lat="44.02933" lon="3.48531">
        <ele>1306</ele>
        <time>2021-06-27T13:23:33.712Z</time>
      </trkpt>
      <trkpt lat="44.02931" lon="3.48532">
        <ele>1306</ele>
        <time>2021-06-27T13:23:38.718Z</time>
      </trkpt>
      <trkpt lat="44.02929" lon="3.48533">
        <ele>1307</ele>
        <time>2021-06-27T13:23:48.700Z</time>
      </trkpt>
      <trkpt lat="44.02924" lon="3.48535">
        <ele>1307</ele>
        <time>2021-06-27T13:23:58.697Z</time>
      </trkpt>
      <trkpt lat="44.02921" lon="3.48535">
        <ele>1307</ele>
        <time>2021-06-27T13:24:03.701Z</time>
      </trkpt>
      <trkpt lat="44.02917" lon="3.48533">
        <ele>1307</ele>
        <time>2021-06-27T13:24:07.716Z</time>
      </trkpt>
      <trkpt lat="44.02916" lon="3.4853">
        <ele>1307</ele>
        <time>2021-06-27T13:24:11.724Z</time>
      </trkpt>
      <trkpt lat="44.02914" lon="3.48529">
        <ele>1307</ele>
        <time>2021-06-27T13:24:21.697Z</time>
      </trkpt>
      <trkpt lat="44.02906" lon="3.48526">
        <ele>1307</ele>
        <time>2021-06-27T13:24:26.702Z</time>
      </trkpt>
      <trkpt lat="44.02903" lon="3.48527">
        <ele>1308</ele>
        <time>2021-06-27T13:24:34.717Z</time>
      </trkpt>
      <trkpt lat="44.02886" lon="3.48523">
        <ele>1308</ele>
        <time>2021-06-27T13:24:44.727Z</time>
      </trkpt>
      <trkpt lat="44.02885" lon="3.48519">
        <ele>1308</ele>
        <time>2021-06-27T13:24:49.717Z</time>
      </trkpt>
      <trkpt lat="44.02884" lon="3.48517">
        <ele>1308</ele>
        <time>2021-06-27T13:24:54.716Z</time>
      </trkpt>
      <trkpt lat="44.02883" lon="3.48516">
        <ele>1308</ele>
        <time>2021-06-27T13:24:59.745Z</time>
      </trkpt>
      <trkpt lat="44.02877" lon="3.48511">
        <ele>1311</ele>
        <time>2021-06-27T13:25:04.723Z</time>
      </trkpt>
      <trkpt lat="44.02872" lon="3.48507">
        <ele>1309</ele>
        <time>2021-06-27T13:25:09.718Z</time>
      </trkpt>
      <trkpt lat="44.02863" lon="3.48503">
        <ele>1309</ele>
        <time>2021-06-27T13:25:14.719Z</time>
      </trkpt>
      <trkpt lat="44.02855" lon="3.485">
        <ele>1309</ele>
        <time>2021-06-27T13:25:18.720Z</time>
      </trkpt>
      <trkpt lat="44.02851" lon="3.48498">
        <ele>1309</ele>
        <time>2021-06-27T13:25:23.729Z</time>
      </trkpt>
      <trkpt lat="44.02847" lon="3.48494">
        <ele>1309</ele>
        <time>2021-06-27T13:25:28.698Z</time>
      </trkpt>
      <trkpt lat="44.02843" lon="3.48493">
        <ele>1305</ele>
        <time>2021-06-27T13:25:32.717Z</time>
      </trkpt>
      <trkpt lat="44.02841" lon="3.48491">
        <ele>1305</ele>
        <time>2021-06-27T13:25:36.721Z</time>
      </trkpt>
      <trkpt lat="44.02837" lon="3.48487">
        <ele>1305</ele>
        <time>2021-06-27T13:25:41.726Z</time>
      </trkpt>
      <trkpt lat="44.02833" lon="3.48484">
        <ele>1310</ele>
        <time>2021-06-27T13:25:46.710Z</time>
      </trkpt>
      <trkpt lat="44.02829" lon="3.48481">
        <ele>1310</ele>
        <time>2021-06-27T13:25:50.746Z</time>
      </trkpt>
      <trkpt lat="44.02823" lon="3.48476">
        <ele>1310</ele>
        <time>2021-06-27T13:25:55.714Z</time>
      </trkpt>
      <trkpt lat="44.02818" lon="3.48473">
        <ele>1303</ele>
        <time>2021-06-27T13:25:59.725Z</time>
      </trkpt>
      <trkpt lat="44.02813" lon="3.48467">
        <ele>1303</ele>
        <time>2021-06-27T13:26:04.723Z</time>
      </trkpt>
      <trkpt lat="44.02811" lon="3.48461">
        <ele>1303</ele>
        <time>2021-06-27T13:26:09.720Z</time>
      </trkpt>
      <trkpt lat="44.02806" lon="3.48455">
        <ele>1308</ele>
        <time>2021-06-27T13:26:14.711Z</time>
      </trkpt>
      <trkpt lat="44.028" lon="3.48451">
        <ele>1308</ele>
        <time>2021-06-27T13:26:19.722Z</time>
      </trkpt>
      <trkpt lat="44.02794" lon="3.48446">
        <ele>1308</ele>
        <time>2021-06-27T13:26:24.726Z</time>
      </trkpt>
      <trkpt lat="44.0279" lon="3.48441">
        <ele>1303</ele>
        <time>2021-06-27T13:26:29.713Z</time>
      </trkpt>
      <trkpt lat="44.02785" lon="3.48437">
        <ele>1303</ele>
        <time>2021-06-27T13:26:34.725Z</time>
      </trkpt>
      <trkpt lat="44.02781" lon="3.48433">
        <ele>1303</ele>
        <time>2021-06-27T13:26:39.723Z</time>
      </trkpt>
      <trkpt lat="44.02776" lon="3.4843">
        <ele>1308</ele>
        <time>2021-06-27T13:26:44.716Z</time>
      </trkpt>
      <trkpt lat="44.02774" lon="3.48429">
        <ele>1308</ele>
        <time>2021-06-27T13:26:49.724Z</time>
      </trkpt>
      <trkpt lat="44.02771" lon="3.48426">
        <ele>1308</ele>
        <time>2021-06-27T13:26:54.715Z</time>
      </trkpt>
      <trkpt lat="44.02767" lon="3.48421">
        <ele>1308</ele>
        <time>2021-06-27T13:26:59.717Z</time>
      </trkpt>
      <trkpt lat="44.02766" lon="3.48418">
        <ele>1308</ele>
        <time>2021-06-27T13:27:03.723Z</time>
      </trkpt>
      <trkpt lat="44.02763" lon="3.48413">
        <ele>1304</ele>
        <time>2021-06-27T13:27:08.724Z</time>
      </trkpt>
      <trkpt lat="44.02759" lon="3.48408">
        <ele>1304</ele>
        <time>2021-06-27T13:27:13.717Z</time>
      </trkpt>
      <trkpt lat="44.02754" lon="3.48402">
        <ele>1307</ele>
        <time>2021-06-27T13:27:18.716Z</time>
      </trkpt>
      <trkpt lat="44.02749" lon="3.484">
        <ele>1307</ele>
        <time>2021-06-27T13:27:23.709Z</time>
      </trkpt>
      <trkpt lat="44.02744" lon="3.48396">
        <ele>1307</ele>
        <time>2021-06-27T13:27:28.719Z</time>
      </trkpt>
      <trkpt lat="44.02741" lon="3.4839">
        <ele>1307</ele>
        <time>2021-06-27T13:27:33.720Z</time>
      </trkpt>
      <trkpt lat="44.02738" lon="3.48385">
        <ele>1307</ele>
        <time>2021-06-27T13:27:38.728Z</time>
      </trkpt>
      <trkpt lat="44.02738" lon="3.4838">
        <ele>1307</ele>
        <time>2021-06-27T13:27:43.731Z</time>
      </trkpt>
      <trkpt lat="44.02737" lon="3.48374">
        <ele>1308</ele>
        <time>2021-06-27T13:27:48.722Z</time>
      </trkpt>
      <trkpt lat="44.02737" lon="3.48367">
        <ele>1308</ele>
        <time>2021-06-27T13:27:53.721Z</time>
      </trkpt>
      <trkpt lat="44.02738" lon="3.48364">
        <ele>1308</ele>
        <time>2021-06-27T13:27:58.712Z</time>
      </trkpt>
      <trkpt lat="44.02736" lon="3.4836">
        <ele>1308</ele>
        <time>2021-06-27T13:28:03.729Z</time>
      </trkpt>
      <trkpt lat="44.02736" lon="3.4836">
        <ele>1300</ele>
        <time>2021-06-27T13:28:08.723Z</time>
      </trkpt>
      <trkpt lat="44.02736" lon="3.48353">
        <ele>1308</ele>
        <time>2021-06-27T13:28:18.724Z</time>
      </trkpt>
      <trkpt lat="44.02735" lon="3.48338">
        <ele>1301</ele>
        <time>2021-06-27T13:28:23.722Z</time>
      </trkpt>
      <trkpt lat="44.02733" lon="3.48329">
        <ele>1301</ele>
        <time>2021-06-27T13:28:28.720Z</time>
      </trkpt>
      <trkpt lat="44.0273" lon="3.48318">
        <ele>1300</ele>
        <time>2021-06-27T13:28:33.729Z</time>
      </trkpt>
      <trkpt lat="44.02728" lon="3.48308">
        <ele>1300</ele>
        <time>2021-06-27T13:28:38.721Z</time>
      </trkpt>
      <trkpt lat="44.02726" lon="3.48302">
        <ele>1300</ele>
        <time>2021-06-27T13:28:43.723Z</time>
      </trkpt>
      <trkpt lat="44.02725" lon="3.48298">
        <ele>1300</ele>
        <time>2021-06-27T13:28:48.715Z</time>
      </trkpt>
      <trkpt lat="44.02723" lon="3.48289">
        <ele>1300</ele>
        <time>2021-06-27T13:28:53.728Z</time>
      </trkpt>
      <trkpt lat="44.02719" lon="3.48284">
        <ele>1300</ele>
        <time>2021-06-27T13:28:58.715Z</time>
      </trkpt>
      <trkpt lat="44.02714" lon="3.48278">
        <ele>1300</ele>
        <time>2021-06-27T13:29:03.720Z</time>
      </trkpt>
      <trkpt lat="44.0271" lon="3.48271">
        <ele>1300</ele>
        <time>2021-06-27T13:29:08.719Z</time>
      </trkpt>
      <trkpt lat="44.02706" lon="3.4826">
        <ele>1298</ele>
        <time>2021-06-27T13:29:13.722Z</time>
      </trkpt>
      <trkpt lat="44.027" lon="3.48255">
        <ele>1298</ele>
        <time>2021-06-27T13:29:18.722Z</time>
      </trkpt>
      <trkpt lat="44.02696" lon="3.48251">
        <ele>1298</ele>
        <time>2021-06-27T13:29:23.721Z</time>
      </trkpt>
      <trkpt lat="44.02696" lon="3.4825">
        <ele>1298</ele>
        <time>2021-06-27T13:29:28.719Z</time>
      </trkpt>
      <trkpt lat="44.02695" lon="3.48249">
        <ele>1298</ele>
        <time>2021-06-27T13:29:33.720Z</time>
      </trkpt>
      <trkpt lat="44.02693" lon="3.48247">
        <ele>1298</ele>
        <time>2021-06-27T13:29:38.716Z</time>
      </trkpt>
      <trkpt lat="44.02689" lon="3.48242">
        <ele>1298</ele>
        <time>2021-06-27T13:29:43.722Z</time>
      </trkpt>
      <trkpt lat="44.02679" lon="3.48231">
        <ele>1299</ele>
        <time>2021-06-27T13:29:48.722Z</time>
      </trkpt>
      <trkpt lat="44.02673" lon="3.48228">
        <ele>1299</ele>
        <time>2021-06-27T13:29:53.727Z</time>
      </trkpt>
      <trkpt lat="44.0267" lon="3.48227">
        <ele>1299</ele>
        <time>2021-06-27T13:29:58.725Z</time>
      </trkpt>
      <trkpt lat="44.02669" lon="3.48227">
        <ele>1299</ele>
        <time>2021-06-27T13:30:13.725Z</time>
      </trkpt>
      <trkpt lat="44.02667" lon="3.48226">
        <ele>1299</ele>
        <time>2021-06-27T13:30:18.711Z</time>
      </trkpt>
      <trkpt lat="44.02666" lon="3.48226">
        <ele>1299</ele>
        <time>2021-06-27T13:30:23.727Z</time>
      </trkpt>
      <trkpt lat="44.02664" lon="3.48224">
        <ele>1299</ele>
        <time>2021-06-27T13:30:28.728Z</time>
      </trkpt>
      <trkpt lat="44.02654" lon="3.48218">
        <ele>1299</ele>
        <time>2021-06-27T13:30:33.715Z</time>
      </trkpt>
      <trkpt lat="44.02642" lon="3.48214">
        <ele>1293</ele>
        <time>2021-06-27T13:30:38.711Z</time>
      </trkpt>
      <trkpt lat="44.02638" lon="3.48209">
        <ele>1293</ele>
        <time>2021-06-27T13:30:43.713Z</time>
      </trkpt>
      <trkpt lat="44.02635" lon="3.48204">
        <ele>1298</ele>
        <time>2021-06-27T13:30:48.725Z</time>
      </trkpt>
      <trkpt lat="44.02632" lon="3.48199">
        <ele>1298</ele>
        <time>2021-06-27T13:30:53.722Z</time>
      </trkpt>
      <trkpt lat="44.02631" lon="3.48199">
        <ele>1298</ele>
        <time>2021-06-27T13:30:58.713Z</time>
      </trkpt>
      <trkpt lat="44.02626" lon="3.48195">
        <ele>1298</ele>
        <time>2021-06-27T13:31:03.695Z</time>
      </trkpt>
      <trkpt lat="44.02622" lon="3.48191">
        <ele>1291</ele>
        <time>2021-06-27T13:31:07.699Z</time>
      </trkpt>
      <trkpt lat="44.02618" lon="3.48189">
        <ele>1291</ele>
        <time>2021-06-27T13:31:11.718Z</time>
      </trkpt>
      <trkpt lat="44.02615" lon="3.48185">
        <ele>1291</ele>
        <time>2021-06-27T13:31:16.717Z</time>
      </trkpt>
      <trkpt lat="44.02613" lon="3.48183">
        <ele>1291</ele>
        <time>2021-06-27T13:31:20.727Z</time>
      </trkpt>
      <trkpt lat="44.0261" lon="3.4818">
        <ele>1295</ele>
        <time>2021-06-27T13:31:25.731Z</time>
      </trkpt>
      <trkpt lat="44.02607" lon="3.48176">
        <ele>1295</ele>
        <time>2021-06-27T13:31:30.725Z</time>
      </trkpt>
      <trkpt lat="44.02603" lon="3.48171">
        <ele>1295</ele>
        <time>2021-06-27T13:31:35.720Z</time>
      </trkpt>
      <trkpt lat="44.02602" lon="3.48168">
        <ele>1295</ele>
        <time>2021-06-27T13:31:39.729Z</time>
      </trkpt>
      <trkpt lat="44.02598" lon="3.48162">
        <ele>1295</ele>
        <time>2021-06-27T13:31:44.722Z</time>
      </trkpt>
      <trkpt lat="44.02595" lon="3.48158">
        <ele>1289</ele>
        <time>2021-06-27T13:31:49.715Z</time>
      </trkpt>
      <trkpt lat="44.02594" lon="3.48149">
        <ele>1294</ele>
        <time>2021-06-27T13:31:54.717Z</time>
      </trkpt>
      <trkpt lat="44.02594" lon="3.48148">
        <ele>1294</ele>
        <time>2021-06-27T13:31:58.717Z</time>
      </trkpt>
      <trkpt lat="44.02579" lon="3.48145">
        <ele>1294</ele>
        <time>2021-06-27T13:32:08.719Z</time>
      </trkpt>
      <trkpt lat="44.02574" lon="3.48144">
        <ele>1294</ele>
        <time>2021-06-27T13:32:13.720Z</time>
      </trkpt>
      <trkpt lat="44.02567" lon="3.48144">
        <ele>1290</ele>
        <time>2021-06-27T13:32:18.712Z</time>
      </trkpt>
      <trkpt lat="44.0256" lon="3.48141">
        <ele>1290</ele>
        <time>2021-06-27T13:32:23.709Z</time>
      </trkpt>
      <trkpt lat="44.02553" lon="3.4814">
        <ele>1290</ele>
        <time>2021-06-27T13:32:28.709Z</time>
      </trkpt>
      <trkpt lat="44.02549" lon="3.48138">
        <ele>1290</ele>
        <time>2021-06-27T13:32:33.709Z</time>
      </trkpt>
      <trkpt lat="44.02544" lon="3.48136">
        <ele>1290</ele>
        <time>2021-06-27T13:32:38.720Z</time>
      </trkpt>
      <trkpt lat="44.02538" lon="3.48134">
        <ele>1287</ele>
        <time>2021-06-27T13:32:43.724Z</time>
      </trkpt>
      <trkpt lat="44.02529" lon="3.48129">
        <ele>1287</ele>
        <time>2021-06-27T13:32:48.697Z</time>
      </trkpt>
      <trkpt lat="44.02525" lon="3.48127">
        <ele>1287</ele>
        <time>2021-06-27T13:32:52.728Z</time>
      </trkpt>
      <trkpt lat="44.02522" lon="3.48126">
        <ele>1287</ele>
        <time>2021-06-27T13:32:57.727Z</time>
      </trkpt>
      <trkpt lat="44.02521" lon="3.48122">
        <ele>1292</ele>
        <time>2021-06-27T13:33:02.697Z</time>
      </trkpt>
      <trkpt lat="44.02521" lon="3.48118">
        <ele>1292</ele>
        <time>2021-06-27T13:33:06.710Z</time>
      </trkpt>
      <trkpt lat="44.0252" lon="3.48114">
        <ele>1292</ele>
        <time>2021-06-27T13:33:10.722Z</time>
      </trkpt>
      <trkpt lat="44.02519" lon="3.4811">
        <ele>1292</ele>
        <time>2021-06-27T13:33:14.742Z</time>
      </trkpt>
      <trkpt lat="44.02519" lon="3.4811">
        <ele>1292</ele>
        <time>2021-06-27T13:33:19.712Z</time>
      </trkpt>
      <trkpt lat="44.02517" lon="3.48106">
        <ele>1292</ele>
        <time>2021-06-27T13:33:29.709Z</time>
      </trkpt>
      <trkpt lat="44.02514" lon="3.48099">
        <ele>1292</ele>
        <time>2021-06-27T13:33:34.720Z</time>
      </trkpt>
      <trkpt lat="44.02517" lon="3.48093">
        <ele>1297</ele>
        <time>2021-06-27T13:33:53.712Z</time>
      </trkpt>
      <trkpt lat="44.02519" lon="3.48074">
        <ele>1297</ele>
        <time>2021-06-27T13:34:12.701Z</time>
      </trkpt>
      <trkpt lat="44.02515" lon="3.48078">
        <ele>1297</ele>
        <time>2021-06-27T13:34:17.697Z</time>
      </trkpt>
      <trkpt lat="44.02505" lon="3.48081">
        <ele>1290</ele>
        <time>2021-06-27T13:34:40.713Z</time>
      </trkpt>
      <trkpt lat="44.02503" lon="3.48079">
        <ele>1290</ele>
        <time>2021-06-27T13:34:45.730Z</time>
      </trkpt>
      <trkpt lat="44.02501" lon="3.48077">
        <ele>1290</ele>
        <time>2021-06-27T13:34:50.726Z</time>
      </trkpt>
      <trkpt lat="44.02497" lon="3.48076">
        <ele>1290</ele>
        <time>2021-06-27T13:34:55.699Z</time>
      </trkpt>
      <trkpt lat="44.02493" lon="3.48075">
        <ele>1290</ele>
        <time>2021-06-27T13:34:59.716Z</time>
      </trkpt>
      <trkpt lat="44.0249" lon="3.48073">
        <ele>1290</ele>
        <time>2021-06-27T13:35:03.728Z</time>
      </trkpt>
      <trkpt lat="44.02486" lon="3.48069">
        <ele>1291</ele>
        <time>2021-06-27T13:35:08.698Z</time>
      </trkpt>
      <trkpt lat="44.02483" lon="3.48065">
        <ele>1291</ele>
        <time>2021-06-27T13:35:17.711Z</time>
      </trkpt>
      <trkpt lat="44.02475" lon="3.4806">
        <ele>1291</ele>
        <time>2021-06-27T13:35:22.715Z</time>
      </trkpt>
      <trkpt lat="44.02468" lon="3.48055">
        <ele>1291</ele>
        <time>2021-06-27T13:35:27.698Z</time>
      </trkpt>
      <trkpt lat="44.02464" lon="3.48052">
        <ele>1291</ele>
        <time>2021-06-27T13:35:31.721Z</time>
      </trkpt>
      <trkpt lat="44.02459" lon="3.48048">
        <ele>1291</ele>
        <time>2021-06-27T13:35:35.744Z</time>
      </trkpt>
      <trkpt lat="44.02458" lon="3.48045">
        <ele>1287</ele>
        <time>2021-06-27T13:35:40.722Z</time>
      </trkpt>
      <trkpt lat="44.02457" lon="3.48045">
        <ele>1287</ele>
        <time>2021-06-27T13:35:45.724Z</time>
      </trkpt>
      <trkpt lat="44.02452" lon="3.48041">
        <ele>1293</ele>
        <time>2021-06-27T13:35:49.736Z</time>
      </trkpt>
      <trkpt lat="44.02448" lon="3.48037">
        <ele>1293</ele>
        <time>2021-06-27T13:35:54.723Z</time>
      </trkpt>
      <trkpt lat="44.02445" lon="3.48032">
        <ele>1293</ele>
        <time>2021-06-27T13:35:59.714Z</time>
      </trkpt>
      <trkpt lat="44.0244" lon="3.48031">
        <ele>1293</ele>
        <time>2021-06-27T13:36:04.722Z</time>
      </trkpt>
      <trkpt lat="44.02437" lon="3.48031">
        <ele>1293</ele>
        <time>2021-06-27T13:36:09.716Z</time>
      </trkpt>
      <trkpt lat="44.02433" lon="3.4803">
        <ele>1293</ele>
        <time>2021-06-27T13:36:24.726Z</time>
      </trkpt>
      <trkpt lat="44.02431" lon="3.4803">
        <ele>1293</ele>
        <time>2021-06-27T13:36:34.725Z</time>
      </trkpt>
      <trkpt lat="44.02428" lon="3.48031">
        <ele>1288</ele>
        <time>2021-06-27T13:36:39.720Z</time>
      </trkpt>
      <trkpt lat="44.02417" lon="3.48029">
        <ele>1288</ele>
        <time>2021-06-27T13:36:44.724Z</time>
      </trkpt>
      <trkpt lat="44.02411" lon="3.48029">
        <ele>1288</ele>
        <time>2021-06-27T13:36:49.712Z</time>
      </trkpt>
      <trkpt lat="44.02409" lon="3.48029">
        <ele>1288</ele>
        <time>2021-06-27T13:36:58.712Z</time>
      </trkpt>
      <trkpt lat="44.02406" lon="3.4803">
        <ele>1288</ele>
        <time>2021-06-27T13:37:03.714Z</time>
      </trkpt>
      <trkpt lat="44.02403" lon="3.48032">
        <ele>1288</ele>
        <time>2021-06-27T13:37:16.716Z</time>
      </trkpt>
      <trkpt lat="44.02397" lon="3.48032">
        <ele>1287</ele>
        <time>2021-06-27T13:37:21.712Z</time>
      </trkpt>
      <trkpt lat="44.02385" lon="3.48034">
        <ele>1287</ele>
        <time>2021-06-27T13:37:25.745Z</time>
      </trkpt>
      <trkpt lat="44.02373" lon="3.48039">
        <ele>1289</ele>
        <time>2021-06-27T13:37:30.753Z</time>
      </trkpt>
      <trkpt lat="44.02357" lon="3.48043">
        <ele>1280</ele>
        <time>2021-06-27T13:37:35.724Z</time>
      </trkpt>
      <trkpt lat="44.02342" lon="3.48049">
        <ele>1279</ele>
        <time>2021-06-27T13:37:40.717Z</time>
      </trkpt>
      <trkpt lat="44.02331" lon="3.48049">
        <ele>1279</ele>
        <time>2021-06-27T13:37:45.699Z</time>
      </trkpt>
      <trkpt lat="44.02328" lon="3.48052">
        <ele>1279</ele>
        <time>2021-06-27T13:37:58.723Z</time>
      </trkpt>
      <trkpt lat="44.02322" lon="3.48056">
        <ele>1279</ele>
        <time>2021-06-27T13:38:03.718Z</time>
      </trkpt>
      <trkpt lat="44.02316" lon="3.48058">
        <ele>1280</ele>
        <time>2021-06-27T13:38:08.718Z</time>
      </trkpt>
      <trkpt lat="44.02312" lon="3.48061">
        <ele>1280</ele>
        <time>2021-06-27T13:38:13.712Z</time>
      </trkpt>
      <trkpt lat="44.02311" lon="3.48061">
        <ele>1280</ele>
        <time>2021-06-27T13:38:18.710Z</time>
      </trkpt>
      <trkpt lat="44.02307" lon="3.48062">
        <ele>1280</ele>
        <time>2021-06-27T13:38:33.734Z</time>
      </trkpt>
      <trkpt lat="44.023" lon="3.48065">
        <ele>1280</ele>
        <time>2021-06-27T13:38:58.720Z</time>
      </trkpt>
      <trkpt lat="44.02298" lon="3.48067">
        <ele>1280</ele>
        <time>2021-06-27T13:39:03.723Z</time>
      </trkpt>
      <trkpt lat="44.02289" lon="3.48071">
        <ele>1277</ele>
        <time>2021-06-27T13:39:18.717Z</time>
      </trkpt>
      <trkpt lat="44.02276" lon="3.48078">
        <ele>1277</ele>
        <time>2021-06-27T13:39:23.717Z</time>
      </trkpt>
      <trkpt lat="44.02263" lon="3.48085">
        <ele>1281</ele>
        <time>2021-06-27T13:39:28.717Z</time>
      </trkpt>
      <trkpt lat="44.0226" lon="3.48085">
        <ele>1281</ele>
        <time>2021-06-27T13:39:38.710Z</time>
      </trkpt>
      <trkpt lat="44.02247" lon="3.48092">
        <ele>1281</ele>
        <time>2021-06-27T13:39:43.720Z</time>
      </trkpt>
      <trkpt lat="44.02232" lon="3.48098">
        <ele>1276</ele>
        <time>2021-06-27T13:39:52.720Z</time>
      </trkpt>
      <trkpt lat="44.02221" lon="3.48104">
        <ele>1276</ele>
        <time>2021-06-27T13:39:57.727Z</time>
      </trkpt>
      <trkpt lat="44.02218" lon="3.48103">
        <ele>1276</ele>
        <time>2021-06-27T13:40:02.720Z</time>
      </trkpt>
      <trkpt lat="44.0221" lon="3.48106">
        <ele>1276</ele>
        <time>2021-06-27T13:40:07.703Z</time>
      </trkpt>
      <trkpt lat="44.02205" lon="3.48107">
        <ele>1276</ele>
        <time>2021-06-27T13:40:11.782Z</time>
      </trkpt>
      <trkpt lat="44.022" lon="3.48111">
        <ele>1276</ele>
        <time>2021-06-27T13:40:20.720Z</time>
      </trkpt>
      <trkpt lat="44.02198" lon="3.48112">
        <ele>1276</ele>
        <time>2021-06-27T13:40:25.722Z</time>
      </trkpt>
      <trkpt lat="44.02193" lon="3.48115">
        <ele>1276</ele>
        <time>2021-06-27T13:40:34.714Z</time>
      </trkpt>
      <trkpt lat="44.0219" lon="3.48117">
        <ele>1276</ele>
        <time>2021-06-27T13:40:39.720Z</time>
      </trkpt>
      <trkpt lat="44.0218" lon="3.48122">
        <ele>1277</ele>
        <time>2021-06-27T13:40:44.710Z</time>
      </trkpt>
      <trkpt lat="44.02173" lon="3.48126">
        <ele>1267</ele>
        <time>2021-06-27T13:40:48.720Z</time>
      </trkpt>
      <trkpt lat="44.02166" lon="3.48128">
        <ele>1267</ele>
        <time>2021-06-27T13:40:53.699Z</time>
      </trkpt>
      <trkpt lat="44.02163" lon="3.48128">
        <ele>1267</ele>
        <time>2021-06-27T13:40:57.718Z</time>
      </trkpt>
      <trkpt lat="44.02159" lon="3.4813">
        <ele>1267</ele>
        <time>2021-06-27T13:41:02.710Z</time>
      </trkpt>
      <trkpt lat="44.02157" lon="3.4813">
        <ele>1267</ele>
        <time>2021-06-27T13:41:07.720Z</time>
      </trkpt>
      <trkpt lat="44.02153" lon="3.48131">
        <ele>1268</ele>
        <time>2021-06-27T13:41:11.724Z</time>
      </trkpt>
      <trkpt lat="44.02152" lon="3.48131">
        <ele>1268</ele>
        <time>2021-06-27T13:41:16.708Z</time>
      </trkpt>
      <trkpt lat="44.0215" lon="3.48131">
        <ele>1268</ele>
        <time>2021-06-27T13:41:25.721Z</time>
      </trkpt>
      <trkpt lat="44.02144" lon="3.48132">
        <ele>1268</ele>
        <time>2021-06-27T13:41:30.718Z</time>
      </trkpt>
      <trkpt lat="44.02136" lon="3.48137">
        <ele>1268</ele>
        <time>2021-06-27T13:41:40.718Z</time>
      </trkpt>
      <trkpt lat="44.02125" lon="3.4814">
        <ele>1268</ele>
        <time>2021-06-27T13:41:45.725Z</time>
      </trkpt>
      <trkpt lat="44.02122" lon="3.4814">
        <ele>1267</ele>
        <time>2021-06-27T13:41:50.720Z</time>
      </trkpt>
      <trkpt lat="44.02116" lon="3.48141">
        <ele>1267</ele>
        <time>2021-06-27T13:41:55.720Z</time>
      </trkpt>
      <trkpt lat="44.02113" lon="3.4814">
        <ele>1267</ele>
        <time>2021-06-27T13:42:00.729Z</time>
      </trkpt>
      <trkpt lat="44.02108" lon="3.48144">
        <ele>1267</ele>
        <time>2021-06-27T13:42:10.724Z</time>
      </trkpt>
      <trkpt lat="44.02101" lon="3.48147">
        <ele>1267</ele>
        <time>2021-06-27T13:42:15.728Z</time>
      </trkpt>
      <trkpt lat="44.02095" lon="3.48149">
        <ele>1267</ele>
        <time>2021-06-27T13:42:25.724Z</time>
      </trkpt>
      <trkpt lat="44.02091" lon="3.4815">
        <ele>1267</ele>
        <time>2021-06-27T13:42:30.724Z</time>
      </trkpt>
      <trkpt lat="44.02086" lon="3.48151">
        <ele>1267</ele>
        <time>2021-06-27T13:42:35.727Z</time>
      </trkpt>
      <trkpt lat="44.02079" lon="3.48153">
        <ele>1258</ele>
        <time>2021-06-27T13:42:40.719Z</time>
      </trkpt>
      <trkpt lat="44.02076" lon="3.48154">
        <ele>1258</ele>
        <time>2021-06-27T13:42:44.748Z</time>
      </trkpt>
      <trkpt lat="44.02069" lon="3.48154">
        <ele>1257</ele>
        <time>2021-06-27T13:43:13.721Z</time>
      </trkpt>
      <trkpt lat="44.02046" lon="3.48154">
        <ele>1257</ele>
        <time>2021-06-27T13:43:18.729Z</time>
      </trkpt>
      <trkpt lat="44.02032" lon="3.48154">
        <ele>1255</ele>
        <time>2021-06-27T13:43:23.722Z</time>
      </trkpt>
      <trkpt lat="44.02029" lon="3.48155">
        <ele>1255</ele>
        <time>2021-06-27T13:43:28.719Z</time>
      </trkpt>
      <trkpt lat="44.02025" lon="3.48155">
        <ele>1255</ele>
        <time>2021-06-27T13:44:50.704Z</time>
      </trkpt>
      <trkpt lat="44.02022" lon="3.48155">
        <ele>1255</ele>
        <time>2021-06-27T13:44:55.701Z</time>
      </trkpt>
      <trkpt lat="44.02009" lon="3.4816">
        <ele>1251</ele>
        <time>2021-06-27T13:45:00.701Z</time>
      </trkpt>
      <trkpt lat="44.02" lon="3.48157">
        <ele>1251</ele>
        <time>2021-06-27T13:45:05.706Z</time>
      </trkpt>
      <trkpt lat="44.01997" lon="3.48155">
        <ele>1251</ele>
        <time>2021-06-27T13:45:09.715Z</time>
      </trkpt>
      <trkpt lat="44.01993" lon="3.48152">
        <ele>1261</ele>
        <time>2021-06-27T13:45:13.721Z</time>
      </trkpt>
      <trkpt lat="44.0199" lon="3.48145">
        <ele>1261</ele>
        <time>2021-06-27T13:45:23.723Z</time>
      </trkpt>
      <trkpt lat="44.01987" lon="3.48142">
        <ele>1261</ele>
        <time>2021-06-27T13:45:27.723Z</time>
      </trkpt>
      <trkpt lat="44.01983" lon="3.48138">
        <ele>1257</ele>
        <time>2021-06-27T13:45:32.727Z</time>
      </trkpt>
      <trkpt lat="44.0198" lon="3.48134">
        <ele>1257</ele>
        <time>2021-06-27T13:45:37.711Z</time>
      </trkpt>
      <trkpt lat="44.01975" lon="3.4813">
        <ele>1257</ele>
        <time>2021-06-27T13:45:42.723Z</time>
      </trkpt>
      <trkpt lat="44.01973" lon="3.48129">
        <ele>1257</ele>
        <time>2021-06-27T13:45:47.698Z</time>
      </trkpt>
      <trkpt lat="44.0197" lon="3.48128">
        <ele>1257</ele>
        <time>2021-06-27T13:45:51.723Z</time>
      </trkpt>
      <trkpt lat="44.01969" lon="3.48128">
        <ele>1257</ele>
        <time>2021-06-27T13:45:56.715Z</time>
      </trkpt>
      <trkpt lat="44.01961" lon="3.48118">
        <ele>1265</ele>
        <time>2021-06-27T13:46:01.723Z</time>
      </trkpt>
      <trkpt lat="44.01955" lon="3.48117">
        <ele>1262</ele>
        <time>2021-06-27T13:46:06.714Z</time>
      </trkpt>
      <trkpt lat="44.01952" lon="3.48117">
        <ele>1262</ele>
        <time>2021-06-27T13:46:11.721Z</time>
      </trkpt>
      <trkpt lat="44.01949" lon="3.48117">
        <ele>1262</ele>
        <time>2021-06-27T13:46:25.721Z</time>
      </trkpt>
      <trkpt lat="44.01947" lon="3.48117">
        <ele>1262</ele>
        <time>2021-06-27T13:46:30.720Z</time>
      </trkpt>
      <trkpt lat="44.01938" lon="3.48119">
        <ele>1262</ele>
        <time>2021-06-27T13:46:35.722Z</time>
      </trkpt>
      <trkpt lat="44.01928" lon="3.4812">
        <ele>1258</ele>
        <time>2021-06-27T13:46:45.713Z</time>
      </trkpt>
      <trkpt lat="44.01916" lon="3.48123">
        <ele>1258</ele>
        <time>2021-06-27T13:46:50.719Z</time>
      </trkpt>
      <trkpt lat="44.01909" lon="3.48118">
        <ele>1258</ele>
        <time>2021-06-27T13:46:59.716Z</time>
      </trkpt>
      <trkpt lat="44.01903" lon="3.48114">
        <ele>1258</ele>
        <time>2021-06-27T13:47:04.717Z</time>
      </trkpt>
      <trkpt lat="44.01895" lon="3.48111">
        <ele>1255</ele>
        <time>2021-06-27T13:47:09.722Z</time>
      </trkpt>
      <trkpt lat="44.01892" lon="3.48109">
        <ele>1255</ele>
        <time>2021-06-27T13:47:14.720Z</time>
      </trkpt>
      <trkpt lat="44.01887" lon="3.48105">
        <ele>1255</ele>
        <time>2021-06-27T13:47:18.714Z</time>
      </trkpt>
      <trkpt lat="44.01883" lon="3.48099">
        <ele>1255</ele>
        <time>2021-06-27T13:47:23.703Z</time>
      </trkpt>
      <trkpt lat="44.0188" lon="3.48094">
        <ele>1259</ele>
        <time>2021-06-27T13:47:28.716Z</time>
      </trkpt>
      <trkpt lat="44.01876" lon="3.4809">
        <ele>1259</ele>
        <time>2021-06-27T13:47:33.722Z</time>
      </trkpt>
      <trkpt lat="44.01871" lon="3.48085">
        <ele>1255</ele>
        <time>2021-06-27T13:47:38.718Z</time>
      </trkpt>
      <trkpt lat="44.01866" lon="3.48082">
        <ele>1255</ele>
        <time>2021-06-27T13:47:42.723Z</time>
      </trkpt>
      <trkpt lat="44.01862" lon="3.48076">
        <ele>1255</ele>
        <time>2021-06-27T13:47:47.723Z</time>
      </trkpt>
      <trkpt lat="44.01857" lon="3.48073">
        <ele>1255</ele>
        <time>2021-06-27T13:47:52.724Z</time>
      </trkpt>
      <trkpt lat="44.01855" lon="3.4807">
        <ele>1255</ele>
        <time>2021-06-27T13:47:57.723Z</time>
      </trkpt>
      <trkpt lat="44.0185" lon="3.4807">
        <ele>1255</ele>
        <time>2021-06-27T13:48:16.730Z</time>
      </trkpt>
      <trkpt lat="44.01845" lon="3.4807">
        <ele>1248</ele>
        <time>2021-06-27T13:48:21.721Z</time>
      </trkpt>
      <trkpt lat="44.01839" lon="3.48067">
        <ele>1249</ele>
        <time>2021-06-27T13:48:26.714Z</time>
      </trkpt>
      <trkpt lat="44.01835" lon="3.48071">
        <ele>1248</ele>
        <time>2021-06-27T13:48:30.723Z</time>
      </trkpt>
      <trkpt lat="44.0183" lon="3.48075">
        <ele>1248</ele>
        <time>2021-06-27T13:48:34.723Z</time>
      </trkpt>
      <trkpt lat="44.01824" lon="3.4808">
        <ele>1248</ele>
        <time>2021-06-27T13:48:39.721Z</time>
      </trkpt>
      <trkpt lat="44.01819" lon="3.48083">
        <ele>1239</ele>
        <time>2021-06-27T13:48:44.721Z</time>
      </trkpt>
      <trkpt lat="44.01814" lon="3.48086">
        <ele>1239</ele>
        <time>2021-06-27T13:48:49.720Z</time>
      </trkpt>
      <trkpt lat="44.0181" lon="3.48087">
        <ele>1239</ele>
        <time>2021-06-27T13:48:54.720Z</time>
      </trkpt>
      <trkpt lat="44.0181" lon="3.48088">
        <ele>1239</ele>
        <time>2021-06-27T13:48:59.710Z</time>
      </trkpt>
      <trkpt lat="44.01808" lon="3.48088">
        <ele>1239</ele>
        <time>2021-06-27T13:49:09.710Z</time>
      </trkpt>
      <trkpt lat="44.01804" lon="3.48092">
        <ele>1239</ele>
        <time>2021-06-27T13:49:13.718Z</time>
      </trkpt>
      <trkpt lat="44.01801" lon="3.48096">
        <ele>1239</ele>
        <time>2021-06-27T13:49:18.719Z</time>
      </trkpt>
      <trkpt lat="44.01798" lon="3.48099">
        <ele>1240</ele>
        <time>2021-06-27T13:49:23.728Z</time>
      </trkpt>
      <trkpt lat="44.01797" lon="3.48103">
        <ele>1240</ele>
        <time>2021-06-27T13:49:27.750Z</time>
      </trkpt>
      <trkpt lat="44.01797" lon="3.48103">
        <ele>1240</ele>
        <time>2021-06-27T13:49:50.698Z</time>
      </trkpt>
      <trkpt lat="44.01797" lon="3.48104">
        <ele>1240</ele>
        <time>2021-06-27T13:49:55.730Z</time>
      </trkpt>
      <trkpt lat="44.01794" lon="3.48111">
        <ele>1240</ele>
        <time>2021-06-27T13:50:13.714Z</time>
      </trkpt>
      <trkpt lat="44.01795" lon="3.48113">
        <ele>1240</ele>
        <time>2021-06-27T13:50:18.703Z</time>
      </trkpt>
      <trkpt lat="44.01791" lon="3.48117">
        <ele>1235</ele>
        <time>2021-06-27T13:50:32.695Z</time>
      </trkpt>
      <trkpt lat="44.01789" lon="3.48118">
        <ele>1235</ele>
        <time>2021-06-27T13:50:36.722Z</time>
      </trkpt>
      <trkpt lat="44.01785" lon="3.4812">
        <ele>1235</ele>
        <time>2021-06-27T13:50:41.717Z</time>
      </trkpt>
      <trkpt lat="44.01782" lon="3.48125">
        <ele>1236</ele>
        <time>2021-06-27T13:50:46.722Z</time>
      </trkpt>
      <trkpt lat="44.01781" lon="3.4813">
        <ele>1236</ele>
        <time>2021-06-27T13:50:51.718Z</time>
      </trkpt>
      <trkpt lat="44.01781" lon="3.48134">
        <ele>1236</ele>
        <time>2021-06-27T13:50:56.718Z</time>
      </trkpt>
      <trkpt lat="44.01781" lon="3.48135">
        <ele>1236</ele>
        <time>2021-06-27T13:51:11.715Z</time>
      </trkpt>
      <trkpt lat="44.0178" lon="3.4814">
        <ele>1236</ele>
        <time>2021-06-27T13:51:16.714Z</time>
      </trkpt>
      <trkpt lat="44.0178" lon="3.48147">
        <ele>1236</ele>
        <time>2021-06-27T13:51:21.722Z</time>
      </trkpt>
      <trkpt lat="44.01781" lon="3.48154">
        <ele>1236</ele>
        <time>2021-06-27T13:51:26.731Z</time>
      </trkpt>
      <trkpt lat="44.01783" lon="3.48161">
        <ele>1236</ele>
        <time>2021-06-27T13:51:31.722Z</time>
      </trkpt>
      <trkpt lat="44.01785" lon="3.48164">
        <ele>1236</ele>
        <time>2021-06-27T13:51:36.729Z</time>
      </trkpt>
      <trkpt lat="44.01784" lon="3.48165">
        <ele>1236</ele>
        <time>2021-06-27T13:52:05.728Z</time>
      </trkpt>
      <trkpt lat="44.01784" lon="3.48165">
        <ele>1236</ele>
        <time>2021-06-27T13:52:10.717Z</time>
      </trkpt>
      <trkpt lat="44.01785" lon="3.48169">
        <ele>1236</ele>
        <time>2021-06-27T13:52:15.721Z</time>
      </trkpt>
      <trkpt lat="44.01788" lon="3.48173">
        <ele>1236</ele>
        <time>2021-06-27T13:52:20.731Z</time>
      </trkpt>
      <trkpt lat="44.0179" lon="3.48177">
        <ele>1236</ele>
        <time>2021-06-27T13:52:25.716Z</time>
      </trkpt>
      <trkpt lat="44.01792" lon="3.48181">
        <ele>1231</ele>
        <time>2021-06-27T13:52:29.723Z</time>
      </trkpt>
      <trkpt lat="44.01794" lon="3.48185">
        <ele>1231</ele>
        <time>2021-06-27T13:52:34.717Z</time>
      </trkpt>
      <trkpt lat="44.01795" lon="3.48187">
        <ele>1231</ele>
        <time>2021-06-27T13:52:39.715Z</time>
      </trkpt>
      <trkpt lat="44.01799" lon="3.48191">
        <ele>1231</ele>
        <time>2021-06-27T13:52:44.751Z</time>
      </trkpt>
      <trkpt lat="44.01801" lon="3.48194">
        <ele>1231</ele>
        <time>2021-06-27T13:52:49.705Z</time>
      </trkpt>
      <trkpt lat="44.01806" lon="3.48199">
        <ele>1231</ele>
        <time>2021-06-27T13:52:54.721Z</time>
      </trkpt>
      <trkpt lat="44.01808" lon="3.48203">
        <ele>1231</ele>
        <time>2021-06-27T13:52:58.740Z</time>
      </trkpt>
      <trkpt lat="44.01811" lon="3.48207">
        <ele>1231</ele>
        <time>2021-06-27T13:53:03.718Z</time>
      </trkpt>
      <trkpt lat="44.01812" lon="3.48211">
        <ele>1229</ele>
        <time>2021-06-27T13:53:08.714Z</time>
      </trkpt>
      <trkpt lat="44.01813" lon="3.48217">
        <ele>1229</ele>
        <time>2021-06-27T13:53:13.721Z</time>
      </trkpt>
      <trkpt lat="44.01814" lon="3.4822">
        <ele>1229</ele>
        <time>2021-06-27T13:53:18.723Z</time>
      </trkpt>
      <trkpt lat="44.01814" lon="3.48225">
        <ele>1229</ele>
        <time>2021-06-27T13:53:23.721Z</time>
      </trkpt>
      <trkpt lat="44.01815" lon="3.48231">
        <ele>1229</ele>
        <time>2021-06-27T13:53:28.722Z</time>
      </trkpt>
      <trkpt lat="44.01815" lon="3.48236">
        <ele>1229</ele>
        <time>2021-06-27T13:53:33.718Z</time>
      </trkpt>
      <trkpt lat="44.01816" lon="3.48241">
        <ele>1226</ele>
        <time>2021-06-27T13:53:38.726Z</time>
      </trkpt>
      <trkpt lat="44.01817" lon="3.48245">
        <ele>1226</ele>
        <time>2021-06-27T13:53:43.713Z</time>
      </trkpt>
      <trkpt lat="44.01817" lon="3.4825">
        <ele>1226</ele>
        <time>2021-06-27T13:53:47.716Z</time>
      </trkpt>
      <trkpt lat="44.01818" lon="3.48254">
        <ele>1226</ele>
        <time>2021-06-27T13:53:51.725Z</time>
      </trkpt>
      <trkpt lat="44.01818" lon="3.48258">
        <ele>1226</ele>
        <time>2021-06-27T13:53:56.716Z</time>
      </trkpt>
      <trkpt lat="44.01817" lon="3.48261">
        <ele>1226</ele>
        <time>2021-06-27T13:54:00.725Z</time>
      </trkpt>
      <trkpt lat="44.01816" lon="3.48268">
        <ele>1221</ele>
        <time>2021-06-27T13:54:05.716Z</time>
      </trkpt>
      <trkpt lat="44.01815" lon="3.48273">
        <ele>1221</ele>
        <time>2021-06-27T13:54:09.728Z</time>
      </trkpt>
      <trkpt lat="44.01813" lon="3.48277">
        <ele>1221</ele>
        <time>2021-06-27T13:54:14.716Z</time>
      </trkpt>
      <trkpt lat="44.01812" lon="3.48281">
        <ele>1221</ele>
        <time>2021-06-27T13:54:18.726Z</time>
      </trkpt>
      <trkpt lat="44.01811" lon="3.48285">
        <ele>1221</ele>
        <time>2021-06-27T13:54:23.718Z</time>
      </trkpt>
      <trkpt lat="44.01809" lon="3.48291">
        <ele>1221</ele>
        <time>2021-06-27T13:54:28.725Z</time>
      </trkpt>
      <trkpt lat="44.01808" lon="3.48296">
        <ele>1214</ele>
        <time>2021-06-27T13:54:33.720Z</time>
      </trkpt>
      <trkpt lat="44.01806" lon="3.48299">
        <ele>1214</ele>
        <time>2021-06-27T13:54:38.732Z</time>
      </trkpt>
      <trkpt lat="44.01804" lon="3.48303">
        <ele>1214</ele>
        <time>2021-06-27T13:54:43.722Z</time>
      </trkpt>
      <trkpt lat="44.01803" lon="3.48307">
        <ele>1214</ele>
        <time>2021-06-27T13:54:48.722Z</time>
      </trkpt>
      <trkpt lat="44.01802" lon="3.48313">
        <ele>1214</ele>
        <time>2021-06-27T13:54:53.758Z</time>
      </trkpt>
      <trkpt lat="44.01799" lon="3.48316">
        <ele>1214</ele>
        <time>2021-06-27T13:54:58.725Z</time>
      </trkpt>
      <trkpt lat="44.01797" lon="3.48319">
        <ele>1214</ele>
        <time>2021-06-27T13:55:02.728Z</time>
      </trkpt>
      <trkpt lat="44.01795" lon="3.48322">
        <ele>1210</ele>
        <time>2021-06-27T13:55:07.707Z</time>
      </trkpt>
      <trkpt lat="44.01795" lon="3.48324">
        <ele>1210</ele>
        <time>2021-06-27T13:55:11.722Z</time>
      </trkpt>
      <trkpt lat="44.01794" lon="3.48328">
        <ele>1210</ele>
        <time>2021-06-27T13:55:16.719Z</time>
      </trkpt>
      <trkpt lat="44.01794" lon="3.48331">
        <ele>1210</ele>
        <time>2021-06-27T13:55:26.716Z</time>
      </trkpt>
      <trkpt lat="44.01792" lon="3.48337">
        <ele>1210</ele>
        <time>2021-06-27T13:55:45.716Z</time>
      </trkpt>
      <trkpt lat="44.01791" lon="3.48339">
        <ele>1213</ele>
        <time>2021-06-27T13:55:49.725Z</time>
      </trkpt>
      <trkpt lat="44.0179" lon="3.48344">
        <ele>1213</ele>
        <time>2021-06-27T13:55:54.699Z</time>
      </trkpt>
      <trkpt lat="44.01789" lon="3.4835">
        <ele>1210</ele>
        <time>2021-06-27T13:55:58.715Z</time>
      </trkpt>
      <trkpt lat="44.01786" lon="3.48356">
        <ele>1210</ele>
        <time>2021-06-27T13:56:03.725Z</time>
      </trkpt>
      <trkpt lat="44.01784" lon="3.48364">
        <ele>1210</ele>
        <time>2021-06-27T13:56:08.723Z</time>
      </trkpt>
      <trkpt lat="44.01783" lon="3.48368">
        <ele>1210</ele>
        <time>2021-06-27T13:56:13.744Z</time>
      </trkpt>
      <trkpt lat="44.01781" lon="3.48373">
        <ele>1210</ele>
        <time>2021-06-27T13:56:18.720Z</time>
      </trkpt>
      <trkpt lat="44.01775" lon="3.48379">
        <ele>1205</ele>
        <time>2021-06-27T13:56:23.721Z</time>
      </trkpt>
      <trkpt lat="44.01772" lon="3.48383">
        <ele>1205</ele>
        <time>2021-06-27T13:56:27.751Z</time>
      </trkpt>
      <trkpt lat="44.01769" lon="3.48389">
        <ele>1205</ele>
        <time>2021-06-27T13:56:32.725Z</time>
      </trkpt>
      <trkpt lat="44.01767" lon="3.48394">
        <ele>1205</ele>
        <time>2021-06-27T13:56:37.717Z</time>
      </trkpt>
      <trkpt lat="44.01765" lon="3.484">
        <ele>1205</ele>
        <time>2021-06-27T13:56:42.717Z</time>
      </trkpt>
      <trkpt lat="44.01762" lon="3.48405">
        <ele>1208</ele>
        <time>2021-06-27T13:56:47.717Z</time>
      </trkpt>
      <trkpt lat="44.01761" lon="3.4841">
        <ele>1208</ele>
        <time>2021-06-27T13:56:52.701Z</time>
      </trkpt>
      <trkpt lat="44.01758" lon="3.48413">
        <ele>1208</ele>
        <time>2021-06-27T13:56:56.725Z</time>
      </trkpt>
      <trkpt lat="44.01755" lon="3.48417">
        <ele>1208</ele>
        <time>2021-06-27T13:57:01.721Z</time>
      </trkpt>
      <trkpt lat="44.01752" lon="3.48422">
        <ele>1208</ele>
        <time>2021-06-27T13:57:06.727Z</time>
      </trkpt>
      <trkpt lat="44.01749" lon="3.48428">
        <ele>1208</ele>
        <time>2021-06-27T13:57:11.722Z</time>
      </trkpt>
      <trkpt lat="44.01747" lon="3.48434">
        <ele>1205</ele>
        <time>2021-06-27T13:57:16.719Z</time>
      </trkpt>
      <trkpt lat="44.01744" lon="3.48437">
        <ele>1205</ele>
        <time>2021-06-27T13:57:20.747Z</time>
      </trkpt>
      <trkpt lat="44.01741" lon="3.48442">
        <ele>1205</ele>
        <time>2021-06-27T13:57:25.722Z</time>
      </trkpt>
      <trkpt lat="44.01739" lon="3.48445">
        <ele>1205</ele>
        <time>2021-06-27T13:57:29.725Z</time>
      </trkpt>
      <trkpt lat="44.01734" lon="3.48449">
        <ele>1211</ele>
        <time>2021-06-27T13:57:34.719Z</time>
      </trkpt>
      <trkpt lat="44.01732" lon="3.48452">
        <ele>1211</ele>
        <time>2021-06-27T13:57:38.723Z</time>
      </trkpt>
      <trkpt lat="44.01731" lon="3.48453">
        <ele>1211</ele>
        <time>2021-06-27T13:57:43.720Z</time>
      </trkpt>
      <trkpt lat="44.01728" lon="3.48457">
        <ele>1211</ele>
        <time>2021-06-27T13:57:48.733Z</time>
      </trkpt>
      <trkpt lat="44.01725" lon="3.48461">
        <ele>1206</ele>
        <time>2021-06-27T13:57:53.697Z</time>
      </trkpt>
      <trkpt lat="44.01723" lon="3.48466">
        <ele>1206</ele>
        <time>2021-06-27T13:57:57.719Z</time>
      </trkpt>
      <trkpt lat="44.01721" lon="3.48471">
        <ele>1206</ele>
        <time>2021-06-27T13:58:02.700Z</time>
      </trkpt>
      <trkpt lat="44.01719" lon="3.48474">
        <ele>1206</ele>
        <time>2021-06-27T13:58:06.747Z</time>
      </trkpt>
      <trkpt lat="44.01716" lon="3.4848">
        <ele>1206</ele>
        <time>2021-06-27T13:58:11.722Z</time>
      </trkpt>
      <trkpt lat="44.01714" lon="3.48487">
        <ele>1202</ele>
        <time>2021-06-27T13:58:16.719Z</time>
      </trkpt>
      <trkpt lat="44.01707" lon="3.4849">
        <ele>1201</ele>
        <time>2021-06-27T13:58:21.712Z</time>
      </trkpt>
      <trkpt lat="44.01704" lon="3.48493">
        <ele>1201</ele>
        <time>2021-06-27T13:58:25.725Z</time>
      </trkpt>
      <trkpt lat="44.01702" lon="3.48498">
        <ele>1201</ele>
        <time>2021-06-27T13:58:30.726Z</time>
      </trkpt>
      <trkpt lat="44.01697" lon="3.485">
        <ele>1201</ele>
        <time>2021-06-27T13:58:35.723Z</time>
      </trkpt>
      <trkpt lat="44.01693" lon="3.48501">
        <ele>1201</ele>
        <time>2021-06-27T13:58:39.751Z</time>
      </trkpt>
      <trkpt lat="44.01689" lon="3.48503">
        <ele>1201</ele>
        <time>2021-06-27T13:58:44.719Z</time>
      </trkpt>
      <trkpt lat="44.01686" lon="3.48506">
        <ele>1201</ele>
        <time>2021-06-27T13:58:48.722Z</time>
      </trkpt>
      <trkpt lat="44.01682" lon="3.48507">
        <ele>1201</ele>
        <time>2021-06-27T13:58:53.719Z</time>
      </trkpt>
      <trkpt lat="44.01679" lon="3.48508">
        <ele>1198</ele>
        <time>2021-06-27T13:58:58.743Z</time>
      </trkpt>
      <trkpt lat="44.01676" lon="3.4851">
        <ele>1198</ele>
        <time>2021-06-27T13:59:03.718Z</time>
      </trkpt>
      <trkpt lat="44.01674" lon="3.48511">
        <ele>1198</ele>
        <time>2021-06-27T13:59:07.745Z</time>
      </trkpt>
      <trkpt lat="44.01671" lon="3.48513">
        <ele>1198</ele>
        <time>2021-06-27T13:59:12.698Z</time>
      </trkpt>
      <trkpt lat="44.0167" lon="3.48515">
        <ele>1197</ele>
        <time>2021-06-27T13:59:16.722Z</time>
      </trkpt>
      <trkpt lat="44.01665" lon="3.48517">
        <ele>1197</ele>
        <time>2021-06-27T13:59:21.726Z</time>
      </trkpt>
      <trkpt lat="44.01663" lon="3.48519">
        <ele>1197</ele>
        <time>2021-06-27T13:59:26.716Z</time>
      </trkpt>
      <trkpt lat="44.01661" lon="3.48521">
        <ele>1197</ele>
        <time>2021-06-27T13:59:31.719Z</time>
      </trkpt>
      <trkpt lat="44.01659" lon="3.48523">
        <ele>1197</ele>
        <time>2021-06-27T13:59:36.720Z</time>
      </trkpt>
      <trkpt lat="44.01655" lon="3.48524">
        <ele>1197</ele>
        <time>2021-06-27T13:59:45.722Z</time>
      </trkpt>
      <trkpt lat="44.01651" lon="3.48523">
        <ele>1195</ele>
        <time>2021-06-27T13:59:50.720Z</time>
      </trkpt>
      <trkpt lat="44.01649" lon="3.48522">
        <ele>1195</ele>
        <time>2021-06-27T13:59:54.713Z</time>
      </trkpt>
      <trkpt lat="44.01648" lon="3.48522">
        <ele>1195</ele>
        <time>2021-06-27T13:59:59.720Z</time>
      </trkpt>
      <trkpt lat="44.01645" lon="3.48523">
        <ele>1195</ele>
        <time>2021-06-27T14:00:17.719Z</time>
      </trkpt>
      <trkpt lat="44.01641" lon="3.48524">
        <ele>1195</ele>
        <time>2021-06-27T14:00:22.694Z</time>
      </trkpt>
      <trkpt lat="44.01636" lon="3.48525">
        <ele>1195</ele>
        <time>2021-06-27T14:00:26.723Z</time>
      </trkpt>
      <trkpt lat="44.0163" lon="3.48524">
        <ele>1195</ele>
        <time>2021-06-27T14:00:31.717Z</time>
      </trkpt>
      <trkpt lat="44.01625" lon="3.48522">
        <ele>1195</ele>
        <time>2021-06-27T14:00:36.719Z</time>
      </trkpt>
      <trkpt lat="44.01621" lon="3.48523">
        <ele>1191</ele>
        <time>2021-06-27T14:00:41.709Z</time>
      </trkpt>
      <trkpt lat="44.0162" lon="3.48523">
        <ele>1191</ele>
        <time>2021-06-27T14:00:45.718Z</time>
      </trkpt>
      <trkpt lat="44.01619" lon="3.48523">
        <ele>1191</ele>
        <time>2021-06-27T14:00:49.725Z</time>
      </trkpt>
      <trkpt lat="44.01614" lon="3.48524">
        <ele>1191</ele>
        <time>2021-06-27T14:00:54.724Z</time>
      </trkpt>
      <trkpt lat="44.0161" lon="3.48523">
        <ele>1191</ele>
        <time>2021-06-27T14:00:59.724Z</time>
      </trkpt>
      <trkpt lat="44.01604" lon="3.48522">
        <ele>1191</ele>
        <time>2021-06-27T14:01:04.726Z</time>
      </trkpt>
      <trkpt lat="44.016" lon="3.48521">
        <ele>1191</ele>
        <time>2021-06-27T14:01:08.730Z</time>
      </trkpt>
      <trkpt lat="44.01597" lon="3.48518">
        <ele>1185</ele>
        <time>2021-06-27T14:01:13.722Z</time>
      </trkpt>
      <trkpt lat="44.01594" lon="3.48518">
        <ele>1185</ele>
        <time>2021-06-27T14:01:17.724Z</time>
      </trkpt>
      <trkpt lat="44.01591" lon="3.48518">
        <ele>1185</ele>
        <time>2021-06-27T14:01:27.722Z</time>
      </trkpt>
      <trkpt lat="44.01585" lon="3.48517">
        <ele>1185</ele>
        <time>2021-06-27T14:01:32.695Z</time>
      </trkpt>
      <trkpt lat="44.01581" lon="3.48518">
        <ele>1185</ele>
        <time>2021-06-27T14:01:36.723Z</time>
      </trkpt>
      <trkpt lat="44.01577" lon="3.48518">
        <ele>1185</ele>
        <time>2021-06-27T14:01:41.720Z</time>
      </trkpt>
      <trkpt lat="44.01575" lon="3.48517">
        <ele>1185</ele>
        <time>2021-06-27T14:01:45.725Z</time>
      </trkpt>
      <trkpt lat="44.01572" lon="3.48517">
        <ele>1185</ele>
        <time>2021-06-27T14:01:50.728Z</time>
      </trkpt>
      <trkpt lat="44.01569" lon="3.48518">
        <ele>1179</ele>
        <time>2021-06-27T14:01:55.727Z</time>
      </trkpt>
      <trkpt lat="44.01566" lon="3.48519">
        <ele>1179</ele>
        <time>2021-06-27T14:02:00.725Z</time>
      </trkpt>
      <trkpt lat="44.01564" lon="3.48519">
        <ele>1179</ele>
        <time>2021-06-27T14:02:05.724Z</time>
      </trkpt>
      <trkpt lat="44.01562" lon="3.4852">
        <ele>1179</ele>
        <time>2021-06-27T14:02:10.724Z</time>
      </trkpt>
      <trkpt lat="44.01556" lon="3.48521">
        <ele>1179</ele>
        <time>2021-06-27T14:02:15.726Z</time>
      </trkpt>
      <trkpt lat="44.01552" lon="3.48521">
        <ele>1179</ele>
        <time>2021-06-27T14:02:20.748Z</time>
      </trkpt>
      <trkpt lat="44.01548" lon="3.48523">
        <ele>1179</ele>
        <time>2021-06-27T14:02:25.716Z</time>
      </trkpt>
      <trkpt lat="44.01543" lon="3.48524">
        <ele>1179</ele>
        <time>2021-06-27T14:02:30.716Z</time>
      </trkpt>
      <trkpt lat="44.01539" lon="3.48524">
        <ele>1175</ele>
        <time>2021-06-27T14:02:35.724Z</time>
      </trkpt>
      <trkpt lat="44.01533" lon="3.48524">
        <ele>1175</ele>
        <time>2021-06-27T14:02:40.728Z</time>
      </trkpt>
      <trkpt lat="44.01528" lon="3.48525">
        <ele>1175</ele>
        <time>2021-06-27T14:02:45.756Z</time>
      </trkpt>
      <trkpt lat="44.01522" lon="3.48526">
        <ele>1175</ele>
        <time>2021-06-27T14:02:50.725Z</time>
      </trkpt>
      <trkpt lat="44.01518" lon="3.48526">
        <ele>1175</ele>
        <time>2021-06-27T14:02:55.717Z</time>
      </trkpt>
      <trkpt lat="44.01513" lon="3.48528">
        <ele>1171</ele>
        <time>2021-06-27T14:03:00.728Z</time>
      </trkpt>
      <trkpt lat="44.01509" lon="3.48528">
        <ele>1171</ele>
        <time>2021-06-27T14:03:05.711Z</time>
      </trkpt>
      <trkpt lat="44.01505" lon="3.48529">
        <ele>1171</ele>
        <time>2021-06-27T14:03:09.752Z</time>
      </trkpt>
      <trkpt lat="44.01501" lon="3.48531">
        <ele>1171</ele>
        <time>2021-06-27T14:03:14.755Z</time>
      </trkpt>
      <trkpt lat="44.01498" lon="3.48533">
        <ele>1171</ele>
        <time>2021-06-27T14:03:19.716Z</time>
      </trkpt>
      <trkpt lat="44.01495" lon="3.48535">
        <ele>1171</ele>
        <time>2021-06-27T14:03:24.719Z</time>
      </trkpt>
      <trkpt lat="44.01493" lon="3.48536">
        <ele>1171</ele>
        <time>2021-06-27T14:03:29.720Z</time>
      </trkpt>
      <trkpt lat="44.01492" lon="3.48536">
        <ele>1171</ele>
        <time>2021-06-27T14:03:34.721Z</time>
      </trkpt>
      <trkpt lat="44.01491" lon="3.48538">
        <ele>1171</ele>
        <time>2021-06-27T14:03:39.725Z</time>
      </trkpt>
      <trkpt lat="44.0149" lon="3.48539">
        <ele>1171</ele>
        <time>2021-06-27T14:03:44.719Z</time>
      </trkpt>
      <trkpt lat="44.01487" lon="3.48541">
        <ele>1171</ele>
        <time>2021-06-27T14:03:49.724Z</time>
      </trkpt>
      <trkpt lat="44.01484" lon="3.48544">
        <ele>1170</ele>
        <time>2021-06-27T14:03:54.725Z</time>
      </trkpt>
      <trkpt lat="44.0148" lon="3.48547">
        <ele>1170</ele>
        <time>2021-06-27T14:03:59.724Z</time>
      </trkpt>
      <trkpt lat="44.01478" lon="3.48548">
        <ele>1170</ele>
        <time>2021-06-27T14:04:04.725Z</time>
      </trkpt>
      <trkpt lat="44.01474" lon="3.4855">
        <ele>1170</ele>
        <time>2021-06-27T14:04:08.754Z</time>
      </trkpt>
      <trkpt lat="44.0147" lon="3.48553">
        <ele>1170</ele>
        <time>2021-06-27T14:04:13.724Z</time>
      </trkpt>
      <trkpt lat="44.01466" lon="3.48556">
        <ele>1170</ele>
        <time>2021-06-27T14:04:18.737Z</time>
      </trkpt>
      <trkpt lat="44.01462" lon="3.48559">
        <ele>1170</ele>
        <time>2021-06-27T14:04:23.722Z</time>
      </trkpt>
      <trkpt lat="44.01457" lon="3.48561">
        <ele>1162</ele>
        <time>2021-06-27T14:04:28.714Z</time>
      </trkpt>
      <trkpt lat="44.01453" lon="3.48562">
        <ele>1162</ele>
        <time>2021-06-27T14:04:32.718Z</time>
      </trkpt>
      <trkpt lat="44.01448" lon="3.48565">
        <ele>1162</ele>
        <time>2021-06-27T14:04:37.715Z</time>
      </trkpt>
      <trkpt lat="44.01444" lon="3.48567">
        <ele>1162</ele>
        <time>2021-06-27T14:04:41.726Z</time>
      </trkpt>
      <trkpt lat="44.01439" lon="3.48568">
        <ele>1162</ele>
        <time>2021-06-27T14:04:46.721Z</time>
      </trkpt>
      <trkpt lat="44.01434" lon="3.4857">
        <ele>1168</ele>
        <time>2021-06-27T14:04:51.715Z</time>
      </trkpt>
      <trkpt lat="44.0143" lon="3.48573">
        <ele>1158</ele>
        <time>2021-06-27T14:04:55.763Z</time>
      </trkpt>
      <trkpt lat="44.01426" lon="3.48576">
        <ele>1158</ele>
        <time>2021-06-27T14:05:00.725Z</time>
      </trkpt>
      <trkpt lat="44.01422" lon="3.48582">
        <ele>1158</ele>
        <time>2021-06-27T14:05:05.721Z</time>
      </trkpt>
      <trkpt lat="44.01418" lon="3.48585">
        <ele>1158</ele>
        <time>2021-06-27T14:05:10.715Z</time>
      </trkpt>
      <trkpt lat="44.01414" lon="3.48588">
        <ele>1158</ele>
        <time>2021-06-27T14:05:15.723Z</time>
      </trkpt>
      <trkpt lat="44.01411" lon="3.48589">
        <ele>1158</ele>
        <time>2021-06-27T14:05:19.720Z</time>
      </trkpt>
      <trkpt lat="44.01406" lon="3.48592">
        <ele>1158</ele>
        <time>2021-06-27T14:05:24.723Z</time>
      </trkpt>
      <trkpt lat="44.01401" lon="3.48595">
        <ele>1145</ele>
        <time>2021-06-27T14:05:29.723Z</time>
      </trkpt>
      <trkpt lat="44.01399" lon="3.48597">
        <ele>1145</ele>
        <time>2021-06-27T14:05:33.715Z</time>
      </trkpt>
      <trkpt lat="44.01397" lon="3.486">
        <ele>1157</ele>
        <time>2021-06-27T14:05:38.720Z</time>
      </trkpt>
      <trkpt lat="44.01394" lon="3.48602">
        <ele>1157</ele>
        <time>2021-06-27T14:05:42.725Z</time>
      </trkpt>
      <trkpt lat="44.0139" lon="3.48604">
        <ele>1157</ele>
        <time>2021-06-27T14:05:47.724Z</time>
      </trkpt>
      <trkpt lat="44.01384" lon="3.48608">
        <ele>1157</ele>
        <time>2021-06-27T14:05:56.719Z</time>
      </trkpt>
      <trkpt lat="44.01382" lon="3.48609">
        <ele>1157</ele>
        <time>2021-06-27T14:06:00.729Z</time>
      </trkpt>
      <trkpt lat="44.01382" lon="3.48611">
        <ele>1157</ele>
        <time>2021-06-27T14:06:05.715Z</time>
      </trkpt>
      <trkpt lat="44.01379" lon="3.48612">
        <ele>1157</ele>
        <time>2021-06-27T14:06:57.720Z</time>
      </trkpt>
      <trkpt lat="44.01376" lon="3.48615">
        <ele>1157</ele>
        <time>2021-06-27T14:07:02.719Z</time>
      </trkpt>
      <trkpt lat="44.01373" lon="3.48617">
        <ele>1151</ele>
        <time>2021-06-27T14:07:07.722Z</time>
      </trkpt>
      <trkpt lat="44.0137" lon="3.4862">
        <ele>1151</ele>
        <time>2021-06-27T14:07:12.719Z</time>
      </trkpt>
      <trkpt lat="44.01368" lon="3.48624">
        <ele>1151</ele>
        <time>2021-06-27T14:07:17.696Z</time>
      </trkpt>
      <trkpt lat="44.01365" lon="3.48627">
        <ele>1156</ele>
        <time>2021-06-27T14:07:21.721Z</time>
      </trkpt>
      <trkpt lat="44.01362" lon="3.4863">
        <ele>1156</ele>
        <time>2021-06-27T14:07:26.729Z</time>
      </trkpt>
      <trkpt lat="44.01359" lon="3.48632">
        <ele>1156</ele>
        <time>2021-06-27T14:07:31.720Z</time>
      </trkpt>
      <trkpt lat="44.01356" lon="3.48635">
        <ele>1156</ele>
        <time>2021-06-27T14:07:36.723Z</time>
      </trkpt>
      <trkpt lat="44.01352" lon="3.48639">
        <ele>1156</ele>
        <time>2021-06-27T14:07:41.717Z</time>
      </trkpt>
      <trkpt lat="44.01348" lon="3.48642">
        <ele>1156</ele>
        <time>2021-06-27T14:07:46.717Z</time>
      </trkpt>
      <trkpt lat="44.01345" lon="3.48644">
        <ele>1145</ele>
        <time>2021-06-27T14:07:50.724Z</time>
      </trkpt>
      <trkpt lat="44.0134" lon="3.48646">
        <ele>1145</ele>
        <time>2021-06-27T14:07:55.728Z</time>
      </trkpt>
      <trkpt lat="44.01336" lon="3.48649">
        <ele>1145</ele>
        <time>2021-06-27T14:08:00.716Z</time>
      </trkpt>
      <trkpt lat="44.01332" lon="3.48652">
        <ele>1145</ele>
        <time>2021-06-27T14:08:05.725Z</time>
      </trkpt>
      <trkpt lat="44.01329" lon="3.48655">
        <ele>1150</ele>
        <time>2021-06-27T14:08:10.729Z</time>
      </trkpt>
      <trkpt lat="44.01327" lon="3.48658">
        <ele>1150</ele>
        <time>2021-06-27T14:08:15.720Z</time>
      </trkpt>
      <trkpt lat="44.01325" lon="3.48659">
        <ele>1150</ele>
        <time>2021-06-27T14:08:19.721Z</time>
      </trkpt>
      <trkpt lat="44.01321" lon="3.48661">
        <ele>1150</ele>
        <time>2021-06-27T14:08:24.723Z</time>
      </trkpt>
      <trkpt lat="44.01318" lon="3.48665">
        <ele>1140</ele>
        <time>2021-06-27T14:08:29.722Z</time>
      </trkpt>
      <trkpt lat="44.01315" lon="3.48668">
        <ele>1140</ele>
        <time>2021-06-27T14:08:33.724Z</time>
      </trkpt>
      <trkpt lat="44.0131" lon="3.48672">
        <ele>1140</ele>
        <time>2021-06-27T14:08:38.724Z</time>
      </trkpt>
      <trkpt lat="44.01308" lon="3.48675">
        <ele>1140</ele>
        <time>2021-06-27T14:08:43.699Z</time>
      </trkpt>
      <trkpt lat="44.01304" lon="3.48677">
        <ele>1140</ele>
        <time>2021-06-27T14:08:47.728Z</time>
      </trkpt>
      <trkpt lat="44.013" lon="3.48679">
        <ele>1140</ele>
        <time>2021-06-27T14:08:52.719Z</time>
      </trkpt>
      <trkpt lat="44.01296" lon="3.48681">
        <ele>1146</ele>
        <time>2021-06-27T14:08:57.696Z</time>
      </trkpt>
      <trkpt lat="44.01292" lon="3.48684">
        <ele>1146</ele>
        <time>2021-06-27T14:09:01.723Z</time>
      </trkpt>
      <trkpt lat="44.01289" lon="3.48687">
        <ele>1137</ele>
        <time>2021-06-27T14:09:06.723Z</time>
      </trkpt>
      <trkpt lat="44.01286" lon="3.4869">
        <ele>1137</ele>
        <time>2021-06-27T14:09:10.723Z</time>
      </trkpt>
      <trkpt lat="44.01282" lon="3.48692">
        <ele>1137</ele>
        <time>2021-06-27T14:09:15.718Z</time>
      </trkpt>
      <trkpt lat="44.01279" lon="3.48695">
        <ele>1137</ele>
        <time>2021-06-27T14:09:20.728Z</time>
      </trkpt>
      <trkpt lat="44.01274" lon="3.48698">
        <ele>1137</ele>
        <time>2021-06-27T14:09:25.723Z</time>
      </trkpt>
      <trkpt lat="44.01271" lon="3.48702">
        <ele>1137</ele>
        <time>2021-06-27T14:09:30.722Z</time>
      </trkpt>
      <trkpt lat="44.01267" lon="3.48704">
        <ele>1137</ele>
        <time>2021-06-27T14:09:35.722Z</time>
      </trkpt>
      <trkpt lat="44.01263" lon="3.48708">
        <ele>1138</ele>
        <time>2021-06-27T14:09:40.729Z</time>
      </trkpt>
      <trkpt lat="44.0126" lon="3.48711">
        <ele>1138</ele>
        <time>2021-06-27T14:09:45.724Z</time>
      </trkpt>
      <trkpt lat="44.01257" lon="3.48714">
        <ele>1138</ele>
        <time>2021-06-27T14:09:50.729Z</time>
      </trkpt>
      <trkpt lat="44.01253" lon="3.48717">
        <ele>1138</ele>
        <time>2021-06-27T14:09:55.753Z</time>
      </trkpt>
      <trkpt lat="44.0125" lon="3.4872">
        <ele>1138</ele>
        <time>2021-06-27T14:10:00.726Z</time>
      </trkpt>
      <trkpt lat="44.01247" lon="3.48723">
        <ele>1138</ele>
        <time>2021-06-27T14:10:05.717Z</time>
      </trkpt>
      <trkpt lat="44.01244" lon="3.48726">
        <ele>1138</ele>
        <time>2021-06-27T14:10:09.719Z</time>
      </trkpt>
      <trkpt lat="44.01241" lon="3.48726">
        <ele>1138</ele>
        <time>2021-06-27T14:10:14.727Z</time>
      </trkpt>
      <trkpt lat="44.01238" lon="3.48728">
        <ele>1138</ele>
        <time>2021-06-27T14:10:19.718Z</time>
      </trkpt>
      <trkpt lat="44.01234" lon="3.48731">
        <ele>1131</ele>
        <time>2021-06-27T14:10:24.708Z</time>
      </trkpt>
      <trkpt lat="44.01232" lon="3.48735">
        <ele>1131</ele>
        <time>2021-06-27T14:10:29.724Z</time>
      </trkpt>
      <trkpt lat="44.01228" lon="3.48736">
        <ele>1138</ele>
        <time>2021-06-27T14:10:34.721Z</time>
      </trkpt>
      <trkpt lat="44.01226" lon="3.48739">
        <ele>1138</ele>
        <time>2021-06-27T14:10:39.696Z</time>
      </trkpt>
      <trkpt lat="44.01225" lon="3.4874">
        <ele>1138</ele>
        <time>2021-06-27T14:10:43.722Z</time>
      </trkpt>
      <trkpt lat="44.0122" lon="3.48741">
        <ele>1138</ele>
        <time>2021-06-27T14:10:48.714Z</time>
      </trkpt>
      <trkpt lat="44.01216" lon="3.48743">
        <ele>1138</ele>
        <time>2021-06-27T14:10:53.726Z</time>
      </trkpt>
      <trkpt lat="44.01212" lon="3.48745">
        <ele>1138</ele>
        <time>2021-06-27T14:10:58.715Z</time>
      </trkpt>
      <trkpt lat="44.01208" lon="3.48746">
        <ele>1129</ele>
        <time>2021-06-27T14:11:03.726Z</time>
      </trkpt>
      <trkpt lat="44.01203" lon="3.48748">
        <ele>1129</ele>
        <time>2021-06-27T14:11:08.698Z</time>
      </trkpt>
      <trkpt lat="44.01201" lon="3.4875">
        <ele>1129</ele>
        <time>2021-06-27T14:11:12.713Z</time>
      </trkpt>
      <trkpt lat="44.01197" lon="3.48752">
        <ele>1129</ele>
        <time>2021-06-27T14:11:16.745Z</time>
      </trkpt>
      <trkpt lat="44.01194" lon="3.48755">
        <ele>1129</ele>
        <time>2021-06-27T14:11:21.725Z</time>
      </trkpt>
      <trkpt lat="44.01191" lon="3.48759">
        <ele>1129</ele>
        <time>2021-06-27T14:11:26.719Z</time>
      </trkpt>
      <trkpt lat="44.01188" lon="3.48762">
        <ele>1129</ele>
        <time>2021-06-27T14:11:31.737Z</time>
      </trkpt>
      <trkpt lat="44.01185" lon="3.48766">
        <ele>1133</ele>
        <time>2021-06-27T14:11:36.720Z</time>
      </trkpt>
      <trkpt lat="44.01183" lon="3.48771">
        <ele>1133</ele>
        <time>2021-06-27T14:11:41.721Z</time>
      </trkpt>
      <trkpt lat="44.01181" lon="3.48777">
        <ele>1119</ele>
        <time>2021-06-27T14:11:46.729Z</time>
      </trkpt>
      <trkpt lat="44.01178" lon="3.48783">
        <ele>1119</ele>
        <time>2021-06-27T14:11:51.723Z</time>
      </trkpt>
      <trkpt lat="44.01178" lon="3.48787">
        <ele>1119</ele>
        <time>2021-06-27T14:11:56.720Z</time>
      </trkpt>
      <trkpt lat="44.01176" lon="3.4879">
        <ele>1119</ele>
        <time>2021-06-27T14:12:01.720Z</time>
      </trkpt>
      <trkpt lat="44.01175" lon="3.48794">
        <ele>1118</ele>
        <time>2021-06-27T14:12:06.725Z</time>
      </trkpt>
      <trkpt lat="44.01175" lon="3.48799">
        <ele>1118</ele>
        <time>2021-06-27T14:12:10.725Z</time>
      </trkpt>
      <trkpt lat="44.01172" lon="3.48807">
        <ele>1118</ele>
        <time>2021-06-27T14:12:15.719Z</time>
      </trkpt>
      <trkpt lat="44.01171" lon="3.48813">
        <ele>1118</ele>
        <time>2021-06-27T14:12:20.701Z</time>
      </trkpt>
      <trkpt lat="44.0117" lon="3.48816">
        <ele>1118</ele>
        <time>2021-06-27T14:12:24.713Z</time>
      </trkpt>
      <trkpt lat="44.0117" lon="3.48819">
        <ele>1118</ele>
        <time>2021-06-27T14:12:29.731Z</time>
      </trkpt>
      <trkpt lat="44.0117" lon="3.48826">
        <ele>1116</ele>
        <time>2021-06-27T14:12:34.723Z</time>
      </trkpt>
      <trkpt lat="44.0117" lon="3.48832">
        <ele>1116</ele>
        <time>2021-06-27T14:12:39.712Z</time>
      </trkpt>
      <trkpt lat="44.0117" lon="3.48837">
        <ele>1116</ele>
        <time>2021-06-27T14:12:44.726Z</time>
      </trkpt>
      <trkpt lat="44.01171" lon="3.48843">
        <ele>1116</ele>
        <time>2021-06-27T14:12:49.717Z</time>
      </trkpt>
      <trkpt lat="44.01173" lon="3.48849">
        <ele>1112</ele>
        <time>2021-06-27T14:12:54.751Z</time>
      </trkpt>
      <trkpt lat="44.01173" lon="3.48854">
        <ele>1112</ele>
        <time>2021-06-27T14:12:59.699Z</time>
      </trkpt>
      <trkpt lat="44.01175" lon="3.48859">
        <ele>1112</ele>
        <time>2021-06-27T14:13:04.720Z</time>
      </trkpt>
      <trkpt lat="44.01177" lon="3.48863">
        <ele>1112</ele>
        <time>2021-06-27T14:13:08.730Z</time>
      </trkpt>
      <trkpt lat="44.0118" lon="3.4887">
        <ele>1112</ele>
        <time>2021-06-27T14:13:13.723Z</time>
      </trkpt>
      <trkpt lat="44.01182" lon="3.48874">
        <ele>1123</ele>
        <time>2021-06-27T14:13:18.720Z</time>
      </trkpt>
      <trkpt lat="44.01185" lon="3.48879">
        <ele>1119</ele>
        <time>2021-06-27T14:13:22.724Z</time>
      </trkpt>
      <trkpt lat="44.01188" lon="3.48883">
        <ele>1119</ele>
        <time>2021-06-27T14:13:27.713Z</time>
      </trkpt>
      <trkpt lat="44.01189" lon="3.48887">
        <ele>1119</ele>
        <time>2021-06-27T14:13:32.720Z</time>
      </trkpt>
      <trkpt lat="44.01193" lon="3.48892">
        <ele>1119</ele>
        <time>2021-06-27T14:13:37.725Z</time>
      </trkpt>
      <trkpt lat="44.01195" lon="3.48898">
        <ele>1119</ele>
        <time>2021-06-27T14:13:42.697Z</time>
      </trkpt>
      <trkpt lat="44.01197" lon="3.489">
        <ele>1119</ele>
        <time>2021-06-27T14:13:46.723Z</time>
      </trkpt>
      <trkpt lat="44.012" lon="3.48902">
        <ele>1119</ele>
        <time>2021-06-27T14:13:50.725Z</time>
      </trkpt>
      <trkpt lat="44.01202" lon="3.48903">
        <ele>1111</ele>
        <time>2021-06-27T14:13:55.716Z</time>
      </trkpt>
      <trkpt lat="44.01205" lon="3.48907">
        <ele>1111</ele>
        <time>2021-06-27T14:14:00.746Z</time>
      </trkpt>
      <trkpt lat="44.01208" lon="3.48911">
        <ele>1111</ele>
        <time>2021-06-27T14:14:05.720Z</time>
      </trkpt>
      <trkpt lat="44.01213" lon="3.48917">
        <ele>1113</ele>
        <time>2021-06-27T14:14:14.716Z</time>
      </trkpt>
      <trkpt lat="44.01214" lon="3.4892">
        <ele>1113</ele>
        <time>2021-06-27T14:14:18.716Z</time>
      </trkpt>
      <trkpt lat="44.01215" lon="3.48922">
        <ele>1113</ele>
        <time>2021-06-27T14:14:23.701Z</time>
      </trkpt>
      <trkpt lat="44.01215" lon="3.48923">
        <ele>1113</ele>
        <time>2021-06-27T14:14:27.724Z</time>
      </trkpt>
      <trkpt lat="44.01217" lon="3.48926">
        <ele>1113</ele>
        <time>2021-06-27T14:14:32.723Z</time>
      </trkpt>
      <trkpt lat="44.01216" lon="3.48929">
        <ele>1113</ele>
        <time>2021-06-27T14:14:37.715Z</time>
      </trkpt>
      <trkpt lat="44.01215" lon="3.48932">
        <ele>1104</ele>
        <time>2021-06-27T14:14:46.761Z</time>
      </trkpt>
      <trkpt lat="44.01215" lon="3.48934">
        <ele>1104</ele>
        <time>2021-06-27T14:14:51.722Z</time>
      </trkpt>
      <trkpt lat="44.01213" lon="3.48935">
        <ele>1104</ele>
        <time>2021-06-27T14:15:05.714Z</time>
      </trkpt>
      <trkpt lat="44.0121" lon="3.48939">
        <ele>1104</ele>
        <time>2021-06-27T14:15:09.725Z</time>
      </trkpt>
      <trkpt lat="44.0121" lon="3.4894">
        <ele>1104</ele>
        <time>2021-06-27T14:15:14.715Z</time>
      </trkpt>
      <trkpt lat="44.0121" lon="3.48947">
        <ele>1104</ele>
        <time>2021-06-27T14:15:19.716Z</time>
      </trkpt>
      <trkpt lat="44.0121" lon="3.48957">
        <ele>1104</ele>
        <time>2021-06-27T14:15:24.728Z</time>
      </trkpt>
      <trkpt lat="44.0121" lon="3.48966">
        <ele>1096</ele>
        <time>2021-06-27T14:15:29.722Z</time>
      </trkpt>
      <trkpt lat="44.0121" lon="3.4897">
        <ele>1096</ele>
        <time>2021-06-27T14:15:34.722Z</time>
      </trkpt>
      <trkpt lat="44.01211" lon="3.48974">
        <ele>1096</ele>
        <time>2021-06-27T14:15:39.723Z</time>
      </trkpt>
      <trkpt lat="44.01211" lon="3.48977">
        <ele>1096</ele>
        <time>2021-06-27T14:15:44.725Z</time>
      </trkpt>
      <trkpt lat="44.01211" lon="3.48982">
        <ele>1096</ele>
        <time>2021-06-27T14:15:49.724Z</time>
      </trkpt>
      <trkpt lat="44.01212" lon="3.48986">
        <ele>1096</ele>
        <time>2021-06-27T14:15:54.722Z</time>
      </trkpt>
      <trkpt lat="44.01212" lon="3.48987">
        <ele>1088</ele>
        <time>2021-06-27T14:15:58.723Z</time>
      </trkpt>
      <trkpt lat="44.01213" lon="3.48992">
        <ele>1088</ele>
        <time>2021-06-27T14:16:03.697Z</time>
      </trkpt>
      <trkpt lat="44.01212" lon="3.48993">
        <ele>1088</ele>
        <time>2021-06-27T14:16:11.724Z</time>
      </trkpt>
      <trkpt lat="44.01214" lon="3.49">
        <ele>1088</ele>
        <time>2021-06-27T14:16:16.725Z</time>
      </trkpt>
      <trkpt lat="44.01214" lon="3.49">
        <ele>1088</ele>
        <time>2021-06-27T14:16:21.713Z</time>
      </trkpt>
      <trkpt lat="44.01212" lon="3.49003">
        <ele>1088</ele>
        <time>2021-06-27T14:16:25.722Z</time>
      </trkpt>
      <trkpt lat="44.0121" lon="3.49006">
        <ele>1088</ele>
        <time>2021-06-27T14:16:30.729Z</time>
      </trkpt>
      <trkpt lat="44.01207" lon="3.49009">
        <ele>1089</ele>
        <time>2021-06-27T14:16:35.714Z</time>
      </trkpt>
      <trkpt lat="44.01206" lon="3.4901">
        <ele>1089</ele>
        <time>2021-06-27T14:16:39.725Z</time>
      </trkpt>
      <trkpt lat="44.01204" lon="3.49012">
        <ele>1089</ele>
        <time>2021-06-27T14:16:44.719Z</time>
      </trkpt>
      <trkpt lat="44.01199" lon="3.49014">
        <ele>1081</ele>
        <time>2021-06-27T14:16:49.717Z</time>
      </trkpt>
      <trkpt lat="44.01195" lon="3.49018">
        <ele>1081</ele>
        <time>2021-06-27T14:16:54.700Z</time>
      </trkpt>
      <trkpt lat="44.01194" lon="3.4902">
        <ele>1081</ele>
        <time>2021-06-27T14:16:58.732Z</time>
      </trkpt>
      <trkpt lat="44.0119" lon="3.49022">
        <ele>1081</ele>
        <time>2021-06-27T14:17:03.702Z</time>
      </trkpt>
      <trkpt lat="44.01187" lon="3.49024">
        <ele>1081</ele>
        <time>2021-06-27T14:17:07.724Z</time>
      </trkpt>
      <trkpt lat="44.01183" lon="3.49027">
        <ele>1081</ele>
        <time>2021-06-27T14:17:12.700Z</time>
      </trkpt>
      <trkpt lat="44.0118" lon="3.49029">
        <ele>1085</ele>
        <time>2021-06-27T14:17:16.715Z</time>
      </trkpt>
      <trkpt lat="44.01179" lon="3.49035">
        <ele>1085</ele>
        <time>2021-06-27T14:17:21.747Z</time>
      </trkpt>
      <trkpt lat="44.01179" lon="3.49035">
        <ele>1085</ele>
        <time>2021-06-27T14:17:26.719Z</time>
      </trkpt>
      <trkpt lat="44.01175" lon="3.49039">
        <ele>1085</ele>
        <time>2021-06-27T14:17:30.726Z</time>
      </trkpt>
      <trkpt lat="44.01174" lon="3.49043">
        <ele>1079</ele>
        <time>2021-06-27T14:17:35.718Z</time>
      </trkpt>
      <trkpt lat="44.01172" lon="3.49048">
        <ele>1079</ele>
        <time>2021-06-27T14:17:40.720Z</time>
      </trkpt>
      <trkpt lat="44.0117" lon="3.49052">
        <ele>1079</ele>
        <time>2021-06-27T14:17:44.725Z</time>
      </trkpt>
      <trkpt lat="44.01168" lon="3.49056">
        <ele>1079</ele>
        <time>2021-06-27T14:17:48.723Z</time>
      </trkpt>
      <trkpt lat="44.01165" lon="3.4906">
        <ele>1079</ele>
        <time>2021-06-27T14:17:53.699Z</time>
      </trkpt>
      <trkpt lat="44.01164" lon="3.49064">
        <ele>1079</ele>
        <time>2021-06-27T14:17:57.754Z</time>
      </trkpt>
      <trkpt lat="44.01162" lon="3.49068">
        <ele>1079</ele>
        <time>2021-06-27T14:18:02.727Z</time>
      </trkpt>
      <trkpt lat="44.01162" lon="3.49069">
        <ele>1079</ele>
        <time>2021-06-27T14:18:07.720Z</time>
      </trkpt>
      <trkpt lat="44.01158" lon="3.49073">
        <ele>1073</ele>
        <time>2021-06-27T14:18:12.724Z</time>
      </trkpt>
      <trkpt lat="44.01155" lon="3.49075">
        <ele>1073</ele>
        <time>2021-06-27T14:18:17.726Z</time>
      </trkpt>
      <trkpt lat="44.01154" lon="3.49076">
        <ele>1073</ele>
        <time>2021-06-27T14:18:22.695Z</time>
      </trkpt>
      <trkpt lat="44.01153" lon="3.49077">
        <ele>1073</ele>
        <time>2021-06-27T14:18:26.728Z</time>
      </trkpt>
      <trkpt lat="44.0115" lon="3.4908">
        <ele>1074</ele>
        <time>2021-06-27T14:18:30.723Z</time>
      </trkpt>
      <trkpt lat="44.01145" lon="3.49082">
        <ele>1074</ele>
        <time>2021-06-27T14:18:35.723Z</time>
      </trkpt>
      <trkpt lat="44.01141" lon="3.49083">
        <ele>1074</ele>
        <time>2021-06-27T14:18:40.724Z</time>
      </trkpt>
      <trkpt lat="44.0114" lon="3.49084">
        <ele>1074</ele>
        <time>2021-06-27T14:18:45.724Z</time>
      </trkpt>
      <trkpt lat="44.01138" lon="3.49087">
        <ele>1074</ele>
        <time>2021-06-27T14:18:50.715Z</time>
      </trkpt>
      <trkpt lat="44.01134" lon="3.49091">
        <ele>1074</ele>
        <time>2021-06-27T14:18:55.717Z</time>
      </trkpt>
      <trkpt lat="44.0113" lon="3.49094">
        <ele>1074</ele>
        <time>2021-06-27T14:19:00.722Z</time>
      </trkpt>
      <trkpt lat="44.01126" lon="3.49096">
        <ele>1074</ele>
        <time>2021-06-27T14:19:05.715Z</time>
      </trkpt>
      <trkpt lat="44.01124" lon="3.49098">
        <ele>1067</ele>
        <time>2021-06-27T14:19:09.731Z</time>
      </trkpt>
      <trkpt lat="44.01121" lon="3.49101">
        <ele>1067</ele>
        <time>2021-06-27T14:19:14.724Z</time>
      </trkpt>
      <trkpt lat="44.01117" lon="3.49104">
        <ele>1067</ele>
        <time>2021-06-27T14:19:19.738Z</time>
      </trkpt>
      <trkpt lat="44.01113" lon="3.49107">
        <ele>1067</ele>
        <time>2021-06-27T14:19:24.717Z</time>
      </trkpt>
      <trkpt lat="44.0111" lon="3.49111">
        <ele>1067</ele>
        <time>2021-06-27T14:19:29.721Z</time>
      </trkpt>
      <trkpt lat="44.01106" lon="3.49116">
        <ele>1067</ele>
        <time>2021-06-27T14:19:34.717Z</time>
      </trkpt>
      <trkpt lat="44.01103" lon="3.49119">
        <ele>1067</ele>
        <time>2021-06-27T14:19:38.716Z</time>
      </trkpt>
      <trkpt lat="44.01101" lon="3.49121">
        <ele>1067</ele>
        <time>2021-06-27T14:19:43.730Z</time>
      </trkpt>
      <trkpt lat="44.01097" lon="3.49124">
        <ele>1072</ele>
        <time>2021-06-27T14:19:48.718Z</time>
      </trkpt>
      <trkpt lat="44.01093" lon="3.49126">
        <ele>1065</ele>
        <time>2021-06-27T14:19:52.721Z</time>
      </trkpt>
      <trkpt lat="44.01089" lon="3.4913">
        <ele>1065</ele>
        <time>2021-06-27T14:19:57.715Z</time>
      </trkpt>
      <trkpt lat="44.01086" lon="3.49132">
        <ele>1065</ele>
        <time>2021-06-27T14:20:01.718Z</time>
      </trkpt>
      <trkpt lat="44.01082" lon="3.49135">
        <ele>1065</ele>
        <time>2021-06-27T14:20:06.732Z</time>
      </trkpt>
      <trkpt lat="44.0108" lon="3.49137">
        <ele>1065</ele>
        <time>2021-06-27T14:20:11.725Z</time>
      </trkpt>
      <trkpt lat="44.01078" lon="3.4914">
        <ele>1065</ele>
        <time>2021-06-27T14:20:15.747Z</time>
      </trkpt>
      <trkpt lat="44.01074" lon="3.49144">
        <ele>1065</ele>
        <time>2021-06-27T14:20:24.723Z</time>
      </trkpt>
      <trkpt lat="44.01072" lon="3.49146">
        <ele>1065</ele>
        <time>2021-06-27T14:20:29.723Z</time>
      </trkpt>
      <trkpt lat="44.01071" lon="3.49146">
        <ele>1065</ele>
        <time>2021-06-27T14:20:34.722Z</time>
      </trkpt>
      <trkpt lat="44.01071" lon="3.49147">
        <ele>1065</ele>
        <time>2021-06-27T14:20:38.723Z</time>
      </trkpt>
      <trkpt lat="44.01067" lon="3.4915">
        <ele>1067</ele>
        <time>2021-06-27T14:20:43.716Z</time>
      </trkpt>
      <trkpt lat="44.01063" lon="3.49155">
        <ele>1058</ele>
        <time>2021-06-27T14:20:48.720Z</time>
      </trkpt>
      <trkpt lat="44.0106" lon="3.49157">
        <ele>1058</ele>
        <time>2021-06-27T14:20:53.712Z</time>
      </trkpt>
      <trkpt lat="44.01057" lon="3.49159">
        <ele>1058</ele>
        <time>2021-06-27T14:20:58.717Z</time>
      </trkpt>
      <trkpt lat="44.01054" lon="3.49163">
        <ele>1058</ele>
        <time>2021-06-27T14:21:03.713Z</time>
      </trkpt>
      <trkpt lat="44.01051" lon="3.49165">
        <ele>1058</ele>
        <time>2021-06-27T14:21:07.726Z</time>
      </trkpt>
      <trkpt lat="44.01047" lon="3.49169">
        <ele>1058</ele>
        <time>2021-06-27T14:21:12.728Z</time>
      </trkpt>
      <trkpt lat="44.01044" lon="3.49171">
        <ele>1058</ele>
        <time>2021-06-27T14:21:17.701Z</time>
      </trkpt>
      <trkpt lat="44.01042" lon="3.49172">
        <ele>1059</ele>
        <time>2021-06-27T14:21:21.723Z</time>
      </trkpt>
      <trkpt lat="44.01039" lon="3.49177">
        <ele>1059</ele>
        <time>2021-06-27T14:21:26.724Z</time>
      </trkpt>
      <trkpt lat="44.01036" lon="3.4918">
        <ele>1059</ele>
        <time>2021-06-27T14:21:31.718Z</time>
      </trkpt>
      <trkpt lat="44.01032" lon="3.49184">
        <ele>1053</ele>
        <time>2021-06-27T14:21:36.717Z</time>
      </trkpt>
      <trkpt lat="44.01028" lon="3.49187">
        <ele>1053</ele>
        <time>2021-06-27T14:21:41.751Z</time>
      </trkpt>
      <trkpt lat="44.01026" lon="3.49189">
        <ele>1053</ele>
        <time>2021-06-27T14:21:46.717Z</time>
      </trkpt>
      <trkpt lat="44.01023" lon="3.49192">
        <ele>1053</ele>
        <time>2021-06-27T14:21:50.748Z</time>
      </trkpt>
      <trkpt lat="44.01019" lon="3.49196">
        <ele>1053</ele>
        <time>2021-06-27T14:21:55.709Z</time>
      </trkpt>
      <trkpt lat="44.01017" lon="3.49197">
        <ele>1053</ele>
        <time>2021-06-27T14:22:00.748Z</time>
      </trkpt>
      <trkpt lat="44.01014" lon="3.49199">
        <ele>1055</ele>
        <time>2021-06-27T14:22:05.699Z</time>
      </trkpt>
      <trkpt lat="44.01013" lon="3.492">
        <ele>1055</ele>
        <time>2021-06-27T14:22:09.723Z</time>
      </trkpt>
      <trkpt lat="44.0101" lon="3.49203">
        <ele>1055</ele>
        <time>2021-06-27T14:22:14.721Z</time>
      </trkpt>
      <trkpt lat="44.01007" lon="3.49207">
        <ele>1055</ele>
        <time>2021-06-27T14:22:19.726Z</time>
      </trkpt>
      <trkpt lat="44.01004" lon="3.49209">
        <ele>1048</ele>
        <time>2021-06-27T14:22:24.724Z</time>
      </trkpt>
      <trkpt lat="44.01001" lon="3.49212">
        <ele>1048</ele>
        <time>2021-06-27T14:22:29.718Z</time>
      </trkpt>
      <trkpt lat="44.00996" lon="3.49215">
        <ele>1048</ele>
        <time>2021-06-27T14:22:34.715Z</time>
      </trkpt>
      <trkpt lat="44.00992" lon="3.49218">
        <ele>1048</ele>
        <time>2021-06-27T14:22:38.735Z</time>
      </trkpt>
      <trkpt lat="44.00988" lon="3.49221">
        <ele>1048</ele>
        <time>2021-06-27T14:22:43.720Z</time>
      </trkpt>
      <trkpt lat="44.00985" lon="3.49225">
        <ele>1052</ele>
        <time>2021-06-27T14:22:48.721Z</time>
      </trkpt>
      <trkpt lat="44.00981" lon="3.49226">
        <ele>1052</ele>
        <time>2021-06-27T14:22:53.718Z</time>
      </trkpt>
      <trkpt lat="44.00978" lon="3.4923">
        <ele>1052</ele>
        <time>2021-06-27T14:22:58.723Z</time>
      </trkpt>
      <trkpt lat="44.00974" lon="3.49234">
        <ele>1052</ele>
        <time>2021-06-27T14:23:03.696Z</time>
      </trkpt>
      <trkpt lat="44.00973" lon="3.49235">
        <ele>1052</ele>
        <time>2021-06-27T14:23:07.715Z</time>
      </trkpt>
      <trkpt lat="44.00971" lon="3.49236">
        <ele>1042</ele>
        <time>2021-06-27T14:23:16.722Z</time>
      </trkpt>
      <trkpt lat="44.00965" lon="3.49242">
        <ele>1042</ele>
        <time>2021-06-27T14:23:21.709Z</time>
      </trkpt>
      <trkpt lat="44.00962" lon="3.49245">
        <ele>1042</ele>
        <time>2021-06-27T14:23:25.724Z</time>
      </trkpt>
      <trkpt lat="44.0096" lon="3.49248">
        <ele>1042</ele>
        <time>2021-06-27T14:23:30.734Z</time>
      </trkpt>
      <trkpt lat="44.00958" lon="3.4925">
        <ele>1044</ele>
        <time>2021-06-27T14:23:35.717Z</time>
      </trkpt>
      <trkpt lat="44.00955" lon="3.49255">
        <ele>1044</ele>
        <time>2021-06-27T14:23:40.716Z</time>
      </trkpt>
      <trkpt lat="44.00952" lon="3.49259">
        <ele>1044</ele>
        <time>2021-06-27T14:23:45.724Z</time>
      </trkpt>
      <trkpt lat="44.00947" lon="3.49261">
        <ele>1044</ele>
        <time>2021-06-27T14:23:50.723Z</time>
      </trkpt>
      <trkpt lat="44.00946" lon="3.49262">
        <ele>1044</ele>
        <time>2021-06-27T14:23:55.743Z</time>
      </trkpt>
      <trkpt lat="44.00944" lon="3.49264">
        <ele>1044</ele>
        <time>2021-06-27T14:24:00.724Z</time>
      </trkpt>
      <trkpt lat="44.0094" lon="3.49267">
        <ele>1033</ele>
        <time>2021-06-27T14:24:05.714Z</time>
      </trkpt>
      <trkpt lat="44.00935" lon="3.49271">
        <ele>1033</ele>
        <time>2021-06-27T14:24:10.743Z</time>
      </trkpt>
      <trkpt lat="44.0093" lon="3.49274">
        <ele>1034</ele>
        <time>2021-06-27T14:24:15.725Z</time>
      </trkpt>
      <trkpt lat="44.00927" lon="3.49278">
        <ele>1034</ele>
        <time>2021-06-27T14:24:20.714Z</time>
      </trkpt>
      <trkpt lat="44.00925" lon="3.49279">
        <ele>1034</ele>
        <time>2021-06-27T14:24:24.724Z</time>
      </trkpt>
      <trkpt lat="44.00923" lon="3.49281">
        <ele>1034</ele>
        <time>2021-06-27T14:24:29.717Z</time>
      </trkpt>
      <trkpt lat="44.0092" lon="3.49281">
        <ele>1034</ele>
        <time>2021-06-27T14:24:34.715Z</time>
      </trkpt>
      <trkpt lat="44.00916" lon="3.49283">
        <ele>1034</ele>
        <time>2021-06-27T14:24:39.717Z</time>
      </trkpt>
      <trkpt lat="44.00911" lon="3.49282">
        <ele>1034</ele>
        <time>2021-06-27T14:24:44.698Z</time>
      </trkpt>
      <trkpt lat="44.00908" lon="3.49282">
        <ele>1034</ele>
        <time>2021-06-27T14:24:48.720Z</time>
      </trkpt>
      <trkpt lat="44.00904" lon="3.49284">
        <ele>1034</ele>
        <time>2021-06-27T14:24:53.698Z</time>
      </trkpt>
      <trkpt lat="44.00903" lon="3.49284">
        <ele>1030</ele>
        <time>2021-06-27T14:24:57.716Z</time>
      </trkpt>
      <trkpt lat="44.00898" lon="3.49284">
        <ele>1030</ele>
        <time>2021-06-27T14:25:02.717Z</time>
      </trkpt>
      <trkpt lat="44.00895" lon="3.49283">
        <ele>1030</ele>
        <time>2021-06-27T14:25:07.717Z</time>
      </trkpt>
      <trkpt lat="44.00891" lon="3.49283">
        <ele>1030</ele>
        <time>2021-06-27T14:25:12.713Z</time>
      </trkpt>
      <trkpt lat="44.00889" lon="3.49282">
        <ele>1030</ele>
        <time>2021-06-27T14:25:17.716Z</time>
      </trkpt>
      <trkpt lat="44.00886" lon="3.49281">
        <ele>1030</ele>
        <time>2021-06-27T14:25:22.700Z</time>
      </trkpt>
      <trkpt lat="44.00876" lon="3.49281">
        <ele>1030</ele>
        <time>2021-06-27T14:25:45.719Z</time>
      </trkpt>
      <trkpt lat="44.00874" lon="3.4928">
        <ele>1025</ele>
        <time>2021-06-27T14:25:50.721Z</time>
      </trkpt>
      <trkpt lat="44.00871" lon="3.49278">
        <ele>1025</ele>
        <time>2021-06-27T14:25:55.729Z</time>
      </trkpt>
      <trkpt lat="44.00869" lon="3.49276">
        <ele>1025</ele>
        <time>2021-06-27T14:26:00.723Z</time>
      </trkpt>
      <trkpt lat="44.00864" lon="3.49273">
        <ele>1025</ele>
        <time>2021-06-27T14:26:05.719Z</time>
      </trkpt>
      <trkpt lat="44.00861" lon="3.49271">
        <ele>1025</ele>
        <time>2021-06-27T14:26:10.720Z</time>
      </trkpt>
      <trkpt lat="44.0086" lon="3.4927">
        <ele>1025</ele>
        <time>2021-06-27T14:26:15.722Z</time>
      </trkpt>
      <trkpt lat="44.00856" lon="3.49266">
        <ele>1025</ele>
        <time>2021-06-27T14:26:20.726Z</time>
      </trkpt>
      <trkpt lat="44.00855" lon="3.49264">
        <ele>1025</ele>
        <time>2021-06-27T14:26:25.716Z</time>
      </trkpt>
      <trkpt lat="44.00852" lon="3.49262">
        <ele>1033</ele>
        <time>2021-06-27T14:26:30.719Z</time>
      </trkpt>
      <trkpt lat="44.00844" lon="3.49254">
        <ele>1025</ele>
        <time>2021-06-27T14:26:35.723Z</time>
      </trkpt>
      <trkpt lat="44.0084" lon="3.49251">
        <ele>1025</ele>
        <time>2021-06-27T14:26:59.715Z</time>
      </trkpt>
      <trkpt lat="44.00834" lon="3.49244">
        <ele>1025</ele>
        <time>2021-06-27T14:27:03.723Z</time>
      </trkpt>
      <trkpt lat="44.00825" lon="3.49235">
        <ele>1031</ele>
        <time>2021-06-27T14:27:08.714Z</time>
      </trkpt>
      <trkpt lat="44.00821" lon="3.49231">
        <ele>1031</ele>
        <time>2021-06-27T14:27:12.723Z</time>
      </trkpt>
      <trkpt lat="44.00819" lon="3.49229">
        <ele>1022</ele>
        <time>2021-06-27T14:27:22.718Z</time>
      </trkpt>
      <trkpt lat="44.00815" lon="3.49226">
        <ele>1022</ele>
        <time>2021-06-27T14:27:27.718Z</time>
      </trkpt>
      <trkpt lat="44.0081" lon="3.49222">
        <ele>1022</ele>
        <time>2021-06-27T14:27:32.723Z</time>
      </trkpt>
      <trkpt lat="44.00806" lon="3.49218">
        <ele>1022</ele>
        <time>2021-06-27T14:27:37.722Z</time>
      </trkpt>
      <trkpt lat="44.00801" lon="3.49215">
        <ele>1022</ele>
        <time>2021-06-27T14:27:46.749Z</time>
      </trkpt>
      <trkpt lat="44.00799" lon="3.49213">
        <ele>1022</ele>
        <time>2021-06-27T14:27:51.713Z</time>
      </trkpt>
      <trkpt lat="44.00792" lon="3.49208">
        <ele>1031</ele>
        <time>2021-06-27T14:27:55.723Z</time>
      </trkpt>
      <trkpt lat="44.00785" lon="3.49202">
        <ele>1025</ele>
        <time>2021-06-27T14:28:00.717Z</time>
      </trkpt>
      <trkpt lat="44.00768" lon="3.49193">
        <ele>1025</ele>
        <time>2021-06-27T14:28:29.710Z</time>
      </trkpt>
      <trkpt lat="44.00762" lon="3.4919">
        <ele>1016</ele>
        <time>2021-06-27T14:28:34.699Z</time>
      </trkpt>
      <trkpt lat="44.0076" lon="3.4919">
        <ele>1016</ele>
        <time>2021-06-27T14:28:38.716Z</time>
      </trkpt>
      <trkpt lat="44.00759" lon="3.49197">
        <ele>1016</ele>
        <time>2021-06-27T14:29:05.736Z</time>
      </trkpt>
      <trkpt lat="44.0076" lon="3.49211">
        <ele>1004</ele>
        <time>2021-06-27T14:29:15.722Z</time>
      </trkpt>
      <trkpt lat="44.0076" lon="3.49214">
        <ele>1004</ele>
        <time>2021-06-27T14:29:19.730Z</time>
      </trkpt>
      <trkpt lat="44.00766" lon="3.49221">
        <ele>1014</ele>
        <time>2021-06-27T14:29:38.726Z</time>
      </trkpt>
      <trkpt lat="44.00772" lon="3.49226">
        <ele>1014</ele>
        <time>2021-06-27T14:29:58.716Z</time>
      </trkpt>
      <trkpt lat="44.00773" lon="3.49231">
        <ele>1014</ele>
        <time>2021-06-27T14:30:26.717Z</time>
      </trkpt>
      <trkpt lat="44.00774" lon="3.49231">
        <ele>1014</ele>
        <time>2021-06-27T14:30:31.721Z</time>
      </trkpt>
      <trkpt lat="44.00775" lon="3.49238">
        <ele>1005</ele>
        <time>2021-06-27T14:30:41.718Z</time>
      </trkpt>
      <trkpt lat="44.00778" lon="3.49242">
        <ele>1005</ele>
        <time>2021-06-27T14:39:25.722Z</time>
      </trkpt>
      <trkpt lat="44.00776" lon="3.49237">
        <ele>1005</ele>
        <time>2021-06-27T14:39:30.728Z</time>
      </trkpt>
      <trkpt lat="44.00772" lon="3.49234">
        <ele>1014</ele>
        <time>2021-06-27T14:39:44.721Z</time>
      </trkpt>
      <trkpt lat="44.00763" lon="3.49224">
        <ele>1004</ele>
        <time>2021-06-27T14:39:49.723Z</time>
      </trkpt>
      <trkpt lat="44.00762" lon="3.49222">
        <ele>1004</ele>
        <time>2021-06-27T14:39:54.726Z</time>
      </trkpt>
      <trkpt lat="44.00757" lon="3.49219">
        <ele>1004</ele>
        <time>2021-06-27T14:40:09.715Z</time>
      </trkpt>
      <trkpt lat="44.0075" lon="3.49215">
        <ele>1004</ele>
        <time>2021-06-27T14:40:13.723Z</time>
      </trkpt>
      <trkpt lat="44.00749" lon="3.49215">
        <ele>1004</ele>
        <time>2021-06-27T14:40:18.727Z</time>
      </trkpt>
      <trkpt lat="44.0074" lon="3.49214">
        <ele>1004</ele>
        <time>2021-06-27T14:40:28.713Z</time>
      </trkpt>
      <trkpt lat="44.00735" lon="3.49214">
        <ele>997</ele>
        <time>2021-06-27T14:40:32.729Z</time>
      </trkpt>
      <trkpt lat="44.00732" lon="3.49214">
        <ele>997</ele>
        <time>2021-06-27T14:40:37.718Z</time>
      </trkpt>
      <trkpt lat="44.00728" lon="3.49213">
        <ele>997</ele>
        <time>2021-06-27T14:40:42.719Z</time>
      </trkpt>
      <trkpt lat="44.00725" lon="3.49213">
        <ele>997</ele>
        <time>2021-06-27T14:40:47.721Z</time>
      </trkpt>
      <trkpt lat="44.00723" lon="3.4921">
        <ele>997</ele>
        <time>2021-06-27T14:40:52.723Z</time>
      </trkpt>
      <trkpt lat="44.00721" lon="3.4921">
        <ele>997</ele>
        <time>2021-06-27T14:40:57.720Z</time>
      </trkpt>
      <trkpt lat="44.00717" lon="3.49211">
        <ele>997</ele>
        <time>2021-06-27T14:41:02.703Z</time>
      </trkpt>
      <trkpt lat="44.00713" lon="3.49211">
        <ele>997</ele>
        <time>2021-06-27T14:41:06.730Z</time>
      </trkpt>
      <trkpt lat="44.00709" lon="3.4921">
        <ele>997</ele>
        <time>2021-06-27T14:41:11.722Z</time>
      </trkpt>
      <trkpt lat="44.00708" lon="3.4921">
        <ele>990</ele>
        <time>2021-06-27T14:41:34.724Z</time>
      </trkpt>
      <trkpt lat="44.00705" lon="3.49211">
        <ele>990</ele>
        <time>2021-06-27T14:42:04.729Z</time>
      </trkpt>
      <trkpt lat="44.00699" lon="3.49211">
        <ele>990</ele>
        <time>2021-06-27T14:42:09.725Z</time>
      </trkpt>
      <trkpt lat="44.00697" lon="3.49211">
        <ele>990</ele>
        <time>2021-06-27T14:42:14.723Z</time>
      </trkpt>
      <trkpt lat="44.0069" lon="3.49211">
        <ele>990</ele>
        <time>2021-06-27T14:42:19.725Z</time>
      </trkpt>
      <trkpt lat="44.00687" lon="3.4921">
        <ele>990</ele>
        <time>2021-06-27T14:42:24.713Z</time>
      </trkpt>
      <trkpt lat="44.00682" lon="3.49213">
        <ele>990</ele>
        <time>2021-06-27T14:42:28.723Z</time>
      </trkpt>
      <trkpt lat="44.00678" lon="3.49213">
        <ele>991</ele>
        <time>2021-06-27T14:42:33.722Z</time>
      </trkpt>
      <trkpt lat="44.0067" lon="3.49213">
        <ele>991</ele>
        <time>2021-06-27T14:42:38.721Z</time>
      </trkpt>
      <trkpt lat="44.00667" lon="3.49213">
        <ele>991</ele>
        <time>2021-06-27T14:42:43.718Z</time>
      </trkpt>
      <trkpt lat="44.00658" lon="3.49213">
        <ele>991</ele>
        <time>2021-06-27T14:42:48.734Z</time>
      </trkpt>
      <trkpt lat="44.00656" lon="3.49213">
        <ele>991</ele>
        <time>2021-06-27T14:42:53.724Z</time>
      </trkpt>
      <trkpt lat="44.00653" lon="3.49214">
        <ele>991</ele>
        <time>2021-06-27T14:42:58.722Z</time>
      </trkpt>
      <trkpt lat="44.0065" lon="3.49213">
        <ele>988</ele>
        <time>2021-06-27T14:43:02.728Z</time>
      </trkpt>
      <trkpt lat="44.00644" lon="3.49214">
        <ele>988</ele>
        <time>2021-06-27T14:43:07.728Z</time>
      </trkpt>
      <trkpt lat="44.0064" lon="3.49213">
        <ele>988</ele>
        <time>2021-06-27T14:43:12.716Z</time>
      </trkpt>
      <trkpt lat="44.00638" lon="3.49212">
        <ele>988</ele>
        <time>2021-06-27T14:43:16.728Z</time>
      </trkpt>
      <trkpt lat="44.0063" lon="3.49213">
        <ele>988</ele>
        <time>2021-06-27T14:43:31.721Z</time>
      </trkpt>
      <trkpt lat="44.00619" lon="3.49216">
        <ele>985</ele>
        <time>2021-06-27T14:43:36.719Z</time>
      </trkpt>
      <trkpt lat="44.00613" lon="3.49217">
        <ele>985</ele>
        <time>2021-06-27T14:43:41.720Z</time>
      </trkpt>
      <trkpt lat="44.00611" lon="3.49217">
        <ele>985</ele>
        <time>2021-06-27T14:43:46.720Z</time>
      </trkpt>
      <trkpt lat="44.00607" lon="3.49218">
        <ele>985</ele>
        <time>2021-06-27T14:43:50.727Z</time>
      </trkpt>
      <trkpt lat="44.00601" lon="3.49218">
        <ele>985</ele>
        <time>2021-06-27T14:43:55.723Z</time>
      </trkpt>
      <trkpt lat="44.00599" lon="3.49217">
        <ele>985</ele>
        <time>2021-06-27T14:44:14.723Z</time>
      </trkpt>
      <trkpt lat="44.00594" lon="3.49216">
        <ele>979</ele>
        <time>2021-06-27T14:44:19.724Z</time>
      </trkpt>
      <trkpt lat="44.00588" lon="3.49216">
        <ele>979</ele>
        <time>2021-06-27T14:44:24.726Z</time>
      </trkpt>
      <trkpt lat="44.00579" lon="3.49213">
        <ele>979</ele>
        <time>2021-06-27T14:44:39.727Z</time>
      </trkpt>
      <trkpt lat="44.00571" lon="3.49211">
        <ele>979</ele>
        <time>2021-06-27T14:44:44.721Z</time>
      </trkpt>
      <trkpt lat="44.00565" lon="3.49209">
        <ele>973</ele>
        <time>2021-06-27T14:44:49.719Z</time>
      </trkpt>
      <trkpt lat="44.0056" lon="3.49208">
        <ele>973</ele>
        <time>2021-06-27T14:44:54.728Z</time>
      </trkpt>
      <trkpt lat="44.00559" lon="3.49208">
        <ele>980</ele>
        <time>2021-06-27T14:44:59.714Z</time>
      </trkpt>
      <trkpt lat="44.00554" lon="3.49205">
        <ele>980</ele>
        <time>2021-06-27T14:45:08.696Z</time>
      </trkpt>
      <trkpt lat="44.00549" lon="3.49203">
        <ele>980</ele>
        <time>2021-06-27T14:45:12.728Z</time>
      </trkpt>
      <trkpt lat="44.00546" lon="3.49202">
        <ele>980</ele>
        <time>2021-06-27T14:45:17.728Z</time>
      </trkpt>
      <trkpt lat="44.00541" lon="3.49199">
        <ele>972</ele>
        <time>2021-06-27T14:45:31.718Z</time>
      </trkpt>
      <trkpt lat="44.0054" lon="3.49198">
        <ele>972</ele>
        <time>2021-06-27T14:45:36.719Z</time>
      </trkpt>
      <trkpt lat="44.00537" lon="3.49192">
        <ele>972</ele>
        <time>2021-06-27T14:45:41.720Z</time>
      </trkpt>
      <trkpt lat="44.00536" lon="3.49189">
        <ele>972</ele>
        <time>2021-06-27T14:45:45.726Z</time>
      </trkpt>
      <trkpt lat="44.00535" lon="3.49187">
        <ele>972</ele>
        <time>2021-06-27T14:45:50.728Z</time>
      </trkpt>
      <trkpt lat="44.00533" lon="3.49182">
        <ele>972</ele>
        <time>2021-06-27T14:45:55.723Z</time>
      </trkpt>
      <trkpt lat="44.00531" lon="3.49177">
        <ele>981</ele>
        <time>2021-06-27T14:46:00.725Z</time>
      </trkpt>
      <trkpt lat="44.00529" lon="3.49171">
        <ele>981</ele>
        <time>2021-06-27T14:46:05.725Z</time>
      </trkpt>
      <trkpt lat="44.00526" lon="3.49165">
        <ele>981</ele>
        <time>2021-06-27T14:46:10.706Z</time>
      </trkpt>
      <trkpt lat="44.00523" lon="3.49162">
        <ele>981</ele>
        <time>2021-06-27T14:46:14.743Z</time>
      </trkpt>
      <trkpt lat="44.00519" lon="3.49156">
        <ele>981</ele>
        <time>2021-06-27T14:46:19.722Z</time>
      </trkpt>
      <trkpt lat="44.00513" lon="3.49154">
        <ele>973</ele>
        <time>2021-06-27T14:46:24.713Z</time>
      </trkpt>
      <trkpt lat="44.00509" lon="3.49152">
        <ele>981</ele>
        <time>2021-06-27T14:46:28.730Z</time>
      </trkpt>
      <trkpt lat="44.00506" lon="3.49151">
        <ele>981</ele>
        <time>2021-06-27T14:46:33.721Z</time>
      </trkpt>
      <trkpt lat="44.00502" lon="3.4915">
        <ele>981</ele>
        <time>2021-06-27T14:46:37.729Z</time>
      </trkpt>
      <trkpt lat="44.00498" lon="3.49148">
        <ele>981</ele>
        <time>2021-06-27T14:46:42.717Z</time>
      </trkpt>
      <trkpt lat="44.00496" lon="3.49146">
        <ele>981</ele>
        <time>2021-06-27T14:46:46.717Z</time>
      </trkpt>
      <trkpt lat="44.00491" lon="3.49144">
        <ele>981</ele>
        <time>2021-06-27T14:46:56.719Z</time>
      </trkpt>
      <trkpt lat="44.00488" lon="3.49141">
        <ele>981</ele>
        <time>2021-06-27T14:47:01.719Z</time>
      </trkpt>
      <trkpt lat="44.00487" lon="3.49141">
        <ele>981</ele>
        <time>2021-06-27T14:47:06.722Z</time>
      </trkpt>
      <trkpt lat="44.00484" lon="3.49141">
        <ele>974</ele>
        <time>2021-06-27T14:47:11.723Z</time>
      </trkpt>
      <trkpt lat="44.00479" lon="3.4914">
        <ele>974</ele>
        <time>2021-06-27T14:47:16.726Z</time>
      </trkpt>
      <trkpt lat="44.00476" lon="3.4914">
        <ele>974</ele>
        <time>2021-06-27T14:47:21.720Z</time>
      </trkpt>
      <trkpt lat="44.00472" lon="3.49139">
        <ele>974</ele>
        <time>2021-06-27T14:47:25.722Z</time>
      </trkpt>
      <trkpt lat="44.0047" lon="3.49138">
        <ele>974</ele>
        <time>2021-06-27T14:47:30.728Z</time>
      </trkpt>
      <trkpt lat="44.00464" lon="3.49138">
        <ele>974</ele>
        <time>2021-06-27T14:47:53.728Z</time>
      </trkpt>
      <trkpt lat="44.00461" lon="3.49138">
        <ele>974</ele>
        <time>2021-06-27T14:47:58.732Z</time>
      </trkpt>
      <trkpt lat="44.00454" lon="3.4914">
        <ele>966</ele>
        <time>2021-06-27T14:48:03.713Z</time>
      </trkpt>
      <trkpt lat="44.00451" lon="3.49144">
        <ele>966</ele>
        <time>2021-06-27T14:48:08.724Z</time>
      </trkpt>
      <trkpt lat="44.00451" lon="3.49149">
        <ele>966</ele>
        <time>2021-06-27T14:48:17.722Z</time>
      </trkpt>
      <trkpt lat="44.00452" lon="3.49155">
        <ele>959</ele>
        <time>2021-06-27T14:48:27.724Z</time>
      </trkpt>
      <trkpt lat="44.00452" lon="3.49156">
        <ele>959</ele>
        <time>2021-06-27T14:48:41.713Z</time>
      </trkpt>
      <trkpt lat="44.0045" lon="3.49158">
        <ele>959</ele>
        <time>2021-06-27T14:48:46.715Z</time>
      </trkpt>
      <trkpt lat="44.00446" lon="3.49156">
        <ele>959</ele>
        <time>2021-06-27T14:48:51.724Z</time>
      </trkpt>
      <trkpt lat="44.00443" lon="3.49156">
        <ele>959</ele>
        <time>2021-06-27T14:48:56.715Z</time>
      </trkpt>
      <trkpt lat="44.0044" lon="3.49157">
        <ele>959</ele>
        <time>2021-06-27T14:49:06.715Z</time>
      </trkpt>
      <trkpt lat="44.00439" lon="3.49156">
        <ele>959</ele>
        <time>2021-06-27T14:49:10.728Z</time>
      </trkpt>
      <trkpt lat="44.00436" lon="3.49156">
        <ele>959</ele>
        <time>2021-06-27T14:49:15.725Z</time>
      </trkpt>
      <trkpt lat="44.00433" lon="3.49156">
        <ele>959</ele>
        <time>2021-06-27T14:49:34.724Z</time>
      </trkpt>
      <trkpt lat="44.00425" lon="3.49154">
        <ele>950</ele>
        <time>2021-06-27T14:49:39.719Z</time>
      </trkpt>
      <trkpt lat="44.00423" lon="3.49154">
        <ele>950</ele>
        <time>2021-06-27T14:49:48.708Z</time>
      </trkpt>
      <trkpt lat="44.00421" lon="3.49153">
        <ele>950</ele>
        <time>2021-06-27T14:49:52.721Z</time>
      </trkpt>
      <trkpt lat="44.0042" lon="3.49152">
        <ele>961</ele>
        <time>2021-06-27T14:49:57.744Z</time>
      </trkpt>
      <trkpt lat="44.00415" lon="3.4915">
        <ele>961</ele>
        <time>2021-06-27T14:50:02.723Z</time>
      </trkpt>
      <trkpt lat="44.0041" lon="3.49157">
        <ele>950</ele>
        <time>2021-06-27T14:50:21.723Z</time>
      </trkpt>
      <trkpt lat="44.0041" lon="3.4916">
        <ele>950</ele>
        <time>2021-06-27T14:50:40.731Z</time>
      </trkpt>
      <trkpt lat="44.00407" lon="3.4916">
        <ele>950</ele>
        <time>2021-06-27T14:51:00.715Z</time>
      </trkpt>
      <trkpt lat="44.00406" lon="3.4916">
        <ele>950</ele>
        <time>2021-06-27T14:51:05.729Z</time>
      </trkpt>
      <trkpt lat="44.00403" lon="3.49162">
        <ele>949</ele>
        <time>2021-06-27T14:51:15.721Z</time>
      </trkpt>
      <trkpt lat="44.00396" lon="3.49165">
        <ele>949</ele>
        <time>2021-06-27T14:51:20.720Z</time>
      </trkpt>
      <trkpt lat="44.00393" lon="3.49168">
        <ele>949</ele>
        <time>2021-06-27T14:51:30.729Z</time>
      </trkpt>
      <trkpt lat="44.00391" lon="3.49168">
        <ele>949</ele>
        <time>2021-06-27T14:51:35.728Z</time>
      </trkpt>
      <trkpt lat="44.00388" lon="3.49169">
        <ele>949</ele>
        <time>2021-06-27T14:51:49.723Z</time>
      </trkpt>
      <trkpt lat="44.00386" lon="3.4917">
        <ele>949</ele>
        <time>2021-06-27T14:51:53.763Z</time>
      </trkpt>
      <trkpt lat="44.00376" lon="3.49172">
        <ele>949</ele>
        <time>2021-06-27T14:51:58.722Z</time>
      </trkpt>
      <trkpt lat="44.00373" lon="3.49173">
        <ele>946</ele>
        <time>2021-06-27T14:52:03.718Z</time>
      </trkpt>
      <trkpt lat="44.00368" lon="3.49174">
        <ele>946</ele>
        <time>2021-06-27T14:52:08.718Z</time>
      </trkpt>
      <trkpt lat="44.00364" lon="3.49176">
        <ele>946</ele>
        <time>2021-06-27T14:52:18.699Z</time>
      </trkpt>
      <trkpt lat="44.00367" lon="3.49186">
        <ele>934</ele>
        <time>2021-06-27T14:53:43.756Z</time>
      </trkpt>
      <trkpt lat="44.00369" lon="3.49196">
        <ele>934</ele>
        <time>2021-06-27T14:53:48.725Z</time>
      </trkpt>
      <trkpt lat="44.0037" lon="3.492">
        <ele>934</ele>
        <time>2021-06-27T14:54:45.721Z</time>
      </trkpt>
      <trkpt lat="44.00373" lon="3.49204">
        <ele>934</ele>
        <time>2021-06-27T14:54:50.718Z</time>
      </trkpt>
      <trkpt lat="44.00373" lon="3.49212">
        <ele>923</ele>
        <time>2021-06-27T14:55:05.723Z</time>
      </trkpt>
      <trkpt lat="44.00374" lon="3.49223">
        <ele>923</ele>
        <time>2021-06-27T14:55:15.698Z</time>
      </trkpt>
      <trkpt lat="44.00371" lon="3.49225">
        <ele>923</ele>
        <time>2021-06-27T14:55:23.748Z</time>
      </trkpt>
      <trkpt lat="44.0037" lon="3.49227">
        <ele>923</ele>
        <time>2021-06-27T14:55:28.720Z</time>
      </trkpt>
      <trkpt lat="44.00368" lon="3.49229">
        <ele>923</ele>
        <time>2021-06-27T14:55:47.713Z</time>
      </trkpt>
      <trkpt lat="44.00362" lon="3.49232">
        <ele>923</ele>
        <time>2021-06-27T14:56:21.723Z</time>
      </trkpt>
      <trkpt lat="44.00354" lon="3.49234">
        <ele>923</ele>
        <time>2021-06-27T14:56:51.722Z</time>
      </trkpt>
      <trkpt lat="44.00347" lon="3.49235">
        <ele>914</ele>
        <time>2021-06-27T14:56:56.718Z</time>
      </trkpt>
      <trkpt lat="44.00345" lon="3.49235">
        <ele>914</ele>
        <time>2021-06-27T14:57:00.726Z</time>
      </trkpt>
      <trkpt lat="44.00335" lon="3.49237">
        <ele>903</ele>
        <time>2021-06-27T14:57:05.748Z</time>
      </trkpt>
      <trkpt lat="44.00322" lon="3.49235">
        <ele>914</ele>
        <time>2021-06-27T14:57:15.695Z</time>
      </trkpt>
      <trkpt lat="44.00312" lon="3.49236">
        <ele>896</ele>
        <time>2021-06-27T14:57:24.719Z</time>
      </trkpt>
      <trkpt lat="44.00306" lon="3.49234">
        <ele>907</ele>
        <time>2021-06-27T14:57:28.735Z</time>
      </trkpt>
      <trkpt lat="44.003" lon="3.49231">
        <ele>907</ele>
        <time>2021-06-27T14:57:33.713Z</time>
      </trkpt>
      <trkpt lat="44.00299" lon="3.49231">
        <ele>907</ele>
        <time>2021-06-27T14:57:37.716Z</time>
      </trkpt>
      <trkpt lat="44.00293" lon="3.49231">
        <ele>907</ele>
        <time>2021-06-27T14:57:42.726Z</time>
      </trkpt>
      <trkpt lat="44.00279" lon="3.49228">
        <ele>904</ele>
        <time>2021-06-27T14:57:56.725Z</time>
      </trkpt>
      <trkpt lat="44.00272" lon="3.49225">
        <ele>904</ele>
        <time>2021-06-27T14:58:01.721Z</time>
      </trkpt>
      <trkpt lat="44.00269" lon="3.49224">
        <ele>904</ele>
        <time>2021-06-27T14:58:06.728Z</time>
      </trkpt>
      <trkpt lat="44.00264" lon="3.49223">
        <ele>900</ele>
        <time>2021-06-27T14:58:11.721Z</time>
      </trkpt>
      <trkpt lat="44.00259" lon="3.49224">
        <ele>900</ele>
        <time>2021-06-27T14:58:15.725Z</time>
      </trkpt>
      <trkpt lat="44.00254" lon="3.49225">
        <ele>900</ele>
        <time>2021-06-27T14:58:20.703Z</time>
      </trkpt>
      <trkpt lat="44.00252" lon="3.49225">
        <ele>900</ele>
        <time>2021-06-27T14:58:24.726Z</time>
      </trkpt>
      <trkpt lat="44.0025" lon="3.49224">
        <ele>900</ele>
        <time>2021-06-27T14:58:29.725Z</time>
      </trkpt>
      <trkpt lat="44.00245" lon="3.49223">
        <ele>900</ele>
        <time>2021-06-27T14:58:34.725Z</time>
      </trkpt>
      <trkpt lat="44.00243" lon="3.49221">
        <ele>900</ele>
        <time>2021-06-27T14:58:39.714Z</time>
      </trkpt>
      <trkpt lat="44.0024" lon="3.49221">
        <ele>900</ele>
        <time>2021-06-27T14:58:43.717Z</time>
      </trkpt>
      <trkpt lat="44.00239" lon="3.49221">
        <ele>900</ele>
        <time>2021-06-27T14:58:48.721Z</time>
      </trkpt>
      <trkpt lat="44.00229" lon="3.49217">
        <ele>895</ele>
        <time>2021-06-27T14:58:58.715Z</time>
      </trkpt>
      <trkpt lat="44.00224" lon="3.49214">
        <ele>895</ele>
        <time>2021-06-27T14:59:07.718Z</time>
      </trkpt>
      <trkpt lat="44.00221" lon="3.49214">
        <ele>895</ele>
        <time>2021-06-27T14:59:16.719Z</time>
      </trkpt>
      <trkpt lat="44.00218" lon="3.49213">
        <ele>895</ele>
        <time>2021-06-27T14:59:21.741Z</time>
      </trkpt>
      <trkpt lat="44.00213" lon="3.4921">
        <ele>895</ele>
        <time>2021-06-27T14:59:26.718Z</time>
      </trkpt>
      <trkpt lat="44.00199" lon="3.49203">
        <ele>889</ele>
        <time>2021-06-27T14:59:44.742Z</time>
      </trkpt>
      <trkpt lat="44.00189" lon="3.49197">
        <ele>889</ele>
        <time>2021-06-27T14:59:49.724Z</time>
      </trkpt>
      <trkpt lat="44.00185" lon="3.49196">
        <ele>889</ele>
        <time>2021-06-27T14:59:54.715Z</time>
      </trkpt>
      <trkpt lat="44.00182" lon="3.49195">
        <ele>889</ele>
        <time>2021-06-27T14:59:59.703Z</time>
      </trkpt>
      <trkpt lat="44.00181" lon="3.49196">
        <ele>877</ele>
        <time>2021-06-27T15:00:03.718Z</time>
      </trkpt>
      <trkpt lat="44.00175" lon="3.49195">
        <ele>877</ele>
        <time>2021-06-27T15:00:08.726Z</time>
      </trkpt>
      <trkpt lat="44.00171" lon="3.49192">
        <ele>877</ele>
        <time>2021-06-27T15:00:13.696Z</time>
      </trkpt>
      <trkpt lat="44.00169" lon="3.49188">
        <ele>877</ele>
        <time>2021-06-27T15:00:17.708Z</time>
      </trkpt>
      <trkpt lat="44.00167" lon="3.49186">
        <ele>877</ele>
        <time>2021-06-27T15:00:21.727Z</time>
      </trkpt>
      <trkpt lat="44.00165" lon="3.49183">
        <ele>877</ele>
        <time>2021-06-27T15:00:26.724Z</time>
      </trkpt>
      <trkpt lat="44.00164" lon="3.49179">
        <ele>885</ele>
        <time>2021-06-27T15:00:31.697Z</time>
      </trkpt>
      <trkpt lat="44.00162" lon="3.49175">
        <ele>885</ele>
        <time>2021-06-27T15:00:36.726Z</time>
      </trkpt>
      <trkpt lat="44.00161" lon="3.49173">
        <ele>885</ele>
        <time>2021-06-27T15:00:41.721Z</time>
      </trkpt>
      <trkpt lat="44.00162" lon="3.49166">
        <ele>885</ele>
        <time>2021-06-27T15:00:46.719Z</time>
      </trkpt>
      <trkpt lat="44.00162" lon="3.49162">
        <ele>885</ele>
        <time>2021-06-27T15:00:51.718Z</time>
      </trkpt>
      <trkpt lat="44.00161" lon="3.49161">
        <ele>885</ele>
        <time>2021-06-27T15:00:56.714Z</time>
      </trkpt>
      <trkpt lat="44.0016" lon="3.49156">
        <ele>885</ele>
        <time>2021-06-27T15:01:01.728Z</time>
      </trkpt>
      <trkpt lat="44.00159" lon="3.4915">
        <ele>886</ele>
        <time>2021-06-27T15:01:06.696Z</time>
      </trkpt>
      <trkpt lat="44.00158" lon="3.49148">
        <ele>886</ele>
        <time>2021-06-27T15:01:11.716Z</time>
      </trkpt>
      <trkpt lat="44.00159" lon="3.49146">
        <ele>886</ele>
        <time>2021-06-27T15:01:21.726Z</time>
      </trkpt>
      <trkpt lat="44.00159" lon="3.49137">
        <ele>886</ele>
        <time>2021-06-27T15:01:26.725Z</time>
      </trkpt>
      <trkpt lat="44.00152" lon="3.49137">
        <ele>869</ele>
        <time>2021-06-27T15:02:41.747Z</time>
      </trkpt>
      <trkpt lat="44.0015" lon="3.4914">
        <ele>869</ele>
        <time>2021-06-27T15:02:51.715Z</time>
      </trkpt>
      <trkpt lat="44.00146" lon="3.49144">
        <ele>869</ele>
        <time>2021-06-27T15:02:56.722Z</time>
      </trkpt>
      <trkpt lat="44.00144" lon="3.49149">
        <ele>869</ele>
        <time>2021-06-27T15:03:11.730Z</time>
      </trkpt>
      <trkpt lat="44.00143" lon="3.49151">
        <ele>869</ele>
        <time>2021-06-27T15:03:16.723Z</time>
      </trkpt>
      <trkpt lat="44.00142" lon="3.49156">
        <ele>872</ele>
        <time>2021-06-27T15:03:21.724Z</time>
      </trkpt>
      <trkpt lat="44.00141" lon="3.49167">
        <ele>872</ele>
        <time>2021-06-27T15:03:26.716Z</time>
      </trkpt>
      <trkpt lat="44.0014" lon="3.4917">
        <ele>872</ele>
        <time>2021-06-27T15:03:31.719Z</time>
      </trkpt>
      <trkpt lat="44.00139" lon="3.49176">
        <ele>872</ele>
        <time>2021-06-27T15:03:36.712Z</time>
      </trkpt>
      <trkpt lat="44.00139" lon="3.49177">
        <ele>872</ele>
        <time>2021-06-27T15:03:41.719Z</time>
      </trkpt>
      <trkpt lat="44.00139" lon="3.49185">
        <ele>868</ele>
        <time>2021-06-27T15:03:45.722Z</time>
      </trkpt>
      <trkpt lat="44.00137" lon="3.49188">
        <ele>868</ele>
        <time>2021-06-27T15:03:50.719Z</time>
      </trkpt>
      <trkpt lat="44.00136" lon="3.4919">
        <ele>868</ele>
        <time>2021-06-27T15:03:55.722Z</time>
      </trkpt>
      <trkpt lat="44.00134" lon="3.49189">
        <ele>868</ele>
        <time>2021-06-27T15:04:04.716Z</time>
      </trkpt>
      <trkpt lat="44.00132" lon="3.49189">
        <ele>868</ele>
        <time>2021-06-27T15:04:09.757Z</time>
      </trkpt>
      <trkpt lat="44.0013" lon="3.49186">
        <ele>868</ele>
        <time>2021-06-27T15:04:14.716Z</time>
      </trkpt>
      <trkpt lat="44.00129" lon="3.49183">
        <ele>868</ele>
        <time>2021-06-27T15:04:19.714Z</time>
      </trkpt>
      <trkpt lat="44.00127" lon="3.4918">
        <ele>872</ele>
        <time>2021-06-27T15:04:24.723Z</time>
      </trkpt>
      <trkpt lat="44.00126" lon="3.49176">
        <ele>872</ele>
        <time>2021-06-27T15:04:29.723Z</time>
      </trkpt>
      <trkpt lat="44.00124" lon="3.49173">
        <ele>860</ele>
        <time>2021-06-27T15:04:34.716Z</time>
      </trkpt>
      <trkpt lat="44.00123" lon="3.49164">
        <ele>860</ele>
        <time>2021-06-27T15:04:39.712Z</time>
      </trkpt>
      <trkpt lat="44.0012" lon="3.4916">
        <ele>860</ele>
        <time>2021-06-27T15:04:44.720Z</time>
      </trkpt>
      <trkpt lat="44.00119" lon="3.49155">
        <ele>860</ele>
        <time>2021-06-27T15:04:49.723Z</time>
      </trkpt>
      <trkpt lat="44.00119" lon="3.49148">
        <ele>859</ele>
        <time>2021-06-27T15:04:54.721Z</time>
      </trkpt>
      <trkpt lat="44.00118" lon="3.49142">
        <ele>859</ele>
        <time>2021-06-27T15:04:59.725Z</time>
      </trkpt>
      <trkpt lat="44.00117" lon="3.49139">
        <ele>859</ele>
        <time>2021-06-27T15:05:04.720Z</time>
      </trkpt>
      <trkpt lat="44.00116" lon="3.49136">
        <ele>859</ele>
        <time>2021-06-27T15:05:08.736Z</time>
      </trkpt>
      <trkpt lat="44.00115" lon="3.49131">
        <ele>859</ele>
        <time>2021-06-27T15:05:13.723Z</time>
      </trkpt>
      <trkpt lat="44.00115" lon="3.49126">
        <ele>859</ele>
        <time>2021-06-27T15:05:18.714Z</time>
      </trkpt>
      <trkpt lat="44.00114" lon="3.49122">
        <ele>853</ele>
        <time>2021-06-27T15:05:23.723Z</time>
      </trkpt>
      <trkpt lat="44.00114" lon="3.49115">
        <ele>853</ele>
        <time>2021-06-27T15:05:28.723Z</time>
      </trkpt>
      <trkpt lat="44.00114" lon="3.4911">
        <ele>853</ele>
        <time>2021-06-27T15:05:33.720Z</time>
      </trkpt>
      <trkpt lat="44.0011" lon="3.49109">
        <ele>853</ele>
        <time>2021-06-27T15:05:38.727Z</time>
      </trkpt>
      <trkpt lat="44.00107" lon="3.49109">
        <ele>853</ele>
        <time>2021-06-27T15:05:43.726Z</time>
      </trkpt>
      <trkpt lat="44.00104" lon="3.49111">
        <ele>853</ele>
        <time>2021-06-27T15:05:48.718Z</time>
      </trkpt>
      <trkpt lat="44.00102" lon="3.49114">
        <ele>853</ele>
        <time>2021-06-27T15:05:53.723Z</time>
      </trkpt>
      <trkpt lat="44.00101" lon="3.49114">
        <ele>853</ele>
        <time>2021-06-27T15:05:58.696Z</time>
      </trkpt>
      <trkpt lat="44.001" lon="3.49119">
        <ele>853</ele>
        <time>2021-06-27T15:06:20.720Z</time>
      </trkpt>
      <trkpt lat="44.00093" lon="3.49133">
        <ele>853</ele>
        <time>2021-06-27T15:06:25.730Z</time>
      </trkpt>
      <trkpt lat="44.00092" lon="3.49134">
        <ele>853</ele>
        <time>2021-06-27T15:06:30.725Z</time>
      </trkpt>
      <trkpt lat="44.00088" lon="3.49142">
        <ele>853</ele>
        <time>2021-06-27T15:06:35.725Z</time>
      </trkpt>
      <trkpt lat="44.00087" lon="3.49146">
        <ele>853</ele>
        <time>2021-06-27T15:06:40.724Z</time>
      </trkpt>
      <trkpt lat="44.00086" lon="3.49154">
        <ele>852</ele>
        <time>2021-06-27T15:06:45.724Z</time>
      </trkpt>
      <trkpt lat="44.00083" lon="3.49169">
        <ele>852</ele>
        <time>2021-06-27T15:07:20.716Z</time>
      </trkpt>
      <trkpt lat="44.00082" lon="3.4917">
        <ele>852</ele>
        <time>2021-06-27T15:07:25.726Z</time>
      </trkpt>
      <trkpt lat="44.00078" lon="3.49171">
        <ele>852</ele>
        <time>2021-06-27T15:07:30.720Z</time>
      </trkpt>
      <trkpt lat="44.00076" lon="3.49169">
        <ele>852</ele>
        <time>2021-06-27T15:07:34.744Z</time>
      </trkpt>
      <trkpt lat="44.00073" lon="3.49165">
        <ele>852</ele>
        <time>2021-06-27T15:07:39.718Z</time>
      </trkpt>
      <trkpt lat="44.00071" lon="3.49154">
        <ele>852</ele>
        <time>2021-06-27T15:07:59.720Z</time>
      </trkpt>
      <trkpt lat="44.00071" lon="3.49151">
        <ele>853</ele>
        <time>2021-06-27T15:08:09.720Z</time>
      </trkpt>
      <trkpt lat="44.00071" lon="3.49149">
        <ele>853</ele>
        <time>2021-06-27T15:08:14.718Z</time>
      </trkpt>
      <trkpt lat="44.0007" lon="3.49145">
        <ele>853</ele>
        <time>2021-06-27T15:08:18.722Z</time>
      </trkpt>
      <trkpt lat="44.00065" lon="3.49139">
        <ele>843</ele>
        <time>2021-06-27T15:08:23.723Z</time>
      </trkpt>
      <trkpt lat="44.00063" lon="3.49134">
        <ele>843</ele>
        <time>2021-06-27T15:08:28.722Z</time>
      </trkpt>
      <trkpt lat="44.00063" lon="3.4913">
        <ele>843</ele>
        <time>2021-06-27T15:08:33.723Z</time>
      </trkpt>
      <trkpt lat="44.00063" lon="3.49124">
        <ele>840</ele>
        <time>2021-06-27T15:08:43.725Z</time>
      </trkpt>
      <trkpt lat="44.00063" lon="3.49108">
        <ele>840</ele>
        <time>2021-06-27T15:08:48.723Z</time>
      </trkpt>
      <trkpt lat="44.00062" lon="3.49102">
        <ele>840</ele>
        <time>2021-06-27T15:08:58.713Z</time>
      </trkpt>
      <trkpt lat="44.00061" lon="3.49099">
        <ele>840</ele>
        <time>2021-06-27T15:09:03.701Z</time>
      </trkpt>
      <trkpt lat="44.00058" lon="3.49097">
        <ele>840</ele>
        <time>2021-06-27T15:09:07.719Z</time>
      </trkpt>
      <trkpt lat="44.00055" lon="3.49098">
        <ele>840</ele>
        <time>2021-06-27T15:09:12.714Z</time>
      </trkpt>
      <trkpt lat="44.00051" lon="3.49099">
        <ele>840</ele>
        <time>2021-06-27T15:09:21.729Z</time>
      </trkpt>
      <trkpt lat="44.0005" lon="3.49099">
        <ele>840</ele>
        <time>2021-06-27T15:09:26.724Z</time>
      </trkpt>
      <trkpt lat="44.00047" lon="3.49101">
        <ele>840</ele>
        <time>2021-06-27T15:09:31.716Z</time>
      </trkpt>
      <trkpt lat="44.00046" lon="3.49101">
        <ele>840</ele>
        <time>2021-06-27T15:09:35.724Z</time>
      </trkpt>
      <trkpt lat="44.00043" lon="3.49102">
        <ele>840</ele>
        <time>2021-06-27T15:09:40.718Z</time>
      </trkpt>
      <trkpt lat="44.00035" lon="3.49108">
        <ele>825</ele>
        <time>2021-06-27T15:09:45.718Z</time>
      </trkpt>
      <trkpt lat="44.0003" lon="3.49112">
        <ele>825</ele>
        <time>2021-06-27T15:09:55.720Z</time>
      </trkpt>
      <trkpt lat="44.00029" lon="3.49113">
        <ele>825</ele>
        <time>2021-06-27T15:09:59.728Z</time>
      </trkpt>
      <trkpt lat="44.00026" lon="3.49115">
        <ele>825</ele>
        <time>2021-06-27T15:10:04.726Z</time>
      </trkpt>
      <trkpt lat="44.00024" lon="3.49116">
        <ele>825</ele>
        <time>2021-06-27T15:10:09.727Z</time>
      </trkpt>
      <trkpt lat="44.00023" lon="3.49116">
        <ele>825</ele>
        <time>2021-06-27T15:10:14.722Z</time>
      </trkpt>
      <trkpt lat="44.00019" lon="3.49117">
        <ele>825</ele>
        <time>2021-06-27T15:10:23.724Z</time>
      </trkpt>
      <trkpt lat="44.00011" lon="3.4912">
        <ele>815</ele>
        <time>2021-06-27T15:10:32.725Z</time>
      </trkpt>
      <trkpt lat="44.00008" lon="3.49123">
        <ele>815</ele>
        <time>2021-06-27T15:10:37.700Z</time>
      </trkpt>
      <trkpt lat="44.00004" lon="3.49128">
        <ele>819</ele>
        <time>2021-06-27T15:10:42.697Z</time>
      </trkpt>
      <trkpt lat="44" lon="3.49133">
        <ele>819</ele>
        <time>2021-06-27T15:10:55.725Z</time>
      </trkpt>
      <trkpt lat="43.99998" lon="3.49141">
        <ele>819</ele>
        <time>2021-06-27T15:11:00.725Z</time>
      </trkpt>
      <trkpt lat="43.99994" lon="3.49143">
        <ele>819</ele>
        <time>2021-06-27T15:11:05.729Z</time>
      </trkpt>
      <trkpt lat="43.99993" lon="3.49143">
        <ele>819</ele>
        <time>2021-06-27T15:11:10.757Z</time>
      </trkpt>
      <trkpt lat="43.9999" lon="3.49142">
        <ele>819</ele>
        <time>2021-06-27T15:11:15.727Z</time>
      </trkpt>
      <trkpt lat="43.99986" lon="3.49143">
        <ele>812</ele>
        <time>2021-06-27T15:11:20.700Z</time>
      </trkpt>
      <trkpt lat="43.99979" lon="3.49145">
        <ele>812</ele>
        <time>2021-06-27T15:11:24.712Z</time>
      </trkpt>
      <trkpt lat="43.99973" lon="3.49145">
        <ele>812</ele>
        <time>2021-06-27T15:11:29.717Z</time>
      </trkpt>
      <trkpt lat="43.99969" lon="3.49147">
        <ele>812</ele>
        <time>2021-06-27T15:11:39.720Z</time>
      </trkpt>
      <trkpt lat="43.99967" lon="3.49146">
        <ele>812</ele>
        <time>2021-06-27T15:11:43.726Z</time>
      </trkpt>
      <trkpt lat="43.99966" lon="3.49146">
        <ele>812</ele>
        <time>2021-06-27T15:11:48.695Z</time>
      </trkpt>
      <trkpt lat="43.99959" lon="3.49152">
        <ele>812</ele>
        <time>2021-06-27T15:12:05.724Z</time>
      </trkpt>
      <trkpt lat="43.99957" lon="3.49156">
        <ele>807</ele>
        <time>2021-06-27T15:12:10.746Z</time>
      </trkpt>
      <trkpt lat="43.99953" lon="3.49159">
        <ele>807</ele>
        <time>2021-06-27T15:12:15.730Z</time>
      </trkpt>
      <trkpt lat="43.9995" lon="3.49163">
        <ele>807</ele>
        <time>2021-06-27T15:12:20.727Z</time>
      </trkpt>
      <trkpt lat="43.99944" lon="3.49169">
        <ele>807</ele>
        <time>2021-06-27T15:12:35.721Z</time>
      </trkpt>
      <trkpt lat="43.99941" lon="3.49173">
        <ele>807</ele>
        <time>2021-06-27T15:12:39.723Z</time>
      </trkpt>
      <trkpt lat="43.99936" lon="3.49178">
        <ele>807</ele>
        <time>2021-06-27T15:12:44.718Z</time>
      </trkpt>
      <trkpt lat="43.99934" lon="3.4918">
        <ele>807</ele>
        <time>2021-06-27T15:12:58.727Z</time>
      </trkpt>
      <trkpt lat="43.99932" lon="3.49182">
        <ele>806</ele>
        <time>2021-06-27T15:13:03.720Z</time>
      </trkpt>
      <trkpt lat="43.99929" lon="3.49184">
        <ele>806</ele>
        <time>2021-06-27T15:13:08.722Z</time>
      </trkpt>
      <trkpt lat="43.99923" lon="3.49189">
        <ele>806</ele>
        <time>2021-06-27T15:13:12.718Z</time>
      </trkpt>
      <trkpt lat="43.99921" lon="3.49191">
        <ele>806</ele>
        <time>2021-06-27T15:13:17.697Z</time>
      </trkpt>
      <trkpt lat="43.99917" lon="3.49195">
        <ele>806</ele>
        <time>2021-06-27T15:13:21.709Z</time>
      </trkpt>
      <trkpt lat="43.99916" lon="3.49196">
        <ele>806</ele>
        <time>2021-06-27T15:13:26.710Z</time>
      </trkpt>
      <trkpt lat="43.99911" lon="3.49205">
        <ele>806</ele>
        <time>2021-06-27T15:13:36.697Z</time>
      </trkpt>
      <trkpt lat="43.99904" lon="3.49215">
        <ele>802</ele>
        <time>2021-06-27T15:13:40.718Z</time>
      </trkpt>
      <trkpt lat="43.999" lon="3.49218">
        <ele>802</ele>
        <time>2021-06-27T15:13:45.720Z</time>
      </trkpt>
      <trkpt lat="43.99898" lon="3.49219">
        <ele>802</ele>
        <time>2021-06-27T15:13:50.710Z</time>
      </trkpt>
      <trkpt lat="43.99894" lon="3.49224">
        <ele>802</ele>
        <time>2021-06-27T15:13:54.718Z</time>
      </trkpt>
      <trkpt lat="43.99889" lon="3.49231">
        <ele>802</ele>
        <time>2021-06-27T15:13:59.728Z</time>
      </trkpt>
      <trkpt lat="43.99885" lon="3.49234">
        <ele>802</ele>
        <time>2021-06-27T15:14:04.714Z</time>
      </trkpt>
      <trkpt lat="43.99883" lon="3.49237">
        <ele>798</ele>
        <time>2021-06-27T15:14:08.724Z</time>
      </trkpt>
      <trkpt lat="43.99879" lon="3.49239">
        <ele>798</ele>
        <time>2021-06-27T15:14:13.727Z</time>
      </trkpt>
      <trkpt lat="43.99875" lon="3.49241">
        <ele>796</ele>
        <time>2021-06-27T15:14:18.719Z</time>
      </trkpt>
      <trkpt lat="43.99873" lon="3.49241">
        <ele>796</ele>
        <time>2021-06-27T15:14:23.742Z</time>
      </trkpt>
      <trkpt lat="43.99868" lon="3.49246">
        <ele>796</ele>
        <time>2021-06-27T15:14:28.715Z</time>
      </trkpt>
      <trkpt lat="43.99866" lon="3.49248">
        <ele>796</ele>
        <time>2021-06-27T15:14:32.715Z</time>
      </trkpt>
      <trkpt lat="43.99864" lon="3.49249">
        <ele>796</ele>
        <time>2021-06-27T15:14:37.696Z</time>
      </trkpt>
      <trkpt lat="43.99861" lon="3.49252">
        <ele>796</ele>
        <time>2021-06-27T15:14:41.720Z</time>
      </trkpt>
      <trkpt lat="43.99857" lon="3.49255">
        <ele>796</ele>
        <time>2021-06-27T15:14:46.718Z</time>
      </trkpt>
      <trkpt lat="43.99856" lon="3.49257">
        <ele>796</ele>
        <time>2021-06-27T15:14:51.720Z</time>
      </trkpt>
      <trkpt lat="43.99851" lon="3.49258">
        <ele>796</ele>
        <time>2021-06-27T15:14:56.715Z</time>
      </trkpt>
      <trkpt lat="43.99846" lon="3.49258">
        <ele>791</ele>
        <time>2021-06-27T15:15:01.722Z</time>
      </trkpt>
      <trkpt lat="43.99839" lon="3.49257">
        <ele>791</ele>
        <time>2021-06-27T15:15:06.721Z</time>
      </trkpt>
      <trkpt lat="43.99837" lon="3.49255">
        <ele>791</ele>
        <time>2021-06-27T15:15:11.724Z</time>
      </trkpt>
      <trkpt lat="43.99836" lon="3.49253">
        <ele>791</ele>
        <time>2021-06-27T15:15:16.721Z</time>
      </trkpt>
      <trkpt lat="43.99832" lon="3.49251">
        <ele>791</ele>
        <time>2021-06-27T15:15:21.722Z</time>
      </trkpt>
      <trkpt lat="43.99826" lon="3.49249">
        <ele>791</ele>
        <time>2021-06-27T15:15:26.716Z</time>
      </trkpt>
      <trkpt lat="43.99821" lon="3.49246">
        <ele>791</ele>
        <time>2021-06-27T15:15:31.721Z</time>
      </trkpt>
      <trkpt lat="43.99814" lon="3.49245">
        <ele>785</ele>
        <time>2021-06-27T15:15:36.720Z</time>
      </trkpt>
      <trkpt lat="43.99811" lon="3.49242">
        <ele>785</ele>
        <time>2021-06-27T15:15:41.727Z</time>
      </trkpt>
      <trkpt lat="43.99807" lon="3.4924">
        <ele>785</ele>
        <time>2021-06-27T15:15:46.715Z</time>
      </trkpt>
      <trkpt lat="43.99803" lon="3.49234">
        <ele>789</ele>
        <time>2021-06-27T15:15:51.711Z</time>
      </trkpt>
      <trkpt lat="43.998" lon="3.49229">
        <ele>789</ele>
        <time>2021-06-27T15:15:56.719Z</time>
      </trkpt>
      <trkpt lat="43.99798" lon="3.49227">
        <ele>789</ele>
        <time>2021-06-27T15:16:01.720Z</time>
      </trkpt>
      <trkpt lat="43.99792" lon="3.49225">
        <ele>789</ele>
        <time>2021-06-27T15:16:06.724Z</time>
      </trkpt>
      <trkpt lat="43.99788" lon="3.49214">
        <ele>781</ele>
        <time>2021-06-27T15:16:11.724Z</time>
      </trkpt>
      <trkpt lat="43.99786" lon="3.49208">
        <ele>782</ele>
        <time>2021-06-27T15:16:15.754Z</time>
      </trkpt>
      <trkpt lat="43.99786" lon="3.49203">
        <ele>782</ele>
        <time>2021-06-27T15:16:20.724Z</time>
      </trkpt>
      <trkpt lat="43.99785" lon="3.49198">
        <ele>782</ele>
        <time>2021-06-27T15:16:25.724Z</time>
      </trkpt>
      <trkpt lat="43.99784" lon="3.49195">
        <ele>782</ele>
        <time>2021-06-27T15:16:30.724Z</time>
      </trkpt>
      <trkpt lat="43.99783" lon="3.49193">
        <ele>782</ele>
        <time>2021-06-27T15:16:34.754Z</time>
      </trkpt>
      <trkpt lat="43.99782" lon="3.49189">
        <ele>782</ele>
        <time>2021-06-27T15:16:39.720Z</time>
      </trkpt>
      <trkpt lat="43.99782" lon="3.49185">
        <ele>782</ele>
        <time>2021-06-27T15:16:43.724Z</time>
      </trkpt>
      <trkpt lat="43.99782" lon="3.49181">
        <ele>782</ele>
        <time>2021-06-27T15:16:48.720Z</time>
      </trkpt>
      <trkpt lat="43.99782" lon="3.4918">
        <ele>781</ele>
        <time>2021-06-27T15:16:53.728Z</time>
      </trkpt>
      <trkpt lat="43.99784" lon="3.49171">
        <ele>781</ele>
        <time>2021-06-27T15:16:58.725Z</time>
      </trkpt>
      <trkpt lat="43.99784" lon="3.49162">
        <ele>781</ele>
        <time>2021-06-27T15:17:03.715Z</time>
      </trkpt>
      <trkpt lat="43.99784" lon="3.49153">
        <ele>779</ele>
        <time>2021-06-27T15:17:07.749Z</time>
      </trkpt>
      <trkpt lat="43.99783" lon="3.49143">
        <ele>779</ele>
        <time>2021-06-27T15:17:12.720Z</time>
      </trkpt>
      <trkpt lat="43.99783" lon="3.49135">
        <ele>779</ele>
        <time>2021-06-27T15:17:17.725Z</time>
      </trkpt>
      <trkpt lat="43.99784" lon="3.4913">
        <ele>779</ele>
        <time>2021-06-27T15:17:21.725Z</time>
      </trkpt>
      <trkpt lat="43.99784" lon="3.49122">
        <ele>778</ele>
        <time>2021-06-27T15:17:26.719Z</time>
      </trkpt>
      <trkpt lat="43.99784" lon="3.49115">
        <ele>778</ele>
        <time>2021-06-27T15:17:31.725Z</time>
      </trkpt>
      <trkpt lat="43.99785" lon="3.49108">
        <ele>778</ele>
        <time>2021-06-27T15:17:36.717Z</time>
      </trkpt>
      <trkpt lat="43.99787" lon="3.49099">
        <ele>778</ele>
        <time>2021-06-27T15:17:41.712Z</time>
      </trkpt>
      <trkpt lat="43.99789" lon="3.49091">
        <ele>773</ele>
        <time>2021-06-27T15:17:46.723Z</time>
      </trkpt>
      <trkpt lat="43.9979" lon="3.49084">
        <ele>773</ele>
        <time>2021-06-27T15:17:51.720Z</time>
      </trkpt>
      <trkpt lat="43.99792" lon="3.49077">
        <ele>779</ele>
        <time>2021-06-27T15:17:56.721Z</time>
      </trkpt>
      <trkpt lat="43.99794" lon="3.49072">
        <ele>779</ele>
        <time>2021-06-27T15:18:01.725Z</time>
      </trkpt>
      <trkpt lat="43.99794" lon="3.49069">
        <ele>770</ele>
        <time>2021-06-27T15:18:06.720Z</time>
      </trkpt>
      <trkpt lat="43.99794" lon="3.49066">
        <ele>770</ele>
        <time>2021-06-27T15:18:11.713Z</time>
      </trkpt>
      <trkpt lat="43.99795" lon="3.49063">
        <ele>770</ele>
        <time>2021-06-27T15:18:15.719Z</time>
      </trkpt>
      <trkpt lat="43.99798" lon="3.49059">
        <ele>770</ele>
        <time>2021-06-27T15:18:20.725Z</time>
      </trkpt>
      <trkpt lat="43.99798" lon="3.49057">
        <ele>770</ele>
        <time>2021-06-27T15:18:25.723Z</time>
      </trkpt>
      <trkpt lat="43.99797" lon="3.49054">
        <ele>770</ele>
        <time>2021-06-27T15:18:30.717Z</time>
      </trkpt>
      <trkpt lat="43.99793" lon="3.49053">
        <ele>770</ele>
        <time>2021-06-27T15:18:34.723Z</time>
      </trkpt>
      <trkpt lat="43.9979" lon="3.49053">
        <ele>763</ele>
        <time>2021-06-27T15:18:38.709Z</time>
      </trkpt>
      <trkpt lat="43.99787" lon="3.49052">
        <ele>763</ele>
        <time>2021-06-27T15:18:43.706Z</time>
      </trkpt>
      <trkpt lat="43.99784" lon="3.49053">
        <ele>763</ele>
        <time>2021-06-27T15:18:48.696Z</time>
      </trkpt>
      <trkpt lat="43.9978" lon="3.49055">
        <ele>763</ele>
        <time>2021-06-27T15:18:53.693Z</time>
      </trkpt>
      <trkpt lat="43.99777" lon="3.49056">
        <ele>763</ele>
        <time>2021-06-27T15:18:57.725Z</time>
      </trkpt>
      <trkpt lat="43.99773" lon="3.49059">
        <ele>763</ele>
        <time>2021-06-27T15:19:02.724Z</time>
      </trkpt>
      <trkpt lat="43.99769" lon="3.49062">
        <ele>763</ele>
        <time>2021-06-27T15:19:07.722Z</time>
      </trkpt>
      <trkpt lat="43.99765" lon="3.49064">
        <ele>763</ele>
        <time>2021-06-27T15:19:12.721Z</time>
      </trkpt>
      <trkpt lat="43.99762" lon="3.49067">
        <ele>757</ele>
        <time>2021-06-27T15:19:17.697Z</time>
      </trkpt>
      <trkpt lat="43.9976" lon="3.4907">
        <ele>762</ele>
        <time>2021-06-27T15:19:21.706Z</time>
      </trkpt>
      <trkpt lat="43.99758" lon="3.49072">
        <ele>762</ele>
        <time>2021-06-27T15:19:25.725Z</time>
      </trkpt>
      <trkpt lat="43.99755" lon="3.49075">
        <ele>762</ele>
        <time>2021-06-27T15:19:30.723Z</time>
      </trkpt>
      <trkpt lat="43.99749" lon="3.49079">
        <ele>762</ele>
        <time>2021-06-27T15:19:35.711Z</time>
      </trkpt>
      <trkpt lat="43.99747" lon="3.49081">
        <ele>762</ele>
        <time>2021-06-27T15:19:40.757Z</time>
      </trkpt>
      <trkpt lat="43.99745" lon="3.49086">
        <ele>762</ele>
        <time>2021-06-27T15:19:45.724Z</time>
      </trkpt>
      <trkpt lat="43.99742" lon="3.49092">
        <ele>762</ele>
        <time>2021-06-27T15:19:50.724Z</time>
      </trkpt>
      <trkpt lat="43.9974" lon="3.49095">
        <ele>762</ele>
        <time>2021-06-27T15:19:55.723Z</time>
      </trkpt>
      <trkpt lat="43.99735" lon="3.49098">
        <ele>755</ele>
        <time>2021-06-27T15:20:00.725Z</time>
      </trkpt>
      <trkpt lat="43.99734" lon="3.49102">
        <ele>755</ele>
        <time>2021-06-27T15:20:05.748Z</time>
      </trkpt>
      <trkpt lat="43.9973" lon="3.49111">
        <ele>755</ele>
        <time>2021-06-27T15:20:10.724Z</time>
      </trkpt>
      <trkpt lat="43.99729" lon="3.49115">
        <ele>755</ele>
        <time>2021-06-27T15:20:14.723Z</time>
      </trkpt>
      <trkpt lat="43.99726" lon="3.49119">
        <ele>755</ele>
        <time>2021-06-27T15:20:19.713Z</time>
      </trkpt>
      <trkpt lat="43.99725" lon="3.49123">
        <ele>755</ele>
        <time>2021-06-27T15:20:23.727Z</time>
      </trkpt>
      <trkpt lat="43.99725" lon="3.49125">
        <ele>755</ele>
        <time>2021-06-27T15:20:28.725Z</time>
      </trkpt>
      <trkpt lat="43.99723" lon="3.49129">
        <ele>757</ele>
        <time>2021-06-27T15:20:33.722Z</time>
      </trkpt>
      <trkpt lat="43.99723" lon="3.49131">
        <ele>757</ele>
        <time>2021-06-27T15:20:47.753Z</time>
      </trkpt>
      <trkpt lat="43.99721" lon="3.49134">
        <ele>757</ele>
        <time>2021-06-27T15:20:52.714Z</time>
      </trkpt>
      <trkpt lat="43.99719" lon="3.49136">
        <ele>757</ele>
        <time>2021-06-27T15:20:57.724Z</time>
      </trkpt>
      <trkpt lat="43.99716" lon="3.49137">
        <ele>757</ele>
        <time>2021-06-27T15:21:02.699Z</time>
      </trkpt>
      <trkpt lat="43.99713" lon="3.49134">
        <ele>757</ele>
        <time>2021-06-27T15:21:07.721Z</time>
      </trkpt>
      <trkpt lat="43.9971" lon="3.49131">
        <ele>757</ele>
        <time>2021-06-27T15:21:12.724Z</time>
      </trkpt>
      <trkpt lat="43.9971" lon="3.49128">
        <ele>757</ele>
        <time>2021-06-27T15:21:17.722Z</time>
      </trkpt>
      <trkpt lat="43.99707" lon="3.49122">
        <ele>746</ele>
        <time>2021-06-27T15:21:22.724Z</time>
      </trkpt>
      <trkpt lat="43.99705" lon="3.49115">
        <ele>746</ele>
        <time>2021-06-27T15:21:27.724Z</time>
      </trkpt>
      <trkpt lat="43.99704" lon="3.49107">
        <ele>746</ele>
        <time>2021-06-27T15:21:32.725Z</time>
      </trkpt>
      <trkpt lat="43.99702" lon="3.491">
        <ele>746</ele>
        <time>2021-06-27T15:21:37.696Z</time>
      </trkpt>
      <trkpt lat="43.99701" lon="3.49095">
        <ele>745</ele>
        <time>2021-06-27T15:21:41.700Z</time>
      </trkpt>
      <trkpt lat="43.997" lon="3.4909">
        <ele>745</ele>
        <time>2021-06-27T15:21:45.724Z</time>
      </trkpt>
      <trkpt lat="43.99699" lon="3.49084">
        <ele>745</ele>
        <time>2021-06-27T15:21:50.724Z</time>
      </trkpt>
      <trkpt lat="43.99697" lon="3.49078">
        <ele>745</ele>
        <time>2021-06-27T15:21:55.725Z</time>
      </trkpt>
      <trkpt lat="43.99695" lon="3.49072">
        <ele>745</ele>
        <time>2021-06-27T15:22:00.724Z</time>
      </trkpt>
      <trkpt lat="43.99694" lon="3.49064">
        <ele>745</ele>
        <time>2021-06-27T15:22:05.724Z</time>
      </trkpt>
      <trkpt lat="43.99691" lon="3.4906">
        <ele>745</ele>
        <time>2021-06-27T15:22:09.726Z</time>
      </trkpt>
      <trkpt lat="43.9969" lon="3.49053">
        <ele>745</ele>
        <time>2021-06-27T15:22:14.724Z</time>
      </trkpt>
      <trkpt lat="43.99689" lon="3.49048">
        <ele>745</ele>
        <time>2021-06-27T15:22:19.723Z</time>
      </trkpt>
      <trkpt lat="43.99688" lon="3.49047">
        <ele>745</ele>
        <time>2021-06-27T15:22:23.738Z</time>
      </trkpt>
      <trkpt lat="43.99685" lon="3.49044">
        <ele>745</ele>
        <time>2021-06-27T15:22:28.755Z</time>
      </trkpt>
      <trkpt lat="43.99681" lon="3.49043">
        <ele>745</ele>
        <time>2021-06-27T15:22:33.717Z</time>
      </trkpt>
      <trkpt lat="43.99678" lon="3.49043">
        <ele>733</ele>
        <time>2021-06-27T15:22:37.724Z</time>
      </trkpt>
      <trkpt lat="43.99673" lon="3.4904">
        <ele>727</ele>
        <time>2021-06-27T15:22:42.724Z</time>
      </trkpt>
      <trkpt lat="43.99668" lon="3.49038">
        <ele>727</ele>
        <time>2021-06-27T15:22:47.697Z</time>
      </trkpt>
      <trkpt lat="43.99663" lon="3.49035">
        <ele>727</ele>
        <time>2021-06-27T15:22:52.725Z</time>
      </trkpt>
      <trkpt lat="43.99659" lon="3.49035">
        <ele>727</ele>
        <time>2021-06-27T15:22:57.718Z</time>
      </trkpt>
      <trkpt lat="43.99655" lon="3.49033">
        <ele>727</ele>
        <time>2021-06-27T15:23:02.724Z</time>
      </trkpt>
      <trkpt lat="43.99651" lon="3.49031">
        <ele>720</ele>
        <time>2021-06-27T15:23:07.721Z</time>
      </trkpt>
      <trkpt lat="43.99646" lon="3.49029">
        <ele>720</ele>
        <time>2021-06-27T15:23:12.720Z</time>
      </trkpt>
      <trkpt lat="43.99643" lon="3.49026">
        <ele>720</ele>
        <time>2021-06-27T15:23:17.760Z</time>
      </trkpt>
      <trkpt lat="43.99638" lon="3.49026">
        <ele>720</ele>
        <time>2021-06-27T15:23:22.702Z</time>
      </trkpt>
      <trkpt lat="43.99633" lon="3.49024">
        <ele>720</ele>
        <time>2021-06-27T15:23:27.721Z</time>
      </trkpt>
      <trkpt lat="43.99628" lon="3.49024">
        <ele>720</ele>
        <time>2021-06-27T15:23:32.725Z</time>
      </trkpt>
      <trkpt lat="43.99624" lon="3.49023">
        <ele>720</ele>
        <time>2021-06-27T15:23:37.724Z</time>
      </trkpt>
      <trkpt lat="43.99619" lon="3.49021">
        <ele>720</ele>
        <time>2021-06-27T15:23:42.725Z</time>
      </trkpt>
      <trkpt lat="43.99615" lon="3.49019">
        <ele>720</ele>
        <time>2021-06-27T15:23:47.698Z</time>
      </trkpt>
      <trkpt lat="43.99613" lon="3.49015">
        <ele>720</ele>
        <time>2021-06-27T15:23:52.714Z</time>
      </trkpt>
      <trkpt lat="43.99611" lon="3.49015">
        <ele>720</ele>
        <time>2021-06-27T15:23:57.702Z</time>
      </trkpt>
      <trkpt lat="43.99611" lon="3.49014">
        <ele>719</ele>
        <time>2021-06-27T15:24:02.720Z</time>
      </trkpt>
      <trkpt lat="43.99606" lon="3.49013">
        <ele>719</ele>
        <time>2021-06-27T15:24:07.698Z</time>
      </trkpt>
      <trkpt lat="43.99602" lon="3.49011">
        <ele>719</ele>
        <time>2021-06-27T15:24:13.697Z</time>
      </trkpt>
      <trkpt lat="43.996" lon="3.49011">
        <ele>719</ele>
        <time>2021-06-27T15:24:17.719Z</time>
      </trkpt>
      <trkpt lat="43.99596" lon="3.49012">
        <ele>720</ele>
        <time>2021-06-27T15:24:22.701Z</time>
      </trkpt>
      <trkpt lat="43.99591" lon="3.49012">
        <ele>720</ele>
        <time>2021-06-27T15:24:27.712Z</time>
      </trkpt>
      <trkpt lat="43.99588" lon="3.49011">
        <ele>720</ele>
        <time>2021-06-27T15:24:32.700Z</time>
      </trkpt>
      <trkpt lat="43.99583" lon="3.49011">
        <ele>720</ele>
        <time>2021-06-27T15:24:37.724Z</time>
      </trkpt>
      <trkpt lat="43.99579" lon="3.4901">
        <ele>720</ele>
        <time>2021-06-27T15:24:42.728Z</time>
      </trkpt>
      <trkpt lat="43.99575" lon="3.4901">
        <ele>720</ele>
        <time>2021-06-27T15:24:47.724Z</time>
      </trkpt>
      <trkpt lat="43.9957" lon="3.4901">
        <ele>720</ele>
        <time>2021-06-27T15:24:52.724Z</time>
      </trkpt>
      <trkpt lat="43.99566" lon="3.4901">
        <ele>718</ele>
        <time>2021-06-27T15:24:56.721Z</time>
      </trkpt>
      <trkpt lat="43.99562" lon="3.4901">
        <ele>718</ele>
        <time>2021-06-27T15:25:01.714Z</time>
      </trkpt>
      <trkpt lat="43.99559" lon="3.49009">
        <ele>718</ele>
        <time>2021-06-27T15:25:06.697Z</time>
      </trkpt>
      <trkpt lat="43.99557" lon="3.49009">
        <ele>718</ele>
        <time>2021-06-27T15:25:10.723Z</time>
      </trkpt>
      <trkpt lat="43.99554" lon="3.49007">
        <ele>718</ele>
        <time>2021-06-27T15:25:14.751Z</time>
      </trkpt>
      <trkpt lat="43.99549" lon="3.49007">
        <ele>718</ele>
        <time>2021-06-27T15:25:19.716Z</time>
      </trkpt>
      <trkpt lat="43.99547" lon="3.49007">
        <ele>718</ele>
        <time>2021-06-27T15:25:24.726Z</time>
      </trkpt>
      <trkpt lat="43.99543" lon="3.49008">
        <ele>718</ele>
        <time>2021-06-27T15:25:28.724Z</time>
      </trkpt>
      <trkpt lat="43.99539" lon="3.4901">
        <ele>714</ele>
        <time>2021-06-27T15:25:33.728Z</time>
      </trkpt>
      <trkpt lat="43.99537" lon="3.49011">
        <ele>714</ele>
        <time>2021-06-27T15:25:38.722Z</time>
      </trkpt>
      <trkpt lat="43.99533" lon="3.49011">
        <ele>714</ele>
        <time>2021-06-27T15:25:43.718Z</time>
      </trkpt>
      <trkpt lat="43.99527" lon="3.49013">
        <ele>714</ele>
        <time>2021-06-27T15:25:48.718Z</time>
      </trkpt>
      <trkpt lat="43.9952" lon="3.49013">
        <ele>714</ele>
        <time>2021-06-27T15:25:53.722Z</time>
      </trkpt>
      <trkpt lat="43.99514" lon="3.49013">
        <ele>714</ele>
        <time>2021-06-27T15:25:58.717Z</time>
      </trkpt>
      <trkpt lat="43.99509" lon="3.49014">
        <ele>713</ele>
        <time>2021-06-27T15:26:03.724Z</time>
      </trkpt>
      <trkpt lat="43.99506" lon="3.49013">
        <ele>713</ele>
        <time>2021-06-27T15:26:08.724Z</time>
      </trkpt>
      <trkpt lat="43.995" lon="3.49013">
        <ele>713</ele>
        <time>2021-06-27T15:26:18.722Z</time>
      </trkpt>
      <trkpt lat="43.99496" lon="3.49014">
        <ele>713</ele>
        <time>2021-06-27T15:26:23.750Z</time>
      </trkpt>
      <trkpt lat="43.99491" lon="3.49015">
        <ele>709</ele>
        <time>2021-06-27T15:26:28.719Z</time>
      </trkpt>
      <trkpt lat="43.99487" lon="3.49017">
        <ele>709</ele>
        <time>2021-06-27T15:26:32.712Z</time>
      </trkpt>
      <trkpt lat="43.99482" lon="3.49018">
        <ele>706</ele>
        <time>2021-06-27T15:26:37.729Z</time>
      </trkpt>
      <trkpt lat="43.99477" lon="3.49018">
        <ele>706</ele>
        <time>2021-06-27T15:26:42.714Z</time>
      </trkpt>
      <trkpt lat="43.99473" lon="3.4902">
        <ele>706</ele>
        <time>2021-06-27T15:26:46.728Z</time>
      </trkpt>
      <trkpt lat="43.99467" lon="3.4902">
        <ele>706</ele>
        <time>2021-06-27T15:27:09.719Z</time>
      </trkpt>
      <trkpt lat="43.99467" lon="3.49029">
        <ele>706</ele>
        <time>2021-06-27T15:27:14.723Z</time>
      </trkpt>
      <trkpt lat="43.99467" lon="3.49036">
        <ele>706</ele>
        <time>2021-06-27T15:27:19.729Z</time>
      </trkpt>
      <trkpt lat="43.99469" lon="3.49042">
        <ele>700</ele>
        <time>2021-06-27T15:27:24.728Z</time>
      </trkpt>
      <trkpt lat="43.99471" lon="3.49046">
        <ele>700</ele>
        <time>2021-06-27T15:27:29.721Z</time>
      </trkpt>
      <trkpt lat="43.99474" lon="3.49051">
        <ele>700</ele>
        <time>2021-06-27T15:27:34.719Z</time>
      </trkpt>
      <trkpt lat="43.99478" lon="3.49055">
        <ele>700</ele>
        <time>2021-06-27T15:27:39.720Z</time>
      </trkpt>
      <trkpt lat="43.99482" lon="3.49061">
        <ele>700</ele>
        <time>2021-06-27T15:27:44.718Z</time>
      </trkpt>
      <trkpt lat="43.99486" lon="3.49068">
        <ele>700</ele>
        <time>2021-06-27T15:27:49.720Z</time>
      </trkpt>
      <trkpt lat="43.99489" lon="3.49075">
        <ele>692</ele>
        <time>2021-06-27T15:27:54.730Z</time>
      </trkpt>
      <trkpt lat="43.99492" lon="3.49078">
        <ele>692</ele>
        <time>2021-06-27T15:27:59.714Z</time>
      </trkpt>
      <trkpt lat="43.99496" lon="3.49082">
        <ele>692</ele>
        <time>2021-06-27T15:28:04.720Z</time>
      </trkpt>
      <trkpt lat="43.99501" lon="3.49084">
        <ele>692</ele>
        <time>2021-06-27T15:28:09.718Z</time>
      </trkpt>
      <trkpt lat="43.99504" lon="3.49088">
        <ele>692</ele>
        <time>2021-06-27T15:28:14.722Z</time>
      </trkpt>
      <trkpt lat="43.99507" lon="3.49092">
        <ele>692</ele>
        <time>2021-06-27T15:28:19.722Z</time>
      </trkpt>
      <trkpt lat="43.99509" lon="3.49095">
        <ele>692</ele>
        <time>2021-06-27T15:28:24.721Z</time>
      </trkpt>
      <trkpt lat="43.99513" lon="3.49099">
        <ele>685</ele>
        <time>2021-06-27T15:28:28.722Z</time>
      </trkpt>
      <trkpt lat="43.99516" lon="3.49104">
        <ele>691</ele>
        <time>2021-06-27T15:28:33.713Z</time>
      </trkpt>
      <trkpt lat="43.99517" lon="3.49111">
        <ele>691</ele>
        <time>2021-06-27T15:28:38.718Z</time>
      </trkpt>
      <trkpt lat="43.99517" lon="3.49115">
        <ele>691</ele>
        <time>2021-06-27T15:28:43.720Z</time>
      </trkpt>
      <trkpt lat="43.99516" lon="3.49118">
        <ele>691</ele>
        <time>2021-06-27T15:28:48.709Z</time>
      </trkpt>
      <trkpt lat="43.99517" lon="3.49119">
        <ele>691</ele>
        <time>2021-06-27T15:28:52.745Z</time>
      </trkpt>
      <trkpt lat="43.9952" lon="3.49122">
        <ele>691</ele>
        <time>2021-06-27T15:28:57.721Z</time>
      </trkpt>
      <trkpt lat="43.99523" lon="3.49126">
        <ele>685</ele>
        <time>2021-06-27T15:29:01.725Z</time>
      </trkpt>
      <trkpt lat="43.99527" lon="3.49134">
        <ele>685</ele>
        <time>2021-06-27T15:29:06.698Z</time>
      </trkpt>
      <trkpt lat="43.99529" lon="3.49139">
        <ele>685</ele>
        <time>2021-06-27T15:29:10.715Z</time>
      </trkpt>
      <trkpt lat="43.99532" lon="3.49145">
        <ele>685</ele>
        <time>2021-06-27T15:29:14.719Z</time>
      </trkpt>
      <trkpt lat="43.99535" lon="3.4915">
        <ele>685</ele>
        <time>2021-06-27T15:29:19.723Z</time>
      </trkpt>
      <trkpt lat="43.99539" lon="3.49152">
        <ele>685</ele>
        <time>2021-06-27T15:29:24.723Z</time>
      </trkpt>
      <trkpt lat="43.99542" lon="3.49156">
        <ele>687</ele>
        <time>2021-06-27T15:29:29.715Z</time>
      </trkpt>
      <trkpt lat="43.99546" lon="3.4916">
        <ele>687</ele>
        <time>2021-06-27T15:29:33.742Z</time>
      </trkpt>
      <trkpt lat="43.9955" lon="3.49166">
        <ele>687</ele>
        <time>2021-06-27T15:29:38.715Z</time>
      </trkpt>
      <trkpt lat="43.99553" lon="3.49171">
        <ele>687</ele>
        <time>2021-06-27T15:29:42.721Z</time>
      </trkpt>
      <trkpt lat="43.99555" lon="3.49177">
        <ele>687</ele>
        <time>2021-06-27T15:29:47.700Z</time>
      </trkpt>
      <trkpt lat="43.99557" lon="3.49182">
        <ele>682</ele>
        <time>2021-06-27T15:29:52.721Z</time>
      </trkpt>
      <trkpt lat="43.9956" lon="3.49187">
        <ele>682</ele>
        <time>2021-06-27T15:29:57.724Z</time>
      </trkpt>
      <trkpt lat="43.99562" lon="3.49194">
        <ele>682</ele>
        <time>2021-06-27T15:30:02.713Z</time>
      </trkpt>
      <trkpt lat="43.99564" lon="3.49201">
        <ele>682</ele>
        <time>2021-06-27T15:30:07.717Z</time>
      </trkpt>
      <trkpt lat="43.99565" lon="3.49208">
        <ele>682</ele>
        <time>2021-06-27T15:30:12.718Z</time>
      </trkpt>
      <trkpt lat="43.99567" lon="3.49215">
        <ele>677</ele>
        <time>2021-06-27T15:30:17.723Z</time>
      </trkpt>
      <trkpt lat="43.99567" lon="3.49222">
        <ele>677</ele>
        <time>2021-06-27T15:30:22.697Z</time>
      </trkpt>
      <trkpt lat="43.99567" lon="3.49224">
        <ele>677</ele>
        <time>2021-06-27T15:30:27.731Z</time>
      </trkpt>
      <trkpt lat="43.99568" lon="3.4923">
        <ele>677</ele>
        <time>2021-06-27T15:30:32.724Z</time>
      </trkpt>
      <trkpt lat="43.9957" lon="3.49237">
        <ele>682</ele>
        <time>2021-06-27T15:30:37.717Z</time>
      </trkpt>
      <trkpt lat="43.99573" lon="3.49243">
        <ele>682</ele>
        <time>2021-06-27T15:30:42.698Z</time>
      </trkpt>
      <trkpt lat="43.99575" lon="3.4925">
        <ele>682</ele>
        <time>2021-06-27T15:30:47.727Z</time>
      </trkpt>
      <trkpt lat="43.99578" lon="3.49257">
        <ele>682</ele>
        <time>2021-06-27T15:30:52.712Z</time>
      </trkpt>
      <trkpt lat="43.9958" lon="3.49261">
        <ele>682</ele>
        <time>2021-06-27T15:30:57.698Z</time>
      </trkpt>
      <trkpt lat="43.99582" lon="3.49264">
        <ele>682</ele>
        <time>2021-06-27T15:31:01.729Z</time>
      </trkpt>
      <trkpt lat="43.99584" lon="3.49268">
        <ele>676</ele>
        <time>2021-06-27T15:31:06.703Z</time>
      </trkpt>
      <trkpt lat="43.99584" lon="3.49276">
        <ele>676</ele>
        <time>2021-06-27T15:31:10.721Z</time>
      </trkpt>
      <trkpt lat="43.99586" lon="3.49284">
        <ele>676</ele>
        <time>2021-06-27T15:31:15.724Z</time>
      </trkpt>
      <trkpt lat="43.99587" lon="3.49286">
        <ele>676</ele>
        <time>2021-06-27T15:31:20.721Z</time>
      </trkpt>
      <trkpt lat="43.99587" lon="3.49287">
        <ele>676</ele>
        <time>2021-06-27T15:31:24.727Z</time>
      </trkpt>
      <trkpt lat="43.9959" lon="3.49291">
        <ele>676</ele>
        <time>2021-06-27T15:31:29.727Z</time>
      </trkpt>
      <trkpt lat="43.99594" lon="3.49297">
        <ele>671</ele>
        <time>2021-06-27T15:31:33.723Z</time>
      </trkpt>
      <trkpt lat="43.99598" lon="3.49305">
        <ele>686</ele>
        <time>2021-06-27T15:31:38.713Z</time>
      </trkpt>
      <trkpt lat="43.99603" lon="3.49311">
        <ele>686</ele>
        <time>2021-06-27T15:31:43.717Z</time>
      </trkpt>
      <trkpt lat="43.99606" lon="3.49318">
        <ele>686</ele>
        <time>2021-06-27T15:31:47.721Z</time>
      </trkpt>
      <trkpt lat="43.99608" lon="3.49323">
        <ele>679</ele>
        <time>2021-06-27T15:31:52.722Z</time>
      </trkpt>
      <trkpt lat="43.9961" lon="3.49329">
        <ele>679</ele>
        <time>2021-06-27T15:31:57.723Z</time>
      </trkpt>
      <trkpt lat="43.99612" lon="3.49335">
        <ele>679</ele>
        <time>2021-06-27T15:32:02.716Z</time>
      </trkpt>
      <trkpt lat="43.99614" lon="3.49341">
        <ele>679</ele>
        <time>2021-06-27T15:32:07.696Z</time>
      </trkpt>
      <trkpt lat="43.99616" lon="3.49346">
        <ele>679</ele>
        <time>2021-06-27T15:32:12.715Z</time>
      </trkpt>
      <trkpt lat="43.99616" lon="3.49353">
        <ele>673</ele>
        <time>2021-06-27T15:32:17.718Z</time>
      </trkpt>
      <trkpt lat="43.99617" lon="3.49359">
        <ele>673</ele>
        <time>2021-06-27T15:32:22.721Z</time>
      </trkpt>
      <trkpt lat="43.99619" lon="3.49367">
        <ele>673</ele>
        <time>2021-06-27T15:32:27.721Z</time>
      </trkpt>
      <trkpt lat="43.99619" lon="3.49374">
        <ele>673</ele>
        <time>2021-06-27T15:32:32.728Z</time>
      </trkpt>
      <trkpt lat="43.99621" lon="3.49381">
        <ele>668</ele>
        <time>2021-06-27T15:32:37.721Z</time>
      </trkpt>
      <trkpt lat="43.99623" lon="3.49386">
        <ele>668</ele>
        <time>2021-06-27T15:32:42.701Z</time>
      </trkpt>
      <trkpt lat="43.99623" lon="3.49388">
        <ele>668</ele>
        <time>2021-06-27T15:32:47.725Z</time>
      </trkpt>
      <trkpt lat="43.99624" lon="3.49395">
        <ele>668</ele>
        <time>2021-06-27T15:32:52.721Z</time>
      </trkpt>
      <trkpt lat="43.99626" lon="3.49401">
        <ele>678</ele>
        <time>2021-06-27T15:32:57.722Z</time>
      </trkpt>
      <trkpt lat="43.99627" lon="3.49406">
        <ele>672</ele>
        <time>2021-06-27T15:33:02.722Z</time>
      </trkpt>
      <trkpt lat="43.99628" lon="3.49409">
        <ele>672</ele>
        <time>2021-06-27T15:33:07.721Z</time>
      </trkpt>
      <trkpt lat="43.99628" lon="3.49413">
        <ele>672</ele>
        <time>2021-06-27T15:33:12.727Z</time>
      </trkpt>
      <trkpt lat="43.99629" lon="3.49418">
        <ele>672</ele>
        <time>2021-06-27T15:33:22.722Z</time>
      </trkpt>
      <trkpt lat="43.99633" lon="3.49433">
        <ele>665</ele>
        <time>2021-06-27T15:33:27.714Z</time>
      </trkpt>
      <trkpt lat="43.99635" lon="3.49439">
        <ele>665</ele>
        <time>2021-06-27T15:33:32.695Z</time>
      </trkpt>
      <trkpt lat="43.99636" lon="3.49443">
        <ele>665</ele>
        <time>2021-06-27T15:33:37.720Z</time>
      </trkpt>
      <trkpt lat="43.99637" lon="3.49458">
        <ele>665</ele>
        <time>2021-06-27T15:33:42.721Z</time>
      </trkpt>
      <trkpt lat="43.99639" lon="3.49461">
        <ele>659</ele>
        <time>2021-06-27T15:33:47.716Z</time>
      </trkpt>
      <trkpt lat="43.99642" lon="3.49463">
        <ele>659</ele>
        <time>2021-06-27T15:33:57.736Z</time>
      </trkpt>
      <trkpt lat="43.99644" lon="3.4947">
        <ele>659</ele>
        <time>2021-06-27T15:34:07.718Z</time>
      </trkpt>
      <trkpt lat="43.9965" lon="3.4949">
        <ele>654</ele>
        <time>2021-06-27T15:34:12.720Z</time>
      </trkpt>
      <trkpt lat="43.99659" lon="3.49505">
        <ele>664</ele>
        <time>2021-06-27T15:35:28.719Z</time>
      </trkpt>
      <trkpt lat="43.99659" lon="3.49499">
        <ele>664</ele>
        <time>2021-06-27T15:35:33.717Z</time>
      </trkpt>
      <trkpt lat="43.99657" lon="3.49492">
        <ele>664</ele>
        <time>2021-06-27T15:35:38.703Z</time>
      </trkpt>
      <trkpt lat="43.99656" lon="3.49487">
        <ele>664</ele>
        <time>2021-06-27T15:35:42.724Z</time>
      </trkpt>
      <trkpt lat="43.99652" lon="3.49481">
        <ele>659</ele>
        <time>2021-06-27T15:35:47.724Z</time>
      </trkpt>
      <trkpt lat="43.99648" lon="3.49476">
        <ele>659</ele>
        <time>2021-06-27T15:35:52.715Z</time>
      </trkpt>
      <trkpt lat="43.99643" lon="3.49473">
        <ele>659</ele>
        <time>2021-06-27T15:35:57.720Z</time>
      </trkpt>
      <trkpt lat="43.99637" lon="3.4947">
        <ele>659</ele>
        <time>2021-06-27T15:36:02.714Z</time>
      </trkpt>
      <trkpt lat="43.99633" lon="3.49467">
        <ele>659</ele>
        <time>2021-06-27T15:36:07.699Z</time>
      </trkpt>
      <trkpt lat="43.99629" lon="3.49462">
        <ele>659</ele>
        <time>2021-06-27T15:36:12.727Z</time>
      </trkpt>
      <trkpt lat="43.99625" lon="3.49457">
        <ele>665</ele>
        <time>2021-06-27T15:36:17.720Z</time>
      </trkpt>
      <trkpt lat="43.99619" lon="3.49453">
        <ele>655</ele>
        <time>2021-06-27T15:36:22.718Z</time>
      </trkpt>
      <trkpt lat="43.99616" lon="3.49446">
        <ele>655</ele>
        <time>2021-06-27T15:36:27.724Z</time>
      </trkpt>
      <trkpt lat="43.99613" lon="3.4944">
        <ele>655</ele>
        <time>2021-06-27T15:36:32.726Z</time>
      </trkpt>
      <trkpt lat="43.99611" lon="3.49437">
        <ele>655</ele>
        <time>2021-06-27T15:36:37.718Z</time>
      </trkpt>
      <trkpt lat="43.99607" lon="3.49432">
        <ele>655</ele>
        <time>2021-06-27T15:36:42.698Z</time>
      </trkpt>
      <trkpt lat="43.99604" lon="3.49427">
        <ele>662</ele>
        <time>2021-06-27T15:36:46.704Z</time>
      </trkpt>
      <trkpt lat="43.99597" lon="3.49425">
        <ele>649</ele>
        <time>2021-06-27T15:36:51.697Z</time>
      </trkpt>
      <trkpt lat="43.99592" lon="3.49425">
        <ele>649</ele>
        <time>2021-06-27T15:36:55.709Z</time>
      </trkpt>
      <trkpt lat="43.99588" lon="3.49421">
        <ele>649</ele>
        <time>2021-06-27T15:37:00.706Z</time>
      </trkpt>
      <trkpt lat="43.99585" lon="3.49418">
        <ele>649</ele>
        <time>2021-06-27T15:37:05.699Z</time>
      </trkpt>
      <trkpt lat="43.9958" lon="3.49415">
        <ele>649</ele>
        <time>2021-06-27T15:37:10.709Z</time>
      </trkpt>
      <trkpt lat="43.99579" lon="3.4941">
        <ele>649</ele>
        <time>2021-06-27T15:37:14.717Z</time>
      </trkpt>
      <trkpt lat="43.99578" lon="3.49409">
        <ele>649</ele>
        <time>2021-06-27T15:37:19.706Z</time>
      </trkpt>
      <trkpt lat="43.99577" lon="3.49404">
        <ele>649</ele>
        <time>2021-06-27T15:37:38.720Z</time>
      </trkpt>
      <trkpt lat="43.99576" lon="3.49394">
        <ele>655</ele>
        <time>2021-06-27T15:37:43.723Z</time>
      </trkpt>
      <trkpt lat="43.99574" lon="3.49387">
        <ele>655</ele>
        <time>2021-06-27T15:37:48.724Z</time>
      </trkpt>
      <trkpt lat="43.99571" lon="3.4938">
        <ele>655</ele>
        <time>2021-06-27T15:37:53.703Z</time>
      </trkpt>
      <trkpt lat="43.99569" lon="3.49374">
        <ele>649</ele>
        <time>2021-06-27T15:37:57.723Z</time>
      </trkpt>
      <trkpt lat="43.99565" lon="3.49369">
        <ele>649</ele>
        <time>2021-06-27T15:38:02.722Z</time>
      </trkpt>
      <trkpt lat="43.99561" lon="3.49364">
        <ele>649</ele>
        <time>2021-06-27T15:38:07.695Z</time>
      </trkpt>
      <trkpt lat="43.99559" lon="3.49357">
        <ele>649</ele>
        <time>2021-06-27T15:38:12.698Z</time>
      </trkpt>
      <trkpt lat="43.99558" lon="3.49354">
        <ele>649</ele>
        <time>2021-06-27T15:38:16.695Z</time>
      </trkpt>
      <trkpt lat="43.99556" lon="3.49346">
        <ele>654</ele>
        <time>2021-06-27T15:38:21.696Z</time>
      </trkpt>
      <trkpt lat="43.99555" lon="3.49339">
        <ele>654</ele>
        <time>2021-06-27T15:38:25.753Z</time>
      </trkpt>
      <trkpt lat="43.99553" lon="3.49335">
        <ele>654</ele>
        <time>2021-06-27T15:38:30.729Z</time>
      </trkpt>
      <trkpt lat="43.9955" lon="3.49331">
        <ele>654</ele>
        <time>2021-06-27T15:38:35.713Z</time>
      </trkpt>
      <trkpt lat="43.99547" lon="3.49327">
        <ele>654</ele>
        <time>2021-06-27T15:38:40.717Z</time>
      </trkpt>
      <trkpt lat="43.99545" lon="3.49323">
        <ele>654</ele>
        <time>2021-06-27T15:38:44.745Z</time>
      </trkpt>
      <trkpt lat="43.99541" lon="3.49318">
        <ele>646</ele>
        <time>2021-06-27T15:38:49.719Z</time>
      </trkpt>
      <trkpt lat="43.99537" lon="3.49316">
        <ele>646</ele>
        <time>2021-06-27T15:38:53.728Z</time>
      </trkpt>
      <trkpt lat="43.99536" lon="3.49315">
        <ele>646</ele>
        <time>2021-06-27T15:38:58.716Z</time>
      </trkpt>
      <trkpt lat="43.99535" lon="3.49314">
        <ele>646</ele>
        <time>2021-06-27T15:39:08.723Z</time>
      </trkpt>
      <trkpt lat="43.99532" lon="3.4931">
        <ele>646</ele>
        <time>2021-06-27T15:39:13.720Z</time>
      </trkpt>
      <trkpt lat="43.9953" lon="3.49305">
        <ele>646</ele>
        <time>2021-06-27T15:39:18.721Z</time>
      </trkpt>
      <trkpt lat="43.99529" lon="3.49301">
        <ele>646</ele>
        <time>2021-06-27T15:39:22.723Z</time>
      </trkpt>
      <trkpt lat="43.99529" lon="3.49297">
        <ele>646</ele>
        <time>2021-06-27T15:39:27.739Z</time>
      </trkpt>
      <trkpt lat="43.99528" lon="3.49296">
        <ele>646</ele>
        <time>2021-06-27T15:39:32.719Z</time>
      </trkpt>
      <trkpt lat="43.99528" lon="3.49292">
        <ele>646</ele>
        <time>2021-06-27T15:39:37.696Z</time>
      </trkpt>
      <trkpt lat="43.99526" lon="3.49285">
        <ele>655</ele>
        <time>2021-06-27T15:39:42.696Z</time>
      </trkpt>
      <trkpt lat="43.99525" lon="3.4928">
        <ele>655</ele>
        <time>2021-06-27T15:39:46.703Z</time>
      </trkpt>
      <trkpt lat="43.99523" lon="3.49274">
        <ele>655</ele>
        <time>2021-06-27T15:39:50.745Z</time>
      </trkpt>
      <trkpt lat="43.99518" lon="3.49271">
        <ele>655</ele>
        <time>2021-06-27T15:39:55.728Z</time>
      </trkpt>
      <trkpt lat="43.99514" lon="3.49266">
        <ele>642</ele>
        <time>2021-06-27T15:40:00.723Z</time>
      </trkpt>
      <trkpt lat="43.9951" lon="3.49262">
        <ele>649</ele>
        <time>2021-06-27T15:40:04.722Z</time>
      </trkpt>
      <trkpt lat="43.99502" lon="3.4926">
        <ele>649</ele>
        <time>2021-06-27T15:40:09.723Z</time>
      </trkpt>
      <trkpt lat="43.99494" lon="3.4926">
        <ele>649</ele>
        <time>2021-06-27T15:40:14.722Z</time>
      </trkpt>
      <trkpt lat="43.99489" lon="3.49257">
        <ele>649</ele>
        <time>2021-06-27T15:40:19.753Z</time>
      </trkpt>
      <trkpt lat="43.99486" lon="3.49251">
        <ele>638</ele>
        <time>2021-06-27T15:40:24.719Z</time>
      </trkpt>
      <trkpt lat="43.99485" lon="3.49245">
        <ele>638</ele>
        <time>2021-06-27T15:40:28.750Z</time>
      </trkpt>
      <trkpt lat="43.99483" lon="3.49239">
        <ele>638</ele>
        <time>2021-06-27T15:40:33.719Z</time>
      </trkpt>
      <trkpt lat="43.99478" lon="3.49239">
        <ele>638</ele>
        <time>2021-06-27T15:40:36.698Z</time>
      </trkpt>
      <trkpt lat="43.9947" lon="3.49239">
        <ele>638</ele>
        <time>2021-06-27T15:40:42.695Z</time>
      </trkpt>
      <trkpt lat="43.99465" lon="3.49236">
        <ele>638</ele>
        <time>2021-06-27T15:40:47.695Z</time>
      </trkpt>
      <trkpt lat="43.9946" lon="3.4923">
        <ele>645</ele>
        <time>2021-06-27T15:40:52.711Z</time>
      </trkpt>
      <trkpt lat="43.99455" lon="3.49226">
        <ele>643</ele>
        <time>2021-06-27T15:40:57.704Z</time>
      </trkpt>
      <trkpt lat="43.99451" lon="3.49223">
        <ele>643</ele>
        <time>2021-06-27T15:41:02.692Z</time>
      </trkpt>
      <trkpt lat="43.99449" lon="3.49221">
        <ele>643</ele>
        <time>2021-06-27T15:41:06.708Z</time>
      </trkpt>
      <trkpt lat="43.99446" lon="3.4922">
        <ele>643</ele>
        <time>2021-06-27T15:41:10.723Z</time>
      </trkpt>
      <trkpt lat="43.99444" lon="3.49218">
        <ele>643</ele>
        <time>2021-06-27T15:41:15.723Z</time>
      </trkpt>
      <trkpt lat="43.99442" lon="3.49218">
        <ele>643</ele>
        <time>2021-06-27T15:41:24.718Z</time>
      </trkpt>
      <trkpt lat="43.99439" lon="3.49217">
        <ele>643</ele>
        <time>2021-06-27T15:41:29.695Z</time>
      </trkpt>
      <trkpt lat="43.99436" lon="3.49219">
        <ele>643</ele>
        <time>2021-06-27T15:41:33.737Z</time>
      </trkpt>
      <trkpt lat="43.99434" lon="3.49222">
        <ele>643</ele>
        <time>2021-06-27T15:41:38.720Z</time>
      </trkpt>
      <trkpt lat="43.9943" lon="3.49225">
        <ele>655</ele>
        <time>2021-06-27T15:41:43.720Z</time>
      </trkpt>
      <trkpt lat="43.99428" lon="3.49227">
        <ele>655</ele>
        <time>2021-06-27T15:41:48.721Z</time>
      </trkpt>
      <trkpt lat="43.99424" lon="3.4923">
        <ele>655</ele>
        <time>2021-06-27T15:41:53.724Z</time>
      </trkpt>
      <trkpt lat="43.99421" lon="3.49233">
        <ele>655</ele>
        <time>2021-06-27T15:41:58.717Z</time>
      </trkpt>
      <trkpt lat="43.99416" lon="3.49239">
        <ele>646</ele>
        <time>2021-06-27T15:42:03.698Z</time>
      </trkpt>
      <trkpt lat="43.99413" lon="3.49244">
        <ele>646</ele>
        <time>2021-06-27T15:42:07.712Z</time>
      </trkpt>
      <trkpt lat="43.99409" lon="3.4925">
        <ele>646</ele>
        <time>2021-06-27T15:42:12.719Z</time>
      </trkpt>
      <trkpt lat="43.99407" lon="3.49254">
        <ele>646</ele>
        <time>2021-06-27T15:42:17.744Z</time>
      </trkpt>
      <trkpt lat="43.99404" lon="3.49258">
        <ele>646</ele>
        <time>2021-06-27T15:42:22.696Z</time>
      </trkpt>
      <trkpt lat="43.99402" lon="3.49261">
        <ele>657</ele>
        <time>2021-06-27T15:42:26.706Z</time>
      </trkpt>
      <trkpt lat="43.994" lon="3.49265">
        <ele>649</ele>
        <time>2021-06-27T15:42:31.702Z</time>
      </trkpt>
      <trkpt lat="43.99398" lon="3.49271">
        <ele>649</ele>
        <time>2021-06-27T15:42:36.704Z</time>
      </trkpt>
      <trkpt lat="43.99394" lon="3.49276">
        <ele>649</ele>
        <time>2021-06-27T15:42:41.697Z</time>
      </trkpt>
      <trkpt lat="43.99392" lon="3.49281">
        <ele>649</ele>
        <time>2021-06-27T15:42:45.724Z</time>
      </trkpt>
      <trkpt lat="43.99388" lon="3.49286">
        <ele>649</ele>
        <time>2021-06-27T15:42:50.725Z</time>
      </trkpt>
      <trkpt lat="43.99384" lon="3.49293">
        <ele>642</ele>
        <time>2021-06-27T15:42:55.724Z</time>
      </trkpt>
      <trkpt lat="43.99379" lon="3.49298">
        <ele>642</ele>
        <time>2021-06-27T15:43:00.723Z</time>
      </trkpt>
      <trkpt lat="43.99376" lon="3.49303">
        <ele>642</ele>
        <time>2021-06-27T15:43:05.724Z</time>
      </trkpt>
      <trkpt lat="43.99375" lon="3.49303">
        <ele>652</ele>
        <time>2021-06-27T15:43:10.698Z</time>
      </trkpt>
      <trkpt lat="43.99373" lon="3.49309">
        <ele>652</ele>
        <time>2021-06-27T15:43:25.719Z</time>
      </trkpt>
      <trkpt lat="43.99371" lon="3.49314">
        <ele>652</ele>
        <time>2021-06-27T15:43:30.697Z</time>
      </trkpt>
      <trkpt lat="43.9937" lon="3.49316">
        <ele>652</ele>
        <time>2021-06-27T15:43:34.721Z</time>
      </trkpt>
      <trkpt lat="43.99366" lon="3.4932">
        <ele>645</ele>
        <time>2021-06-27T15:43:39.763Z</time>
      </trkpt>
      <trkpt lat="43.99363" lon="3.49326">
        <ele>645</ele>
        <time>2021-06-27T15:43:44.715Z</time>
      </trkpt>
      <trkpt lat="43.9936" lon="3.49331">
        <ele>645</ele>
        <time>2021-06-27T15:43:48.719Z</time>
      </trkpt>
      <trkpt lat="43.99358" lon="3.49337">
        <ele>645</ele>
        <time>2021-06-27T15:43:53.727Z</time>
      </trkpt>
      <trkpt lat="43.99356" lon="3.49344">
        <ele>645</ele>
        <time>2021-06-27T15:43:58.720Z</time>
      </trkpt>
      <trkpt lat="43.99355" lon="3.4935">
        <ele>640</ele>
        <time>2021-06-27T15:44:03.696Z</time>
      </trkpt>
      <trkpt lat="43.99354" lon="3.49356">
        <ele>640</ele>
        <time>2021-06-27T15:44:07.716Z</time>
      </trkpt>
      <trkpt lat="43.99353" lon="3.49362">
        <ele>640</ele>
        <time>2021-06-27T15:44:12.717Z</time>
      </trkpt>
      <trkpt lat="43.99353" lon="3.49363">
        <ele>640</ele>
        <time>2021-06-27T15:44:17.695Z</time>
      </trkpt>
      <trkpt lat="43.99352" lon="3.49367">
        <ele>640</ele>
        <time>2021-06-27T15:44:27.719Z</time>
      </trkpt>
      <trkpt lat="43.99352" lon="3.49369">
        <ele>640</ele>
        <time>2021-06-27T15:44:32.718Z</time>
      </trkpt>
      <trkpt lat="43.9935" lon="3.49398">
        <ele>632</ele>
        <time>2021-06-27T15:44:47.720Z</time>
      </trkpt>
      <trkpt lat="43.99347" lon="3.49406">
        <ele>638</ele>
        <time>2021-06-27T15:45:02.719Z</time>
      </trkpt>
      <trkpt lat="43.99347" lon="3.49416">
        <ele>638</ele>
        <time>2021-06-27T15:45:12.740Z</time>
      </trkpt>
      <trkpt lat="43.99347" lon="3.49418">
        <ele>638</ele>
        <time>2021-06-27T15:45:17.719Z</time>
      </trkpt>
      <trkpt lat="43.99344" lon="3.49435">
        <ele>635</ele>
        <time>2021-06-27T15:45:27.720Z</time>
      </trkpt>
      <trkpt lat="43.99343" lon="3.49444">
        <ele>635</ele>
        <time>2021-06-27T15:45:32.717Z</time>
      </trkpt>
      <trkpt lat="43.99344" lon="3.49454">
        <ele>635</ele>
        <time>2021-06-27T15:45:42.718Z</time>
      </trkpt>
      <trkpt lat="43.99344" lon="3.49461">
        <ele>627</ele>
        <time>2021-06-27T15:45:47.721Z</time>
      </trkpt>
      <trkpt lat="43.99343" lon="3.4947">
        <ele>627</ele>
        <time>2021-06-27T15:45:52.719Z</time>
      </trkpt>
      <trkpt lat="43.99343" lon="3.49473">
        <ele>627</ele>
        <time>2021-06-27T15:45:57.722Z</time>
      </trkpt>
      <trkpt lat="43.99341" lon="3.49478">
        <ele>627</ele>
        <time>2021-06-27T15:46:02.693Z</time>
      </trkpt>
      <trkpt lat="43.99341" lon="3.49485">
        <ele>627</ele>
        <time>2021-06-27T15:46:06.698Z</time>
      </trkpt>
      <trkpt lat="43.99339" lon="3.49494">
        <ele>616</ele>
        <time>2021-06-27T15:46:19.717Z</time>
      </trkpt>
      <trkpt lat="43.99338" lon="3.49497">
        <ele>616</ele>
        <time>2021-06-27T15:46:23.732Z</time>
      </trkpt>
      <trkpt lat="43.99336" lon="3.49502">
        <ele>616</ele>
        <time>2021-06-27T15:46:28.721Z</time>
      </trkpt>
      <trkpt lat="43.99323" lon="3.49523">
        <ele>609</ele>
        <time>2021-06-27T15:46:33.718Z</time>
      </trkpt>
      <trkpt lat="43.99318" lon="3.49532">
        <ele>617</ele>
        <time>2021-06-27T15:46:38.721Z</time>
      </trkpt>
      <trkpt lat="43.99314" lon="3.49539">
        <ele>617</ele>
        <time>2021-06-27T15:46:43.713Z</time>
      </trkpt>
      <trkpt lat="43.99312" lon="3.4954">
        <ele>617</ele>
        <time>2021-06-27T15:46:47.727Z</time>
      </trkpt>
      <trkpt lat="43.9931" lon="3.49542">
        <ele>611</ele>
        <time>2021-06-27T15:46:52.717Z</time>
      </trkpt>
      <trkpt lat="43.99306" lon="3.49547">
        <ele>611</ele>
        <time>2021-06-27T15:47:07.721Z</time>
      </trkpt>
      <trkpt lat="43.99295" lon="3.49554">
        <ele>611</ele>
        <time>2021-06-27T15:47:12.694Z</time>
      </trkpt>
      <trkpt lat="43.99289" lon="3.49559">
        <ele>606</ele>
        <time>2021-06-27T15:47:17.725Z</time>
      </trkpt>
      <trkpt lat="43.99284" lon="3.49563">
        <ele>606</ele>
        <time>2021-06-27T15:47:22.718Z</time>
      </trkpt>
      <trkpt lat="43.99278" lon="3.49565">
        <ele>606</ele>
        <time>2021-06-27T15:47:27.721Z</time>
      </trkpt>
      <trkpt lat="43.99273" lon="3.49565">
        <ele>606</ele>
        <time>2021-06-27T15:47:32.715Z</time>
      </trkpt>
      <trkpt lat="43.99269" lon="3.49566">
        <ele>606</ele>
        <time>2021-06-27T15:47:37.711Z</time>
      </trkpt>
      <trkpt lat="43.99265" lon="3.49564">
        <ele>606</ele>
        <time>2021-06-27T15:47:42.723Z</time>
      </trkpt>
      <trkpt lat="43.99261" lon="3.49566">
        <ele>599</ele>
        <time>2021-06-27T15:47:47.695Z</time>
      </trkpt>
      <trkpt lat="43.99256" lon="3.49564">
        <ele>599</ele>
        <time>2021-06-27T15:47:52.721Z</time>
      </trkpt>
      <trkpt lat="43.99252" lon="3.49561">
        <ele>599</ele>
        <time>2021-06-27T15:47:57.723Z</time>
      </trkpt>
      <trkpt lat="43.99248" lon="3.49558">
        <ele>599</ele>
        <time>2021-06-27T15:48:02.715Z</time>
      </trkpt>
      <trkpt lat="43.99244" lon="3.49554">
        <ele>599</ele>
        <time>2021-06-27T15:48:07.722Z</time>
      </trkpt>
      <trkpt lat="43.9924" lon="3.49551">
        <ele>599</ele>
        <time>2021-06-27T15:48:12.725Z</time>
      </trkpt>
      <trkpt lat="43.99236" lon="3.49547">
        <ele>593</ele>
        <time>2021-06-27T15:48:17.718Z</time>
      </trkpt>
      <trkpt lat="43.99231" lon="3.49544">
        <ele>593</ele>
        <time>2021-06-27T15:48:22.700Z</time>
      </trkpt>
      <trkpt lat="43.99227" lon="3.49541">
        <ele>600</ele>
        <time>2021-06-27T15:48:27.723Z</time>
      </trkpt>
      <trkpt lat="43.99225" lon="3.49545">
        <ele>593</ele>
        <time>2021-06-27T15:48:32.723Z</time>
      </trkpt>
      <trkpt lat="43.99225" lon="3.49547">
        <ele>593</ele>
        <time>2021-06-27T15:48:37.714Z</time>
      </trkpt>
      <trkpt lat="43.99226" lon="3.49552">
        <ele>593</ele>
        <time>2021-06-27T15:48:41.737Z</time>
      </trkpt>
      <trkpt lat="43.99227" lon="3.4956">
        <ele>593</ele>
        <time>2021-06-27T15:48:46.692Z</time>
      </trkpt>
      <trkpt lat="43.99228" lon="3.49563">
        <ele>593</ele>
        <time>2021-06-27T15:48:50.725Z</time>
      </trkpt>
      <trkpt lat="43.99231" lon="3.49567">
        <ele>593</ele>
        <time>2021-06-27T15:48:55.710Z</time>
      </trkpt>
      <trkpt lat="43.99234" lon="3.49572">
        <ele>584</ele>
        <time>2021-06-27T15:49:00.725Z</time>
      </trkpt>
      <trkpt lat="43.99238" lon="3.49577">
        <ele>591</ele>
        <time>2021-06-27T15:49:05.720Z</time>
      </trkpt>
      <trkpt lat="43.99241" lon="3.49584">
        <ele>591</ele>
        <time>2021-06-27T15:49:10.715Z</time>
      </trkpt>
      <trkpt lat="43.99244" lon="3.49587">
        <ele>591</ele>
        <time>2021-06-27T15:49:15.726Z</time>
      </trkpt>
      <trkpt lat="43.99249" lon="3.49593">
        <ele>591</ele>
        <time>2021-06-27T15:49:20.715Z</time>
      </trkpt>
      <trkpt lat="43.99253" lon="3.496">
        <ele>583</ele>
        <time>2021-06-27T15:49:24.720Z</time>
      </trkpt>
      <trkpt lat="43.99257" lon="3.49607">
        <ele>583</ele>
        <time>2021-06-27T15:49:29.712Z</time>
      </trkpt>
      <trkpt lat="43.99261" lon="3.4961">
        <ele>583</ele>
        <time>2021-06-27T15:49:33.714Z</time>
      </trkpt>
      <trkpt lat="43.99265" lon="3.49615">
        <ele>589</ele>
        <time>2021-06-27T15:49:38.721Z</time>
      </trkpt>
      <trkpt lat="43.99268" lon="3.4962">
        <ele>589</ele>
        <time>2021-06-27T15:49:43.712Z</time>
      </trkpt>
      <trkpt lat="43.99271" lon="3.49624">
        <ele>589</ele>
        <time>2021-06-27T15:49:48.714Z</time>
      </trkpt>
      <trkpt lat="43.99274" lon="3.49629">
        <ele>582</ele>
        <time>2021-06-27T15:49:53.718Z</time>
      </trkpt>
      <trkpt lat="43.99276" lon="3.49629">
        <ele>582</ele>
        <time>2021-06-27T15:49:58.714Z</time>
      </trkpt>
      <trkpt lat="43.99279" lon="3.49632">
        <ele>582</ele>
        <time>2021-06-27T15:50:03.728Z</time>
      </trkpt>
      <trkpt lat="43.99283" lon="3.49636">
        <ele>582</ele>
        <time>2021-06-27T15:50:08.716Z</time>
      </trkpt>
      <trkpt lat="43.99285" lon="3.49638">
        <ele>582</ele>
        <time>2021-06-27T15:50:12.717Z</time>
      </trkpt>
      <trkpt lat="43.99288" lon="3.49642">
        <ele>582</ele>
        <time>2021-06-27T15:50:17.720Z</time>
      </trkpt>
      <trkpt lat="43.9929" lon="3.49644">
        <ele>582</ele>
        <time>2021-06-27T15:50:22.693Z</time>
      </trkpt>
      <trkpt lat="43.99293" lon="3.49645">
        <ele>586</ele>
        <time>2021-06-27T15:50:27.718Z</time>
      </trkpt>
      <trkpt lat="43.99299" lon="3.49644">
        <ele>586</ele>
        <time>2021-06-27T15:50:37.720Z</time>
      </trkpt>
      <trkpt lat="43.99305" lon="3.49643">
        <ele>586</ele>
        <time>2021-06-27T15:50:42.694Z</time>
      </trkpt>
      <trkpt lat="43.99307" lon="3.49641">
        <ele>586</ele>
        <time>2021-06-27T15:51:06.708Z</time>
      </trkpt>
      <trkpt lat="43.99314" lon="3.49636">
        <ele>586</ele>
        <time>2021-06-27T15:51:11.695Z</time>
      </trkpt>
      <trkpt lat="43.99317" lon="3.49634">
        <ele>586</ele>
        <time>2021-06-27T15:51:15.721Z</time>
      </trkpt>
      <trkpt lat="43.99322" lon="3.49632">
        <ele>579</ele>
        <time>2021-06-27T15:51:20.722Z</time>
      </trkpt>
      <trkpt lat="43.99327" lon="3.49629">
        <ele>579</ele>
        <time>2021-06-27T15:51:25.698Z</time>
      </trkpt>
      <trkpt lat="43.99332" lon="3.49626">
        <ele>579</ele>
        <time>2021-06-27T15:51:29.720Z</time>
      </trkpt>
      <trkpt lat="43.99337" lon="3.49621">
        <ele>589</ele>
        <time>2021-06-27T15:51:34.721Z</time>
      </trkpt>
      <trkpt lat="43.99341" lon="3.49615">
        <ele>589</ele>
        <time>2021-06-27T15:51:39.721Z</time>
      </trkpt>
      <trkpt lat="43.99344" lon="3.49611">
        <ele>589</ele>
        <time>2021-06-27T15:51:44.714Z</time>
      </trkpt>
      <trkpt lat="43.99345" lon="3.49612">
        <ele>589</ele>
        <time>2021-06-27T15:51:54.720Z</time>
      </trkpt>
      <trkpt lat="43.99345" lon="3.49613">
        <ele>589</ele>
        <time>2021-06-27T15:52:04.719Z</time>
      </trkpt>
      <trkpt lat="43.99343" lon="3.49618">
        <ele>589</ele>
        <time>2021-06-27T15:52:08.729Z</time>
      </trkpt>
      <trkpt lat="43.99342" lon="3.4962">
        <ele>589</ele>
        <time>2021-06-27T15:52:13.717Z</time>
      </trkpt>
      <trkpt lat="43.99341" lon="3.49625">
        <ele>579</ele>
        <time>2021-06-27T15:52:17.722Z</time>
      </trkpt>
      <trkpt lat="43.9934" lon="3.49629">
        <ele>579</ele>
        <time>2021-06-27T15:52:22.720Z</time>
      </trkpt>
      <trkpt lat="43.99338" lon="3.49634">
        <ele>579</ele>
        <time>2021-06-27T15:52:27.696Z</time>
      </trkpt>
      <trkpt lat="43.99335" lon="3.49638">
        <ele>579</ele>
        <time>2021-06-27T15:52:31.711Z</time>
      </trkpt>
      <trkpt lat="43.99332" lon="3.49642">
        <ele>579</ele>
        <time>2021-06-27T15:52:35.719Z</time>
      </trkpt>
      <trkpt lat="43.9933" lon="3.49648">
        <ele>579</ele>
        <time>2021-06-27T15:52:40.725Z</time>
      </trkpt>
      <trkpt lat="43.99329" lon="3.49655">
        <ele>570</ele>
        <time>2021-06-27T15:52:45.722Z</time>
      </trkpt>
      <trkpt lat="43.99328" lon="3.49659">
        <ele>570</ele>
        <time>2021-06-27T15:52:50.722Z</time>
      </trkpt>
      <trkpt lat="43.99325" lon="3.49663">
        <ele>570</ele>
        <time>2021-06-27T15:52:54.719Z</time>
      </trkpt>
      <trkpt lat="43.9932" lon="3.49667">
        <ele>570</ele>
        <time>2021-06-27T15:52:59.713Z</time>
      </trkpt>
      <trkpt lat="43.99317" lon="3.49669">
        <ele>575</ele>
        <time>2021-06-27T15:53:03.744Z</time>
      </trkpt>
      <trkpt lat="43.99314" lon="3.49672">
        <ele>575</ele>
        <time>2021-06-27T15:53:08.720Z</time>
      </trkpt>
      <trkpt lat="43.9931" lon="3.49674">
        <ele>575</ele>
        <time>2021-06-27T15:53:12.745Z</time>
      </trkpt>
      <trkpt lat="43.99308" lon="3.49676">
        <ele>575</ele>
        <time>2021-06-27T15:53:17.721Z</time>
      </trkpt>
      <trkpt lat="43.99304" lon="3.49679">
        <ele>575</ele>
        <time>2021-06-27T15:53:22.716Z</time>
      </trkpt>
      <trkpt lat="43.99301" lon="3.49683">
        <ele>562</ele>
        <time>2021-06-27T15:53:27.719Z</time>
      </trkpt>
      <trkpt lat="43.99296" lon="3.49686">
        <ele>562</ele>
        <time>2021-06-27T15:53:32.719Z</time>
      </trkpt>
      <trkpt lat="43.99292" lon="3.49689">
        <ele>562</ele>
        <time>2021-06-27T15:53:37.701Z</time>
      </trkpt>
      <trkpt lat="43.99289" lon="3.4969">
        <ele>564</ele>
        <time>2021-06-27T15:53:41.718Z</time>
      </trkpt>
      <trkpt lat="43.99284" lon="3.49694">
        <ele>564</ele>
        <time>2021-06-27T15:53:45.721Z</time>
      </trkpt>
      <trkpt lat="43.99278" lon="3.49696">
        <ele>564</ele>
        <time>2021-06-27T15:53:50.719Z</time>
      </trkpt>
      <trkpt lat="43.99275" lon="3.49696">
        <ele>564</ele>
        <time>2021-06-27T15:53:54.722Z</time>
      </trkpt>
      <trkpt lat="43.9927" lon="3.49695">
        <ele>564</ele>
        <time>2021-06-27T15:53:59.720Z</time>
      </trkpt>
      <trkpt lat="43.99266" lon="3.49695">
        <ele>564</ele>
        <time>2021-06-27T15:54:03.745Z</time>
      </trkpt>
      <trkpt lat="43.9926" lon="3.49694">
        <ele>559</ele>
        <time>2021-06-27T15:54:08.722Z</time>
      </trkpt>
      <trkpt lat="43.99256" lon="3.49695">
        <ele>559</ele>
        <time>2021-06-27T15:54:13.722Z</time>
      </trkpt>
      <trkpt lat="43.99256" lon="3.49696">
        <ele>559</ele>
        <time>2021-06-27T15:54:17.721Z</time>
      </trkpt>
      <trkpt lat="43.99257" lon="3.497">
        <ele>559</ele>
        <time>2021-06-27T15:54:22.723Z</time>
      </trkpt>
      <trkpt lat="43.9926" lon="3.49704">
        <ele>559</ele>
        <time>2021-06-27T15:54:27.720Z</time>
      </trkpt>
      <trkpt lat="43.99264" lon="3.49709">
        <ele>553</ele>
        <time>2021-06-27T15:54:32.717Z</time>
      </trkpt>
      <trkpt lat="43.99268" lon="3.49713">
        <ele>553</ele>
        <time>2021-06-27T15:54:37.721Z</time>
      </trkpt>
      <trkpt lat="43.99272" lon="3.49715">
        <ele>553</ele>
        <time>2021-06-27T15:54:42.723Z</time>
      </trkpt>
      <trkpt lat="43.99275" lon="3.49716">
        <ele>553</ele>
        <time>2021-06-27T15:54:51.704Z</time>
      </trkpt>
      <trkpt lat="43.99277" lon="3.49716">
        <ele>553</ele>
        <time>2021-06-27T15:54:55.721Z</time>
      </trkpt>
      <trkpt lat="43.99282" lon="3.49718">
        <ele>553</ele>
        <time>2021-06-27T15:54:59.746Z</time>
      </trkpt>
      <trkpt lat="43.99289" lon="3.49719">
        <ele>553</ele>
        <time>2021-06-27T15:55:04.712Z</time>
      </trkpt>
      <trkpt lat="43.99293" lon="3.4972">
        <ele>549</ele>
        <time>2021-06-27T15:55:12.720Z</time>
      </trkpt>
      <trkpt lat="43.99295" lon="3.49724">
        <ele>549</ele>
        <time>2021-06-27T15:55:17.727Z</time>
      </trkpt>
      <trkpt lat="43.99295" lon="3.49724">
        <ele>549</ele>
        <time>2021-06-27T15:55:22.699Z</time>
      </trkpt>
      <trkpt lat="43.99295" lon="3.49727">
        <ele>549</ele>
        <time>2021-06-27T15:55:32.713Z</time>
      </trkpt>
      <trkpt lat="43.99292" lon="3.4973">
        <ele>553</ele>
        <time>2021-06-27T15:55:37.730Z</time>
      </trkpt>
      <trkpt lat="43.99289" lon="3.49731">
        <ele>553</ele>
        <time>2021-06-27T15:55:42.721Z</time>
      </trkpt>
      <trkpt lat="43.99288" lon="3.49733">
        <ele>553</ele>
        <time>2021-06-27T15:55:52.712Z</time>
      </trkpt>
      <trkpt lat="43.99287" lon="3.49734">
        <ele>553</ele>
        <time>2021-06-27T15:55:57.696Z</time>
      </trkpt>
      <trkpt lat="43.99285" lon="3.49736">
        <ele>544</ele>
        <time>2021-06-27T15:56:02.722Z</time>
      </trkpt>
      <trkpt lat="43.99283" lon="3.49737">
        <ele>544</ele>
        <time>2021-06-27T15:56:07.722Z</time>
      </trkpt>
      <trkpt lat="43.99279" lon="3.49738">
        <ele>544</ele>
        <time>2021-06-27T15:56:12.724Z</time>
      </trkpt>
      <trkpt lat="43.99276" lon="3.49742">
        <ele>544</ele>
        <time>2021-06-27T15:56:17.721Z</time>
      </trkpt>
      <trkpt lat="43.99273" lon="3.49749">
        <ele>544</ele>
        <time>2021-06-27T15:56:22.720Z</time>
      </trkpt>
      <trkpt lat="43.9927" lon="3.49755">
        <ele>544</ele>
        <time>2021-06-27T15:56:27.712Z</time>
      </trkpt>
      <trkpt lat="43.99266" lon="3.49759">
        <ele>544</ele>
        <time>2021-06-27T15:56:32.697Z</time>
      </trkpt>
      <trkpt lat="43.99261" lon="3.49762">
        <ele>545</ele>
        <time>2021-06-27T15:56:37.728Z</time>
      </trkpt>
      <trkpt lat="43.99257" lon="3.49763">
        <ele>545</ele>
        <time>2021-06-27T15:56:42.718Z</time>
      </trkpt>
      <trkpt lat="43.99256" lon="3.49762">
        <ele>545</ele>
        <time>2021-06-27T15:56:47.728Z</time>
      </trkpt>
      <trkpt lat="43.99251" lon="3.49763">
        <ele>545</ele>
        <time>2021-06-27T15:56:52.716Z</time>
      </trkpt>
      <trkpt lat="43.99247" lon="3.49766">
        <ele>538</ele>
        <time>2021-06-27T15:56:57.715Z</time>
      </trkpt>
      <trkpt lat="43.99246" lon="3.49765">
        <ele>538</ele>
        <time>2021-06-27T15:57:02.717Z</time>
      </trkpt>
      <trkpt lat="43.99244" lon="3.49766">
        <ele>538</ele>
        <time>2021-06-27T15:57:07.693Z</time>
      </trkpt>
      <trkpt lat="43.99241" lon="3.49769">
        <ele>538</ele>
        <time>2021-06-27T15:57:20.720Z</time>
      </trkpt>
      <trkpt lat="43.99241" lon="3.49773">
        <ele>538</ele>
        <time>2021-06-27T15:57:24.751Z</time>
      </trkpt>
      <trkpt lat="43.99241" lon="3.49779">
        <ele>538</ele>
        <time>2021-06-27T15:57:29.722Z</time>
      </trkpt>
      <trkpt lat="43.99243" lon="3.49785">
        <ele>538</ele>
        <time>2021-06-27T15:57:34.720Z</time>
      </trkpt>
      <trkpt lat="43.99245" lon="3.49789">
        <ele>538</ele>
        <time>2021-06-27T15:57:38.722Z</time>
      </trkpt>
      <trkpt lat="43.99247" lon="3.49793">
        <ele>528</ele>
        <time>2021-06-27T15:57:43.710Z</time>
      </trkpt>
      <trkpt lat="43.99249" lon="3.49794">
        <ele>528</ele>
        <time>2021-06-27T15:57:47.721Z</time>
      </trkpt>
      <trkpt lat="43.99251" lon="3.49793">
        <ele>528</ele>
        <time>2021-06-27T15:57:52.719Z</time>
      </trkpt>
      <trkpt lat="43.99252" lon="3.49794">
        <ele>528</ele>
        <time>2021-06-27T15:57:57.720Z</time>
      </trkpt>
      <trkpt lat="43.99261" lon="3.49793">
        <ele>528</ele>
        <time>2021-06-27T15:58:07.721Z</time>
      </trkpt>
      <trkpt lat="43.99264" lon="3.49795">
        <ele>522</ele>
        <time>2021-06-27T15:58:21.711Z</time>
      </trkpt>
      <trkpt lat="43.99266" lon="3.49796">
        <ele>522</ele>
        <time>2021-06-27T15:58:25.722Z</time>
      </trkpt>
      <trkpt lat="43.99269" lon="3.49793">
        <ele>522</ele>
        <time>2021-06-27T15:58:30.715Z</time>
      </trkpt>
      <trkpt lat="43.99269" lon="3.49795">
        <ele>522</ele>
        <time>2021-06-27T15:58:39.715Z</time>
      </trkpt>
      <trkpt lat="43.99267" lon="3.49798">
        <ele>522</ele>
        <time>2021-06-27T15:58:43.723Z</time>
      </trkpt>
      <trkpt lat="43.99265" lon="3.49801">
        <ele>522</ele>
        <time>2021-06-27T15:58:53.723Z</time>
      </trkpt>
      <trkpt lat="43.99263" lon="3.49807">
        <ele>528</ele>
        <time>2021-06-27T15:58:57.723Z</time>
      </trkpt>
      <trkpt lat="43.99262" lon="3.49807">
        <ele>528</ele>
        <time>2021-06-27T15:59:02.713Z</time>
      </trkpt>
      <trkpt lat="43.99261" lon="3.49809">
        <ele>528</ele>
        <time>2021-06-27T15:59:07.750Z</time>
      </trkpt>
      <trkpt lat="43.99258" lon="3.49813">
        <ele>528</ele>
        <time>2021-06-27T15:59:12.715Z</time>
      </trkpt>
      <trkpt lat="43.99256" lon="3.49816">
        <ele>528</ele>
        <time>2021-06-27T15:59:17.734Z</time>
      </trkpt>
      <trkpt lat="43.99253" lon="3.4982">
        <ele>519</ele>
        <time>2021-06-27T15:59:27.696Z</time>
      </trkpt>
      <trkpt lat="43.99251" lon="3.49824">
        <ele>519</ele>
        <time>2021-06-27T15:59:31.714Z</time>
      </trkpt>
      <trkpt lat="43.99246" lon="3.49829">
        <ele>519</ele>
        <time>2021-06-27T15:59:40.722Z</time>
      </trkpt>
      <trkpt lat="43.99245" lon="3.49833">
        <ele>519</ele>
        <time>2021-06-27T15:59:45.712Z</time>
      </trkpt>
      <trkpt lat="43.9924" lon="3.49844">
        <ele>519</ele>
        <time>2021-06-27T15:59:50.718Z</time>
      </trkpt>
      <trkpt lat="43.99239" lon="3.49848">
        <ele>512</ele>
        <time>2021-06-27T15:59:55.721Z</time>
      </trkpt>
      <trkpt lat="43.99238" lon="3.49851">
        <ele>512</ele>
        <time>2021-06-27T16:00:00.718Z</time>
      </trkpt>
      <trkpt lat="43.99234" lon="3.49854">
        <ele>515</ele>
        <time>2021-06-27T16:00:04.745Z</time>
      </trkpt>
      <trkpt lat="43.9923" lon="3.49858">
        <ele>515</ele>
        <time>2021-06-27T16:00:09.721Z</time>
      </trkpt>
      <trkpt lat="43.99226" lon="3.49864">
        <ele>515</ele>
        <time>2021-06-27T16:00:14.718Z</time>
      </trkpt>
      <trkpt lat="43.99223" lon="3.49866">
        <ele>515</ele>
        <time>2021-06-27T16:00:19.714Z</time>
      </trkpt>
      <trkpt lat="43.9922" lon="3.49868">
        <ele>515</ele>
        <time>2021-06-27T16:00:24.718Z</time>
      </trkpt>
      <trkpt lat="43.99218" lon="3.49874">
        <ele>515</ele>
        <time>2021-06-27T16:00:28.719Z</time>
      </trkpt>
      <trkpt lat="43.99214" lon="3.49881">
        <ele>509</ele>
        <time>2021-06-27T16:00:33.720Z</time>
      </trkpt>
      <trkpt lat="43.99212" lon="3.49886">
        <ele>509</ele>
        <time>2021-06-27T16:00:38.718Z</time>
      </trkpt>
      <trkpt lat="43.99212" lon="3.49886">
        <ele>509</ele>
        <time>2021-06-27T16:00:43.722Z</time>
      </trkpt>
      <trkpt lat="43.9921" lon="3.49889">
        <ele>509</ele>
        <time>2021-06-27T16:00:47.752Z</time>
      </trkpt>
      <trkpt lat="43.99207" lon="3.49893">
        <ele>511</ele>
        <time>2021-06-27T16:00:52.722Z</time>
      </trkpt>
      <trkpt lat="43.99205" lon="3.49899">
        <ele>511</ele>
        <time>2021-06-27T16:00:57.723Z</time>
      </trkpt>
      <trkpt lat="43.99203" lon="3.49902">
        <ele>511</ele>
        <time>2021-06-27T16:01:02.721Z</time>
      </trkpt>
      <trkpt lat="43.99201" lon="3.49906">
        <ele>507</ele>
        <time>2021-06-27T16:01:12.699Z</time>
      </trkpt>
      <trkpt lat="43.99198" lon="3.49912">
        <ele>507</ele>
        <time>2021-06-27T16:01:17.713Z</time>
      </trkpt>
      <trkpt lat="43.99196" lon="3.49919">
        <ele>507</ele>
        <time>2021-06-27T16:01:22.714Z</time>
      </trkpt>
      <trkpt lat="43.99194" lon="3.49924">
        <ele>507</ele>
        <time>2021-06-27T16:01:32.746Z</time>
      </trkpt>
      <trkpt lat="43.99191" lon="3.49936">
        <ele>504</ele>
        <time>2021-06-27T16:01:37.716Z</time>
      </trkpt>
      <trkpt lat="43.9919" lon="3.49941">
        <ele>504</ele>
        <time>2021-06-27T16:01:42.716Z</time>
      </trkpt>
      <trkpt lat="43.99189" lon="3.49944">
        <ele>504</ele>
        <time>2021-06-27T16:01:47.699Z</time>
      </trkpt>
      <trkpt lat="43.99187" lon="3.49952">
        <ele>504</ele>
        <time>2021-06-27T16:01:52.722Z</time>
      </trkpt>
      <trkpt lat="43.99187" lon="3.49955">
        <ele>504</ele>
        <time>2021-06-27T16:01:57.720Z</time>
      </trkpt>
      <trkpt lat="43.99186" lon="3.49958">
        <ele>504</ele>
        <time>2021-06-27T16:02:02.720Z</time>
      </trkpt>
      <trkpt lat="43.99185" lon="3.49964">
        <ele>501</ele>
        <time>2021-06-27T16:02:07.721Z</time>
      </trkpt>
      <trkpt lat="43.99185" lon="3.49965">
        <ele>501</ele>
        <time>2021-06-27T16:02:12.721Z</time>
      </trkpt>
      <trkpt lat="43.99184" lon="3.49972">
        <ele>501</ele>
        <time>2021-06-27T16:02:22.699Z</time>
      </trkpt>
      <trkpt lat="43.99183" lon="3.49978">
        <ele>501</ele>
        <time>2021-06-27T16:02:32.720Z</time>
      </trkpt>
      <trkpt lat="43.99176" lon="3.49988">
        <ele>500</ele>
        <time>2021-06-27T16:02:42.721Z</time>
      </trkpt>
      <trkpt lat="43.99173" lon="3.49995">
        <ele>500</ele>
        <time>2021-06-27T16:02:57.699Z</time>
      </trkpt>
      <trkpt lat="43.99173" lon="3.49996">
        <ele>500</ele>
        <time>2021-06-27T16:03:02.718Z</time>
      </trkpt>
      <trkpt lat="43.99171" lon="3.49999">
        <ele>500</ele>
        <time>2021-06-27T16:03:07.718Z</time>
      </trkpt>
      <trkpt lat="43.99164" lon="3.50015">
        <ele>496</ele>
        <time>2021-06-27T16:03:12.715Z</time>
      </trkpt>
      <trkpt lat="43.99159" lon="3.50026">
        <ele>496</ele>
        <time>2021-06-27T16:03:17.718Z</time>
      </trkpt>
      <trkpt lat="43.99158" lon="3.50031">
        <ele>496</ele>
        <time>2021-06-27T16:03:22.722Z</time>
      </trkpt>
      <trkpt lat="43.99156" lon="3.50035">
        <ele>496</ele>
        <time>2021-06-27T16:03:27.723Z</time>
      </trkpt>
      <trkpt lat="43.99157" lon="3.50043">
        <ele>491</ele>
        <time>2021-06-27T16:04:10.714Z</time>
      </trkpt>
      <trkpt lat="43.99158" lon="3.50045">
        <ele>491</ele>
        <time>2021-06-27T16:04:15.725Z</time>
      </trkpt>
      <trkpt lat="43.9916" lon="3.50053">
        <ele>491</ele>
        <time>2021-06-27T16:04:19.753Z</time>
      </trkpt>
      <trkpt lat="43.99161" lon="3.50056">
        <ele>491</ele>
        <time>2021-06-27T16:04:24.716Z</time>
      </trkpt>
      <trkpt lat="43.99164" lon="3.5006">
        <ele>491</ele>
        <time>2021-06-27T16:04:29.723Z</time>
      </trkpt>
      <trkpt lat="43.99166" lon="3.50064">
        <ele>491</ele>
        <time>2021-06-27T16:04:34.720Z</time>
      </trkpt>
      <trkpt lat="43.99166" lon="3.50071">
        <ele>483</ele>
        <time>2021-06-27T16:04:43.778Z</time>
      </trkpt>
      <trkpt lat="43.99167" lon="3.50078">
        <ele>483</ele>
        <time>2021-06-27T16:04:48.711Z</time>
      </trkpt>
      <trkpt lat="43.99168" lon="3.50086">
        <ele>483</ele>
        <time>2021-06-27T16:04:52.719Z</time>
      </trkpt>
      <trkpt lat="43.99166" lon="3.50089">
        <ele>483</ele>
        <time>2021-06-27T16:04:57.725Z</time>
      </trkpt>
      <trkpt lat="43.99162" lon="3.50092">
        <ele>483</ele>
        <time>2021-06-27T16:05:02.722Z</time>
      </trkpt>
      <trkpt lat="43.99158" lon="3.50095">
        <ele>483</ele>
        <time>2021-06-27T16:05:07.715Z</time>
      </trkpt>
      <trkpt lat="43.99155" lon="3.50094">
        <ele>483</ele>
        <time>2021-06-27T16:05:12.717Z</time>
      </trkpt>
      <trkpt lat="43.99151" lon="3.50093">
        <ele>483</ele>
        <time>2021-06-27T16:05:17.700Z</time>
      </trkpt>
      <trkpt lat="43.99148" lon="3.50091">
        <ele>483</ele>
        <time>2021-06-27T16:05:21.714Z</time>
      </trkpt>
      <trkpt lat="43.99144" lon="3.5009">
        <ele>483</ele>
        <time>2021-06-27T16:05:25.724Z</time>
      </trkpt>
      <trkpt lat="43.9914" lon="3.50087">
        <ele>483</ele>
        <time>2021-06-27T16:05:30.721Z</time>
      </trkpt>
      <trkpt lat="43.99137" lon="3.50086">
        <ele>483</ele>
        <time>2021-06-27T16:05:35.752Z</time>
      </trkpt>
      <trkpt lat="43.99133" lon="3.50086">
        <ele>483</ele>
        <time>2021-06-27T16:05:40.722Z</time>
      </trkpt>
      <trkpt lat="43.9913" lon="3.50085">
        <ele>483</ele>
        <time>2021-06-27T16:05:45.721Z</time>
      </trkpt>
      <trkpt lat="43.99129" lon="3.50084">
        <ele>483</ele>
        <time>2021-06-27T16:05:50.724Z</time>
      </trkpt>
      <trkpt lat="43.99127" lon="3.50081">
        <ele>483</ele>
        <time>2021-06-27T16:05:55.723Z</time>
      </trkpt>
      <trkpt lat="43.99126" lon="3.5008">
        <ele>483</ele>
        <time>2021-06-27T16:06:00.724Z</time>
      </trkpt>
      <trkpt lat="43.99121" lon="3.50077">
        <ele>472</ele>
        <time>2021-06-27T16:06:05.719Z</time>
      </trkpt>
      <trkpt lat="43.99119" lon="3.50075">
        <ele>472</ele>
        <time>2021-06-27T16:06:10.722Z</time>
      </trkpt>
      <trkpt lat="43.99117" lon="3.50072">
        <ele>472</ele>
        <time>2021-06-27T16:06:14.754Z</time>
      </trkpt>
      <trkpt lat="43.99117" lon="3.50072">
        <ele>472</ele>
        <time>2021-06-27T16:06:19.723Z</time>
      </trkpt>
      <trkpt lat="43.99112" lon="3.50064">
        <ele>478</ele>
        <time>2021-06-27T16:06:33.721Z</time>
      </trkpt>
      <trkpt lat="43.99104" lon="3.50056">
        <ele>478</ele>
        <time>2021-06-27T16:06:38.725Z</time>
      </trkpt>
      <trkpt lat="43.99098" lon="3.50052">
        <ele>478</ele>
        <time>2021-06-27T16:06:43.716Z</time>
      </trkpt>
      <trkpt lat="43.99094" lon="3.50046">
        <ele>467</ele>
        <time>2021-06-27T16:06:48.715Z</time>
      </trkpt>
      <trkpt lat="43.99091" lon="3.50045">
        <ele>467</ele>
        <time>2021-06-27T16:06:52.717Z</time>
      </trkpt>
      <trkpt lat="43.99086" lon="3.50043">
        <ele>467</ele>
        <time>2021-06-27T16:06:57.730Z</time>
      </trkpt>
      <trkpt lat="43.99083" lon="3.50043">
        <ele>467</ele>
        <time>2021-06-27T16:07:02.699Z</time>
      </trkpt>
      <trkpt lat="43.9908" lon="3.50045">
        <ele>467</ele>
        <time>2021-06-27T16:07:07.722Z</time>
      </trkpt>
      <trkpt lat="43.99075" lon="3.50047">
        <ele>467</ele>
        <time>2021-06-27T16:07:12.698Z</time>
      </trkpt>
      <trkpt lat="43.99068" lon="3.50048">
        <ele>461</ele>
        <time>2021-06-27T16:07:17.724Z</time>
      </trkpt>
      <trkpt lat="43.99063" lon="3.50049">
        <ele>461</ele>
        <time>2021-06-27T16:07:22.720Z</time>
      </trkpt>
      <trkpt lat="43.99059" lon="3.50051">
        <ele>461</ele>
        <time>2021-06-27T16:07:27.719Z</time>
      </trkpt>
      <trkpt lat="43.99055" lon="3.50054">
        <ele>461</ele>
        <time>2021-06-27T16:07:32.719Z</time>
      </trkpt>
      <trkpt lat="43.99052" lon="3.50059">
        <ele>461</ele>
        <time>2021-06-27T16:07:37.701Z</time>
      </trkpt>
      <trkpt lat="43.99048" lon="3.50059">
        <ele>461</ele>
        <time>2021-06-27T16:07:41.728Z</time>
      </trkpt>
      <trkpt lat="43.99044" lon="3.50059">
        <ele>461</ele>
        <time>2021-06-27T16:07:46.728Z</time>
      </trkpt>
      <trkpt lat="43.9904" lon="3.50061">
        <ele>459</ele>
        <time>2021-06-27T16:07:51.696Z</time>
      </trkpt>
      <trkpt lat="43.99039" lon="3.50067">
        <ele>459</ele>
        <time>2021-06-27T16:07:55.722Z</time>
      </trkpt>
      <trkpt lat="43.99038" lon="3.50072">
        <ele>456</ele>
        <time>2021-06-27T16:08:00.724Z</time>
      </trkpt>
      <trkpt lat="43.99037" lon="3.50078">
        <ele>456</ele>
        <time>2021-06-27T16:08:05.719Z</time>
      </trkpt>
      <trkpt lat="43.99037" lon="3.50083">
        <ele>456</ele>
        <time>2021-06-27T16:08:10.722Z</time>
      </trkpt>
      <trkpt lat="43.99037" lon="3.50089">
        <ele>456</ele>
        <time>2021-06-27T16:08:15.721Z</time>
      </trkpt>
      <trkpt lat="43.99037" lon="3.50095">
        <ele>456</ele>
        <time>2021-06-27T16:08:20.714Z</time>
      </trkpt>
      <trkpt lat="43.99038" lon="3.50099">
        <ele>451</ele>
        <time>2021-06-27T16:08:30.694Z</time>
      </trkpt>
      <trkpt lat="43.9904" lon="3.50104">
        <ele>451</ele>
        <time>2021-06-27T16:08:34.722Z</time>
      </trkpt>
      <trkpt lat="43.99044" lon="3.50108">
        <ele>449</ele>
        <time>2021-06-27T16:08:39.712Z</time>
      </trkpt>
      <trkpt lat="43.99047" lon="3.50107">
        <ele>449</ele>
        <time>2021-06-27T16:08:43.698Z</time>
      </trkpt>
      <trkpt lat="43.99052" lon="3.50105">
        <ele>449</ele>
        <time>2021-06-27T16:08:48.697Z</time>
      </trkpt>
      <trkpt lat="43.99053" lon="3.50105">
        <ele>449</ele>
        <time>2021-06-27T16:08:52.709Z</time>
      </trkpt>
      <trkpt lat="43.99059" lon="3.50103">
        <ele>449</ele>
        <time>2021-06-27T16:08:57.695Z</time>
      </trkpt>
      <trkpt lat="43.99064" lon="3.50104">
        <ele>449</ele>
        <time>2021-06-27T16:09:01.707Z</time>
      </trkpt>
      <trkpt lat="43.99071" lon="3.50106">
        <ele>456</ele>
        <time>2021-06-27T16:09:05.715Z</time>
      </trkpt>
      <trkpt lat="43.99075" lon="3.50109">
        <ele>456</ele>
        <time>2021-06-27T16:09:10.706Z</time>
      </trkpt>
      <trkpt lat="43.99075" lon="3.50109">
        <ele>456</ele>
        <time>2021-06-27T16:09:15.704Z</time>
      </trkpt>
      <trkpt lat="43.99079" lon="3.50116">
        <ele>456</ele>
        <time>2021-06-27T16:09:20.710Z</time>
      </trkpt>
      <trkpt lat="43.99085" lon="3.50123">
        <ele>456</ele>
        <time>2021-06-27T16:09:25.709Z</time>
      </trkpt>
      <trkpt lat="43.99088" lon="3.50124">
        <ele>456</ele>
        <time>2021-06-27T16:09:29.731Z</time>
      </trkpt>
      <trkpt lat="43.9909" lon="3.50128">
        <ele>450</ele>
        <time>2021-06-27T16:09:34.698Z</time>
      </trkpt>
      <trkpt lat="43.9909" lon="3.50132">
        <ele>450</ele>
        <time>2021-06-27T16:09:38.698Z</time>
      </trkpt>
      <trkpt lat="43.99092" lon="3.50135">
        <ele>450</ele>
        <time>2021-06-27T16:09:43.711Z</time>
      </trkpt>
      <trkpt lat="43.99096" lon="3.50142">
        <ele>450</ele>
        <time>2021-06-27T16:09:48.725Z</time>
      </trkpt>
      <trkpt lat="43.99099" lon="3.50148">
        <ele>456</ele>
        <time>2021-06-27T16:09:53.725Z</time>
      </trkpt>
      <trkpt lat="43.99103" lon="3.50152">
        <ele>456</ele>
        <time>2021-06-27T16:09:58.704Z</time>
      </trkpt>
      <trkpt lat="43.99106" lon="3.50155">
        <ele>452</ele>
        <time>2021-06-27T16:10:02.727Z</time>
      </trkpt>
      <trkpt lat="43.9911" lon="3.5016">
        <ele>452</ele>
        <time>2021-06-27T16:10:07.724Z</time>
      </trkpt>
      <trkpt lat="43.99114" lon="3.50162">
        <ele>452</ele>
        <time>2021-06-27T16:10:11.744Z</time>
      </trkpt>
      <trkpt lat="43.99118" lon="3.50163">
        <ele>452</ele>
        <time>2021-06-27T16:10:16.697Z</time>
      </trkpt>
      <trkpt lat="43.99121" lon="3.50166">
        <ele>452</ele>
        <time>2021-06-27T16:10:20.717Z</time>
      </trkpt>
      <trkpt lat="43.99125" lon="3.5017">
        <ele>452</ele>
        <time>2021-06-27T16:10:24.720Z</time>
      </trkpt>
      <trkpt lat="43.99129" lon="3.50173">
        <ele>454</ele>
        <time>2021-06-27T16:10:29.720Z</time>
      </trkpt>
      <trkpt lat="43.99134" lon="3.50178">
        <ele>454</ele>
        <time>2021-06-27T16:10:34.698Z</time>
      </trkpt>
      <trkpt lat="43.99136" lon="3.50182">
        <ele>452</ele>
        <time>2021-06-27T16:10:39.726Z</time>
      </trkpt>
      <trkpt lat="43.9914" lon="3.50186">
        <ele>452</ele>
        <time>2021-06-27T16:10:44.717Z</time>
      </trkpt>
      <trkpt lat="43.99144" lon="3.5019">
        <ele>452</ele>
        <time>2021-06-27T16:11:13.720Z</time>
      </trkpt>
      <trkpt lat="43.99142" lon="3.50194">
        <ele>452</ele>
        <time>2021-06-27T16:11:18.720Z</time>
      </trkpt>
      <trkpt lat="43.99138" lon="3.50202">
        <ele>452</ele>
        <time>2021-06-27T16:11:23.718Z</time>
      </trkpt>
      <trkpt lat="43.99136" lon="3.50209">
        <ele>453</ele>
        <time>2021-06-27T16:11:28.712Z</time>
      </trkpt>
      <trkpt lat="43.99135" lon="3.50216">
        <ele>453</ele>
        <time>2021-06-27T16:11:32.693Z</time>
      </trkpt>
      <trkpt lat="43.99135" lon="3.50223">
        <ele>453</ele>
        <time>2021-06-27T16:11:37.694Z</time>
      </trkpt>
      <trkpt lat="43.99136" lon="3.50235">
        <ele>453</ele>
        <time>2021-06-27T16:11:42.711Z</time>
      </trkpt>
      <trkpt lat="43.99136" lon="3.50241">
        <ele>455</ele>
        <time>2021-06-27T16:11:47.708Z</time>
      </trkpt>
      <trkpt lat="43.99135" lon="3.50244">
        <ele>455</ele>
        <time>2021-06-27T16:11:52.707Z</time>
      </trkpt>
      <trkpt lat="43.99134" lon="3.5025">
        <ele>455</ele>
        <time>2021-06-27T16:11:57.707Z</time>
      </trkpt>
      <trkpt lat="43.99132" lon="3.50257">
        <ele>455</ele>
        <time>2021-06-27T16:12:02.693Z</time>
      </trkpt>
      <trkpt lat="43.99128" lon="3.50266">
        <ele>458</ele>
        <time>2021-06-27T16:12:07.711Z</time>
      </trkpt>
      <trkpt lat="43.99126" lon="3.50271">
        <ele>458</ele>
        <time>2021-06-27T16:12:11.717Z</time>
      </trkpt>
      <trkpt lat="43.99124" lon="3.50275">
        <ele>453</ele>
        <time>2021-06-27T16:12:15.713Z</time>
      </trkpt>
      <trkpt lat="43.99124" lon="3.50281">
        <ele>453</ele>
        <time>2021-06-27T16:12:20.697Z</time>
      </trkpt>
      <trkpt lat="43.99125" lon="3.50284">
        <ele>453</ele>
        <time>2021-06-27T16:12:25.694Z</time>
      </trkpt>
      <trkpt lat="43.99121" lon="3.50289">
        <ele>453</ele>
        <time>2021-06-27T16:12:30.704Z</time>
      </trkpt>
      <trkpt lat="43.99116" lon="3.50294">
        <ele>456</ele>
        <time>2021-06-27T16:12:35.697Z</time>
      </trkpt>
      <trkpt lat="43.99112" lon="3.50297">
        <ele>456</ele>
        <time>2021-06-27T16:12:40.698Z</time>
      </trkpt>
      <trkpt lat="43.99108" lon="3.503">
        <ele>456</ele>
        <time>2021-06-27T16:12:45.696Z</time>
      </trkpt>
      <trkpt lat="43.99105" lon="3.50305">
        <ele>456</ele>
        <time>2021-06-27T16:12:50.696Z</time>
      </trkpt>
      <trkpt lat="43.99104" lon="3.50309">
        <ele>456</ele>
        <time>2021-06-27T16:12:55.698Z</time>
      </trkpt>
      <trkpt lat="43.991" lon="3.50313">
        <ele>456</ele>
        <time>2021-06-27T16:13:00.699Z</time>
      </trkpt>
      <trkpt lat="43.99097" lon="3.50318">
        <ele>456</ele>
        <time>2021-06-27T16:13:05.724Z</time>
      </trkpt>
      <trkpt lat="43.99095" lon="3.50323">
        <ele>458</ele>
        <time>2021-06-27T16:13:10.694Z</time>
      </trkpt>
      <trkpt lat="43.99092" lon="3.50328">
        <ele>458</ele>
        <time>2021-06-27T16:13:15.695Z</time>
      </trkpt>
      <trkpt lat="43.99092" lon="3.50331">
        <ele>458</ele>
        <time>2021-06-27T16:13:19.709Z</time>
      </trkpt>
      <trkpt lat="43.99093" lon="3.50337">
        <ele>458</ele>
        <time>2021-06-27T16:13:24.692Z</time>
      </trkpt>
      <trkpt lat="43.99092" lon="3.50342">
        <ele>458</ele>
        <time>2021-06-27T16:13:28.718Z</time>
      </trkpt>
      <trkpt lat="43.99093" lon="3.50354">
        <ele>459</ele>
        <time>2021-06-27T16:13:33.727Z</time>
      </trkpt>
      <trkpt lat="43.99091" lon="3.50367">
        <ele>459</ele>
        <time>2021-06-27T16:13:38.711Z</time>
      </trkpt>
      <trkpt lat="43.99089" lon="3.50373">
        <ele>459</ele>
        <time>2021-06-27T16:13:43.720Z</time>
      </trkpt>
      <trkpt lat="43.99088" lon="3.50379">
        <ele>459</ele>
        <time>2021-06-27T16:13:48.711Z</time>
      </trkpt>
      <trkpt lat="43.99084" lon="3.50382">
        <ele>459</ele>
        <time>2021-06-27T16:13:58.714Z</time>
      </trkpt>
      <trkpt lat="43.99082" lon="3.50383">
        <ele>459</ele>
        <time>2021-06-27T16:14:02.722Z</time>
      </trkpt>
      <trkpt lat="43.99081" lon="3.50382">
        <ele>459</ele>
        <time>2021-06-27T16:14:07.713Z</time>
      </trkpt>
      <trkpt lat="43.99081" lon="3.50386">
        <ele>459</ele>
        <time>2021-06-27T16:14:12.715Z</time>
      </trkpt>
      <trkpt lat="43.99079" lon="3.50399">
        <ele>459</ele>
        <time>2021-06-27T16:14:17.714Z</time>
      </trkpt>
    </trkseg>
  </trk>
</gpx>